# Wetter Temperatur Luftdruck Luftfeuchtigkeit Sichtweite Windgeschwindigkeit Windrichtung Zeit
1 Clouds 10 1022 44 10000 0.89 112 13:50 22.04.2021
2 Clouds 9 1022 40 10000 0.89 105 13:25 22.04.2021
3 Clouds 10 1022 42 10000 0.89 115 12:56 22.04.2021
4 Clouds 9 1022 42 10000 0.89 116 12:38 22.04.2021
5 Clouds 9 1021 62 10000 4.47 277 12:19 22.04.2021
6 Clouds 8 1022 44 10000 6.33 306 11:45 22.04.2021
7 Clouds 7 1021 63 10000 4.92 257 11:22 22.04.2021
8 Clouds 6 1022 51 10000 0.45 132 10:44 22.04.2021
9 Clouds 5 1022 52 10000 0.45 105 10:21 22.04.2021
10 Clouds 5 1021 67 10000 3.58 252 09:42 22.04.2021
11 Clouds 4 1021 58 10000 0.45 112 09:19 22.04.2021
12 Clouds 4 1020 75 10000 3.58 277 08:38 22.04.2021
13 Clouds 3 1021 67 10000 4.65 298 08:18 22.04.2021
14 Clouds 2 1021 72 10000 4.59 296 07:40 22.04.2021
15 Clouds 1 1021 73 10000 3.56 287 07:20 22.04.2021
16 Clouds 1 1019 86 10000 3.26 287 06:23 22.04.2021
17 Clouds 1 1019 83 10000 0.45 300 05:25 22.04.2021
18 Clouds 1 1020 76 10000 3.32 298 04:29 22.04.2021
19 Clouds 3 1019 59 10000 2.9 305 00:55 22.04.2021
20 Clouds 4 1018 70 10000 3.12 314 23:47 21.04.2021
21 Clouds 5 1018 59 10000 3.61 323 23:26 21.04.2021
22 Clouds 6 1017 66 10000 3.61 323 22:42 21.04.2021
23 Clouds 6 1017 66 10000 3.58 265 22:24 21.04.2021
24 Clouds 7 1017 66 10000 4.37 331 21:46 21.04.2021
25 Clouds 7 1016 63 10000 0.45 113 21:24 21.04.2021
26 Clouds 8 1016 64 10000 4.78 332 20:58 21.04.2021
27 Clouds 9 1015 66 10000 0.45 113 20:21 21.04.2021
28 Clouds 10 1016 69 10000 4.47 329 19:43 21.04.2021
29 Clouds 11 1014 64 10000 0.89 90 19:24 21.04.2021
30 Clouds 12 1016 69 10000 4.02 342 18:46 21.04.2021
31 Clouds 13 1014 63 10000 0.45 113 18:27 21.04.2021
32 Clear 14 1014 44 10000 7.2 310 17:48 21.04.2021
33 Clear 14 1014 44 10000 6.69 300 17:25 21.04.2021
34 Clear 14 1014 44 10000 6.69 300 17:25 21.04.2021
35 Clear 15 1014 44 10000 5.66 310 16:55 21.04.2021
36 Clouds 16 1013 46 10000 3.58 252 16:23 21.04.2021
37 Clouds 16 1014 46 10000 3.58 247 15:42 21.04.2021
38 Clouds 16 1015 33 10000 1.34 113 14:58 21.04.2021
39 Clouds 16 1011 44 10000 4.52 315 14:40 21.04.2021
40 Clear 17 1015 35 10000 0.89 106 14:18 21.04.2021
41 Clear 16 1015 36 10000 0.89 106 13:44 21.04.2021
42 Clear 16 1014 46 10000 3.13 241 13:21 21.04.2021
43 Clear 15 1014 46 10000 4.92 308 12:31 21.04.2021
44 Clear 14 1015 55 10000 2.24 265 11:50 21.04.2021
45 Clear 13 1016 42 10000 0.45 112 11:30 21.04.2021
46 Clear 12 1016 51 10000 0.45 112 10:57 21.04.2021
47 Clear 12 1016 53 10000 0.45 112 10:36 21.04.2021
48 Clear 11 1015 79 10000 0.45 38 09:54 21.04.2021
49 Clear 9 1016 61 10000 2.39 309 09:19 21.04.2021
50 Clear 7 1015 87 10000 2.39 309 08:41 21.04.2021
51 Clear 5 1015 91 10000 1.47 301 08:20 21.04.2021
52 Clear 4 1014 89 10000 1.36 302 07:32 21.04.2021
53 Clear 3 1015 98 10000 1.22 303 06:59 21.04.2021
54 Clear 3 1014 90 10000 1.34 38 05:26 21.04.2021
55 Clear 6 1016 99 10000 0.38 264 01:33 21.04.2021
56 Clear 6 1014 83 10000 1.79 36 23:59 20.04.2021
57 Clear 6 1015 97 10000 0.31 330 23:32 20.04.2021
58 Clear 6 1016 97 10000 0.39 360 22:42 20.04.2021
59 Clear 7 1016 97 10000 0.43 8 22:23 20.04.2021
60 Clear 7 1016 96 10000 0.43 8 21:47 20.04.2021
61 Clear 8 1016 96 10000 0.46 10 21:27 20.04.2021
62 Clear 9 1016 95 10000 0.46 10 20:57 20.04.2021
63 Clear 8 1016 94 10000 0.46 10 20:38 20.04.2021
64 Clear 8 1016 94 10000 0.46 10 20:38 20.04.2021
65 Clear 11 1015 93 10000 1.12 358 20:18 20.04.2021
66 Clear 9 1015 94 10000 1.31 4 19:42 20.04.2021
67 Clear 11 1014 62 10000 0.89 161 19:24 20.04.2021
68 Clear 14 1015 95 10000 2.03 356 18:39 20.04.2021
69 Clouds 16 1013 45 10000 0.45 90 18:21 20.04.2021
70 Clouds 16 1015 61 10000 0.89 334 17:39 20.04.2021
71 Clouds 17 1013 45 10000 0.45 90 16:50 20.04.2021
72 Clouds 17 1014 53 10000 0.45 90 15:53 20.04.2021
73 Clouds 17 1014 52 10000 1.34 90 15:30 20.04.2021
74 Clouds 17 1014 52 10000 1.34 90 15:30 20.04.2021
75 Clouds 14 1016 72 10000 2.57 355 14:59 20.04.2021
76 Clouds 12 1016 67 10000 2.57 355 14:35 20.04.2021
77 Clouds 14 1015 61 10000 2.24 248 13:53 20.04.2021
78 Clouds 14 1015 63 10000 3.13 294 13:24 20.04.2021
79 Clouds 14 1016 67 10000 2.51 337 12:48 20.04.2021
80 Clear 13 1017 67 10000 2.31 333 12:22 20.04.2021
81 Clear 13 1016 72 10000 2.68 265 11:46 20.04.2021
82 Clear 13 1016 74 10000 2.24 289 11:24 20.04.2021
83 Clear 12 1017 67 10000 2.02 325 10:45 20.04.2021
84 Clear 12 1016 84 10000 1.34 243 10:23 20.04.2021
85 Clear 11 1017 69 10000 1.78 320 09:44 20.04.2021
86 Clear 9 1016 94 10000 1.44 319 08:56 20.04.2021
87 Clouds 8 1017 82 10000 1.21 315 08:29 20.04.2021
88 Clouds 6 1017 91 10000 1.21 315 07:49 20.04.2021
89 Clouds 5 1016 95 10000 1.23 327 06:54 20.04.2021
90 Clouds 4 1017 94 10000 1.2 330 05:40 20.04.2021
91 Clouds 4 1017 94 10000 0.89 37 04:42 20.04.2021
92 Clouds 5 1018 91 10000 0.95 327 02:47 20.04.2021
93 Clouds 7 1018 82 10000 1.5 347 00:49 20.04.2021
94 Clouds 7 1019 82 10000 1.57 343 23:47 19.04.2021
95 Clouds 7 1018 83 10000 1.79 29 23:27 19.04.2021
96 Clouds 8 1018 82 10000 1.37 351 22:36 19.04.2021
97 Clouds 9 1019 78 10000 0.98 358 21:59 19.04.2021
98 Clouds 10 1019 72 10000 0.98 358 21:37 19.04.2021
99 Clouds 10 1019 71 10000 0.68 25 21:19 19.04.2021
100 Clouds 11 1019 69 10000 0.68 25 20:40 19.04.2021
101 Clouds 11 1019 67 10000 0.69 26 20:20 19.04.2021
102 Clouds 11 1019 63 10000 1.1 360 19:43 19.04.2021
103 Clouds 12 1018 73 10000 1.17 51 19:24 19.04.2021
104 Clouds 12 1018 70 10000 1.17 51 18:47 19.04.2021
105 Clouds 12 1018 70 10000 1.17 51 18:47 19.04.2021
106 Clouds 12 1019 61 10000 2.48 70 18:24 19.04.2021
107 Clouds 12 1019 61 10000 2.48 70 17:56 19.04.2021
108 Clouds 12 1019 59 10000 2.48 70 17:35 19.04.2021
109 Clouds 12 1019 59 10000 2.8 74 16:59 19.04.2021
110 Clouds 12 1019 60 10000 2.8 74 16:40 19.04.2021
111 Clouds 12 1019 57 10000 3.24 75 16:21 19.04.2021
112 Clouds 12 1019 61 10000 3.24 75 15:40 19.04.2021
113 Clouds 12 1019 58 10000 3.49 76 15:20 19.04.2021
114 Clouds 12 1020 60 10000 3.49 76 14:38 19.04.2021
115 Clouds 12 1020 64 10000 0.45 135 14:19 19.04.2021
116 Clouds 11 1020 72 10000 3.42 82 13:44 19.04.2021
117 Clouds 11 1019 76 10000 0.45 194 13:24 19.04.2021
118 Clouds 10 1019 79 10000 3.44 83 12:42 19.04.2021
119 Clouds 10 1019 81 10000 3.37 83 12:23 19.04.2021
120 Clouds 10 1019 80 10000 0.45 155 11:54 19.04.2021
121 Clouds 9 1020 75 10000 3.36 82 11:25 19.04.2021
122 Clouds 10 1019 82 10000 0.45 194 10:46 19.04.2021
123 Clouds 9 1019 78 10000 0.89 148 10:25 19.04.2021
124 Clouds 8 1020 77 10000 3.06 82 09:49 19.04.2021
125 Clouds 8 1021 78 10000 2.18 84 09:28 19.04.2021
126 Clouds 8 1020 77 10000 2.18 84 08:58 19.04.2021
127 Clouds 7 1020 82 10000 1.49 72 08:26 19.04.2021
128 Clouds 6 1019 92 10000 1.79 49 07:48 19.04.2021
129 Clouds 6 1020 91 10000 1.34 69 07:19 19.04.2021
130 Clouds 6 1020 91 10000 1.34 69 07:19 19.04.2021
131 Clouds 5 1018 94 10000 0.45 59 06:28 19.04.2021
132 Clouds 6 1019 96 10000 3.58 39 02:35 19.04.2021
133 Clouds 7 1019 96 10000 0.89 37 00:49 19.04.2021
134 Clouds 8 1019 91 10000 0.45 90 23:50 18.04.2021
135 Clouds 8 1020 86 10000 1.07 19 23:18 18.04.2021
136 Clouds 8 1021 87 10000 1.07 19 22:47 18.04.2021
137 Clouds 8 1020 87 10000 1.19 39 22:29 18.04.2021
138 Clouds 8 1021 85 10000 1.19 39 21:40 18.04.2021
139 Clouds 8 1019 94 10000 1.43 37 21:18 18.04.2021
140 Rain 8 1020 83 10000 1.43 37 20:40 18.04.2021
141 Rain 8 1020 81 10000 1.36 8 20:20 18.04.2021
142 Rain 9 1020 78 10000 1.36 8 19:45 18.04.2021
143 Rain 9 1019 90 10000 1.31 358 19:27 18.04.2021
144 Clouds 9 1019 88 10000 1.31 358 18:54 18.04.2021
145 Clouds 9 1020 79 10000 1.31 358 18:31 18.04.2021
146 Clouds 10 1018 92 9987 1.75 33 17:55 18.04.2021
147 Clouds 10 1020 76 9987 1.75 33 17:37 18.04.2021
148 Clouds 10 1020 74 8170 2.56 41 17:18 18.04.2021
149 Rain 11 1018 86 8170 1.34 117 16:41 18.04.2021
150 Rain 11 1020 81 10000 2.71 26 15:59 18.04.2021
151 Rain 11 1020 81 10000 2.71 26 15:38 18.04.2021
152 Rain 11 1020 74 10000 2.21 25 15:18 18.04.2021
153 Clouds 11 1020 69 10000 2.21 25 14:41 18.04.2021
154 Clouds 11 1020 70 10000 1.97 29 14:19 18.04.2021
155 Clouds 11 1020 68 10000 1.97 29 13:50 18.04.2021
156 Clouds 11 1020 66 10000 1.97 29 13:30 18.04.2021
157 Clouds 12 1020 66 10000 1.8 39 12:39 18.04.2021
158 Clouds 11 1020 66 10000 1.62 48 11:59 18.04.2021
159 Clouds 11 1020 72 10000 0.45 112 11:40 18.04.2021
160 Clouds 10 1019 82 10000 0.89 256 11:20 18.04.2021
161 Clouds 10 1019 82 10000 1.35 48 10:44 18.04.2021
162 Clouds 6 1020 92 10000 1.7 34 10:19 18.04.2021
163 Clouds 7 1020 92 10000 1.7 34 09:41 18.04.2021
164 Clouds 6 1020 92 5257 1.43 17 09:23 18.04.2021
165 Clouds 6 1019 91 5257 1.43 17 08:47 18.04.2021
166 Clouds 6 1020 92 7240 1.59 18 08:28 18.04.2021
167 Clouds 6 1020 92 7240 1.59 18 07:41 18.04.2021
168 Clouds 5 1019 91 2866 1.38 10 06:56 18.04.2021
169 Clouds 5 1019 91 2074 1.38 7 05:27 18.04.2021
170 Rain 6 1020 89 2074 1.38 7 04:53 18.04.2021
171 Clouds 6 1019 90 10000 0.45 39 02:23 18.04.2021
172 Clouds 7 1020 89 10000 0.45 36 01:31 18.04.2021
173 Clouds 6 1021 83 10000 1.5 346 00:28 18.04.2021
174 Clouds 7 1020 89 10000 1.22 351 23:27 17.04.2021
175 Clouds 6 1022 83 10000 1.22 351 22:49 17.04.2021
176 Clouds 6 1022 83 10000 1.22 351 22:49 17.04.2021
177 Clouds 7 1021 83 10000 1.11 355 22:29 17.04.2021
178 Clouds 7 1022 76 10000 1.11 355 21:45 17.04.2021
179 Clouds 7 1020 85 10000 1.6 23 21:24 17.04.2021
180 Clouds 8 1022 73 10000 1.6 23 20:43 17.04.2021
181 Clouds 8 1022 65 10000 2.09 31 20:23 17.04.2021
182 Clouds 8 1021 63 10000 2.09 31 19:43 17.04.2021
183 Clouds 9 1021 61 10000 2.43 39 19:20 17.04.2021
184 Clouds 9 1021 60 10000 2.43 39 18:51 17.04.2021
185 Clouds 9 1021 58 10000 0.45 112 18:25 17.04.2021
186 Clouds 9 1021 57 10000 2.83 36 17:43 17.04.2021
187 Clouds 9 1020 62 10000 3.29 28 17:21 17.04.2021
188 Clouds 8 1022 56 10000 3.29 28 16:40 17.04.2021
189 Clouds 8 1022 58 10000 4.1 19 16:22 17.04.2021
190 Clouds 8 1021 64 10000 0.45 306 15:23 17.04.2021
191 Clouds 8 1022 49 10000 4.04 7 14:44 17.04.2021
192 Clouds 8 1022 47 10000 3.83 352 14:20 17.04.2021
193 Clouds 7 1022 60 10000 3.32 359 13:44 17.04.2021
194 Clouds 6 1022 64 10000 0.45 112 12:55 17.04.2021
195 Clouds 6 1022 65 10000 3.17 356 12:33 17.04.2021
196 Clouds 6 1022 64 10000 0.89 95 11:52 17.04.2021
197 Clouds 6 1022 77 10000 1.79 274 11:33 17.04.2021
198 Clouds 6 1022 77 10000 1.79 274 11:33 17.04.2021
199 Clouds 5 1022 78 10000 2.24 267 10:56 17.04.2021
200 Clouds 5 1023 63 10000 2.36 352 10:38 17.04.2021
201 Clouds 5 1023 66 8226 2.28 356 09:51 17.04.2021
202 Clouds 4 1024 69 10000 3.14 3 08:54 17.04.2021
203 Rain 4 1022 78 10000 2.78 0 08:33 17.04.2021
204 Clouds 4 1023 79 10000 0.45 286 07:46 17.04.2021
205 Clouds 3 1023 73 10000 1.59 333 06:26 17.04.2021
206 Clouds 3 1024 72 10000 1.43 340 03:47 17.04.2021
207 Clouds 5 1025 61 10000 1.54 350 00:58 17.04.2021
208 Clouds 5 1025 61 10000 1.54 350 00:37 17.04.2021
209 Clouds 5 1025 56 10000 1.03 0 00:19 17.04.2021
210 Clouds 6 1025 56 10000 1.03 0 23:35 16.04.2021
211 Clouds 6 1025 52 10000 0.51 0 22:52 16.04.2021
212 Clouds 7 1026 49 10000 1.03 0 22:25 16.04.2021
213 Clouds 8 1025 46 10000 2.06 10 21:57 16.04.2021
214 Clouds 8 1025 46 10000 2.06 10 21:39 16.04.2021
215 Clear 9 1025 43 10000 3.09 360 20:57 16.04.2021
216 Clear 9 1025 43 10000 3.09 360 20:38 16.04.2021
217 Clear 8 1025 43 10000 2.57 0 20:18 16.04.2021
218 Clear 10 1025 40 10000 1.54 20 19:47 16.04.2021
219 Clouds 8 1024 48 10000 3.95 17 19:20 16.04.2021
220 Clouds 9 1024 47 10000 4.21 19 18:28 16.04.2021
221 Clouds 9 1023 47 10000 0.45 304 17:51 16.04.2021
222 Clouds 9 1024 43 10000 4.19 22 17:20 16.04.2021
223 Clouds 10 1024 41 10000 4.19 22 16:45 16.04.2021
224 Clouds 10 1024 40 10000 0.45 247 16:26 16.04.2021
225 Clouds 10 1024 38 10000 0.45 247 15:56 16.04.2021
226 Clouds 10 1024 40 10000 4.03 22 15:36 16.04.2021
227 Clouds 10 1025 37 10000 0.45 247 14:47 16.04.2021
228 Clouds 9 1025 42 10000 4.08 20 14:28 16.04.2021
229 Clouds 10 1025 41 10000 3.98 20 13:58 16.04.2021
230 Clouds 9 1024 45 10000 0.45 336 13:23 16.04.2021
231 Clouds 9 1025 37 10000 3.87 21 12:58 16.04.2021
232 Clouds 9 1027 53 10000 3.87 21 12:39 16.04.2021
233 Clouds 8 1025 53 10000 2.24 90 12:21 16.04.2021
234 Clouds 7 1025 51 10000 0.45 267 11:42 16.04.2021
235 Clouds 7 1025 53 10000 3.58 44 11:21 16.04.2021
236 Clouds 6 1025 64 10000 3.8 23 10:42 16.04.2021
237 Clouds 4 1026 47 10000 3.57 24 10:23 16.04.2021
238 Clouds 4 1025 51 10000 3.57 24 09:44 16.04.2021
239 Clouds 4 1026 51 10000 3.36 21 09:22 16.04.2021
240 Clouds 4 1025 82 10000 0.45 269 08:45 16.04.2021
241 Clouds 3 1025 82 10000 2.74 11 08:24 16.04.2021
242 Clouds 2 1025 81 10000 2.74 11 07:45 16.04.2021
243 Clouds 2 1026 65 10000 2.33 3 07:25 16.04.2021
244 Clouds 2 1025 64 10000 2.33 3 06:41 16.04.2021
245 Clouds 2 1025 66 10000 2.35 5 05:32 16.04.2021
246 Clouds 2 1025 85 10000 2.59 5 03:31 16.04.2021
247 Rain 3 1027 67 10000 2.11 7 00:46 16.04.2021
248 Rain 3 1028 75 10000 0.45 344 00:22 16.04.2021
249 Clouds 3 1028 76 10000 2.32 11 23:56 15.04.2021
250 Clouds 3 1026 73 10000 2.32 11 23:32 15.04.2021
251 Clear 4 1028 45 10000 1.03 0 22:50 15.04.2021
252 Clouds 3 1027 69 10000 1.72 355 22:24 15.04.2021
253 Clouds 3 1026 79 10000 1.72 355 21:47 15.04.2021
254 Rain 3 1027 69 10000 1.06 25 21:29 15.04.2021
255 Clouds 3 1027 65 10000 1.06 25 20:56 15.04.2021
256 Clouds 4 1027 64 10000 2.05 31 20:36 15.04.2021
257 Clouds 4 1027 64 10000 2.4 34 20:18 15.04.2021
258 Rain 4 1026 72 10000 2.4 34 19:41 15.04.2021
259 Clouds 4 1026 72 10000 3.46 32 19:21 15.04.2021
260 Rain 5 1027 61 10000 3.46 32 18:41 15.04.2021
261 Clouds 5 1027 61 10000 0.45 157 18:19 15.04.2021
262 Rain 5 1027 70 10000 0.89 56 17:54 15.04.2021
263 Clouds 5 1028 65 10000 0.45 102 17:31 15.04.2021
264 Rain 5 1027 66 10000 1.79 37 16:44 15.04.2021
265 Rain 6 1028 54 6467 0.45 225 16:25 15.04.2021
266 Rain 6 1028 50 6467 4.04 15 15:51 15.04.2021
267 Clouds 6 1027 60 5889 1.79 250 15:28 15.04.2021
268 Clouds 6 1027 61 5889 0.45 318 14:45 15.04.2021
269 Clouds 6 1027 62 8440 4.47 20 14:27 15.04.2021
270 Clouds 6 1028 49 8008 0.45 279 13:57 15.04.2021
271 Clouds 6 1028 50 8008 4.51 19 13:39 15.04.2021
272 Clouds 6 1028 60 10000 1.34 360 12:54 15.04.2021
273 Clouds 6 1028 60 10000 0.45 17 12:27 15.04.2021
274 Clouds 6 1029 48 10000 3.97 12 11:59 15.04.2021
275 Clouds 6 1029 51 10000 0.45 22 11:39 15.04.2021
276 Clouds 6 1028 61 10000 0.45 346 11:21 15.04.2021
277 Clouds 5 1028 48 10000 1.34 72 10:43 15.04.2021
278 Clouds 4 1029 51 10000 0.45 135 10:25 15.04.2021
279 Clouds 3 1028 51 10000 0.45 157 09:33 15.04.2021
280 Clouds 2 1028 64 10000 0.45 119 08:54 15.04.2021
281 Clouds 1 1028 80 10000 2.11 9 08:35 15.04.2021
282 Clouds 0 1027 96 10000 1.46 4 07:47 15.04.2021
283 Clouds -1 1028 92 10000 1.22 6 07:20 15.04.2021
284 Clouds -1 1028 93 10000 1.22 6 06:36 15.04.2021
285 Clouds 0 1026 96 10000 1.27 14 05:47 15.04.2021
286 Clouds 0 1027 91 10000 1.37 9 03:59 15.04.2021
287 Clouds 0 1028 93 10000 1.24 11 00:23 15.04.2021
288 Clouds 0 1027 93 10000 1.24 11 23:36 14.04.2021
289 Clouds 1 1028 91 10000 1.02 355 22:59 14.04.2021
290 Clouds 1 1028 91 10000 1.02 355 22:41 14.04.2021
291 Clouds 1 1027 91 10000 0.94 353 22:21 14.04.2021
292 Clouds 2 1027 86 10000 0.94 353 21:42 14.04.2021
293 Clouds 2 1027 78 10000 1.04 11 21:22 14.04.2021
294 Clouds 3 1027 74 10000 1.56 8 20:54 14.04.2021
295 Clouds 3 1027 72 10000 1.56 8 20:31 14.04.2021
296 Clouds 3 1027 72 10000 1.56 8 20:31 14.04.2021
297 Clouds 4 988 65 10000 2.07 3 19:48 14.04.2021
298 Clouds 5 1010 62 10000 2.97 354 19:19 14.04.2021
299 Clouds 5 1023 57 10000 2.97 354 18:55 14.04.2021
300 Clouds 6 1026 70 10000 2.68 267 18:21 14.04.2021
301 Clouds 5 1023 61 10000 2.97 348 17:58 14.04.2021
302 Clouds 6 1026 70 10000 1.34 332 17:25 14.04.2021
303 Clouds 6 1026 69 10000 3.58 236 16:54 14.04.2021
304 Clouds 6 1026 65 10000 2.68 255 16:25 14.04.2021
305 Clouds 5 1027 78 10000 3.69 346 15:42 14.04.2021
306 Clouds 8 1024 56 10000 0.45 90 15:23 14.04.2021
307 Rain 7 1027 69 10000 4.02 293 14:48 14.04.2021
308 Rain 5 1024 70 10000 0.89 90 14:25 14.04.2021
309 Rain 5 1024 70 10000 0.89 90 14:25 14.04.2021
310 Clouds 5 1024 71 10000 0.89 90 13:57 14.04.2021
311 Clouds 6 1027 77 10000 3.39 338 13:36 14.04.2021
312 Clouds 6 1028 65 10000 1.79 247 12:39 14.04.2021
313 Clouds 4 1026 59 6292 2.87 332 11:43 14.04.2021
314 Clouds 4 1028 83 9913 2.24 274 11:25 14.04.2021
315 Clouds 4 1028 83 9913 2.24 274 11:25 14.04.2021
316 Clouds 4 1026 72 9913 0.45 112 10:50 14.04.2021
317 Clouds 4 1025 75 9913 0.45 112 10:31 14.04.2021
318 Clouds 2 1028 95 5378 2.64 327 09:42 14.04.2021
319 Clouds 1 1026 87 10000 2.53 319 09:21 14.04.2021
320 Clouds 1 1028 96 10000 2.53 319 08:46 14.04.2021
321 Clouds 0 1028 96 10000 1.97 308 08:22 14.04.2021
322 Clouds -1 1028 95 10000 1.26 298 07:25 14.04.2021
323 Clouds -1 1025 91 10000 1.38 296 06:26 14.04.2021
324 Clouds -1 1025 92 10000 1.48 297 04:53 14.04.2021
325 Clouds -1 1028 94 10000 1.78 297 01:52 14.04.2021
326 Clouds -1 1026 90 10000 1.75 300 00:40 14.04.2021
327 Clouds 0 1026 88 10000 1.86 303 23:59 13.04.2021
328 Clouds 0 1026 87 10000 1.86 303 23:30 13.04.2021
329 Clouds 1 1026 84 10000 1.97 308 22:44 13.04.2021
330 Clouds 1 1026 80 10000 2.1 314 22:19 13.04.2021
331 Clouds 2 1026 76 10000 2.1 314 21:47 13.04.2021
332 Clouds 3 1029 84 10000 2.21 320 21:29 13.04.2021
333 Clouds 2 1026 68 10000 0.45 112 20:43 13.04.2021
334 Clouds 3 1026 74 10000 2.88 329 20:23 13.04.2021
335 Clouds 4 1025 57 10000 0.45 112 19:50 13.04.2021
336 Clouds 5 1025 57 10000 4.02 320 19:25 13.04.2021
337 Clouds 6 1025 53 10000 4.02 320 18:44 13.04.2021
338 Clouds 6 1025 67 10000 4.4 317 18:25 13.04.2021
339 Clouds 5 1025 72 10000 4.4 317 17:40 13.04.2021
340 Rain 6 1027 72 10000 5.18 312 17:18 13.04.2021
341 Clouds 7 1028 66 10000 0.45 260 16:44 13.04.2021
342 Clouds 7 1028 73 10000 0.45 299 16:23 13.04.2021
343 Rain 7 1028 76 10000 3.13 267 15:53 13.04.2021
344 Clouds 7 1028 80 10000 5.17 311 15:34 13.04.2021
345 Clouds 7 1026 52 10000 5.29 315 14:47 13.04.2021
346 Clouds 7 1025 54 10000 4.99 311 14:22 13.04.2021
347 Clouds 7 1028 69 10000 2.68 270 13:45 13.04.2021
348 Clouds 6 1028 70 10000 3.13 272 13:25 13.04.2021
349 Clouds 5 1026 69 10000 4.99 309 12:58 13.04.2021
350 Clouds 5 1026 68 10000 4.99 309 12:31 13.04.2021
351 Clouds 4 1026 77 10000 0.45 90 11:59 13.04.2021
352 Clouds 3 1027 78 10000 4.66 303 11:31 13.04.2021
353 Clouds 3 1029 90 10000 4.66 303 11:31 13.04.2021
354 Clouds 3 1027 82 10000 0.89 90 10:56 13.04.2021
355 Clouds 3 1029 93 10000 0.89 263 10:24 13.04.2021
356 Clouds 2 1026 86 10000 3.83 292 09:59 13.04.2021
357 Clouds 1 1026 87 10000 0.45 90 09:40 13.04.2021
358 Clouds 1 1026 87 10000 0.89 90 09:18 13.04.2021
359 Clouds 0 1026 88 10000 3.42 279 08:41 13.04.2021
360 Clouds 0 1026 89 10000 2.7 265 08:20 13.04.2021
361 Clouds 0 1026 91 10000 2.7 265 07:36 13.04.2021
362 Clouds -1 1028 96 10000 2.03 252 06:51 13.04.2021
363 Clear 0 1027 96 10000 1.93 255 04:52 13.04.2021
364 Clear -1 1025 94 10000 1.68 257 02:41 13.04.2021
365 Clouds -1 1025 95 10000 1.26 255 00:39 13.04.2021
366 Clouds -1 1024 94 10000 1.39 254 23:49 12.04.2021
367 Clouds 0 1026 94 10000 1.48 257 23:27 12.04.2021
368 Clouds 0 1024 93 10000 1.48 257 22:43 12.04.2021
369 Clouds 0 1026 94 10000 1.55 266 22:23 12.04.2021
370 Clouds 0 1026 94 10000 1.55 266 22:23 12.04.2021
371 Clouds 1 1024 94 10000 1.55 266 21:46 12.04.2021
372 Clouds 1 1024 94 10000 1.55 266 21:46 12.04.2021
373 Clouds 1 1026 94 10000 1.72 267 21:21 12.04.2021
374 Clouds 2 1023 91 10000 1.55 261 20:41 12.04.2021
375 Clouds 2 1023 90 10000 1.87 270 20:23 12.04.2021
376 Clouds 3 1023 74 10000 0.45 90 19:57 12.04.2021
377 Clouds 4 1022 71 10000 1.87 270 19:38 12.04.2021
378 Rain 4 1022 70 10000 0.45 90 19:19 12.04.2021
379 Clouds 5 1022 63 10000 0.89 101 18:44 12.04.2021
380 Clouds 5 1022 63 10000 3.49 288 18:25 12.04.2021
381 Clouds 5 1025 70 10000 1.79 259 17:44 12.04.2021
382 Clouds 5 1024 72 10000 4.49 292 17:24 12.04.2021
383 Rain 5 1022 64 10000 4.49 292 16:47 12.04.2021
384 Clouds 6 1021 48 10000 4.75 286 16:27 12.04.2021
385 Clouds 7 1021 46 10000 4.75 286 15:49 12.04.2021
386 Clouds 7 1021 44 10000 0.89 100 15:31 12.04.2021
387 Clouds 6 1021 51 10000 0.45 95 14:53 12.04.2021
388 Clouds 7 1021 46 10000 4.33 283 14:35 12.04.2021
389 Clouds 6 1021 55 10000 4.03 286 13:49 12.04.2021
390 Clouds 5 1021 61 10000 4.19 289 13:29 12.04.2021
391 Clouds 4 1021 60 10000 4.19 289 12:51 12.04.2021
392 Clouds 4 1021 59 10000 0.89 90 12:27 12.04.2021
393 Clouds 4 1021 68 10000 0.45 90 11:59 12.04.2021
394 Clouds 3 1021 73 10000 4.09 295 11:24 12.04.2021
395 Clouds 3 1020 74 10000 4.09 295 10:47 12.04.2021
396 Clouds 2 1020 77 10000 3.97 303 10:27 12.04.2021
397 Clouds 2 1019 77 10000 3.97 303 09:50 12.04.2021
398 Clouds 2 1021 93 10000 3.69 303 09:21 12.04.2021
399 Snow 1 1019 86 10000 3.69 303 08:39 12.04.2021
400 Snow 1 1018 87 10000 3.45 307 07:42 12.04.2021
401 Snow 1 1020 95 10000 2.68 331 07:21 12.04.2021
402 Clouds 1 1017 88 10000 3.77 310 06:25 12.04.2021
403 Snow 1 1019 96 10000 0.89 281 05:41 12.04.2021
404 Clouds 2 1014 94 7765 3.78 306 01:40 12.04.2021
405 Clouds 2 1014 94 7765 3.78 306 01:40 12.04.2021
406 Clouds 1 1016 97 10000 3.65 309 00:26 12.04.2021
407 Snow 1 1013 95 10000 3.65 309 23:49 11.04.2021
408 Snow 1 1012 95 10000 3.65 309 23:30 11.04.2021
409 Snow 1 1012 94 10000 4.15 310 22:48 11.04.2021
410 Snow 1 1012 92 2065 3.56 304 22:26 11.04.2021
411 Snow 1 1014 96 2065 1.34 272 21:52 11.04.2021
412 Snow 1 1011 92 2065 3.56 304 21:30 11.04.2021
413 Snow 1 1011 92 2065 3.56 304 21:30 11.04.2021
414 Rain 2 1013 96 180 1.34 281 20:58 11.04.2021
415 Rain 2 1013 96 264 1.79 263 20:31 11.04.2021
416 Rain 3 1009 91 79 2.75 299 19:58 11.04.2021
417 Rain 3 1009 91 79 2.75 299 19:39 11.04.2021
418 Rain 4 1008 90 77 3.33 307 19:19 11.04.2021
419 Rain 4 1011 94 77 4.02 302 18:45 11.04.2021
420 Clouds 5 1011 93 2209 4.92 266 18:26 11.04.2021
421 Clouds 6 1007 89 2209 0.45 67 17:49 11.04.2021
422 Clouds 7 1010 94 3261 4.02 292 17:28 11.04.2021
423 Clouds 8 1010 93 3261 4.47 304 16:53 11.04.2021
424 Clouds 10 1009 94 5369 3.58 287 16:27 11.04.2021
425 Clouds 11 1006 83 5369 1.74 285 15:58 11.04.2021
426 Clouds 11 1008 93 5369 2.24 309 15:38 11.04.2021
427 Clouds 12 1005 72 6728 2.18 260 15:20 11.04.2021
428 Clouds 11 1008 87 6728 0.89 307 14:47 11.04.2021
429 Clouds 14 1005 61 10000 3.58 222 14:19 11.04.2021
430 Clouds 14 1005 66 10000 3.58 222 13:39 11.04.2021
431 Clouds 13 1005 66 10000 3.74 217 13:21 11.04.2021
432 Clouds 13 1008 80 10000 0.89 227 12:25 11.04.2021
433 Clouds 12 1005 76 10000 3.78 217 11:53 11.04.2021
434 Clouds 13 1008 81 10000 1.79 165 11:33 11.04.2021
435 Clouds 11 1007 82 10000 1.34 144 10:58 11.04.2021
436 Clouds 11 1005 99 10000 3.05 209 10:39 11.04.2021
437 Clouds 11 1006 99 10000 3.05 213 10:20 11.04.2021
438 Clouds 9 1005 99 10000 3.05 213 09:40 11.04.2021
439 Clouds 9 1005 99 10000 2.59 201 09:22 11.04.2021
440 Clouds 8 1005 99 10000 2.59 201 08:39 11.04.2021
441 Clouds 7 1007 91 10000 0.89 24 07:38 11.04.2021
442 Clouds 7 1005 99 10000 2.79 191 07:19 11.04.2021
443 Clouds 7 1007 93 7959 3.23 199 05:46 11.04.2021
444 Clouds 7 1007 92 10000 2.85 187 05:22 11.04.2021
445 Rain 7 1008 93 10000 0.89 67 04:35 11.04.2021
446 Clouds 7 1006 99 7252 2.67 166 03:35 11.04.2021
447 Clouds 6 1008 99 7221 2.37 155 00:51 11.04.2021
448 Rain 7 1010 95 5318 1.34 59 00:25 11.04.2021
449 Rain 7 1011 96 5318 0.89 61 23:44 10.04.2021
450 Rain 6 1011 95 4828 1.34 76 22:55 10.04.2021
451 Rain 6 1009 99 2327 3.12 129 22:28 10.04.2021
452 Rain 6 1009 98 2327 3.12 129 21:53 10.04.2021
453 Rain 6 1010 98 1707 3.23 116 21:24 10.04.2021
454 Rain 6 1010 98 1616 2.79 116 20:55 10.04.2021
455 Rain 6 1009 97 1616 2.79 116 20:34 10.04.2021
456 Rain 6 1010 96 1766 2.51 109 19:59 10.04.2021
457 Rain 6 1011 93 1766 0.45 78 19:41 10.04.2021
458 Clouds 6 1010 95 1940 2.4 109 19:23 10.04.2021
459 Rain 6 1012 92 1940 2.4 109 18:41 10.04.2021
460 Rain 7 1010 92 3316 2.26 105 18:23 10.04.2021
461 Rain 7 1010 92 3316 2.26 105 18:23 10.04.2021
462 Rain 7 1010 88 3316 2.26 105 17:35 10.04.2021
463 Clouds 7 1013 84 3402 2.24 128 16:42 10.04.2021
464 Clouds 7 1011 79 3487 1.89 101 16:21 10.04.2021
465 Clouds 7 1011 90 3487 1.89 101 15:44 10.04.2021
466 Clouds 7 1014 87 4911 0.45 92 14:54 10.04.2021
467 Clouds 7 1011 84 4911 1.75 94 14:34 10.04.2021
468 Clouds 7 1013 86 2105 0.45 90 13:56 10.04.2021
469 Clouds 7 1014 89 2070 1.69 91 13:36 10.04.2021
470 Clouds 7 1014 88 2004 1.57 80 12:43 10.04.2021
471 Clouds 7 1014 88 2004 1.57 80 12:43 10.04.2021
472 Clouds 6 1014 88 1972 1.57 67 12:20 10.04.2021
473 Clouds 7 1014 91 1972 1.57 67 11:45 10.04.2021
474 Clouds 6 1013 92 1959 1.54 54 11:22 10.04.2021
475 Clouds 6 1013 93 1959 1.54 54 10:51 10.04.2021
476 Clouds 6 1013 93 1959 1.54 54 10:30 10.04.2021
477 Clouds 5 1013 96 1967 1.53 37 09:44 10.04.2021
478 Clouds 5 1012 95 2007 0.89 21 09:19 10.04.2021
479 Clouds 4 1012 96 1791 1.82 36 08:36 10.04.2021
480 Clouds 4 1012 96 1495 2.06 25 08:18 10.04.2021
481 Clouds 4 1011 93 1495 2.01 24 07:26 10.04.2021
482 Clouds 4 1008 97 1495 2.01 24 06:42 10.04.2021
483 Rain 4 1011 92 4142 1.67 14 05:36 10.04.2021
484 Rain 5 1011 88 10000 0.45 40 03:42 10.04.2021
485 Rain 5 1009 79 10000 1.08 52 02:48 10.04.2021
486 Clouds 5 1012 81 10000 2.68 38 01:28 10.04.2021
487 Clouds 5 1011 78 10000 0.45 215 00:37 10.04.2021
488 Clouds 5 1012 80 10000 3.13 25 23:58 09.04.2021
489 Clouds 5 1010 78 10000 1.16 238 23:34 09.04.2021
490 Clouds 6 1012 78 10000 2.24 41 22:56 09.04.2021
491 Clouds 6 1012 78 10000 2.24 36 22:36 09.04.2021
492 Clouds 6 1012 76 10000 2.24 36 21:41 09.04.2021
493 Clouds 6 1012 75 10000 1.79 35 21:22 09.04.2021
494 Clouds 7 1012 73 10000 1.34 38 20:59 09.04.2021
495 Clouds 8 1012 72 10000 1.72 245 20:40 09.04.2021
496 Clouds 10 1011 60 10000 2.5 250 20:21 09.04.2021
497 Clouds 11 1012 60 10000 1.34 292 19:43 09.04.2021
498 Clouds 11 1012 60 10000 1.34 292 19:23 09.04.2021
499 Clouds 11 1011 55 10000 0.45 270 18:44 09.04.2021
500 Clouds 11 1011 54 10000 0.89 270 18:25 09.04.2021
501 Clouds 11 1012 56 10000 2.68 248 17:49 09.04.2021
502 Clouds 11 1012 56 10000 2.68 248 17:31 09.04.2021
503 Clouds 11 1012 55 10000 1.79 210 16:55 09.04.2021
504 Clouds 11 1012 55 10000 1.34 187 16:32 09.04.2021
505 Clouds 11 1012 54 10000 2.24 224 15:50 09.04.2021
506 Clouds 11 1011 51 10000 1.34 270 15:25 09.04.2021
507 Clouds 11 1013 54 10000 2.24 244 14:47 09.04.2021
508 Clouds 11 1013 53 10000 4.02 227 14:29 09.04.2021
509 Clouds 11 1013 54 10000 5.81 251 13:49 09.04.2021
510 Clouds 11 1013 54 10000 5.36 199 13:23 09.04.2021
511 Clouds 10 1011 58 10000 5.71 241 12:49 09.04.2021
512 Clouds 10 1014 58 10000 4.02 242 12:30 09.04.2021
513 Clouds 9 1014 59 10000 2.24 227 11:44 09.04.2021
514 Clouds 9 1014 60 10000 3.58 265 11:21 09.04.2021
515 Clouds 7 1013 62 10000 1.34 225 10:45 09.04.2021
516 Clouds 6 1014 64 10000 1.79 215 10:20 09.04.2021
517 Clouds 4 1013 67 10000 1.34 225 09:30 09.04.2021
518 Clouds 3 1015 74 10000 4.12 223 08:57 09.04.2021
519 Clouds 2 1013 75 10000 4.12 223 08:37 09.04.2021
520 Clouds 1 1013 80 10000 3.82 220 07:35 09.04.2021
521 Clouds 1 1013 82 10000 3.7 218 06:34 09.04.2021
522 Clouds 0 1015 84 10000 2.68 36 05:53 09.04.2021
523 Clouds 0 1017 85 10000 2.68 40 03:50 09.04.2021
524 Clouds 0 1018 84 10000 2.24 36 01:32 09.04.2021
525 Clouds 1 1017 80 10000 2.5 204 00:37 09.04.2021
526 Clouds 1 1017 74 10000 0.45 293 00:18 09.04.2021
527 Clouds 1 1018 81 10000 2.3 204 23:18 08.04.2021
528 Clouds 1 1020 82 10000 0.89 42 22:42 08.04.2021
529 Clouds 1 1020 81 10000 1.34 42 22:21 08.04.2021
530 Clouds 1 1019 69 10000 2.21 204 21:55 08.04.2021
531 Clouds 1 1019 69 10000 0.45 225 21:36 08.04.2021
532 Clouds 1 1022 74 10000 1.34 96 21:18 08.04.2021
533 Clouds 2 1022 70 10000 0.45 97 20:47 08.04.2021
534 Clouds 3 1019 67 10000 2.31 223 20:25 08.04.2021
535 Clouds 4 1020 63 10000 0.89 270 19:45 08.04.2021
536 Clouds 5 1020 61 10000 1.34 270 19:19 08.04.2021
537 Clouds 5 1020 62 10000 1.34 270 18:46 08.04.2021
538 Clouds 5 1019 71 10000 4.29 253 18:21 08.04.2021
539 Clouds 5 1024 59 10000 4.29 253 17:49 08.04.2021
540 Clouds 5 1024 62 10000 4.42 260 17:24 08.04.2021
541 Clouds 4 1021 65 10000 1.34 270 16:51 08.04.2021
542 Clouds 5 1021 63 10000 1.34 270 16:31 08.04.2021
543 Clouds 5 1020 71 10000 5.43 262 15:48 08.04.2021
544 Clouds 5 1021 63 5962 0.89 270 15:28 08.04.2021
545 Clouds 4 1021 63 5962 0.89 270 14:46 08.04.2021
546 Clouds 4 1021 65 5916 1.34 293 14:27 08.04.2021
547 Clouds 4 1021 65 5916 2.24 270 13:57 08.04.2021
548 Clouds 4 1021 66 5916 1.34 270 13:39 08.04.2021
549 Clouds 4 1020 73 6404 5.35 272 13:21 08.04.2021
550 Clouds 4 1020 84 6404 5.35 272 12:38 08.04.2021
551 Clouds 3 1021 79 8365 0.89 293 12:18 08.04.2021
552 Clouds 3 1021 83 8365 0.89 270 11:43 08.04.2021
553 Rain 2 1021 87 5643 0.45 270 10:59 08.04.2021
554 Snow 2 1020 93 5643 0.45 315 10:36 08.04.2021
555 Snow 2 1020 84 6492 1.34 225 10:18 08.04.2021
556 Snow 1 1020 87 6492 0.45 270 09:41 08.04.2021
557 Snow 1 1018 95 6653 0.45 311 08:46 08.04.2021
558 Snow 1 1020 88 3731 0.45 270 08:28 08.04.2021
559 Clouds 0 1019 89 3731 0.45 270 07:57 08.04.2021
560 Snow 0 1017 93 3731 1.34 305 07:35 08.04.2021
561 Clouds 0 1015 94 4029 0.89 322 03:54 08.04.2021
562 Snow 1 1014 92 5894 0.89 284 01:19 08.04.2021
563 Snow 1 1014 95 4922 0.45 271 00:19 08.04.2021
564 Snow 1 1019 85 4922 5.95 286 23:41 07.04.2021
565 Snow 1 1013 95 3373 1.34 350 23:21 07.04.2021
566 Snow 1 1014 92 3373 5.81 288 22:47 07.04.2021
567 Snow 1 1019 90 3092 5.91 290 22:29 07.04.2021
568 Snow 1 1014 91 3092 0.45 293 21:46 07.04.2021
569 Snow 2 1018 91 4707 6.18 291 21:24 07.04.2021
570 Snow 2 1011 96 4707 0.89 311 20:45 07.04.2021
571 Clouds 2 1012 85 9885 0.89 270 20:21 07.04.2021
572 Clouds 2 1012 87 9885 0.45 270 19:45 07.04.2021
573 Clouds 2 1012 88 5397 0.89 270 19:26 07.04.2021
574 Clouds 2 1011 91 5397 0.89 270 18:48 07.04.2021
575 Clouds 2 1011 92 1605 0.89 248 18:20 07.04.2021
576 Rain 2 1011 92 1605 0.89 270 17:55 07.04.2021
577 Rain 2 1011 92 1605 0.45 225 17:37 07.04.2021
578 Rain 3 1011 91 78 0.89 270 16:58 07.04.2021
579 Rain 3 1009 89 78 4.64 279 16:38 07.04.2021
580 Clouds 4 1010 81 5990 1.34 270 16:19 07.04.2021
581 Clouds 4 1009 83 5990 5.78 285 15:39 07.04.2021
582 Clouds 3 1010 79 10000 2.24 225 14:58 07.04.2021
583 Clouds 2 1010 82 10000 1.79 225 14:32 07.04.2021
584 Clouds 2 1010 87 5789 1.34 270 13:53 07.04.2021
585 Clouds 2 1010 87 4400 2.24 270 13:27 07.04.2021
586 Snow 2 1010 87 4400 1.79 270 12:56 07.04.2021
587 Snow 2 1010 87 1472 1.79 270 12:25 07.04.2021
588 Snow 1 1010 85 1472 1.34 270 11:56 07.04.2021
589 Clouds 1 1010 84 5427 1.34 270 11:28 07.04.2021
590 Clouds 1 1014 79 5427 5.55 254 10:59 07.04.2021
591 Clouds 1 1010 82 8194 1.34 293 10:27 07.04.2021
592 Clouds 0 1014 81 8194 5.52 257 09:44 07.04.2021
593 Clouds 0 1009 82 8133 1.34 270 09:25 07.04.2021
594 Clouds -1 1008 90 8133 5.17 257 08:47 07.04.2021
595 Clouds -1 1012 90 10000 1.34 207 08:22 07.04.2021
596 Clouds -1 1012 90 10000 1.34 207 08:22 07.04.2021
597 Clouds -1 1014 83 10000 3.99 261 07:43 07.04.2021
598 Clouds -1 1007 94 10000 2.24 316 07:24 07.04.2021
599 Clouds -1 1007 94 10000 2.24 316 06:33 07.04.2021
600 Snow -1 1006 96 5354 1.34 311 04:23 07.04.2021
601 Snow -1 1009 92 173 1.34 285 00:31 07.04.2021
602 Clouds -1 1006 89 3652 0.45 270 23:47 06.04.2021
603 Clouds -1 1009 92 9241 0.45 234 23:22 06.04.2021
604 Clouds -1 1006 90 9241 0.45 270 22:48 06.04.2021
605 Clouds -1 1006 91 10000 0.45 270 22:19 06.04.2021
606 Clouds 0 1007 84 10000 4.02 270 21:43 06.04.2021
607 Clouds 1 1007 84 10000 4.02 270 21:23 06.04.2021
608 Clouds 0 1007 84 10000 4.02 270 20:54 06.04.2021
609 Clouds 0 1007 84 10000 4.02 270 20:25 06.04.2021
610 Clouds 0 1007 84 10000 4.02 270 19:58 06.04.2021
611 Clouds 0 1007 84 10000 4.02 270 19:38 06.04.2021
612 Snow 0 1007 84 10000 4.02 270 19:19 06.04.2021
613 Snow 0 1007 84 10000 4.02 270 18:41 06.04.2021
614 Snow 0 1007 84 10000 4.02 270 18:19 06.04.2021
615 Snow 1 1005 90 10000 0.89 270 17:44 06.04.2021
616 Snow 1 1003 71 4849 5.92 284 17:19 06.04.2021
617 Snow 2 1007 84 4849 4.02 270 16:46 06.04.2021
618 Snow 2 1007 84 3528 4.02 270 16:26 06.04.2021
619 Snow 2 1007 84 3077 4.02 270 15:27 06.04.2021
620 Rain 2 1007 84 3077 4.02 270 14:45 06.04.2021
621 Snow 2 1007 84 3652 4.02 270 14:26 06.04.2021
622 Snow 1 1004 77 3670 0.89 333 13:47 06.04.2021
623 Snow 2 1007 84 5631 4.02 270 13:27 06.04.2021
624 Snow 2 1007 84 5631 4.02 270 12:55 06.04.2021
625 Snow 1 1007 84 5631 4.02 270 12:36 06.04.2021
626 Snow 1 1007 84 6147 4.02 270 12:18 06.04.2021
627 Snow 1 1006 77 6147 1.34 270 11:43 06.04.2021
628 Snow 1 1007 84 5634 4.02 270 11:19 06.04.2021
629 Snow 0 1007 84 5634 4.02 270 10:43 06.04.2021
630 Snow 0 1007 84 3854 4.02 270 10:22 06.04.2021
631 Snow 0 1007 84 3854 4.02 270 09:45 06.04.2021
632 Snow -1 1007 84 1649 4.02 270 09:23 06.04.2021
633 Snow -1 1009 86 361 2.68 263 08:29 06.04.2021
634 Snow -1 1004 96 361 3.76 285 07:32 06.04.2021
635 Clouds -1 1004 96 7358 3.67 286 06:54 06.04.2021
636 Snow -1 1005 92 3474 3.25 296 04:52 06.04.2021
637 Snow -1 1008 85 4076 2.68 262 00:59 06.04.2021
638 Snow -1 1009 83 4076 1.79 235 00:38 06.04.2021
639 Clouds -1 1006 80 10000 0.89 270 00:20 06.04.2021
640 Clouds -1 1005 85 10000 3.71 244 23:41 05.04.2021
641 Clouds -1 1009 79 10000 3.13 226 23:18 05.04.2021
642 Snow -1 1006 78 10000 1.79 270 22:41 05.04.2021
643 Clouds -1 1006 79 10000 0.89 270 22:22 05.04.2021
644 Clouds -1 1007 86 10000 2.68 247 21:39 05.04.2021
645 Clouds -1 1007 84 10000 3.58 287 21:19 05.04.2021
646 Snow 0 1006 73 10000 4.02 287 20:42 05.04.2021
647 Snow 0 1006 73 10000 4.02 287 20:42 05.04.2021
648 Snow 0 1004 69 10000 4.35 284 20:22 05.04.2021
649 Clouds 1 1008 63 10000 4.02 289 19:39 05.04.2021
650 Snow 1 1005 69 10000 4.92 290 19:19 05.04.2021
651 Snow 2 1005 68 10000 5.36 280 18:42 05.04.2021
652 Snow 2 1002 69 10000 5.78 296 18:20 05.04.2021
653 Snow 1 1004 78 10000 4.92 258 17:47 05.04.2021
654 Snow 1 1004 86 5494 4.02 272 17:24 05.04.2021
655 Snow 0 1001 85 5494 6.62 306 16:56 05.04.2021
656 Snow 1 1004 86 5494 4.02 289 16:37 05.04.2021
657 Snow 0 1003 87 10000 4.02 303 16:18 05.04.2021
658 Snow 1 1003 89 10000 5.36 284 15:38 05.04.2021
659 Snow 0 1000 88 8585 7.35 299 15:20 05.04.2021
660 Snow 1 1002 93 9549 4.47 306 14:36 05.04.2021
661 Snow 1 1002 93 8585 4.47 306 14:36 05.04.2021
662 Snow 1 1002 93 2156 5.36 273 13:54 05.04.2021
663 Rain 2 1001 94 551 4.92 270 13:29 05.04.2021
664 Clouds 2 998 94 551 0.45 277 12:47 05.04.2021
665 Clouds 2 998 94 551 0.45 277 12:47 05.04.2021
666 Rain 2 1001 95 320 4.47 297 12:26 05.04.2021
667 Rain 2 998 93 320 0.45 38 11:52 05.04.2021
668 Rain 2 1000 94 320 3.58 300 11:30 05.04.2021
669 Rain 2 997 95 133 6.13 315 10:56 05.04.2021
670 Rain 2 997 95 133 6.13 315 10:56 05.04.2021
671 Rain 5 997 95 133 6.13 315 10:35 05.04.2021
672 Rain 4 1000 91 69 2.24 217 09:49 05.04.2021
673 Rain 4 997 87 5449 7.35 253 09:26 05.04.2021
674 Rain 4 1001 85 5449 3.58 243 08:54 05.04.2021
675 Rain 3 1000 82 1209 1.79 270 08:36 05.04.2021
676 Rain 3 1002 86 10000 1.34 264 08:18 05.04.2021
677 Clouds 3 1002 86 10000 0.89 269 07:33 05.04.2021
678 Clouds 2 1008 91 10000 4.96 234 03:42 05.04.2021
679 Clouds 2 1011 90 10000 4 237 00:57 05.04.2021
680 Clouds 2 1010 88 10000 3.47 238 00:19 05.04.2021
681 Clouds 3 1013 88 10000 3.47 238 23:32 04.04.2021
682 Clouds 3 1014 87 10000 3.17 245 22:58 04.04.2021
683 Clouds 3 1013 78 10000 0.89 225 22:40 04.04.2021
684 Clouds 3 1015 86 10000 3 246 22:21 04.04.2021
685 Clouds 4 1015 77 10000 0.89 270 21:22 04.04.2021
686 Clouds 4 1016 80 10000 1.34 260 20:47 04.04.2021
687 Clouds 4 1014 81 10000 3.32 271 20:23 04.04.2021
688 Clouds 5 1017 78 10000 1.79 248 19:41 04.04.2021
689 Clouds 5 1017 76 10000 2.24 234 19:20 04.04.2021
690 Clouds 5 1017 76 10000 3.13 259 18:56 04.04.2021
691 Clouds 5 1015 76 10000 3.29 289 18:36 04.04.2021
692 Clouds 6 1015 75 10000 3.98 287 18:18 04.04.2021
693 Clouds 6 1018 73 10000 0.89 270 17:25 04.04.2021
694 Clouds 6 1018 73 10000 0.89 270 17:25 04.04.2021
695 Clouds 6 1018 72 10000 1.79 276 16:57 04.04.2021
696 Clouds 6 1019 69 10000 3.13 254 16:39 04.04.2021
697 Clouds 7 1019 68 10000 2.68 282 15:54 04.04.2021
698 Clouds 7 1020 68 10000 3.13 280 15:32 04.04.2021
699 Clouds 6 1021 69 10000 3.58 272 14:40 04.04.2021
700 Clouds 6 1021 70 10000 3.13 275 14:21 04.04.2021
701 Clouds 5 1021 71 10000 2.24 276 13:27 04.04.2021
702 Clouds 5 1022 71 10000 2.24 286 12:52 04.04.2021
703 Clouds 5 1022 73 10000 2.68 282 12:28 04.04.2021
704 Clouds 4 1022 73 10000 2.24 290 11:50 04.04.2021
705 Clouds 4 1022 74 10000 3.13 254 11:30 04.04.2021
706 Clouds 4 1022 75 10000 2.24 288 10:55 04.04.2021
707 Clouds 4 1022 75 10000 2.24 288 10:32 04.04.2021
708 Clouds 4 1020 78 10000 3.29 284 09:52 04.04.2021
709 Clouds 4 1022 82 8396 1.79 290 09:23 04.04.2021
710 Clouds 3 1022 91 8396 0.89 286 08:49 04.04.2021
711 Clouds 3 1022 80 8396 2.5 279 08:31 04.04.2021
712 Clear 3 1020 83 10000 1.6 281 07:21 04.04.2021
713 Clear 3 1020 83 10000 1.6 281 06:33 04.04.2021
714 Clear 2 1023 85 10000 0.81 273 03:25 04.04.2021
715 Clouds 3 1021 78 10000 0.7 21 01:21 04.04.2021
716 Clouds 4 1026 78 10000 1.34 313 00:19 04.04.2021
717 Clouds 4 1024 68 10000 0.73 27 23:47 03.04.2021
718 Clouds 4 1025 69 10000 0.88 36 23:18 03.04.2021
719 Clouds 4 1025 65 10000 0.89 355 22:48 03.04.2021
720 Clouds 5 1021 68 10000 1.02 41 22:19 03.04.2021
721 Clouds 5 1020 66 10000 1.02 41 21:47 03.04.2021
722 Clouds 5 1020 66 10000 1.02 41 21:47 03.04.2021
723 Clouds 6 1020 62 10000 1.29 40 21:23 03.04.2021
724 Clouds 7 1024 62 10000 1.34 355 20:49 03.04.2021
725 Clouds 7 1024 62 10000 0.89 321 20:27 03.04.2021
726 Clear 10 1023 37 10000 4.12 340 19:50 03.04.2021
727 Clouds 9 1022 51 10000 4.08 5 19:24 03.04.2021
728 Clouds 9 1020 44 10000 0.89 4 18:48 03.04.2021
729 Clouds 10 1022 49 10000 4.08 5 18:30 03.04.2021
730 Clouds 10 1022 43 10000 0.45 90 17:51 03.04.2021
731 Clouds 10 1020 43 10000 1.79 32 17:25 03.04.2021
732 Clouds 10 1023 46 10000 1.79 274 16:51 03.04.2021
733 Clouds 9 1023 56 10000 3.58 277 16:21 03.04.2021
734 Clouds 10 1020 46 10000 5.76 352 15:50 03.04.2021
735 Clouds 10 1023 53 10000 2.68 257 15:22 03.04.2021
736 Clouds 10 1023 50 10000 0.45 343 14:44 03.04.2021
737 Clouds 10 1023 50 10000 0.45 343 14:44 03.04.2021
738 Clouds 9 1023 50 10000 2.68 355 14:23 03.04.2021
739 Clouds 9 1023 55 10000 4.47 340 13:50 03.04.2021
740 Clouds 9 1023 56 10000 3.58 301 13:24 03.04.2021
741 Clouds 9 1024 66 10000 3.13 283 12:56 03.04.2021
742 Clouds 8 1024 70 10000 2.68 283 12:32 03.04.2021
743 Clouds 6 1024 78 10000 2.68 269 11:39 03.04.2021
744 Clouds 5 1021 80 10000 3.12 327 11:19 03.04.2021
745 Clouds 4 1024 82 10000 3.12 327 10:43 03.04.2021
746 Clouds 4 1021 82 10000 2.77 321 10:22 03.04.2021
747 Clouds 4 1020 82 10000 3.1 320 09:29 03.04.2021
748 Clouds 4 1023 89 10000 0.45 272 08:58 03.04.2021
749 Clouds 3 1022 87 10000 2.97 319 08:31 03.04.2021
750 Clouds 3 1021 88 10000 2.24 289 07:29 03.04.2021
751 Clouds 3 1021 85 10000 2.35 307 06:50 03.04.2021
752 Clouds 3 1020 90 2000 1.34 306 03:53 03.04.2021
753 Clouds 4 1017 84 1937 2.63 319 02:53 03.04.2021
754 Rain 4 1020 84 9414 0.89 266 02:27 03.04.2021
755 Clouds 4 1020 84 10000 4.37 321 00:31 03.04.2021
756 Clouds 4 1020 83 10000 2.24 267 23:55 02.04.2021
757 Clouds 4 1020 84 10000 5.26 321 23:27 02.04.2021
758 Clouds 4 1019 82 10000 3.13 278 22:56 02.04.2021
759 Clouds 5 1019 84 10000 0.89 274 22:37 02.04.2021
760 Clouds 5 1019 84 10000 1.79 255 21:54 02.04.2021
761 Clouds 5 1019 83 10000 2.24 251 21:36 02.04.2021
762 Clouds 5 1019 81 10000 1.79 248 21:18 02.04.2021
763 Clouds 5 1019 81 10000 1.79 248 21:18 02.04.2021
764 Clouds 5 1016 77 10000 5.08 319 20:36 02.04.2021
765 Clouds 5 1016 77 10000 5.56 320 20:18 02.04.2021
766 Clouds 5 1019 76 10000 4.47 275 19:40 02.04.2021
767 Clouds 5 1019 75 10000 4.47 265 19:21 02.04.2021
768 Clouds 7 1019 72 10000 0.45 270 18:42 02.04.2021
769 Clouds 7 1019 75 10000 3.58 346 18:23 02.04.2021
770 Clouds 6 1019 73 10000 3.58 266 17:45 02.04.2021
771 Clouds 8 1020 71 10000 4.92 293 17:22 02.04.2021
772 Clouds 10 1019 67 10000 4.02 278 16:23 02.04.2021
773 Clouds 10 1019 70 10000 5.36 302 15:43 02.04.2021
774 Clouds 9 1020 61 10000 5.36 326 15:19 02.04.2021
775 Clouds 9 1020 61 10000 5.36 258 14:33 02.04.2021
776 Clouds 8 1020 67 10000 3.58 258 13:47 02.04.2021
777 Clouds 8 1020 67 10000 3.58 258 13:27 02.04.2021
778 Clouds 7 1021 75 10000 2.24 304 12:53 02.04.2021
779 Clouds 6 1021 71 10000 0.45 90 12:20 02.04.2021
780 Clouds 6 1021 83 10000 1.79 296 11:58 02.04.2021
781 Clouds 5 1021 83 10000 1.34 267 11:21 02.04.2021
782 Clouds 5 1021 85 10000 1.34 272 10:51 02.04.2021
783 Clouds 4 1021 86 10000 1.79 266 10:33 02.04.2021
784 Clouds 4 1021 86 10000 1.79 277 09:57 02.04.2021
785 Clouds 4 1021 84 10000 1.79 16 09:37 02.04.2021
786 Clouds 4 1018 81 10000 1.93 342 09:18 02.04.2021
787 Clouds 4 1018 84 10000 1.93 342 08:37 02.04.2021
788 Clouds 4 1021 91 10000 0.45 284 07:52 02.04.2021
789 Clouds 4 1021 87 10000 0.45 322 07:19 02.04.2021
790 Clouds 4 1021 87 10000 0.45 322 06:31 02.04.2021
791 Clouds 6 1021 85 10000 1.34 90 03:24 02.04.2021
792 Clouds 6 1021 80 10000 0.45 265 00:56 02.04.2021
793 Clouds 6 1021 80 10000 0.45 265 00:36 02.04.2021
794 Clouds 6 1021 75 10000 0.89 90 23:43 01.04.2021
795 Clouds 7 1020 77 10000 0.45 302 23:25 01.04.2021
796 Clouds 7 1020 77 10000 2.24 306 22:22 01.04.2021
797 Clouds 8 1016 70 10000 3.8 358 21:56 01.04.2021
798 Clouds 8 1019 73 10000 3.8 358 21:38 01.04.2021
799 Clouds 8 1016 70 10000 4.53 358 21:18 01.04.2021
800 Clouds 9 1019 68 10000 0.89 276 20:33 01.04.2021
801 Clouds 10 1018 64 10000 2.68 303 19:58 01.04.2021
802 Clouds 10 1020 67 10000 1.79 290 19:39 01.04.2021
803 Clouds 12 1018 60 10000 2.24 287 18:54 01.04.2021
804 Clouds 13 1014 65 10000 4.5 326 18:36 01.04.2021
805 Clouds 14 1018 65 10000 1.79 296 18:18 01.04.2021
806 Clouds 15 1017 63 10000 4.02 237 17:39 01.04.2021
807 Clouds 15 1017 61 10000 4.92 267 17:20 01.04.2021
808 Clouds 16 1017 61 10000 5.36 324 16:44 01.04.2021
809 Clouds 16 1018 64 10000 5.36 317 15:57 01.04.2021
810 Clouds 17 1017 49 10000 4.47 313 15:24 01.04.2021
811 Clouds 18 1017 48 10000 1.79 294 14:57 01.04.2021
812 Clouds 18 1017 43 10000 1.79 246 14:38 01.04.2021
813 Clouds 18 1017 43 10000 1.79 246 14:19 01.04.2021
814 Clouds 18 1012 41 10000 0.89 335 13:47 01.04.2021
815 Clouds 18 1017 48 10000 2.68 324 13:27 01.04.2021
816 Clouds 18 1017 53 10000 2.24 265 12:46 01.04.2021
817 Clouds 18 1017 56 10000 2.24 268 12:28 01.04.2021
818 Clouds 17 1016 56 10000 0.45 270 11:44 01.04.2021
819 Clouds 15 1017 56 10000 3.4 301 11:19 01.04.2021
820 Clouds 14 1017 70 10000 0.45 263 10:47 01.04.2021
821 Clouds 14 1017 70 10000 0.45 263 10:28 01.04.2021
822 Clouds 13 1016 69 10000 1.34 46 09:36 01.04.2021
823 Rain 12 1017 77 10000 1.49 285 08:58 01.04.2021
824 Rain 12 1016 68 10000 1.49 285 08:33 01.04.2021
825 Clouds 11 1016 71 10000 1.47 264 07:23 01.04.2021
826 Clouds 9 1017 76 10000 1.47 264 06:58 01.04.2021
827 Clouds 10 1017 72 10000 1.39 261 06:27 01.04.2021
828 Clear 10 1017 64 10000 1.34 38 03:25 01.04.2021
829 Clear 12 1019 53 10000 1.79 43 00:28 01.04.2021
830 Clear 13 1019 51 10000 2.68 49 23:44 31.03.2021
831 Clear 14 1019 50 10000 3.13 42 22:58 31.03.2021
832 Clear 14 1019 47 10000 3.13 48 22:39 31.03.2021
833 Clear 15 1019 47 10000 3.13 49 22:20 31.03.2021
834 Clear 16 1019 46 10000 3.13 17 21:44 31.03.2021
835 Clear 16 1019 43 10000 2.24 36 21:20 31.03.2021
836 Clear 15 1018 43 10000 1.16 225 20:42 31.03.2021
837 Clear 16 1018 43 10000 1.23 231 20:23 31.03.2021
838 Clear 19 1019 28 10000 3.09 300 19:46 31.03.2021
839 Clear 20 1017 34 10000 0.45 285 19:26 31.03.2021
840 Clear 22 1019 25 10000 4.12 280 18:59 31.03.2021
841 Clear 22 1019 25 10000 4.12 280 18:41 31.03.2021
842 Clear 24 1019 20 10000 3.09 260 17:53 31.03.2021
843 Clear 24 1020 24 10000 0.89 228 17:34 31.03.2021
844 Clear 24 1020 23 10000 1.34 276 16:57 31.03.2021
845 Clear 24 1020 26 10000 1.34 254 16:37 31.03.2021
846 Clear 24 1020 25 10000 0.89 240 16:19 31.03.2021
847 Clear 24 1021 29 10000 2.75 240 15:48 31.03.2021
848 Clear 24 1021 25 10000 1.34 293 15:19 31.03.2021
849 Clear 23 1021 27 10000 1.79 225 14:43 31.03.2021
850 Clouds 23 1021 29 10000 0.45 293 14:20 31.03.2021
851 Clouds 22 1021 30 10000 1.79 248 13:41 31.03.2021
852 Clouds 22 1023 35 10000 0.89 167 12:42 31.03.2021
853 Clouds 20 1022 36 10000 0.45 225 12:20 31.03.2021
854 Clouds 20 1023 38 10000 2.12 219 11:51 31.03.2021
855 Clouds 19 1024 39 10000 0.45 167 11:20 31.03.2021
856 Clouds 17 1024 41 10000 1.8 210 10:47 31.03.2021
857 Clouds 16 1023 52 10000 0.45 270 10:25 31.03.2021
858 Clouds 16 1023 52 10000 0.45 270 10:25 31.03.2021
859 Clouds 14 1024 51 10000 1.42 196 09:42 31.03.2021
860 Clouds 11 1024 55 10000 2.24 38 08:55 31.03.2021
861 Clouds 10 1024 59 10000 3.13 40 08:37 31.03.2021
862 Clouds 10 1024 61 10000 3.13 40 07:52 31.03.2021
863 Clouds 10 1025 61 10000 3.58 43 06:46 31.03.2021
864 Clouds 11 1026 55 10000 3.13 56 03:51 31.03.2021
865 Clouds 9 1027 50 10000 3.13 46 01:43 31.03.2021
866 Clouds 10 1028 59 10000 1.07 157 00:49 31.03.2021
867 Clouds 11 1027 48 10000 4.02 37 00:21 31.03.2021
868 Clouds 11 1027 47 10000 4.02 40 23:41 30.03.2021
869 Clouds 12 1027 46 10000 3.58 42 22:59 30.03.2021
870 Clouds 12 1027 45 10000 4.02 40 22:40 30.03.2021
871 Clouds 12 1027 45 10000 4.02 40 22:40 30.03.2021
872 Clouds 13 1027 44 10000 4.02 39 22:21 30.03.2021
873 Clouds 13 1028 42 10000 3.13 39 21:49 30.03.2021
874 Clouds 13 1027 44 10000 0.45 90 21:20 30.03.2021
875 Clouds 12 1027 43 10000 0.45 90 20:53 30.03.2021
876 Clouds 12 1027 43 10000 0.45 90 20:53 30.03.2021
877 Clouds 15 1028 38 10000 1.79 39 20:28 30.03.2021
878 Clear 17 1028 26 10000 2.57 270 19:51 30.03.2021
879 Clouds 19 1029 31 10000 0.45 92 19:27 30.03.2021
880 Clear 20 1028 26 10000 3.09 260 18:40 30.03.2021
881 Clear 20 1029 26 10000 3.6 260 18:20 30.03.2021
882 Clear 20 1029 30 10000 3.6 270 17:41 30.03.2021
883 Clouds 22 1029 26 10000 2.43 278 17:23 30.03.2021
884 Clouds 22 1030 25 10000 1.34 237 16:45 30.03.2021
885 Clear 21 1030 29 10000 0.89 321 16:24 30.03.2021
886 Clouds 21 1030 32 10000 2.24 223 15:21 30.03.2021
887 Clouds 20 1029 29 10000 0.45 270 14:57 30.03.2021
888 Clear 20 1031 32 10000 1.79 248 14:22 30.03.2021
889 Clear 19 1031 37 10000 0.89 265 13:59 30.03.2021
890 Clear 19 1032 39 10000 1.34 231 13:37 30.03.2021
891 Clear 18 1031 41 10000 0.45 215 12:49 30.03.2021
892 Clear 17 1032 45 10000 0.45 227 12:29 30.03.2021
893 Clear 17 1032 47 10000 1.34 244 11:59 30.03.2021
894 Clear 16 1032 47 10000 1.34 244 11:24 30.03.2021
895 Clear 14 1031 48 10000 0.45 270 10:47 30.03.2021
896 Clear 13 1031 56 10000 1.85 244 10:29 30.03.2021
897 Clear 13 1031 60 10000 1.85 244 09:57 30.03.2021
898 Clear 11 1031 63 10000 1.85 244 09:37 30.03.2021
899 Clear 11 1031 63 10000 1.43 235 09:18 30.03.2021
900 Clear 9 1031 66 10000 2.68 40 08:39 30.03.2021
901 Clear 8 1031 64 10000 2.68 39 07:52 30.03.2021
902 Clear 8 1030 68 10000 1.37 227 07:22 30.03.2021
903 Clear 5 1030 66 10000 2.68 38 05:53 30.03.2021
904 Clear 6 1030 67 10000 2.24 40 05:19 30.03.2021
905 Clouds 10 1030 59 10000 2.68 40 00:58 30.03.2021
906 Clouds 11 1029 51 10000 2.05 251 23:51 29.03.2021
907 Clouds 11 1028 50 10000 2.25 257 22:55 29.03.2021
908 Clouds 10 1029 60 10000 2.24 40 22:32 29.03.2021
909 Clouds 11 1028 61 10000 2.82 264 21:52 29.03.2021
910 Clouds 12 1029 56 10000 2.82 264 21:31 29.03.2021
911 Clouds 13 1028 56 10000 3.37 266 20:50 29.03.2021
912 Clear 16 1027 41 10000 4.12 260 20:28 29.03.2021
913 Clear 17 1027 34 10000 5.14 260 19:50 29.03.2021
914 Clear 19 1027 34 10000 6.17 260 19:27 29.03.2021
915 Clear 19 1027 34 10000 6.69 260 18:51 29.03.2021
916 Clear 19 1027 32 10000 7.2 260 18:27 29.03.2021
917 Clear 19 1027 32 10000 8.23 260 17:52 29.03.2021
918 Clear 19 1027 32 10000 8.23 260 17:33 29.03.2021
919 Clear 19 1027 34 10000 8.75 270 16:52 29.03.2021
920 Clouds 20 1028 32 10000 3.58 226 16:25 29.03.2021
921 Clouds 19 1028 34 10000 3.58 258 15:40 29.03.2021
922 Clouds 19 1027 39 10000 1.79 270 15:22 29.03.2021
923 Clouds 18 1028 46 10000 3.58 238 14:47 29.03.2021
924 Clouds 18 1028 49 10000 3.58 216 13:56 29.03.2021
925 Clouds 17 1028 49 10000 4.02 258 13:37 29.03.2021
926 Clouds 17 1028 49 10000 4.02 258 13:18 29.03.2021
927 Clouds 16 1027 50 10000 2.68 293 12:48 29.03.2021
928 Clouds 12 1029 62 10000 1.34 227 11:46 29.03.2021
929 Clouds 12 1028 63 10000 1.79 220 11:28 29.03.2021
930 Clouds 11 1027 60 10000 2.24 225 10:46 29.03.2021
931 Clouds 11 1025 68 10000 4.03 228 10:21 29.03.2021
932 Clouds 10 1028 70 10000 4.03 228 09:33 29.03.2021
933 Clouds 8 1026 69 10000 0.89 293 08:43 29.03.2021
934 Clouds 8 1027 84 10000 1.79 39 08:25 29.03.2021
935 Clouds 8 1026 68 10000 0.89 225 07:21 29.03.2021
936 Clouds 8 1027 82 10000 3.3 225 06:25 29.03.2021
937 Clouds 9 1027 83 10000 2.24 35 03:25 29.03.2021
938 Clouds 9 1027 86 10000 1.34 35 00:46 29.03.2021
939 Clouds 9 1027 86 10000 0.89 35 00:18 29.03.2021
940 Clouds 9 1027 86 10000 2.24 34 23:30 28.03.2021
941 Clouds 9 1027 86 10000 2.24 34 23:30 28.03.2021
942 Clouds 9 1026 82 10000 1.79 30 22:53 28.03.2021
943 Clouds 9 1026 82 10000 0.45 355 22:35 28.03.2021
944 Clouds 10 1026 78 10000 3.73 235 21:59 28.03.2021
945 Clouds 10 1025 67 10000 0.89 225 21:40 28.03.2021
946 Clouds 10 1025 67 10000 1.79 270 21:22 28.03.2021
947 Rain 10 1027 100 10000 3.42 235 20:47 28.03.2021
948 Rain 11 1024 65 10000 3.04 239 20:29 28.03.2021
949 Rain 11 1024 63 10000 1.79 270 19:43 28.03.2021
950 Rain 11 1025 62 10000 0.45 228 19:22 28.03.2021
951 Rain 12 1024 57 10000 1.34 270 18:53 28.03.2021
952 Clouds 11 1026 60 10000 2.68 248 18:25 28.03.2021
953 Clouds 12 1024 55 10000 2.24 270 17:46 28.03.2021
954 Clouds 11 1023 61 10000 6.05 246 17:23 28.03.2021
955 Rain 11 1026 60 10000 2.68 216 16:45 28.03.2021
956 Rain 11 1026 62 10000 2.68 211 16:23 28.03.2021
957 Clouds 10 1024 62 10000 2.68 270 15:25 28.03.2021
958 Clouds 10 1026 66 10000 4.02 245 14:50 28.03.2021
959 Clouds 10 1026 66 10000 3.58 232 14:30 28.03.2021
960 Clouds 9 1027 79 10000 1.34 220 13:43 28.03.2021
961 Clouds 8 1027 80 10000 1.34 192 13:20 28.03.2021
962 Clouds 8 1027 82 10000 6.03 240 12:49 28.03.2021
963 Clouds 7 1027 83 10000 5.83 236 12:29 28.03.2021
964 Clouds 7 1025 77 10000 1.79 270 11:41 28.03.2021
965 Clouds 6 1026 79 10000 0.89 270 11:21 28.03.2021
966 Clouds 6 1027 89 10000 4.72 231 10:43 28.03.2021
967 Clouds 4 1026 95 10000 3.95 227 10:23 28.03.2021
968 Clouds 3 1027 90 10000 3.95 227 09:44 28.03.2021
969 Clouds 3 1027 91 10000 0.45 26 09:24 28.03.2021
970 Clouds 2 1026 83 10000 0.89 293 08:45 28.03.2021
971 Clouds 1 1025 83 10000 0.45 293 07:46 28.03.2021
972 Clouds 1 1026 94 10000 1.79 38 06:30 28.03.2021
973 Clouds 1 1026 95 10000 1.34 38 03:55 28.03.2021
974 Clouds 1 1026 95 10000 1.34 38 00:53 28.03.2021
975 Clouds 1 1026 96 10000 1.34 38 00:20 28.03.2021
976 Clouds 1 1026 96 10000 1.34 38 23:40 27.03.2021
977 Clouds 1 1026 95 10000 2.24 41 22:57 27.03.2021
978 Clouds 2 1025 91 10000 0.45 270 22:36 27.03.2021
979 Clouds 2 1024 91 10000 0.45 270 21:55 27.03.2021
980 Clouds 2 1025 95 10000 4.13 251 21:36 27.03.2021
981 Clouds 2 1024 90 10000 0.45 270 21:18 27.03.2021
982 Clouds 2 1024 94 10000 4.46 259 20:38 27.03.2021
983 Clouds 2 1024 94 10000 5.28 270 20:19 27.03.2021
984 Clouds 2 1023 93 10000 5.28 270 19:42 27.03.2021
985 Clouds 2 1023 94 10000 0.45 332 19:23 27.03.2021
986 Clouds 2 1022 92 10000 2.24 286 18:48 27.03.2021
987 Rain 3 1022 90 5117 0.45 247 18:28 27.03.2021
988 Clouds 3 1020 94 5117 5.76 260 17:50 27.03.2021
989 Clouds 3 1019 93 10000 6.12 264 17:23 27.03.2021
990 Clouds 4 1021 86 10000 0.45 273 16:49 27.03.2021
991 Clouds 4 1020 83 10000 1.34 270 16:28 27.03.2021
992 Rain 5 1020 82 10000 3.58 222 15:48 27.03.2021
993 Clouds 5 1020 83 5553 2.68 246 15:24 27.03.2021
994 Clouds 6 1023 74 5553 7 265 14:49 27.03.2021
995 Clouds 4 1019 76 3833 6.26 252 13:51 27.03.2021
996 Clouds 4 1018 79 9314 2.24 270 13:26 27.03.2021
997 Clouds 3 1017 85 6904 1.34 270 12:55 27.03.2021
998 Rain 2 1019 92 191 2.24 237 12:24 27.03.2021
999 Rain 4 1018 82 191 8.94 265 11:42 27.03.2021
1000 Clouds 5 1014 76 10000 6.45 239 11:20 27.03.2021
1001 Clouds 7 1013 76 10000 6.45 239 10:45 27.03.2021
1002 Clouds 7 1016 72 5135 2.24 219 10:22 27.03.2021
1003 Clouds 6 1014 72 10000 3.13 270 09:28 27.03.2021
1004 Clouds 5 1015 84 10000 4.02 244 08:43 27.03.2021
1005 Clouds 5 1014 90 7116 2.24 253 08:21 27.03.2021
1006 Rain 6 1014 92 7116 3.58 252 07:34 27.03.2021
1007 Rain 5 1012 88 608 0.89 270 06:47 27.03.2021
1008 Rain 6 1013 84 2846 7.6 302 06:27 27.03.2021
1009 Clouds 8 1010 70 10000 4.97 215 04:39 27.03.2021
1010 Clouds 9 1011 68 10000 0.45 293 00:50 27.03.2021
1011 Clouds 9 1013 69 10000 0.45 113 00:29 27.03.2021
1012 Clouds 9 1010 71 10000 2.45 182 23:54 26.03.2021
1013 Clouds 9 1010 71 10000 2.45 182 23:54 26.03.2021
1014 Clouds 9 1013 67 10000 2.24 76 23:21 26.03.2021
1015 Clouds 9 1013 70 10000 1.79 46 22:35 26.03.2021
1016 Clouds 9 1014 71 10000 2.24 38 21:37 26.03.2021
1017 Clouds 9 1014 71 10000 2.24 39 21:18 26.03.2021
1018 Clouds 10 1012 66 10000 2.37 167 20:39 26.03.2021
1019 Clouds 10 1014 66 10000 1.34 50 20:20 26.03.2021
1020 Clouds 11 1012 62 10000 2.29 173 19:48 26.03.2021
1021 Clouds 11 1014 60 10000 0.89 144 19:29 26.03.2021
1022 Clouds 13 1015 58 10000 0.45 85 18:44 26.03.2021
1023 Clouds 14 1013 52 10000 2.85 205 18:26 26.03.2021
1024 Clouds 14 1013 52 10000 2.85 205 18:26 26.03.2021
1025 Clear 15 1015 36 10000 4.12 210 17:47 26.03.2021
1026 Clouds 13 1012 51 10000 3.15 212 16:57 26.03.2021
1027 Clouds 14 1012 51 10000 3.15 212 16:33 26.03.2021
1028 Clouds 14 1013 53 10000 3.11 211 15:57 26.03.2021
1029 Clouds 14 1016 48 10000 2.24 257 15:23 26.03.2021
1030 Clouds 14 1016 53 10000 2.24 219 14:33 26.03.2021
1031 Clouds 14 1017 53 10000 4.02 221 13:42 26.03.2021
1032 Clouds 13 1016 54 10000 3.13 225 12:58 26.03.2021
1033 Clouds 13 1018 69 10000 2.24 246 12:34 26.03.2021
1034 Clouds 12 1017 64 10000 1.79 270 11:40 26.03.2021
1035 Clouds 12 1016 77 10000 3.91 220 11:19 26.03.2021
1036 Clouds 12 1019 74 10000 2.24 151 10:41 26.03.2021
1037 Clouds 11 1019 80 10000 0.89 124 09:58 26.03.2021
1038 Clouds 10 1019 82 10000 0.45 115 09:40 26.03.2021
1039 Clouds 9 1019 89 10000 1.25 163 08:45 26.03.2021
1040 Clouds 8 1019 91 10000 1.28 191 08:24 26.03.2021
1041 Clouds 7 1018 89 10000 1.5 184 07:42 26.03.2021
1042 Clouds 7 1019 94 10000 1.34 36 07:21 26.03.2021
1043 Clouds 7 1019 94 10000 1.4 201 06:55 26.03.2021
1044 Clouds 7 1019 94 10000 1.34 36 05:31 26.03.2021
1045 Clouds 7 1018 86 10000 1.43 219 03:19 26.03.2021
1046 Rain 8 1019 91 10000 1.48 228 00:33 26.03.2021
1047 Clouds 9 1019 87 10000 1.66 230 23:46 25.03.2021
1048 Rain 9 1019 87 10000 1.34 34 23:21 25.03.2021
1049 Rain 9 1020 85 10000 1.32 226 22:40 25.03.2021
1050 Clouds 9 1018 78 10000 0.91 242 21:55 25.03.2021
1051 Clouds 9 1016 76 10000 0.91 242 21:35 25.03.2021
1052 Clouds 10 1019 77 10000 0.89 15 20:59 25.03.2021
1053 Clouds 10 1019 76 10000 1.14 258 20:37 25.03.2021
1054 Clouds 10 1016 74 10000 1.43 260 20:18 25.03.2021
1055 Clouds 11 1020 69 10000 0.96 263 19:39 25.03.2021
1056 Clouds 11 1015 71 10000 1.24 264 19:21 25.03.2021
1057 Clouds 12 1019 69 10000 1.24 264 18:40 25.03.2021
1058 Clouds 12 1015 63 10000 1.07 278 18:22 25.03.2021
1059 Clouds 13 1017 63 10000 0.89 345 17:38 25.03.2021
1060 Clouds 14 1017 57 10000 1.02 284 16:59 25.03.2021
1061 Clouds 14 1017 54 10000 1.02 284 16:36 25.03.2021
1062 Clouds 14 1015 53 10000 1.96 265 15:52 25.03.2021
1063 Clouds 14 1018 59 10000 2.15 250 15:27 25.03.2021
1064 Clouds 14 1019 58 10000 0.89 355 14:59 25.03.2021
1065 Clouds 14 1015 53 10000 2.15 250 14:40 25.03.2021
1066 Clouds 14 1015 55 10000 2.33 240 13:38 25.03.2021
1067 Clouds 14 1019 59 10000 0.45 190 13:19 25.03.2021
1068 Clouds 14 1019 57 10000 0.45 213 12:37 25.03.2021
1069 Clouds 13 1020 64 10000 1.34 256 12:18 25.03.2021
1070 Clouds 13 1019 60 10000 1.71 232 11:44 25.03.2021
1071 Clouds 12 1018 64 10000 1.49 235 11:26 25.03.2021
1072 Clouds 12 1018 64 10000 1.49 235 11:26 25.03.2021
1073 Clouds 11 1019 63 10000 1.49 235 10:49 25.03.2021
1074 Clouds 10 1021 71 10000 0.45 225 10:22 25.03.2021
1075 Clouds 10 1019 68 10000 1.32 240 09:54 25.03.2021
1076 Clouds 9 1019 68 10000 1.32 240 09:36 25.03.2021
1077 Clouds 9 1019 79 10000 1.19 232 08:42 25.03.2021
1078 Clouds 5 1019 87 10000 2.24 40 07:57 25.03.2021
1079 Clouds 6 1022 73 10000 1.1 224 06:59 25.03.2021
1080 Clouds 6 1018 88 10000 2.68 40 06:24 25.03.2021
1081 Clouds 6 1018 87 10000 2.68 42 05:47 25.03.2021
1082 Clouds 7 1019 84 10000 2.68 37 02:48 25.03.2021
1083 Clouds 7 1017 77 10000 1.31 212 00:21 25.03.2021
1084 Clouds 7 1017 77 10000 1.31 212 00:21 25.03.2021
1085 Clouds 7 1017 75 10000 1.31 212 23:50 24.03.2021
1086 Clouds 7 1019 71 10000 1.26 200 23:25 24.03.2021
1087 Clouds 8 1017 73 10000 1.26 200 22:47 24.03.2021
1088 Clouds 8 1020 80 10000 2.68 39 22:26 24.03.2021
1089 Clouds 8 1020 77 10000 2.24 38 21:42 24.03.2021
1090 Clouds 8 1020 77 10000 2.24 38 21:22 24.03.2021
1091 Clouds 8 1020 74 10000 2.24 38 20:41 24.03.2021
1092 Clouds 9 1020 73 10000 2.24 38 20:20 24.03.2021
1093 Clouds 9 1018 71 10000 1.24 214 19:39 24.03.2021
1094 Clouds 10 1020 69 10000 1.79 213 19:20 24.03.2021
1095 Clouds 11 1021 63 10000 0.45 98 18:43 24.03.2021
1096 Clouds 12 1021 58 10000 1.45 222 18:20 24.03.2021
1097 Clouds 14 1018 49 10000 2.24 295 17:43 24.03.2021
1098 Clouds 14 1020 51 10000 0.89 227 17:25 24.03.2021
1099 Clouds 14 1020 51 10000 1.79 225 16:51 24.03.2021
1100 Clear 14 1020 51 10000 1.79 250 16:27 24.03.2021
1101 Clear 14 1021 51 10000 1.34 236 15:44 24.03.2021
1102 Clear 14 1020 53 10000 1.34 270 15:25 24.03.2021
1103 Clear 13 1020 54 10000 1.34 270 14:47 24.03.2021
1104 Clear 13 1021 59 10000 1.34 257 14:25 24.03.2021
1105 Clear 13 1021 59 10000 1.34 257 14:25 24.03.2021
1106 Clear 12 1019 61 10000 0.45 317 13:53 24.03.2021
1107 Clear 12 1021 60 10000 1.34 270 13:27 24.03.2021
1108 Clear 11 1022 66 10000 0.45 206 12:42 24.03.2021
1109 Clear 11 1023 66 10000 0.45 146 12:22 24.03.2021
1110 Clear 10 1023 68 10000 0.89 225 11:43 24.03.2021
1111 Clear 8 1023 74 10000 2.52 238 10:58 24.03.2021
1112 Clear 7 1023 74 10000 2.52 238 10:38 24.03.2021
1113 Clear 7 1023 77 10000 2.32 235 10:20 24.03.2021
1114 Clear 6 1024 79 10000 0.45 164 09:51 24.03.2021
1115 Clear 5 1024 80 10000 2 225 09:20 24.03.2021
1116 Clear 5 1023 83 10000 2 225 08:49 24.03.2021
1117 Clear 3 1023 86 10000 1.61 215 08:25 24.03.2021
1118 Clear 2 1023 93 10000 1.6 218 07:37 24.03.2021
1119 Clear 2 1023 93 10000 1.79 38 06:52 24.03.2021
1120 Clear 2 1022 88 10000 0.45 270 03:57 24.03.2021
1121 Clouds 2 1022 91 10000 1.38 218 00:48 24.03.2021
1122 Clouds 2 1023 92 10000 2.24 38 23:57 23.03.2021
1123 Clouds 2 1023 92 10000 1.79 38 23:21 23.03.2021
1124 Clouds 2 1023 90 10000 2.24 38 22:54 23.03.2021
1125 Clouds 2 1021 92 10000 1.4 219 22:36 23.03.2021
1126 Clouds 3 1023 89 10000 2.24 38 21:54 23.03.2021
1127 Clouds 3 1021 90 10000 1.34 224 21:34 23.03.2021
1128 Clouds 4 1022 84 10000 1.53 237 20:56 23.03.2021
1129 Clouds 4 1023 86 10000 2.24 38 20:38 23.03.2021
1130 Clouds 4 1023 86 10000 1.79 36 20:19 23.03.2021
1131 Clouds 4 1023 85 10000 1.34 34 19:41 23.03.2021
1132 Clouds 5 1023 84 10000 0.89 44 19:22 23.03.2021
1133 Clouds 6 1023 81 10000 1.6 263 18:38 23.03.2021
1134 Clouds 7 1023 76 10000 1.52 277 18:19 23.03.2021
1135 Clouds 7 1023 76 10000 1.52 277 18:19 23.03.2021
1136 Clouds 7 1023 75 10000 1.52 277 17:43 23.03.2021
1137 Clouds 7 1023 74 10000 0.45 232 17:21 23.03.2021
1138 Clouds 7 1022 71 10000 0.89 270 16:26 23.03.2021
1139 Clouds 7 1023 77 10000 2.67 283 15:51 23.03.2021
1140 Clouds 7 1023 79 10000 0.45 261 15:24 23.03.2021
1141 Clouds 6 1021 82 10000 2.82 283 14:49 23.03.2021
1142 Clouds 6 1023 77 10000 2.81 285 14:20 23.03.2021
1143 Clouds 6 1024 80 10000 0.89 265 13:48 23.03.2021
1144 Clouds 6 1024 81 10000 0.45 281 13:25 23.03.2021
1145 Clouds 5 1024 86 10000 2.83 287 12:46 23.03.2021
1146 Clouds 5 1024 86 10000 2.88 283 12:26 23.03.2021
1147 Clouds 5 1024 88 10000 1.34 263 11:49 23.03.2021
1148 Clouds 4 1023 83 10000 0.45 270 11:26 23.03.2021
1149 Clouds 4 1024 91 10000 2.68 267 10:43 23.03.2021
1150 Clouds 4 1023 87 10000 0.45 225 10:21 23.03.2021
1151 Clouds 4 1023 94 10000 2.68 297 09:54 23.03.2021
1152 Clouds 4 1023 95 10000 0.89 290 09:24 23.03.2021
1153 Clouds 3 1023 90 10000 0.89 225 08:55 23.03.2021
1154 Clouds 3 1023 95 10000 2.24 267 08:37 23.03.2021
1155 Clouds 3 1021 95 10000 2.25 256 08:19 23.03.2021
1156 Clouds 3 1023 90 10000 1.62 265 07:28 23.03.2021
1157 Clouds 3 1023 92 10000 1.62 261 06:54 23.03.2021
1158 Clouds 4 1022 93 10000 1.34 263 04:58 23.03.2021
1159 Clouds 4 1020 90 10000 1.49 269 03:20 23.03.2021
1160 Clouds 4 1022 90 10000 1.42 286 23:57 22.03.2021
1161 Clouds 4 1024 83 10000 1.79 250 23:23 22.03.2021
1162 Clouds 5 1020 88 10000 1.6 293 22:44 22.03.2021
1163 Clouds 5 1020 88 10000 1.84 291 22:22 22.03.2021
1164 Clouds 5 1020 86 10000 1.84 291 21:51 22.03.2021
1165 Clouds 5 1022 87 10000 1.79 259 21:27 22.03.2021
1166 Clouds 5 1020 80 10000 1.77 278 20:54 22.03.2021
1167 Clouds 5 1022 83 10000 1.79 284 20:30 22.03.2021
1168 Clouds 5 1022 83 10000 1.79 282 19:58 22.03.2021
1169 Clouds 6 1022 82 10000 0.89 281 19:40 22.03.2021
1170 Clouds 6 1022 82 10000 1.79 286 19:21 22.03.2021
1171 Clouds 6 1019 77 10000 2.35 312 18:42 22.03.2021
1172 Clouds 6 1021 79 10000 3.13 290 18:23 22.03.2021
1173 Clouds 6 1020 77 10000 2.68 287 17:51 22.03.2021
1174 Clouds 7 1020 77 10000 3.13 284 17:22 22.03.2021
1175 Clouds 7 1020 72 10000 4.47 285 16:58 22.03.2021
1176 Clouds 7 1018 61 10000 3.68 309 16:39 22.03.2021
1177 Clouds 8 1020 65 10000 3.76 307 15:45 22.03.2021
1178 Clouds 8 1020 63 10000 0.45 315 15:27 22.03.2021
1179 Clouds 8 1022 68 10000 3.58 301 14:59 22.03.2021
1180 Clouds 8 1022 65 10000 3.13 342 14:35 22.03.2021
1181 Clouds 7 1018 52 10000 3.79 317 13:53 22.03.2021
1182 Clouds 8 1020 45 10000 0.89 336 13:34 22.03.2021
1183 Clouds 7 1020 55 10000 0.45 315 12:59 22.03.2021
1184 Clouds 7 1020 57 10000 0.45 90 12:41 22.03.2021
1185 Clouds 7 1018 58 10000 3.63 325 12:18 22.03.2021
1186 Clouds 7 1020 65 10000 3.58 271 11:41 22.03.2021
1187 Clouds 6 1020 72 10000 2.68 241 11:21 22.03.2021
1188 Clouds 5 1020 69 10000 0.89 351 10:43 22.03.2021
1189 Clouds 5 1018 68 10000 3.59 334 10:24 22.03.2021
1190 Clouds 4 1019 75 10000 2.24 285 09:39 22.03.2021
1191 Clouds 4 1019 75 10000 1.79 335 09:20 22.03.2021
1192 Clouds 3 1019 78 10000 1.79 355 08:42 22.03.2021
1193 Clouds 3 1019 78 10000 1.79 355 08:24 22.03.2021
1194 Clouds 2 1016 81 10000 4.2 332 07:44 22.03.2021
1195 Clouds 2 1018 85 10000 1.79 290 06:52 22.03.2021
1196 Clouds 2 1016 83 8248 2.73 313 05:43 22.03.2021
1197 Clouds 2 1018 86 10000 1.34 284 02:32 22.03.2021
1198 Clouds 2 1018 82 10000 2.53 302 00:29 22.03.2021
1199 Clouds 2 1015 83 10000 2.53 302 23:53 21.03.2021
1200 Clouds 2 1015 83 10000 2.53 302 23:53 21.03.2021
1201 Clouds 2 1015 82 8555 2.74 312 23:19 21.03.2021
1202 Clouds 2 1015 83 8555 0.45 308 22:56 21.03.2021
1203 Clouds 3 1020 77 9133 2.68 306 21:59 21.03.2021
1204 Clouds 3 1018 80 9133 3.36 317 21:40 21.03.2021
1205 Clouds 3 1018 80 10000 2.24 263 21:22 21.03.2021
1206 Clouds 3 1018 79 10000 1.79 290 20:43 21.03.2021
1207 Clouds 3 1018 79 10000 1.79 290 20:43 21.03.2021
1208 Clouds 3 1018 79 10000 1.79 290 20:24 21.03.2021
1209 Clouds 4 1017 79 10000 3.13 281 19:52 21.03.2021
1210 Clouds 4 1017 79 10000 2.24 295 19:21 21.03.2021
1211 Clouds 4 1016 75 10000 5.07 316 18:48 21.03.2021
1212 Clouds 4 1016 74 10000 4.55 315 18:27 21.03.2021
1213 Clouds 5 1016 76 10000 1.79 280 17:48 21.03.2021
1214 Clouds 5 1016 76 10000 1.79 311 17:20 21.03.2021
1215 Clouds 5 1016 76 10000 2.24 265 16:58 21.03.2021
1216 Clouds 5 1016 76 10000 4.02 263 16:33 21.03.2021
1217 Clouds 5 1016 77 10000 4.92 281 15:58 21.03.2021
1218 Clouds 5 1014 81 10000 5.41 320 15:39 21.03.2021
1219 Clouds 5 1014 81 10000 6.15 321 15:19 21.03.2021
1220 Clouds 6 1016 83 10000 4.47 282 14:45 21.03.2021
1221 Clouds 6 1016 83 10000 4.47 293 14:26 21.03.2021
1222 Clouds 5 1016 82 10000 4.02 287 13:54 21.03.2021
1223 Clouds 5 1016 82 10000 4.92 267 13:25 21.03.2021
1224 Clouds 5 1016 83 10000 4.47 293 12:42 21.03.2021
1225 Clouds 5 1016 83 10000 4.92 298 12:23 21.03.2021
1226 Clouds 5 1016 83 10000 4.92 298 12:23 21.03.2021
1227 Clouds 5 1015 84 10000 6.26 289 11:37 21.03.2021
1228 Clouds 5 1012 83 10000 2.68 186 11:19 21.03.2021
1229 Clouds 5 1015 90 10000 4.47 321 10:42 21.03.2021
1230 Clouds 5 1015 92 10000 4.92 280 10:23 21.03.2021
1231 Clouds 5 1015 95 10000 5.81 288 09:46 21.03.2021
1232 Clouds 5 1015 96 10000 4.47 284 09:27 21.03.2021
1233 Clouds 5 1015 96 10000 3.58 281 08:40 21.03.2021
1234 Clouds 4 1015 97 10000 5.36 296 08:21 21.03.2021
1235 Clouds 4 1015 97 10000 5.36 296 08:21 21.03.2021
1236 Clouds 4 1015 97 10000 3.58 269 07:38 21.03.2021
1237 Rain 3 1015 96 10000 4.02 263 06:56 21.03.2021
1238 Clouds 3 1016 96 5401 4.75 292 05:54 21.03.2021
1239 Clouds 3 1019 85 10000 2.68 250 02:25 21.03.2021
1240 Clouds 2 1020 71 10000 3.37 269 00:42 21.03.2021
1241 Clouds 2 1020 71 10000 3.03 259 00:22 21.03.2021
1242 Clouds 2 1023 66 10000 0.89 211 23:49 20.03.2021
1243 Clouds 2 1021 67 10000 3.4 257 23:22 20.03.2021
1244 Clouds 2 1022 66 10000 3.4 257 22:56 20.03.2021
1245 Clouds 2 1022 64 10000 0.89 256 22:23 20.03.2021
1246 Clouds 2 1022 62 10000 2.24 257 21:47 20.03.2021
1247 Clouds 2 1022 62 10000 2.24 256 21:25 20.03.2021
1248 Clouds 2 1025 53 10000 1.79 228 20:48 20.03.2021
1249 Clouds 2 1022 60 10000 3.12 263 20:23 20.03.2021
1250 Clouds 2 1023 56 10000 3.12 263 19:51 20.03.2021
1251 Clouds 2 1023 53 10000 1.34 252 19:29 20.03.2021
1252 Clouds 2 1023 50 10000 1.34 256 18:51 20.03.2021
1253 Clouds 3 1023 52 10000 0.89 258 18:28 20.03.2021
1254 Clouds 3 1023 50 10000 0.89 244 17:58 20.03.2021
1255 Clouds 3 1023 48 10000 2.24 249 17:40 20.03.2021
1256 Clouds 4 1022 48 10000 3.42 289 17:19 20.03.2021
1257 Clouds 3 1024 47 10000 1.79 234 16:38 20.03.2021
1258 Clouds 4 1024 46 10000 1.34 259 16:18 20.03.2021
1259 Clouds 4 1025 50 10000 0.89 245 15:40 20.03.2021
1260 Clouds 4 1025 50 10000 0.89 245 15:22 20.03.2021
1261 Clouds 3 1025 49 10000 1.34 223 14:32 20.03.2021
1262 Clouds 2 1026 45 10000 0.89 232 13:59 20.03.2021
1263 Clouds 2 1029 44 10000 2.24 182 13:30 20.03.2021
1264 Clouds 2 1029 44 10000 2.24 182 13:30 20.03.2021
1265 Clouds 3 1027 49 10000 1.34 292 12:39 20.03.2021
1266 Clouds 3 1026 50 10000 1.7 284 12:20 20.03.2021
1267 Clouds 1 1027 58 10000 0.89 230 11:42 20.03.2021
1268 Clouds 1 1027 58 10000 0.89 230 11:21 20.03.2021
1269 Clouds 0 1027 63 10000 0.89 278 10:45 20.03.2021
1270 Clouds 1 1027 62 10000 0.65 336 10:23 20.03.2021
1271 Clouds -1 1027 71 10000 0.65 336 09:44 20.03.2021
1272 Clouds -2 1030 75 10000 0.45 257 09:22 20.03.2021
1273 Clouds -2 1027 75 10000 0.66 340 08:51 20.03.2021
1274 Clouds -4 1030 85 10000 0.61 343 08:19 20.03.2021
1275 Clouds -4 1025 79 10000 0.61 343 07:48 20.03.2021
1276 Clouds -5 1027 83 10000 0.49 318 07:29 20.03.2021
1277 Clouds -5 1026 84 10000 0.52 353 06:40 20.03.2021
1278 Clear -5 1029 83 10000 0.89 80 05:28 20.03.2021
1279 Clear -4 1026 77 10000 0.45 33 03:44 20.03.2021
1280 Clear -3 1026 75 10000 0.45 47 01:43 20.03.2021
1281 Clouds -2 1026 74 10000 0.89 103 23:48 19.03.2021
1282 Clouds -2 1026 74 10000 2.53 58 23:20 19.03.2021
1283 Clouds -1 1028 76 10000 0.89 60 22:43 19.03.2021
1284 Clouds -1 1024 77 10000 3.03 61 22:24 19.03.2021
1285 Clouds -1 1027 72 10000 2.24 53 21:51 19.03.2021
1286 Clouds -1 1027 73 10000 3.58 41 21:21 19.03.2021
1287 Clouds -1 1027 73 10000 3.58 41 21:21 19.03.2021
1288 Clouds 0 1026 79 10000 0.45 43 20:46 19.03.2021
1289 Clouds 0 1022 84 9659 4.84 50 20:27 19.03.2021
1290 Clouds 0 1022 87 9659 4.84 50 19:52 19.03.2021
1291 Clouds 1 1023 86 10000 1.34 5 19:24 19.03.2021
1292 Clouds 1 1023 91 7438 4.73 40 18:56 19.03.2021
1293 Clouds 1 1022 89 7438 4.73 40 18:36 19.03.2021
1294 Clouds 3 1024 82 9766 0.45 38 18:18 19.03.2021
1295 Rain 4 1022 61 9766 2.24 5 17:42 19.03.2021
1296 Rain 4 1022 61 8940 2.24 5 17:22 19.03.2021
1297 Clouds 4 1022 64 8940 1.79 38 16:44 19.03.2021
1298 Clouds 4 1022 64 5926 2.24 5 16:26 19.03.2021
1299 Clouds 4 1021 65 5926 1.79 355 15:34 19.03.2021
1300 Clouds 6 1020 61 4308 0.45 65 14:54 19.03.2021
1301 Clouds 5 1019 60 4308 5.17 22 14:35 19.03.2021
1302 Rain 6 1022 61 10000 2.68 289 13:54 19.03.2021
1303 Clouds 4 1022 63 10000 1.79 88 13:21 19.03.2021
1304 Clouds 5 1025 61 10000 4.76 16 12:48 19.03.2021
1305 Clouds 3 1024 75 10000 2.68 311 12:24 19.03.2021
1306 Clouds 3 1019 66 10000 4.16 24 11:34 19.03.2021
1307 Clouds 2 1021 65 10000 1.34 46 10:53 19.03.2021
1308 Clouds 2 1020 70 10000 0.45 302 10:26 19.03.2021
1309 Clouds 3 1020 74 10000 0.89 272 09:47 19.03.2021
1310 Clouds 1 1020 74 5392 3.49 36 09:27 19.03.2021
1311 Clouds 1 1020 77 5392 1.34 327 08:53 19.03.2021
1312 Clouds 0 1022 90 5392 2.24 326 08:30 19.03.2021
1313 Snow 0 1019 88 2501 0.45 288 07:51 19.03.2021
1314 Snow 0 1019 89 2501 3.08 28 07:32 19.03.2021
1315 Clouds -1 1018 84 2201 2.91 28 06:36 19.03.2021
1316 Snow 0 1017 87 5315 2.22 33 02:45 19.03.2021
1317 Snow 0 1016 88 5214 1.61 32 23:58 18.03.2021
1318 Snow 1 1016 87 5214 1.61 32 23:30 18.03.2021
1319 Clouds 1 1019 89 10000 0.89 20 22:58 18.03.2021
1320 Clouds 1 1017 87 10000 1.27 18 22:27 18.03.2021
1321 Clouds 1 1017 87 10000 1.27 18 21:59 18.03.2021
1322 Clouds 2 1019 87 10000 0.45 309 21:38 18.03.2021
1323 Clouds 2 1017 87 10000 1.42 2 20:43 18.03.2021
1324 Clouds 2 1017 87 10000 1.54 346 20:23 18.03.2021
1325 Clouds 2 1017 82 10000 1.54 346 19:45 18.03.2021
1326 Clouds 2 1017 82 10000 1.8 332 19:25 18.03.2021
1327 Clouds 3 1015 75 10000 2.11 338 18:55 18.03.2021
1328 Clouds 3 1017 78 10000 0.45 293 18:27 18.03.2021
1329 Rain 5 1015 76 10000 2.52 329 17:49 18.03.2021
1330 Clouds 5 1017 74 10000 0.89 291 17:25 18.03.2021
1331 Clouds 4 1018 76 10000 2.68 279 16:47 18.03.2021
1332 Clouds 4 1020 71 10000 2.24 317 16:29 18.03.2021
1333 Clouds 4 1019 86 10000 0.45 225 15:46 18.03.2021
1334 Clouds 4 1017 82 7544 0.89 285 15:24 18.03.2021
1335 Clouds 5 1020 88 7544 3.15 311 14:53 18.03.2021
1336 Clouds 5 1020 88 7544 3.15 311 14:32 18.03.2021
1337 Rain 6 1024 77 4326 2.99 308 13:53 18.03.2021
1338 Rain 5 1024 77 3007 2.71 305 13:26 18.03.2021
1339 Rain 5 1025 79 5068 3.28 301 12:44 18.03.2021
1340 Rain 4 1025 82 3560 2.88 299 12:25 18.03.2021
1341 Rain 5 1025 81 3560 2.88 299 11:53 18.03.2021
1342 Rain 4 1026 84 3560 2.88 299 11:33 18.03.2021
1343 Clouds 4 1026 85 3037 2.5 304 10:49 18.03.2021
1344 Clouds 2 1022 97 10000 2 306 10:27 18.03.2021
1345 Clouds 2 1022 97 10000 2 306 09:56 18.03.2021
1346 Clouds 2 1020 83 10000 1.69 300 09:29 18.03.2021
1347 Clouds 1 1022 97 10000 1.69 300 08:52 18.03.2021
1348 Clouds 1 1022 97 10000 1.69 300 08:32 18.03.2021
1349 Clouds 1 1022 97 10000 1.69 300 08:32 18.03.2021
1350 Clouds 1 1020 89 10000 1.26 288 07:54 18.03.2021
1351 Clouds -1 1022 96 10000 1.04 286 07:29 18.03.2021
1352 Clouds -1 1020 91 10000 0.93 284 06:37 18.03.2021
1353 Clouds -1 1022 95 10000 0.82 293 06:18 18.03.2021
1354 Clouds -1 1023 95 10000 0.78 308 04:27 18.03.2021
1355 Clouds 1 1023 92 10000 0.8 335 00:38 18.03.2021
1356 Clouds 1 1024 93 10000 0.45 27 22:59 17.03.2021
1357 Clouds 1 1024 93 10000 0.81 16 22:36 17.03.2021
1358 Clouds 1 1024 94 10000 0.45 32 22:18 17.03.2021
1359 Clouds 1 1023 93 10000 1.15 15 21:47 17.03.2021
1360 Clouds 1 1023 93 10000 1.45 15 21:29 17.03.2021
1361 Clouds 2 1023 92 10000 0.89 41 20:45 17.03.2021
1362 Clouds 2 1023 91 10000 1.73 7 20:26 17.03.2021
1363 Clouds 2 1023 86 10000 1.73 7 19:57 17.03.2021
1364 Clouds 2 1021 80 10000 2.07 357 19:25 17.03.2021
1365 Clouds 3 1025 75 10000 0.89 336 18:59 17.03.2021
1366 Clouds 3 1025 75 10000 0.89 336 18:59 17.03.2021
1367 Rain 3 1021 75 10000 2.07 357 18:40 17.03.2021
1368 Clouds 4 1025 68 10000 1.79 306 17:59 17.03.2021
1369 Clouds 4 1023 89 10000 0.45 165 17:32 17.03.2021
1370 Clouds 5 1022 68 10000 2.24 285 16:57 17.03.2021
1371 Rain 5 1024 62 10000 2.24 300 16:38 17.03.2021
1372 Rain 5 1022 68 10000 0.45 289 16:19 17.03.2021
1373 Clouds 4 1020 81 10000 2.83 347 15:40 17.03.2021
1374 Clouds 4 1021 69 7320 1.34 318 14:46 17.03.2021
1375 Clouds 5 1021 72 9438 3.13 246 14:28 17.03.2021
1376 Clouds 4 1021 76 9438 1.79 257 13:58 17.03.2021
1377 Clouds 4 1024 69 9438 1.79 321 13:40 17.03.2021
1378 Clouds 4 1021 76 10000 1.79 291 13:18 17.03.2021
1379 Clouds 3 1021 79 10000 2.24 306 12:36 17.03.2021
1380 Clouds 4 1024 69 10000 2.24 324 12:18 17.03.2021
1381 Clouds 3 1021 79 10000 3.13 285 11:37 17.03.2021
1382 Clouds 4 1021 79 10000 3.13 285 11:18 17.03.2021
1383 Clouds 4 1021 84 10000 2.24 292 10:40 17.03.2021
1384 Clouds 2 1021 90 10000 2.24 271 10:19 17.03.2021
1385 Clouds 2 1021 93 10000 0.45 276 09:42 17.03.2021
1386 Clouds 2 1021 93 10000 3.42 336 09:20 17.03.2021
1387 Clouds 1 1020 95 10000 3.42 336 08:45 17.03.2021
1388 Clouds 1 1018 80 6431 3.2 331 08:25 17.03.2021
1389 Clouds 1 1023 88 6431 0.89 286 07:38 17.03.2021
1390 Clouds 0 1020 94 10000 2.17 322 06:48 17.03.2021
1391 Clouds 1 1020 93 10000 2.84 328 05:28 17.03.2021
1392 Clouds 1 1018 84 9094 3.34 325 03:32 17.03.2021
1393 Clouds 1 1020 90 10000 2.91 324 01:58 17.03.2021
1394 Clouds 1 1018 87 10000 2.51 319 00:33 17.03.2021
1395 Clear 2 1018 83 10000 2.44 318 23:27 16.03.2021
1396 Clear 1 1017 84 10000 2.44 318 22:45 16.03.2021
1397 Clear 2 1017 83 10000 2.53 325 22:26 16.03.2021
1398 Clear 2 1017 84 10000 2.53 325 21:44 16.03.2021
1399 Clear 2 1022 77 10000 0.45 22 21:26 16.03.2021
1400 Clear 2 1019 87 10000 2.86 330 20:57 16.03.2021
1401 Clear 2 1019 87 10000 3 331 20:20 16.03.2021
1402 Clear 2 1019 87 10000 3 331 20:20 16.03.2021
1403 Clear 3 1019 85 10000 3 331 19:48 16.03.2021
1404 Clouds 3 1021 76 10000 1.34 272 19:29 16.03.2021
1405 Clouds 3 1019 91 10000 2.79 325 18:57 16.03.2021
1406 Clouds 3 1019 88 10000 2.82 330 18:39 16.03.2021
1407 Clouds 5 1021 73 10000 2.68 331 17:59 16.03.2021
1408 Clouds 5 1021 73 10000 2.68 331 17:59 16.03.2021
1409 Clouds 5 1016 76 10000 3.3 329 17:40 16.03.2021
1410 Clouds 5 1018 80 10000 1.34 263 17:21 16.03.2021
1411 Clouds 5 1016 80 10000 4.55 325 16:47 16.03.2021
1412 Clouds 5 1019 84 5684 2.24 251 16:25 16.03.2021
1413 Clouds 6 1018 86 5684 0.45 263 15:46 16.03.2021
1414 Clouds 6 1016 82 9172 5 316 15:20 16.03.2021
1415 Clouds 7 1018 80 9172 3.58 342 14:57 16.03.2021
1416 Clouds 6 1018 89 9172 0.89 292 14:38 16.03.2021
1417 Clouds 6 1018 88 10000 0.45 277 14:18 16.03.2021
1418 Clouds 5 1018 91 10000 0.45 255 13:44 16.03.2021
1419 Clouds 5 1019 87 8101 0.45 312 13:21 16.03.2021
1420 Clouds 5 1019 86 8101 1.34 275 12:43 16.03.2021
1421 Clouds 5 1016 78 4052 2.68 316 12:23 16.03.2021
1422 Clouds 4 1016 80 4052 0.45 338 11:38 16.03.2021
1423 Clouds 4 1016 84 4238 2.24 315 10:53 16.03.2021
1424 Clouds 4 1019 90 3749 0.45 251 10:24 16.03.2021
1425 Clouds 3 1018 90 3749 4.41 292 09:47 16.03.2021
1426 Clouds 3 1018 90 10000 4.01 295 09:29 16.03.2021
1427 Clouds 3 1018 90 10000 0.89 288 08:58 16.03.2021
1428 Clouds 3 1018 91 10000 0.45 304 08:40 16.03.2021
1429 Clouds 3 1015 86 10000 4.04 303 08:18 16.03.2021
1430 Clouds 2 1017 92 10000 0.89 253 07:35 16.03.2021
1431 Clouds 2 1019 88 10000 0.89 288 06:39 16.03.2021
1432 Clouds 2 1013 87 10000 4.17 310 05:52 16.03.2021
1433 Clouds 2 1013 87 10000 4.17 310 05:34 16.03.2021
1434 Clouds 3 1017 80 8547 3.58 299 02:45 16.03.2021
1435 Clouds 3 1014 90 6172 4.02 288 02:23 16.03.2021
1436 Clouds 3 1012 88 2453 3.58 275 23:57 15.03.2021
1437 Clouds 3 1015 82 2858 3.13 331 23:28 15.03.2021
1438 Clouds 3 1015 82 2858 3.13 331 23:28 15.03.2021
1439 Clouds 3 1012 88 2858 3.58 298 22:51 15.03.2021
1440 Clouds 3 1012 90 2858 2.68 306 22:33 15.03.2021
1441 Clouds 3 1012 90 2858 2.68 306 22:33 15.03.2021
1442 Clouds 3 1011 94 10000 3.58 279 21:55 15.03.2021
1443 Clouds 4 1011 94 10000 3.58 279 21:35 15.03.2021
1444 Clouds 4 1010 93 10000 2.68 304 20:59 15.03.2021
1445 Clouds 4 1014 84 10000 5.93 313 20:40 15.03.2021
1446 Clouds 4 1010 94 10000 4.47 291 20:21 15.03.2021
1447 Clouds 4 1010 94 10000 4.92 271 19:51 15.03.2021
1448 Clouds 4 1010 94 10000 4.92 303 19:32 15.03.2021
1449 Clouds 4 1009 92 3179 4.47 283 18:57 15.03.2021
1450 Clouds 5 1006 91 3179 0.45 250 18:32 15.03.2021
1451 Clouds 5 1005 93 8254 0.45 337 17:56 15.03.2021
1452 Clouds 6 1005 93 8254 0.45 311 17:32 15.03.2021
1453 Clouds 5 1007 92 6978 2.68 285 16:55 15.03.2021
1454 Clouds 5 1007 92 6978 4.02 324 16:35 15.03.2021
1455 Rain 5 1007 93 5537 2.68 294 15:47 15.03.2021
1456 Clouds 5 1007 93 7674 2.68 294 15:26 15.03.2021
1457 Clouds 5 1007 90 7674 3.58 297 14:45 15.03.2021
1458 Clouds 5 1007 87 3227 5.36 250 14:24 15.03.2021
1459 Clouds 5 1006 92 3227 3.58 240 13:53 15.03.2021
1460 Clouds 5 1006 89 3227 3.58 257 13:34 15.03.2021
1461 Clouds 5 1007 91 8718 0.45 259 12:51 15.03.2021
1462 Clouds 5 1007 91 2813 1.34 262 12:20 15.03.2021
1463 Clouds 5 1007 93 2813 0.89 254 11:56 15.03.2021
1464 Clouds 4 1007 95 2813 0.45 296 11:38 15.03.2021
1465 Clouds 4 1010 84 7678 4.86 275 10:59 15.03.2021
1466 Clouds 4 1007 97 7678 4.86 275 10:33 15.03.2021
1467 Clouds 3 1007 97 7486 1.34 282 09:59 15.03.2021
1468 Clouds 3 1010 95 7486 3.43 274 09:40 15.03.2021
1469 Clouds 3 1010 93 2003 2.68 267 08:59 15.03.2021
1470 Clouds 2 1006 97 2003 2.68 267 08:41 15.03.2021
1471 Clouds 2 1006 97 127 2.78 262 08:19 15.03.2021
1472 Clouds 2 1006 97 127 2.78 262 07:33 15.03.2021
1473 Clouds 2 1006 97 37 3.22 250 06:45 15.03.2021
1474 Rain 2 1006 96 35 4.18 246 05:35 15.03.2021
1475 Snow 1 1007 95 174 3.25 242 03:19 15.03.2021
1476 Clouds 3 1008 94 10000 4.6 256 00:21 15.03.2021
1477 Clouds 3 1008 94 10000 4.6 256 00:21 15.03.2021
1478 Clouds 3 1009 94 10000 4.09 257 23:22 14.03.2021
1479 Clouds 3 1007 97 10000 4.09 257 22:49 14.03.2021
1480 Clouds 3 1009 94 10000 2.24 261 22:27 14.03.2021
1481 Clouds 3 1009 94 10000 3.54 256 21:52 14.03.2021
1482 Clouds 3 1009 92 10000 2.24 287 21:23 14.03.2021
1483 Clouds 4 1011 90 10000 0.89 263 20:52 14.03.2021
1484 Clouds 4 1012 89 9455 4 251 20:29 14.03.2021
1485 Clouds 5 1009 86 9455 1.79 258 19:58 14.03.2021
1486 Clouds 5 1009 85 9455 2.24 260 19:40 14.03.2021
1487 Clouds 5 1006 86 10000 4.19 248 19:18 14.03.2021
1488 Clouds 5 1008 77 10000 2.24 242 18:36 14.03.2021
1489 Clouds 6 1008 75 10000 2.24 264 17:54 14.03.2021
1490 Clouds 6 1007 73 10000 3.13 248 17:36 14.03.2021
1491 Clouds 7 1005 73 10000 0.89 291 17:18 14.03.2021
1492 Clouds 6 1007 73 10000 3.58 246 16:40 14.03.2021
1493 Clouds 6 1005 78 10000 0.45 294 16:19 14.03.2021
1494 Clouds 7 1009 69 10000 3.58 258 15:42 14.03.2021
1495 Clouds 6 1007 80 10000 2.68 261 14:51 14.03.2021
1496 Clouds 6 1007 79 10000 5.81 259 14:30 14.03.2021
1497 Clouds 5 1004 85 8408 6.12 267 13:53 14.03.2021
1498 Clouds 5 1007 81 8408 5.36 241 13:34 14.03.2021
1499 Clouds 5 1007 88 9174 4.02 271 12:56 14.03.2021
1500 Clouds 5 1007 88 9174 4.02 271 12:37 14.03.2021
1501 Clouds 5 1007 88 6033 4.47 263 12:18 14.03.2021
1502 Clouds 5 1006 89 6033 1.79 252 11:38 14.03.2021
1503 Rain 4 1003 93 6011 0.45 356 11:18 14.03.2021
1504 Rain 4 1005 91 6011 2.24 263 10:38 14.03.2021
1505 Clouds 4 1005 93 4962 1.79 268 10:19 14.03.2021
1506 Rain 4 1004 92 4962 2.68 257 09:56 14.03.2021
1507 Rain 3 1002 95 4962 0.89 295 09:37 14.03.2021
1508 Rain 3 1004 90 2783 2.68 248 09:19 14.03.2021
1509 Rain 3 1003 87 2783 1.79 244 08:36 14.03.2021
1510 Rain 3 1002 85 4580 0.89 232 07:52 14.03.2021
1511 Clouds 3 1001 84 5890 2.24 244 07:26 14.03.2021
1512 Clouds 4 1000 84 10000 2.24 240 05:34 14.03.2021
1513 Clouds 5 996 84 10000 2.24 226 01:19 14.03.2021
1514 Clouds 4 997 84 10000 3.13 238 00:20 14.03.2021
1515 Clouds 4 997 84 10000 3.13 238 23:58 13.03.2021
1516 Clouds 4 997 84 10000 3.13 238 23:38 13.03.2021
1517 Clouds 4 997 84 10000 3.13 238 23:38 13.03.2021
1518 Clouds 4 994 83 10000 8.25 242 23:18 13.03.2021
1519 Clouds 4 996 81 10000 3.13 217 22:44 13.03.2021
1520 Clouds 4 996 82 10000 3.58 230 21:55 13.03.2021
1521 Clouds 4 996 82 10000 3.58 230 21:55 13.03.2021
1522 Clouds 4 996 82 10000 2.68 250 21:35 13.03.2021
1523 Clouds 4 996 84 10000 2.68 233 20:57 13.03.2021
1524 Clouds 4 995 83 10000 3.58 233 20:37 13.03.2021
1525 Clouds 4 995 82 10000 2.68 211 20:19 13.03.2021
1526 Clouds 5 993 86 10000 1.34 333 19:38 13.03.2021
1527 Clouds 5 995 84 7393 0.89 240 19:19 13.03.2021
1528 Clouds 5 994 86 10000 0.89 235 18:42 13.03.2021
1529 Clouds 5 994 87 10000 8.06 242 18:20 13.03.2021
1530 Clouds 5 994 84 10000 4.47 256 17:47 13.03.2021
1531 Clouds 6 994 78 10000 7.15 210 17:28 13.03.2021
1532 Clouds 6 993 77 10000 5.36 209 16:51 13.03.2021
1533 Rain 6 993 76 10000 6.26 227 16:33 13.03.2021
1534 Clouds 7 993 73 6360 5.36 219 15:54 13.03.2021
1535 Clouds 7 993 74 4056 6.26 211 14:59 13.03.2021
1536 Clouds 6 991 71 4056 4.47 270 14:40 13.03.2021
1537 Clouds 6 993 81 10000 5.81 196 14:19 13.03.2021
1538 Clouds 5 993 84 10000 3.58 236 13:27 13.03.2021
1539 Rain 6 993 85 10000 3.13 217 12:52 13.03.2021
1540 Rain 6 994 88 10000 4.47 250 12:30 13.03.2021
1541 Rain 6 992 89 9835 2.24 225 11:53 13.03.2021
1542 Rain 7 990 84 9835 2.24 232 11:32 13.03.2021
1543 Rain 7 991 88 1636 3.58 270 10:58 13.03.2021
1544 Rain 6 991 88 1636 3.13 293 10:31 13.03.2021
1545 Rain 6 994 89 3524 2.68 159 09:59 13.03.2021
1546 Rain 6 992 90 3524 9.55 218 09:32 13.03.2021
1547 Rain 5 993 92 6141 0.45 249 08:54 13.03.2021
1548 Rain 5 996 92 7309 2.68 136 08:21 13.03.2021
1549 Rain 4 994 87 7309 7.41 213 07:57 13.03.2021
1550 Rain 4 995 92 7309 1.34 270 07:30 13.03.2021
1551 Clouds 4 999 89 10000 1.79 165 05:30 13.03.2021
1552 Clouds 3 1000 92 9564 1.34 270 02:20 13.03.2021
1553 Clouds 3 1001 93 7758 1.34 270 00:33 13.03.2021
1554 Clouds 3 1002 89 5499 6.87 244 23:38 12.03.2021
1555 Clouds 4 1002 89 2873 0.45 165 23:20 12.03.2021
1556 Clouds 4 999 98 2873 6.76 243 22:32 12.03.2021
1557 Clouds 4 1002 93 10000 6.66 235 21:58 12.03.2021
1558 Rain 4 1002 93 10000 6.66 235 21:38 12.03.2021
1559 Rain 4 999 97 10000 7.44 230 21:18 12.03.2021
1560 Rain 4 1002 90 10000 3.13 290 20:48 12.03.2021
1561 Rain 5 1002 84 5943 7.15 241 20:23 12.03.2021
1562 Rain 6 1001 87 5943 2.68 225 19:45 12.03.2021
1563 Rain 6 1001 87 5943 2.68 225 19:45 12.03.2021
1564 Rain 6 1001 85 10000 2.24 270 19:26 12.03.2021
1565 Clouds 7 1001 72 10000 3.58 293 18:53 12.03.2021
1566 Clouds 7 1003 64 10000 2.24 234 18:29 12.03.2021
1567 Clouds 8 1001 60 10000 2.68 293 17:45 12.03.2021
1568 Clouds 8 1003 61 10000 2.68 220 17:27 12.03.2021
1569 Clouds 8 1003 60 10000 3.58 257 16:49 12.03.2021
1570 Rain 8 1004 61 10000 1.34 195 16:28 12.03.2021
1571 Clouds 9 1004 59 10000 4.02 208 15:40 12.03.2021
1572 Clouds 8 1004 60 10000 5.36 220 15:18 12.03.2021
1573 Clouds 8 1003 57 10000 3.13 270 14:40 12.03.2021
1574 Clouds 8 1005 62 10000 5.81 252 14:18 12.03.2021
1575 Clouds 8 1003 60 10000 2.68 293 13:40 12.03.2021
1576 Clouds 8 1006 60 10000 5.36 232 13:19 12.03.2021
1577 Clouds 8 1006 62 10000 5.81 248 12:49 12.03.2021
1578 Clouds 8 1003 68 10000 0.45 6 12:28 12.03.2021
1579 Clouds 7 1006 70 10000 5.36 217 11:54 12.03.2021
1580 Clouds 7 1006 76 10000 4.02 245 11:30 12.03.2021
1581 Clouds 6 1006 79 10000 3.58 235 10:57 12.03.2021
1582 Clouds 6 1006 79 10000 4.02 238 10:28 12.03.2021
1583 Clouds 5 1003 87 10000 7.66 246 09:58 12.03.2021
1584 Clouds 5 1006 86 10000 1.79 240 09:29 12.03.2021
1585 Clouds 4 1006 88 10000 2.24 242 08:57 12.03.2021
1586 Clouds 4 1006 88 10000 2.24 242 08:38 12.03.2021
1587 Clouds 3 1005 90 9695 3.58 244 07:41 12.03.2021
1588 Clouds 3 1004 93 8780 1.79 236 07:19 12.03.2021
1589 Clouds 3 1004 93 5343 1.79 236 06:41 12.03.2021
1590 Clouds 3 1003 95 6407 0.45 259 05:43 12.03.2021
1591 Rain 5 997 90 10000 0.45 295 00:52 12.03.2021
1592 Clouds 5 999 88 10000 3.58 235 23:56 11.03.2021
1593 Rain 5 999 87 10000 2.68 250 22:58 11.03.2021
1594 Clouds 6 999 88 10000 2.68 233 22:38 11.03.2021
1595 Clouds 6 998 88 10000 1.79 249 22:18 11.03.2021
1596 Clouds 6 998 88 10000 3.58 272 21:46 11.03.2021
1597 Rain 6 998 90 8467 3.58 265 21:22 11.03.2021
1598 Clouds 6 998 86 8467 4.92 279 20:49 11.03.2021
1599 Rain 7 997 88 10000 0.89 270 20:22 11.03.2021
1600 Clouds 8 998 83 10000 6.29 252 19:49 11.03.2021
1601 Clouds 8 996 82 10000 0.45 270 19:30 11.03.2021
1602 Clouds 8 994 71 10000 1.34 307 18:52 11.03.2021
1603 Clouds 9 996 82 10000 1.34 293 18:34 11.03.2021
1604 Rain 9 995 83 10000 2.68 270 17:52 11.03.2021
1605 Clouds 11 994 75 10000 1.34 270 17:30 11.03.2021
1606 Clouds 12 992 62 9229 4.47 283 16:32 11.03.2021
1607 Clouds 13 993 54 10000 5.36 270 15:55 11.03.2021
1608 Clouds 13 992 73 10000 2.24 295 15:37 11.03.2021
1609 Clouds 14 995 52 10000 6.71 199 15:19 11.03.2021
1610 Clouds 11 995 78 10000 5.81 229 14:38 11.03.2021
1611 Clouds 11 992 70 10000 7.15 198 14:18 11.03.2021
1612 Clouds 10 994 87 10000 3.58 270 13:43 11.03.2021
1613 Clouds 9 993 86 5988 9.6 230 13:21 11.03.2021
1614 Clouds 9 996 88 5988 3.13 188 12:49 11.03.2021
1615 Clouds 8 997 89 10000 2.24 234 12:27 11.03.2021
1616 Clouds 8 998 87 10000 2.24 152 11:46 11.03.2021
1617 Clouds 8 998 87 10000 2.24 152 11:27 11.03.2021
1618 Clouds 7 996 86 10000 2.68 270 10:50 11.03.2021
1619 Clouds 7 996 93 10000 1.34 229 10:25 11.03.2021
1620 Clouds 6 997 95 10000 0.45 294 09:50 11.03.2021
1621 Clouds 6 999 91 10000 1.34 217 09:32 11.03.2021
1622 Rain 7 1000 87 10000 0.89 198 08:49 11.03.2021
1623 Clouds 7 1000 87 10000 1.79 262 08:24 11.03.2021
1624 Clouds 6 998 88 10000 2.68 293 07:44 11.03.2021
1625 Clouds 5 998 95 10000 7.35 212 06:54 11.03.2021
1626 Clouds 5 1001 90 10000 0.89 134 06:36 11.03.2021
1627 Clouds 4 998 89 10000 2.68 270 06:18 11.03.2021
1628 Rain 4 1004 91 2061 2.24 270 02:25 11.03.2021
1629 Rain 5 1010 79 10000 1.34 149 23:58 10.03.2021
1630 Clouds 5 1008 89 10000 3.49 189 23:22 10.03.2021
1631 Clouds 4 1009 80 10000 0.89 225 22:41 10.03.2021
1632 Clouds 4 1009 80 10000 0.89 225 22:41 10.03.2021
1633 Clouds 4 1012 83 10000 0.45 96 22:19 10.03.2021
1634 Clouds 4 1010 78 10000 1.34 293 21:41 10.03.2021
1635 Clouds 6 1011 77 10000 0.45 248 21:21 10.03.2021
1636 Clouds 6 1011 77 10000 0.45 248 21:21 10.03.2021
1637 Clouds 6 1011 77 10000 0.45 293 20:44 10.03.2021
1638 Rain 5 1012 76 10000 0.45 293 20:26 10.03.2021
1639 Clouds 5 1013 76 10000 2.49 188 19:42 10.03.2021
1640 Rain 6 1013 75 10000 0.45 293 19:23 10.03.2021
1641 Clouds 6 1013 73 10000 0.45 293 18:44 10.03.2021
1642 Clouds 6 1013 76 10000 2.11 184 18:24 10.03.2021
1643 Clouds 6 1013 72 10000 2.11 184 17:55 10.03.2021
1644 Clouds 6 1014 72 10000 0.45 293 17:36 10.03.2021
1645 Clouds 6 1013 73 10000 2.11 189 17:18 10.03.2021
1646 Clouds 6 1015 70 10000 0.89 210 16:41 10.03.2021
1647 Clouds 7 1015 71 10000 1.34 144 16:21 10.03.2021
1648 Clouds 7 1015 67 10000 0.89 270 15:41 10.03.2021
1649 Clouds 7 1014 71 10000 2.58 220 15:22 10.03.2021
1650 Clouds 7 1015 68 10000 1.34 270 14:43 10.03.2021
1651 Clouds 7 1017 74 10000 1.34 196 14:19 10.03.2021
1652 Clouds 6 1016 73 10000 1.34 293 13:46 10.03.2021
1653 Clouds 6 1016 76 10000 0.45 270 13:25 10.03.2021
1654 Clouds 5 1017 81 10000 0.89 219 12:45 10.03.2021
1655 Clouds 4 1018 88 10000 0.45 134 12:19 10.03.2021
1656 Clouds 4 1018 88 10000 0.45 134 11:32 10.03.2021
1657 Clouds 3 1018 95 10000 0.45 78 10:59 10.03.2021
1658 Clouds 3 1018 95 10000 0.45 78 10:38 10.03.2021
1659 Clouds 3 1018 97 10000 0.45 78 10:20 10.03.2021
1660 Clouds 2 1017 91 10000 0.89 270 09:42 10.03.2021
1661 Clouds 2 1016 99 844 0.53 214 09:22 10.03.2021
1662 Clouds 2 1017 98 844 0.53 214 08:57 10.03.2021
1663 Clouds 2 1017 98 844 0.53 214 08:57 10.03.2021
1664 Clouds 2 1017 98 844 0.53 214 08:38 10.03.2021
1665 Clouds 2 1017 98 96 0.53 235 08:20 10.03.2021
1666 Snow 2 1016 96 96 0.45 225 07:30 10.03.2021
1667 Snow 2 1017 98 144 0.45 130 06:56 10.03.2021
1668 Snow 2 1016 96 144 0.45 130 06:32 10.03.2021
1669 Clouds 2 1016 97 1072 0.28 167 02:41 10.03.2021
1670 Clouds 2 1016 96 1045 0.64 246 23:52 09.03.2021
1671 Clouds 1 1016 96 779 0.38 230 23:24 09.03.2021
1672 Clouds 2 1016 95 779 0.38 230 22:42 09.03.2021
1673 Clouds 2 1016 96 95 0.18 213 22:23 09.03.2021
1674 Clouds 2 1016 96 95 0.18 213 21:46 09.03.2021
1675 Snow 2 1016 96 63 0.39 204 21:25 09.03.2021
1676 Snow 2 1016 96 63 0.39 204 20:58 09.03.2021
1677 Snow 1 1016 95 63 0.39 204 20:40 09.03.2021
1678 Snow 1 1016 96 54 0.78 200 20:21 09.03.2021
1679 Snow 1 1016 96 54 0.78 200 19:51 09.03.2021
1680 Snow 1 1016 95 45 1.17 187 19:27 09.03.2021
1681 Snow 2 1015 95 43 0.76 185 18:51 09.03.2021
1682 Rain 2 1015 95 42 1.06 182 18:27 09.03.2021
1683 Snow 2 1015 95 42 1.06 182 17:53 09.03.2021
1684 Snow 2 1015 95 42 0.45 80 17:33 09.03.2021
1685 Snow 2 1015 94 40 1.38 172 16:55 09.03.2021
1686 Snow 1 1014 96 40 1.38 172 16:37 09.03.2021
1687 Rain 2 1015 95 58 1.73 171 16:18 09.03.2021
1688 Rain 2 1015 94 58 1.73 171 15:43 09.03.2021
1689 Rain 2 1015 94 474 1.99 172 15:21 09.03.2021
1690 Rain 2 1016 94 474 1.99 172 14:31 09.03.2021
1691 Rain 3 1016 90 2246 2.35 170 13:59 09.03.2021
1692 Rain 2 1016 90 2246 2.35 170 13:38 09.03.2021
1693 Rain 2 1016 90 3288 2.4 153 13:19 09.03.2021
1694 Rain 2 1016 86 3288 0.45 130 12:39 09.03.2021
1695 Rain 2 1016 86 2087 0.45 130 12:21 09.03.2021
1696 Clouds 2 1017 84 2087 0.45 132 11:42 09.03.2021
1697 Rain 2 1016 90 4811 0.45 293 11:21 09.03.2021
1698 Rain 2 1017 72 4811 0.45 135 10:55 09.03.2021
1699 Rain 2 1017 72 4811 0.45 135 10:36 09.03.2021
1700 Rain 2 1015 72 10000 1.57 175 10:18 09.03.2021
1701 Snow 2 1016 78 10000 0.89 293 09:43 09.03.2021
1702 Clouds 1 1016 72 10000 1.58 171 09:24 09.03.2021
1703 Snow 1 1017 74 10000 1.58 171 08:46 09.03.2021
1704 Snow 0 1017 75 10000 1.41 159 08:23 09.03.2021
1705 Snow 0 1015 75 10000 1.16 163 07:40 09.03.2021
1706 Clouds 0 1017 78 10000 1.09 153 07:21 09.03.2021
1707 Clouds 0 1017 76 10000 0.45 42 05:55 09.03.2021
1708 Clouds 0 1017 75 10000 1.34 41 05:37 09.03.2021
1709 Clouds 1 1018 67 10000 1.58 149 00:34 09.03.2021
1710 Clouds 0 1020 70 10000 1.5 143 23:45 08.03.2021
1711 Clouds 1 1020 70 10000 1.41 134 23:27 08.03.2021
1712 Clouds 1 1019 71 10000 1.41 134 22:51 08.03.2021
1713 Clouds 1 1019 67 10000 1.41 134 22:32 08.03.2021
1714 Clouds 0 1019 69 10000 1.33 135 21:57 08.03.2021
1715 Clouds 0 1020 71 10000 1.34 32 21:35 08.03.2021
1716 Clouds 1 1019 67 10000 1.28 134 20:48 08.03.2021
1717 Clouds 1 1020 63 10000 1.14 130 20:28 08.03.2021
1718 Clouds 1 1020 63 10000 1.14 130 20:28 08.03.2021
1719 Clouds 1 1019 65 10000 1.14 130 19:59 08.03.2021
1720 Clouds 1 1019 65 10000 1.14 130 19:37 08.03.2021
1721 Clouds 3 1020 57 10000 0.98 122 18:44 08.03.2021
1722 Clouds 3 1018 56 10000 0.8 105 18:23 08.03.2021
1723 Clouds 4 1020 53 10000 0.8 105 17:56 08.03.2021
1724 Clouds 4 1021 53 10000 0.45 113 17:38 08.03.2021
1725 Clouds 5 1020 48 10000 1.05 101 16:56 08.03.2021
1726 Clouds 6 1018 48 10000 1.05 101 16:33 08.03.2021
1727 Clouds 6 1022 51 10000 1.79 232 15:59 08.03.2021
1728 Clouds 5 1019 49 10000 1.47 105 15:38 08.03.2021
1729 Clouds 5 1022 52 10000 1.34 300 15:18 08.03.2021
1730 Clouds 5 1020 55 10000 0.45 90 14:21 08.03.2021
1731 Clouds 5 1020 54 10000 0.89 90 13:47 08.03.2021
1732 Clouds 4 1021 56 10000 0.45 90 13:23 08.03.2021
1733 Clouds 4 1021 60 10000 0.45 223 12:55 08.03.2021
1734 Clouds 4 1021 60 10000 2.1 68 12:29 08.03.2021
1735 Clouds 4 1021 60 10000 2.1 68 12:29 08.03.2021
1736 Clouds 3 1021 70 10000 0.89 90 11:45 08.03.2021
1737 Clouds 4 1019 55 10000 2.17 70 11:22 08.03.2021
1738 Clouds 2 1021 76 10000 0.45 90 10:47 08.03.2021
1739 Clouds 2 1019 64 10000 2.08 59 10:28 08.03.2021
1740 Clouds 2 1021 78 10000 2.08 59 09:50 08.03.2021
1741 Clouds 1 1019 77 10000 1.81 48 09:25 08.03.2021
1742 Clouds 1 1019 80 10000 1.81 48 08:32 08.03.2021
1743 Clouds 0 1020 96 10000 1.48 30 07:51 08.03.2021
1744 Clouds 0 1020 94 7650 1.49 14 07:21 08.03.2021
1745 Clouds 0 1020 94 7650 1.49 14 07:21 08.03.2021
1746 Snow 0 1019 94 1949 2.38 349 05:23 08.03.2021
1747 Snow 1 1019 87 101 0.45 290 02:19 08.03.2021
1748 Snow 1 1019 80 205 2.41 275 00:42 08.03.2021
1749 Clouds 1 1019 79 1743 2.32 274 23:53 07.03.2021
1750 Clouds 1 1019 78 6385 2.43 284 23:21 07.03.2021
1751 Clouds 1 1020 79 6385 2.43 284 22:47 07.03.2021
1752 Snow 1 1020 79 2368 2.4 290 22:27 07.03.2021
1753 Snow 1 1020 78 2368 2.4 290 21:53 07.03.2021
1754 Snow 1 1019 77 2368 2.4 290 21:33 07.03.2021
1755 Snow 1 1019 78 222 2.53 284 20:58 07.03.2021
1756 Snow 1 1019 75 222 2.53 284 20:40 07.03.2021
1757 Clouds 1 1019 78 818 2.53 291 20:18 07.03.2021
1758 Clouds 1 1019 73 818 2.53 291 19:40 07.03.2021
1759 Clouds 1 1020 77 8364 2.35 293 19:22 07.03.2021
1760 Clouds 2 1019 77 10000 2.77 307 18:54 07.03.2021
1761 Clouds 2 1019 77 10000 2.87 305 18:21 07.03.2021
1762 Clouds 2 1019 74 10000 0.45 279 17:59 07.03.2021
1763 Clouds 2 1018 74 10000 2.87 305 17:38 07.03.2021
1764 Clouds 2 1019 73 10000 0.89 288 17:19 07.03.2021
1765 Clouds 2 1020 70 10000 1.34 268 16:43 07.03.2021
1766 Clouds 2 1020 71 10000 2.68 275 16:21 07.03.2021
1767 Clouds 2 1020 71 10000 2.68 275 16:21 07.03.2021
1768 Clouds 2 1020 72 10000 4.02 287 15:50 07.03.2021
1769 Clouds 3 1020 74 10000 1.79 294 15:31 07.03.2021
1770 Clouds 3 1025 66 10000 4.45 307 14:51 07.03.2021
1771 Clouds 3 1021 68 10000 0.45 270 14:29 07.03.2021
1772 Clouds 2 1021 76 10000 2.68 296 13:51 07.03.2021
1773 Clouds 3 1022 69 10000 0.45 270 13:29 07.03.2021
1774 Clouds 3 1022 74 10000 2.68 263 12:50 07.03.2021
1775 Clouds 3 1026 65 10000 3.29 290 12:32 07.03.2021
1776 Clouds 2 1023 76 10000 3.13 259 11:58 07.03.2021
1777 Clouds 2 1023 80 10000 2.24 260 11:23 07.03.2021
1778 Clouds 2 1023 84 10000 2.24 271 10:55 07.03.2021
1779 Clouds 1 1023 87 10000 0.45 277 10:37 07.03.2021
1780 Clouds 0 1023 90 10000 3.69 279 09:54 07.03.2021
1781 Clouds 0 1023 87 10000 2.92 276 09:29 07.03.2021
1782 Clouds 0 1024 90 10000 2.92 276 08:59 07.03.2021
1783 Clouds -1 1022 89 10000 2.92 276 08:39 07.03.2021
1784 Clouds -1 1022 89 10000 2.92 276 08:39 07.03.2021
1785 Clouds -1 1024 91 10000 2.07 262 08:21 07.03.2021
1786 Clouds -1 1024 90 7520 1.52 271 06:25 07.03.2021
1787 Clouds -1 1024 89 10000 1.16 256 02:39 07.03.2021
1788 Clouds 1 1026 85 5686 1.45 259 00:34 07.03.2021
1789 Clouds 1 1030 79 6146 1.4 257 23:40 06.03.2021
1790 Clouds 1 1030 78 10000 1.25 256 23:20 06.03.2021
1791 Clouds 1 1028 82 10000 1.25 256 22:45 06.03.2021
1792 Clouds 1 1030 79 10000 1.2 261 22:21 06.03.2021
1793 Clouds 2 1028 81 10000 1.2 261 21:47 06.03.2021
1794 Clouds 2 1031 74 10000 0.45 239 21:21 06.03.2021
1795 Clouds 2 1027 77 10000 1.1 263 20:44 06.03.2021
1796 Clouds 3 1028 83 10000 2.24 235 20:19 06.03.2021
1797 Clouds 3 1028 85 10000 1.34 223 19:40 06.03.2021
1798 Clouds 3 1029 75 10000 1.23 309 19:18 06.03.2021
1799 Clouds 3 1031 74 10000 1.23 309 18:42 06.03.2021
1800 Clouds 3 1029 75 10000 1.83 310 18:22 06.03.2021
1801 Clouds 4 1028 72 10000 1.83 310 17:55 06.03.2021
1802 Clouds 4 1027 75 10000 1.83 310 17:33 06.03.2021
1803 Clouds 4 1029 71 10000 0.89 296 16:59 06.03.2021
1804 Clouds 4 1028 72 10000 2.66 314 16:37 06.03.2021
1805 Clouds 4 1029 71 10000 1.79 245 16:18 06.03.2021
1806 Clouds 4 1030 68 10000 1.79 279 15:41 06.03.2021
1807 Clouds 4 1030 68 10000 1.79 241 15:23 06.03.2021
1808 Clouds 5 1029 69 10000 2.92 307 14:33 06.03.2021
1809 Clouds 4 1031 67 10000 1.79 263 13:56 06.03.2021
1810 Clouds 4 1031 66 10000 2.24 265 13:37 06.03.2021
1811 Clouds 4 1031 65 10000 2.24 233 13:19 06.03.2021
1812 Clouds 4 1030 68 10000 3.09 317 12:43 06.03.2021
1813 Clouds 3 1032 69 10000 3.08 307 12:19 06.03.2021
1814 Clouds 3 1032 72 10000 1.34 315 11:47 06.03.2021
1815 Clouds 2 1032 72 10000 0.89 247 11:21 06.03.2021
1816 Clouds 1 1031 73 10000 2.71 298 10:45 06.03.2021
1817 Clouds 1 1030 73 10000 3.02 292 10:18 06.03.2021
1818 Clouds -1 1032 79 10000 3.02 292 09:40 06.03.2021
1819 Clear -1 1030 76 10000 3.01 286 09:19 06.03.2021
1820 Clear -1 1030 76 10000 3.01 286 09:19 06.03.2021
1821 Clear -1 1031 87 10000 3.01 286 08:36 06.03.2021
1822 Clear -2 1031 87 10000 2.37 271 07:57 06.03.2021
1823 Clear -4 1031 85 10000 1.66 252 07:23 06.03.2021
1824 Clear -4 1031 85 10000 1.66 252 06:55 06.03.2021
1825 Clear -4 1029 78 10000 1.55 247 05:34 06.03.2021
1826 Clear -3 1030 73 10000 1.11 250 02:38 06.03.2021
1827 Clear -3 1031 82 10000 0.77 277 00:47 06.03.2021
1828 Clear -2 1029 79 10000 0.82 293 23:53 05.03.2021
1829 Clear -2 1030 81 10000 0.89 293 23:29 05.03.2021
1830 Clear -2 1030 82 10000 0.89 293 22:46 05.03.2021
1831 Clear -2 1030 79 10000 0.9 303 22:23 05.03.2021
1832 Clear -1 1030 79 10000 1.34 39 21:54 05.03.2021
1833 Clear -1 1030 79 10000 0.45 38 21:34 05.03.2021
1834 Clear -1 1029 78 10000 0.86 309 20:58 05.03.2021
1835 Clear -1 1029 77 10000 0.86 309 20:40 05.03.2021
1836 Clear -1 1029 77 10000 0.85 316 20:21 05.03.2021
1837 Clear 0 1027 77 10000 0.85 316 19:36 05.03.2021
1838 Clouds 0 1028 73 10000 1 330 19:18 05.03.2021
1839 Clouds 0 1028 69 10000 0.75 352 18:42 05.03.2021
1840 Clouds 0 1028 69 10000 0.75 352 18:42 05.03.2021
1841 Clouds 2 1026 69 10000 1.27 1 18:23 05.03.2021
1842 Clouds 4 1027 38 10000 0.45 0 17:37 05.03.2021
1843 Clouds 4 1027 51 10000 2.27 10 17:19 05.03.2021
1844 Clouds 4 1025 56 10000 2.27 10 16:41 05.03.2021
1845 Clouds 4 1027 54 10000 3.13 11 16:22 05.03.2021
1846 Clouds 4 1027 57 10000 1.34 5 15:52 05.03.2021
1847 Clouds 4 1025 57 10000 3.2 10 15:23 05.03.2021
1848 Clouds 3 1026 56 10000 0.89 56 14:39 05.03.2021
1849 Clouds 4 1026 58 10000 1.34 355 14:19 05.03.2021
1850 Clouds 3 1024 61 10000 3.31 9 13:42 05.03.2021
1851 Clouds 3 1026 62 10000 0.89 304 13:20 05.03.2021
1852 Clouds 3 1026 63 10000 0.89 60 12:40 05.03.2021
1853 Clouds 2 1025 66 10000 1.34 58 11:39 05.03.2021
1854 Clouds 2 1024 68 10000 2.75 14 11:19 05.03.2021
1855 Clouds 1 1024 74 10000 0.45 304 10:43 05.03.2021
1856 Clouds 1 1024 77 10000 0.89 34 10:24 05.03.2021
1857 Clouds 1 1024 79 10000 1.79 10 09:52 05.03.2021
1858 Clouds 1 1023 80 10000 0.89 47 09:29 05.03.2021
1859 Clouds 0 1023 83 10000 0.89 38 08:57 05.03.2021
1860 Clouds 0 1021 94 10000 2.52 23 08:38 05.03.2021
1861 Clouds 0 1022 87 10000 2.53 24 08:20 05.03.2021
1862 Clouds 0 1021 89 10000 0.89 10 07:30 05.03.2021
1863 Clouds 1 1020 93 10000 2.96 27 06:34 05.03.2021
1864 Snow 1 1020 93 3824 1.34 319 05:39 05.03.2021
1865 Clouds 2 1017 96 46 3.13 285 00:59 05.03.2021
1866 Clouds 2 1017 96 38 2.51 6 23:53 04.03.2021
1867 Clouds 2 1017 96 102 0.89 284 23:24 04.03.2021
1868 Clouds 2 1017 96 10000 2.82 336 22:29 04.03.2021
1869 Clouds 2 1014 95 10000 2.82 336 21:53 04.03.2021
1870 Clouds 2 1014 95 10000 2.82 336 21:32 04.03.2021
1871 Clouds 2 1016 95 10000 0.45 273 20:57 04.03.2021
1872 Clouds 2 1016 95 10000 2.48 331 20:38 04.03.2021
1873 Clouds 2 1016 95 10000 2.22 317 20:20 04.03.2021
1874 Clouds 2 1013 97 10000 2.22 317 19:49 04.03.2021
1875 Rain 2 1016 94 10000 3.05 331 19:23 04.03.2021
1876 Rain 2 1016 95 10000 0.45 279 18:51 04.03.2021
1877 Clouds 2 1015 95 10000 0.45 273 18:30 04.03.2021
1878 Rain 2 1012 94 10000 2.94 326 17:48 04.03.2021
1879 Rain 3 1015 94 10000 2.94 326 17:30 04.03.2021
1880 Clouds 3 1012 94 10000 2.89 318 16:51 04.03.2021
1881 Clouds 3 1015 94 10000 3.13 247 16:32 04.03.2021
1882 Rain 4 1015 91 6795 2.68 249 15:57 04.03.2021
1883 Rain 5 1015 91 6795 2.68 261 15:38 04.03.2021
1884 Rain 5 1016 94 10000 0.45 90 15:20 04.03.2021
1885 Clouds 5 1016 93 10000 0.45 325 14:39 04.03.2021
1886 Clouds 5 1016 93 10000 1.79 284 13:57 04.03.2021
1887 Clouds 5 1016 91 10000 3.13 289 13:36 04.03.2021
1888 Clouds 6 1016 90 7753 2.24 280 13:18 04.03.2021
1889 Clouds 6 1017 90 7753 2.24 276 12:40 04.03.2021
1890 Clouds 7 1017 89 9219 1.79 266 11:49 04.03.2021
1891 Clouds 7 1017 89 8242 2.24 267 11:28 04.03.2021
1892 Clouds 7 1017 90 8242 1.79 288 10:57 04.03.2021
1893 Clouds 7 1017 91 8242 1.79 316 10:35 04.03.2021
1894 Clouds 6 1017 91 7849 0.45 288 09:51 04.03.2021
1895 Clouds 6 1017 94 5443 2.87 274 09:26 04.03.2021
1896 Clouds 6 1017 94 5443 2.87 274 08:49 04.03.2021
1897 Clouds 6 1018 94 5291 1.79 294 08:24 04.03.2021
1898 Clouds 4 1018 95 8169 0.89 342 07:35 04.03.2021
1899 Clouds 4 1018 93 7570 2.25 269 06:28 04.03.2021
1900 Clouds 4 1019 93 7570 2.25 269 05:52 04.03.2021
1901 Clouds 5 1022 87 10000 2.08 273 02:29 04.03.2021
1902 Clouds 6 1022 85 10000 2.64 277 23:42 03.03.2021
1903 Clouds 6 1022 84 10000 2.91 267 22:29 03.03.2021
1904 Clouds 6 1024 77 10000 2.91 267 21:59 03.03.2021
1905 Clouds 7 1023 82 10000 0.89 346 21:41 03.03.2021
1906 Clouds 7 1023 82 10000 0.89 346 21:22 03.03.2021
1907 Clouds 8 1023 80 10000 0.89 346 20:43 03.03.2021
1908 Clouds 8 1023 79 10000 3.02 262 20:24 03.03.2021
1909 Clouds 9 1023 74 10000 3.02 262 19:48 03.03.2021
1910 Clouds 9 1026 72 10000 2.82 259 19:29 03.03.2021
1911 Clouds 10 1023 71 10000 0.45 348 18:55 03.03.2021
1912 Clouds 11 1023 68 10000 2.55 255 18:35 03.03.2021
1913 Clouds 11 1023 66 10000 2.47 247 17:58 03.03.2021
1914 Clouds 13 1024 60 10000 2.92 251 17:22 03.03.2021
1915 Clouds 13 1024 55 10000 2.92 251 16:54 03.03.2021
1916 Clouds 14 1024 55 10000 0.45 220 16:27 03.03.2021
1917 Clouds 14 1025 58 10000 0.45 189 15:54 03.03.2021
1918 Clouds 14 1025 57 10000 3.41 249 15:32 03.03.2021
1919 Clouds 14 1025 56 10000 3.26 241 14:50 03.03.2021
1920 Clear 14 1026 57 10000 0.45 175 14:27 03.03.2021
1921 Clear 13 1026 60 10000 0.45 142 13:46 03.03.2021
1922 Clear 12 1026 61 10000 2.97 235 13:26 03.03.2021
1923 Clear 11 1026 64 10000 0.45 293 12:43 03.03.2021
1924 Clear 11 1027 64 10000 0.45 195 12:23 03.03.2021
1925 Clear 10 1027 65 10000 2.48 233 11:45 03.03.2021
1926 Clear 10 1028 68 10000 2.23 234 11:27 03.03.2021
1927 Clear 9 1028 74 10000 2.23 234 10:45 03.03.2021
1928 Clear 8 1028 74 10000 1.7 230 10:22 03.03.2021
1929 Clear 7 1028 77 10000 1.7 230 09:43 03.03.2021
1930 Clear 5 1028 83 10000 0.45 39 08:55 03.03.2021
1931 Clear 4 1028 86 10000 1.79 39 08:37 03.03.2021
1932 Clear 4 1028 86 10000 1.79 39 08:18 03.03.2021
1933 Clear 4 1027 92 10000 1.38 228 07:34 03.03.2021
1934 Clear 4 1028 86 10000 2.24 41 06:45 03.03.2021
1935 Clear 4 1028 89 10000 1.31 217 05:44 03.03.2021
1936 Clear 4 1029 84 10000 2.24 40 04:49 03.03.2021
1937 Clear 4 1029 85 10000 1.28 216 04:24 03.03.2021
1938 Clear 5 1031 89 10000 1.19 198 00:39 03.03.2021
1939 Clear 5 1030 76 10000 0.89 36 23:44 02.03.2021
1940 Clear 5 1030 74 10000 2.24 38 22:54 02.03.2021
1941 Clear 6 1030 71 10000 1.34 40 22:24 02.03.2021
1942 Clear 6 1030 71 10000 1.34 34 21:59 02.03.2021
1943 Clear 5 1030 71 10000 1.79 40 21:37 02.03.2021
1944 Clear 6 1030 69 10000 1.34 41 21:18 02.03.2021
1945 Clear 6 1030 66 10000 0.89 40 20:44 02.03.2021
1946 Clear 6 1030 66 10000 0.89 40 20:21 02.03.2021
1947 Clear 7 1030 62 10000 1.34 40 19:49 02.03.2021
1948 Clear 7 1029 75 10000 1.35 155 19:30 02.03.2021
1949 Clear 8 1030 63 10000 1.44 154 18:58 02.03.2021
1950 Clear 8 1030 64 10000 1.44 154 18:39 02.03.2021
1951 Clear 9 1032 58 10000 2.24 95 18:19 02.03.2021
1952 Clear 9 1030 75 10000 0.89 153 17:40 02.03.2021
1953 Clear 11 1030 62 10000 1.37 132 17:20 02.03.2021
1954 Clear 11 1031 70 10000 1.34 83 16:48 02.03.2021
1955 Clear 15 1032 55 10000 1.37 129 15:59 02.03.2021
1956 Clear 15 1032 55 10000 0.45 240 15:29 02.03.2021
1957 Clear 15 1031 48 10000 2.68 141 14:56 02.03.2021
1958 Clear 14 1031 58 10000 1.31 123 14:21 02.03.2021
1959 Clear 14 1032 52 10000 3.13 171 13:48 02.03.2021
1960 Clear 13 1032 52 10000 3.13 171 13:28 02.03.2021
1961 Clear 13 1032 55 10000 1.34 130 12:51 02.03.2021
1962 Clear 12 1033 55 10000 1.79 163 12:26 02.03.2021
1963 Clear 12 1033 66 10000 0.89 166 11:53 02.03.2021
1964 Clear 8 1033 79 10000 1.07 125 11:29 02.03.2021
1965 Clear 6 1033 87 10000 1.07 125 10:55 02.03.2021
1966 Clear 5 1033 87 10000 1.07 125 10:31 02.03.2021
1967 Clear 5 1033 87 10000 1.07 125 10:31 02.03.2021
1968 Clear 4 1037 82 10000 1.03 141 09:44 02.03.2021
1969 Clear 4 1037 82 10000 1.16 138 09:24 02.03.2021
1970 Clear 3 1036 81 10000 1.16 138 08:56 02.03.2021
1971 Clear 3 1036 82 10000 1.16 138 08:33 02.03.2021
1972 Clear 2 1036 83 10000 1.19 133 07:51 02.03.2021
1973 Clear 1 1034 94 10000 0.89 67 06:39 02.03.2021
1974 Clear 1 1034 94 10000 0.89 89 05:52 02.03.2021
1975 Clear 2 1033 97 10000 1.34 134 05:33 02.03.2021
1976 Clear 0 1034 94 10000 0.45 50 04:39 02.03.2021
1977 Clear 2 1033 97 10000 1.04 120 01:43 02.03.2021
1978 Clear 2 1033 97 10000 1.04 120 01:43 02.03.2021
1979 Clear 2 1033 97 10000 1.04 120 01:43 02.03.2021
1980 Clear 2 1033 97 10000 1.04 120 01:43 02.03.2021
1981 Clear 1 1033 97 10000 1.01 131 01:22 02.03.2021
1982 Clear 1 1032 97 10000 0.98 134 23:40 01.03.2021
1983 Clear 2 1036 85 10000 0.97 130 23:19 01.03.2021
1984 Clear 1 1032 97 10000 0.97 130 22:38 01.03.2021
1985 Clear 1 1032 96 10000 1 129 22:19 01.03.2021
1986 Clear 3 1032 96 10000 1 129 21:42 01.03.2021
1987 Clear 3 1032 95 10000 1.17 133 21:23 01.03.2021
1988 Clear 3 1032 93 10000 1.17 133 20:45 01.03.2021
1989 Clear 3 1033 95 10000 1.27 134 20:26 01.03.2021
1990 Clear 2 1032 94 10000 1.27 134 19:45 01.03.2021
1991 Clear 3 1033 93 10000 1.07 122 19:26 01.03.2021
1992 Clear 4 1033 93 10000 1.07 122 18:43 01.03.2021
1993 Clear 5 1032 90 10000 1.15 110 18:23 01.03.2021
1994 Clear 6 1033 88 10000 1.15 110 17:48 01.03.2021
1995 Clear 7 1032 82 10000 1.18 102 17:23 01.03.2021
1996 Clear 8 1034 79 10000 0.45 35 16:47 01.03.2021
1997 Clear 7 1032 83 10000 1.18 102 16:47 01.03.2021
1998 Clear 8 1033 82 10000 1.31 91 16:29 01.03.2021
1999 Clear 8 1033 80 10000 0.89 138 15:56 01.03.2021
2000 Clear 10 1033 79 10000 1.34 135 15:36 01.03.2021
2001 Clear 10 1035 68 10000 1.28 85 15:18 01.03.2021
2002 Clear 9 1033 83 10000 0.89 181 14:39 01.03.2021
2003 Clear 10 1037 78 10000 1.12 86 13:57 01.03.2021
2004 Clear 8 1038 86 10000 1.12 86 13:37 01.03.2021
2005 Clouds 8 1035 76 10000 0.89 220 13:19 01.03.2021
2006 Clouds 7 1038 85 10000 0.9 84 12:42 01.03.2021
2007 Clouds 6 1034 90 10000 0.45 138 12:24 01.03.2021
2008 Clouds 6 1034 90 10000 0.45 138 12:24 01.03.2021
2009 Clouds 7 1038 87 10000 0.88 113 11:56 01.03.2021
2010 Clouds 6 1034 94 10000 0.89 141 11:26 01.03.2021
2011 Clouds 5 1035 94 10000 0.45 141 10:42 01.03.2021
2012 Clouds 3 1034 95 10000 1.45 137 10:22 01.03.2021
2013 Clouds 2 1034 96 10000 0.45 70 09:50 01.03.2021
2014 Clouds 2 1034 96 10000 1.45 137 09:31 01.03.2021
2015 Clouds 2 1034 97 10000 1.02 129 08:56 01.03.2021
2016 Clouds 2 1034 97 10000 1.02 129 08:32 01.03.2021
2017 Clouds 2 1034 97 10000 0.8 103 07:32 01.03.2021
2018 Clear 2 1034 97 10000 0.45 55 06:25 01.03.2021
2019 Clear 2 1034 97 10000 0.57 122 02:40 01.03.2021
2020 Clouds 1 1034 97 10000 0.6 59 23:47 28.02.2021
2021 Clouds 1 1032 97 10000 0.81 56 23:20 28.02.2021
2022 Clouds 2 1034 96 10000 0.81 56 22:42 28.02.2021
2023 Clouds 2 1034 96 10000 0.97 48 22:20 28.02.2021
2024 Clouds 2 1034 95 10000 0.97 48 21:45 28.02.2021
2025 Clouds 2 1034 95 10000 1.15 31 21:23 28.02.2021
2026 Clouds 3 1034 95 10000 1.15 31 20:45 28.02.2021
2027 Clouds 3 1034 95 10000 1.39 26 20:26 28.02.2021
2028 Clouds 4 1034 94 10000 1.39 26 19:46 28.02.2021
2029 Clouds 4 1034 94 10000 1.46 32 19:27 28.02.2021
2030 Clear 5 1034 91 10000 1.17 20 18:47 28.02.2021
2031 Clear 5 1034 91 10000 1.18 22 18:26 28.02.2021
2032 Clear 6 1034 89 10000 1.18 22 17:56 28.02.2021
2033 Clear 6 1034 87 10000 1.18 22 17:37 28.02.2021
2034 Clear 7 1032 81 10000 1.18 23 17:19 28.02.2021
2035 Clear 8 1034 85 10000 0.89 265 16:46 28.02.2021
2036 Clear 7 1032 78 10000 1.25 25 16:26 28.02.2021
2037 Clear 7 1035 88 10000 1.25 25 15:51 28.02.2021
2038 Clear 7 1035 88 10000 1.25 25 15:51 28.02.2021
2039 Clear 7 1035 89 10000 0.45 255 15:26 28.02.2021
2040 Clear 7 1035 90 10000 1.79 269 14:57 28.02.2021
2041 Clear 7 1035 92 10000 0.89 236 14:30 28.02.2021
2042 Clear 8 1035 88 10000 1.34 26 13:56 28.02.2021
2043 Clear 7 1035 90 10000 1.34 26 13:36 28.02.2021
2044 Clear 7 1036 91 10000 1.53 19 13:18 28.02.2021
2045 Clear 8 1040 90 10000 1.53 19 12:48 28.02.2021
2046 Clear 6 1036 96 10000 0.45 302 12:30 28.02.2021
2047 Clear 5 1034 88 10000 1.64 5 11:55 28.02.2021
2048 Clear 5 1034 89 10000 1.64 5 11:36 28.02.2021
2049 Clear 4 1034 88 10000 1.57 348 11:18 28.02.2021
2050 Clear 4 1036 95 10000 1.57 348 10:30 28.02.2021
2051 Clear 4 1034 90 10000 1.36 329 09:59 28.02.2021
2052 Clear 3 1036 96 10000 1.36 329 09:38 28.02.2021
2053 Clear 3 1036 96 10000 1.17 315 09:20 28.02.2021
2054 Clear 2 1036 96 10000 1.17 315 08:38 28.02.2021
2055 Clear 2 1036 96 10000 0.86 315 08:20 28.02.2021
2056 Clear 2 1036 96 10000 0.88 326 07:44 28.02.2021
2057 Clear 2 1036 96 10000 0.89 325 07:25 28.02.2021
2058 Clear 1 1036 97 10000 0.62 310 06:23 28.02.2021
2059 Clear 2 1036 96 10000 0.49 290 05:19 28.02.2021
2060 Clear 3 1037 96 10000 0.26 26 02:28 28.02.2021
2061 Clouds 2 1038 97 10000 0.64 20 01:28 28.02.2021
2062 Clouds 2 1038 97 10000 0.62 5 00:39 28.02.2021
2063 Clouds 3 1037 95 10000 0.75 3 23:50 27.02.2021
2064 Clouds 3 1038 97 10000 0.71 23 23:22 27.02.2021
2065 Clouds 3 1038 97 10000 0.71 23 22:50 27.02.2021
2066 Clouds 3 1038 97 10000 1.2 14 22:24 27.02.2021
2067 Clouds 4 1038 97 10000 1.2 14 21:59 27.02.2021
2068 Clouds 4 1038 97 10000 1.2 14 21:38 27.02.2021
2069 Clouds 4 1036 94 10000 1.25 7 20:58 27.02.2021
2070 Clouds 4 1038 96 10000 1.25 7 20:39 27.02.2021
2071 Clouds 4 1038 96 10000 1.34 349 20:21 27.02.2021
2072 Clouds 4 1037 95 10000 1.34 349 19:43 27.02.2021
2073 Clouds 4 1037 95 10000 1.34 349 19:43 27.02.2021
2074 Clouds 4 1038 96 10000 0.45 259 19:23 27.02.2021
2075 Clouds 4 1038 95 10000 1.54 348 18:41 27.02.2021
2076 Clouds 4 1038 95 10000 1.64 340 18:20 27.02.2021
2077 Clouds 4 1037 93 10000 1.64 340 17:44 27.02.2021
2078 Clouds 4 1038 92 10000 1.79 263 17:20 27.02.2021
2079 Clouds 4 1037 91 10000 2.24 262 16:56 27.02.2021
2080 Clouds 5 1035 80 10000 1.97 336 16:36 27.02.2021
2081 Clouds 5 1037 89 10000 1.34 267 16:18 27.02.2021
2082 Clouds 5 1037 88 10000 2.24 261 15:38 27.02.2021
2083 Clouds 6 1037 86 10000 2.24 261 14:50 27.02.2021
2084 Clouds 6 1037 89 10000 3.13 290 14:32 27.02.2021
2085 Clouds 5 1037 90 10000 2.82 330 13:53 27.02.2021
2086 Clouds 5 1037 87 10000 2.24 306 13:27 27.02.2021
2087 Clouds 6 1035 80 10000 3.43 327 12:56 27.02.2021
2088 Clouds 6 1038 87 10000 1.34 299 12:30 27.02.2021
2089 Clouds 5 1038 87 10000 2.68 267 11:58 27.02.2021
2090 Clouds 5 1037 85 10000 1.34 271 11:40 27.02.2021
2091 Clouds 5 1037 85 10000 1.79 301 11:21 27.02.2021
2092 Clouds 4 1037 88 10000 4.02 279 10:46 27.02.2021
2093 Clouds 4 1037 94 10000 3.13 299 10:27 27.02.2021
2094 Clouds 4 1037 91 10000 3.13 290 09:48 27.02.2021
2095 Clouds 3 1036 93 10000 3.58 284 09:26 27.02.2021
2096 Clouds 3 1036 93 10000 3.13 284 08:41 27.02.2021
2097 Clouds 3 1036 93 10000 3.13 300 08:21 27.02.2021
2098 Clouds 2 1036 92 10000 2.86 309 07:41 27.02.2021
2099 Clouds 2 1035 89 7592 2.06 294 04:46 27.02.2021
2100 Clouds 4 1034 89 10000 2.6 311 00:54 27.02.2021
2101 Clouds 4 1033 91 10000 3.15 316 23:54 26.02.2021
2102 Clouds 4 1033 89 10000 2.58 316 23:28 26.02.2021
2103 Clouds 4 1031 85 10000 2.58 316 22:50 26.02.2021
2104 Clear 4 1032 89 10000 2.54 317 22:29 26.02.2021
2105 Clear 4 1032 86 10000 2.54 317 21:47 26.02.2021
2106 Clouds 5 1032 79 10000 2.72 315 21:28 26.02.2021
2107 Clouds 5 1032 85 10000 2.72 315 20:44 26.02.2021
2108 Clouds 5 1031 84 10000 2.88 316 20:22 26.02.2021
2109 Clouds 5 1031 84 10000 2.88 316 19:51 26.02.2021
2110 Clouds 5 1031 72 10000 3.4 321 19:25 26.02.2021
2111 Clouds 6 1031 81 10000 2.87 318 18:46 26.02.2021
2112 Clouds 6 1030 73 10000 2.91 317 18:23 26.02.2021
2113 Clouds 7 1030 69 10000 2.91 317 17:44 26.02.2021
2114 Clouds 7 1030 74 10000 1.34 328 17:26 26.02.2021
2115 Clouds 8 1027 73 10000 3.49 320 16:53 26.02.2021
2116 Clouds 8 1030 65 10000 3.49 320 16:32 26.02.2021
2117 Clouds 8 1030 76 10000 0.45 279 15:58 26.02.2021
2118 Clouds 8 1029 66 10000 0.45 90 15:39 26.02.2021
2119 Clouds 8 1030 83 10000 2.68 256 15:20 26.02.2021
2120 Clouds 8 1030 84 10000 2.68 269 14:47 26.02.2021
2121 Clouds 7 1030 88 10000 1.79 306 14:26 26.02.2021
2122 Clouds 7 1030 88 10000 2.24 304 13:46 26.02.2021
2123 Clouds 6 1030 86 10000 3.58 303 13:28 26.02.2021
2124 Rain 6 1030 90 10000 1.34 273 12:43 26.02.2021
2125 Clouds 6 1030 86 10000 3.26 301 12:25 26.02.2021
2126 Rain 5 1027 95 10000 3.26 301 11:38 26.02.2021
2127 Rain 5 1030 93 10000 0.89 307 10:54 26.02.2021
2128 Rain 5 1029 93 10000 2.68 280 10:20 26.02.2021
2129 Rain 7 1029 94 10000 2.68 287 09:46 26.02.2021
2130 Clouds 7 1029 96 10000 1.79 294 09:26 26.02.2021
2131 Clouds 7 1028 95 10000 2.24 282 08:32 26.02.2021
2132 Rain 7 1028 95 4551 1.79 259 07:54 26.02.2021
2133 Rain 7 1024 85 5428 1.67 340 07:20 26.02.2021
2134 Rain 8 1027 93 2296 2.68 265 05:40 26.02.2021
2135 Rain 8 1027 91 1724 1.34 266 04:49 26.02.2021
2136 Clouds 9 1023 76 1285 1.96 338 02:36 26.02.2021
2137 Clouds 11 1026 80 10000 3.13 40 00:24 26.02.2021
2138 Clouds 11 1026 80 10000 3.13 40 23:31 25.02.2021
2139 Clouds 11 1026 79 10000 3.13 40 22:51 25.02.2021
2140 Clouds 11 1026 79 10000 4.02 39 22:33 25.02.2021
2141 Clouds 11 1026 78 10000 4.47 40 21:48 25.02.2021
2142 Clouds 11 1026 77 10000 4.02 36 21:30 25.02.2021
2143 Clouds 12 1026 75 10000 3.13 39 20:44 25.02.2021
2144 Clouds 12 1025 69 10000 0.73 205 20:25 25.02.2021
2145 Clouds 12 1026 75 10000 3.13 39 19:58 25.02.2021
2146 Clouds 13 1026 74 10000 4.47 40 19:39 25.02.2021
2147 Clear 13 1026 73 10000 3.58 39 19:19 25.02.2021
2148 Clouds 13 1026 71 10000 3.58 40 18:39 25.02.2021
2149 Clouds 14 1026 65 10000 0.89 86 17:59 25.02.2021
2150 Clouds 16 1026 60 10000 1.62 271 17:31 25.02.2021
2151 Clear 17 1025 55 10000 4.63 270 16:55 25.02.2021
2152 Clear 18 1026 54 10000 0.89 247 16:33 25.02.2021
2153 Clear 18 1026 54 10000 1.34 256 15:39 25.02.2021
2154 Clear 18 1022 53 10000 3.82 251 15:20 25.02.2021
2155 Clear 18 1026 54 10000 2.24 261 14:32 25.02.2021
2156 Clear 17 1025 54 10000 2.24 270 13:59 25.02.2021
2157 Clear 17 1025 54 10000 1.79 270 13:40 25.02.2021
2158 Clear 17 1026 56 10000 0.45 229 13:20 25.02.2021
2159 Clear 16 1026 58 10000 0.45 169 12:38 25.02.2021
2160 Clear 15 1027 59 10000 0.45 171 12:20 25.02.2021
2161 Clear 15 1027 60 10000 0.89 166 11:42 25.02.2021
2162 Clear 14 1027 65 10000 2.98 218 10:51 25.02.2021
2163 Clear 13 1027 67 10000 2.98 218 10:33 25.02.2021
2164 Clear 12 1025 70 10000 0.45 293 09:45 25.02.2021
2165 Clear 12 1025 70 10000 0.45 293 09:45 25.02.2021
2166 Clear 11 1027 81 10000 2.57 219 09:23 25.02.2021
2167 Clear 9 1026 84 10000 2.68 38 08:40 25.02.2021
2168 Clear 9 1026 84 10000 2.68 38 08:21 25.02.2021
2169 Clear 9 1026 84 10000 2.68 44 07:39 25.02.2021
2170 Clear 9 1026 85 10000 3.13 42 06:57 25.02.2021
2171 Clear 9 1026 85 10000 3.13 42 06:57 25.02.2021
2172 Clear 9 1025 79 10000 2.24 207 05:28 25.02.2021
2173 Clear 10 1026 75 10000 0.45 270 01:50 25.02.2021
2174 Clear 10 1025 88 10000 2.07 191 00:48 25.02.2021
2175 Clear 10 1028 86 10000 3.58 41 00:19 25.02.2021
2176 Clear 10 1028 85 10000 3.13 38 23:36 24.02.2021
2177 Clear 10 1028 85 10000 3.13 34 22:56 24.02.2021
2178 Clear 11 1027 77 10000 0.89 270 22:30 24.02.2021
2179 Clear 11 1026 87 10000 2.08 188 21:50 24.02.2021
2180 Clear 11 1028 84 10000 3.13 38 21:31 24.02.2021
2181 Clear 11 1029 83 10000 2.24 42 20:50 24.02.2021
2182 Clear 11 1029 82 10000 2.68 38 20:28 24.02.2021
2183 Clear 12 1029 81 10000 2.24 38 19:47 24.02.2021
2184 Clear 12 1027 83 10000 2.01 192 19:21 24.02.2021
2185 Clear 13 1029 76 10000 2.24 63 18:54 24.02.2021
2186 Clear 14 1029 74 10000 1.34 46 18:31 24.02.2021
2187 Clear 15 1029 51 10000 3.09 220 17:45 24.02.2021
2188 Clear 16 1028 65 10000 0.45 293 17:25 24.02.2021
2189 Clear 17 1028 60 10000 1.79 270 16:48 24.02.2021
2190 Clear 18 1029 62 10000 0.45 184 16:21 24.02.2021
2191 Clear 18 1028 58 10000 2.24 270 15:55 24.02.2021
2192 Clear 18 1027 63 10000 2.92 223 15:34 24.02.2021
2193 Clear 18 1030 61 10000 0.89 205 14:52 24.02.2021
2194 Clear 17 1029 58 10000 2.24 270 14:30 24.02.2021
2195 Clear 17 1029 61 10000 2.24 270 13:55 24.02.2021
2196 Clear 17 1029 61 10000 1.79 270 13:37 24.02.2021
2197 Clear 17 1031 65 10000 2.24 240 13:18 24.02.2021
2198 Clear 16 1031 66 10000 0.45 170 12:41 24.02.2021
2199 Clear 15 1032 68 10000 1.79 206 12:23 24.02.2021
2200 Clear 14 1029 74 10000 3.32 216 11:36 24.02.2021
2201 Clear 13 1030 71 10000 0.89 293 10:47 24.02.2021
2202 Clear 13 1032 73 10000 2.48 200 10:26 24.02.2021
2203 Clear 11 1031 84 10000 1.79 37 09:30 24.02.2021
2204 Clear 10 1032 86 10000 2.24 39 08:52 24.02.2021
2205 Clear 9 1031 87 10000 3.13 36 08:33 24.02.2021
2206 Clear 9 1029 85 10000 2.04 189 07:47 24.02.2021
2207 Clear 9 1029 85 10000 2.01 202 07:19 24.02.2021
2208 Clear 9 1029 85 10000 2.2 210 05:49 24.02.2021
2209 Clear 11 1032 84 10000 1.79 44 02:44 24.02.2021
2210 Clouds 10 1032 83 10000 2.24 55 23:55 23.02.2021
2211 Clouds 10 1030 74 10000 0.89 293 22:51 23.02.2021
2212 Clouds 10 1032 83 10000 2.24 46 22:23 23.02.2021
2213 Clouds 11 1031 74 10000 0.45 293 21:56 23.02.2021
2214 Clouds 11 1030 85 10000 2.61 217 21:37 23.02.2021
2215 Clouds 11 1032 82 10000 2.24 37 21:18 23.02.2021
2216 Clouds 11 1032 81 10000 1.79 38 20:45 23.02.2021
2217 Clouds 12 1032 81 10000 2.24 34 20:27 23.02.2021
2218 Clouds 12 1032 79 10000 2.24 42 19:47 23.02.2021
2219 Clear 12 1032 78 10000 2.24 38 19:26 23.02.2021
2220 Clear 13 1031 76 10000 1.34 39 18:47 23.02.2021
2221 Clear 13 1029 75 10000 2.33 207 18:29 23.02.2021
2222 Clear 14 1029 72 10000 0.89 158 17:54 23.02.2021
2223 Clear 16 1030 51 10000 4.63 210 17:28 23.02.2021
2224 Clear 17 1029 62 10000 1.34 163 16:47 23.02.2021
2225 Clear 17 1028 63 10000 2.98 227 16:24 23.02.2021
2226 Clear 17 1032 61 10000 0.45 278 15:52 23.02.2021
2227 Clear 17 1028 63 10000 2.98 227 15:34 23.02.2021
2228 Clear 17 1030 59 10000 0.89 225 14:58 23.02.2021
2229 Clear 16 1028 62 10000 4.25 234 14:40 23.02.2021
2230 Clear 16 1032 61 10000 2.24 219 14:19 23.02.2021
2231 Clear 16 1032 61 10000 1.34 148 13:39 23.02.2021
2232 Clouds 15 1032 62 10000 1.34 166 13:19 23.02.2021
2233 Clouds 14 1030 62 10000 1.79 248 12:46 23.02.2021
2234 Clouds 14 1032 64 10000 0.45 190 12:20 23.02.2021
2235 Clouds 13 1032 64 10000 0.89 236 11:45 23.02.2021
2236 Clouds 12 1031 72 10000 3.47 222 11:20 23.02.2021
2237 Clouds 12 1030 66 10000 1.79 270 10:40 23.02.2021
2238 Clouds 11 1032 68 10000 2.33 215 10:19 23.02.2021
2239 Clouds 10 1031 72 10000 2.33 215 09:42 23.02.2021
2240 Clouds 9 1031 75 10000 1.34 41 09:21 23.02.2021
2241 Clouds 8 1030 77 10000 2.24 41 08:48 23.02.2021
2242 Clouds 8 1030 78 10000 1.79 42 08:21 23.02.2021
2243 Clouds 8 1028 69 10000 0.89 270 07:48 23.02.2021
2244 Clouds 8 1029 74 10000 1.79 40 05:29 23.02.2021
2245 Clouds 8 1029 73 10000 2.24 42 04:25 23.02.2021
2246 Clouds 8 1028 72 10000 1.79 38 02:33 23.02.2021
2247 Clouds 8 1026 69 10000 0.89 270 00:20 23.02.2021
2248 Clouds 9 1025 68 10000 0.89 293 23:46 22.02.2021
2249 Clear 9 1026 69 10000 2.24 43 23:20 22.02.2021
2250 Clear 9 1026 69 10000 3.13 40 22:39 22.02.2021
2251 Clear 9 1025 70 10000 2.24 46 22:20 22.02.2021
2252 Clear 9 1025 70 10000 2.68 11 21:40 22.02.2021
2253 Clear 9 1025 70 10000 2.24 44 21:21 22.02.2021
2254 Clear 9 1024 66 10000 1.79 40 20:49 22.02.2021
2255 Clear 9 1024 66 10000 1.79 39 20:27 22.02.2021
2256 Clear 10 1024 61 10000 1.79 40 19:51 22.02.2021
2257 Clear 10 1024 62 10000 1.79 40 19:30 22.02.2021
2258 Clouds 11 1023 60 10000 1.79 41 18:49 22.02.2021
2259 Clouds 11 1023 61 10000 1.79 43 18:30 22.02.2021
2260 Clear 12 1025 78 10000 0.93 190 17:54 22.02.2021
2261 Clear 13 1022 58 10000 0.45 46 17:22 22.02.2021
2262 Clear 13 1022 58 10000 0.45 46 17:22 22.02.2021
2263 Clear 13 1022 58 10000 0.45 46 17:22 22.02.2021
2264 Clear 13 1022 58 10000 0.45 46 17:22 22.02.2021
2265 Clear 14 1023 65 10000 1.45 224 16:53 22.02.2021
2266 Clear 15 1023 65 10000 1.45 224 16:31 22.02.2021
2267 Clear 15 1022 62 10000 1.11 207 15:42 22.02.2021
2268 Clear 15 1023 69 10000 0.95 193 15:21 22.02.2021
2269 Clear 15 1021 56 10000 0.95 193 14:44 22.02.2021
2270 Clear 15 1021 56 10000 0.45 290 14:22 22.02.2021
2271 Clear 15 1021 53 10000 0.89 215 13:46 22.02.2021
2272 Clear 14 1021 55 10000 0.89 186 12:56 22.02.2021
2273 Clear 13 1021 57 10000 1.05 199 12:23 22.02.2021
2274 Clear 11 1020 57 10000 0.89 270 11:57 22.02.2021
2275 Clear 11 1018 58 10000 1.05 199 11:38 22.02.2021
2276 Clear 11 1021 64 10000 0.45 20 11:20 22.02.2021
2277 Clear 10 1021 65 10000 1.2 199 10:41 22.02.2021
2278 Clear 10 1021 65 10000 1.38 213 10:21 22.02.2021
2279 Clear 8 1020 72 10000 1.38 213 09:40 22.02.2021
2280 Clear 7 1019 73 10000 1.62 211 09:22 22.02.2021
2281 Clear 6 1019 72 10000 2.24 38 08:49 22.02.2021
2282 Clear 6 1018 73 10000 0.45 270 08:21 22.02.2021
2283 Clear 6 1019 77 10000 2.24 40 07:50 22.02.2021
2284 Clear 6 1018 75 10000 1.63 191 07:23 22.02.2021
2285 Clear 6 1019 75 10000 2.68 43 06:28 22.02.2021
2286 Clear 6 1019 73 10000 1.57 194 05:21 22.02.2021
2287 Clear 7 1018 73 10000 3.58 50 03:24 22.02.2021
2288 Clear 8 1018 73 10000 3.13 47 02:31 22.02.2021
2289 Clear 8 1018 73 10000 3.13 36 00:44 22.02.2021
2290 Clear 8 1015 69 10000 1.59 205 00:19 22.02.2021
2291 Clear 9 1017 73 10000 2.68 38 23:27 21.02.2021
2292 Clear 9 1017 72 10000 2.24 55 22:37 21.02.2021
2293 Clear 9 1015 65 10000 1.83 213 21:59 21.02.2021
2294 Clear 9 1017 70 10000 3.13 35 21:35 21.02.2021
2295 Clear 10 1017 70 10000 2.68 40 20:58 21.02.2021
2296 Clear 9 1017 70 10000 3.13 37 20:39 21.02.2021
2297 Clear 9 1017 67 10000 2.24 38 20:19 21.02.2021
2298 Clear 10 1014 72 10000 1.83 193 19:49 21.02.2021
2299 Clear 10 1017 70 10000 1.34 111 19:30 21.02.2021
2300 Clear 11 1017 66 10000 1.34 88 18:43 21.02.2021
2301 Clear 11 1015 66 10000 0.45 175 18:24 21.02.2021
2302 Clear 14 1014 49 10000 0.45 175 17:29 21.02.2021
2303 Clear 16 1016 30 10000 1.54 200 16:57 21.02.2021
2304 Clear 15 1016 54 10000 0.89 78 16:34 21.02.2021
2305 Clear 16 1016 51 10000 0.45 330 15:54 21.02.2021
2306 Clear 16 1016 51 10000 0.45 330 15:54 21.02.2021
2307 Clear 16 1016 51 10000 0.89 251 15:22 21.02.2021
2308 Clear 16 1017 53 10000 1.34 102 14:51 21.02.2021
2309 Clear 15 1017 68 10000 3.04 199 14:30 21.02.2021
2310 Clear 14 1015 44 10000 1.34 293 13:47 21.02.2021
2311 Clouds 14 1015 59 10000 4.08 222 13:23 21.02.2021
2312 Clouds 14 1017 67 10000 1.34 116 12:32 21.02.2021
2313 Clouds 13 1015 55 10000 1.34 270 11:58 21.02.2021
2314 Clouds 12 1018 72 10000 1.34 47 11:40 21.02.2021
2315 Clouds 12 1015 72 10000 3.84 229 10:40 21.02.2021
2316 Clouds 10 1015 73 10000 2.94 214 10:21 21.02.2021
2317 Clouds 9 1020 89 10000 2.94 214 09:42 21.02.2021
2318 Clouds 7 1020 88 10000 2.64 202 09:23 21.02.2021
2319 Clouds 6 1017 81 10000 3.13 44 08:33 21.02.2021
2320 Clouds 7 1015 71 10000 2.49 202 07:45 21.02.2021
2321 Clouds 7 1016 84 10000 3.58 42 07:22 21.02.2021
2322 Clouds 6 1016 83 10000 3.13 22 05:59 21.02.2021
2323 Clouds 8 1016 84 10000 3.13 36 02:40 21.02.2021
2324 Clouds 8 1014 72 10000 1.34 293 01:20 21.02.2021
2325 Clouds 8 1014 88 10000 2.57 196 00:21 21.02.2021
2326 Clouds 8 1014 75 10000 0.45 270 23:47 20.02.2021
2327 Clouds 8 1014 75 10000 0.89 293 22:57 20.02.2021
2328 Clouds 8 1016 81 10000 1.34 49 22:32 20.02.2021
2329 Clear 8 1014 74 10000 0.89 270 21:57 20.02.2021
2330 Clear 8 1016 83 10000 1.79 49 21:39 20.02.2021
2331 Clear 8 1016 83 10000 1.34 43 21:18 20.02.2021
2332 Clear 9 1014 73 10000 0.45 0 20:38 20.02.2021
2333 Clear 7 1014 90 10000 2.7 179 20:19 20.02.2021
2334 Clear 9 1017 82 10000 1.79 41 19:41 20.02.2021
2335 Clouds 9 1017 81 10000 1.34 82 18:58 20.02.2021
2336 Clouds 9 1014 75 10000 0.89 171 18:34 20.02.2021
2337 Clouds 10 1018 86 10000 2.71 175 17:59 20.02.2021
2338 Clouds 11 1014 72 10000 1.34 175 17:33 20.02.2021
2339 Clouds 12 1017 76 10000 2.39 172 16:50 20.02.2021
2340 Clouds 13 1014 63 10000 0.89 270 16:27 20.02.2021
2341 Clouds 13 1017 72 10000 0.89 135 15:44 20.02.2021
2342 Clouds 13 1017 71 10000 0.45 70 14:53 20.02.2021
2343 Clouds 12 1015 67 10000 0.89 293 14:29 20.02.2021
2344 Clouds 12 1018 76 10000 0.45 65 13:59 20.02.2021
2345 Clouds 11 1019 83 10000 2.6 204 13:40 20.02.2021
2346 Clouds 11 1016 70 10000 0.89 293 13:21 20.02.2021
2347 Clouds 11 1016 71 9976 1.79 270 12:46 20.02.2021
2348 Clouds 9 1016 74 9904 0.89 270 11:56 20.02.2021
2349 Clouds 9 1016 80 9904 2.37 184 11:38 20.02.2021
2350 Clouds 8 1017 79 9906 1.34 270 10:55 20.02.2021
2351 Clouds 8 1018 80 9906 0.45 92 10:32 20.02.2021
2352 Clouds 7 1018 87 10000 0.89 61 09:48 20.02.2021
2353 Clouds 6 1016 83 10000 0.89 270 09:18 20.02.2021
2354 Clouds 5 1017 91 10000 2.24 38 08:31 20.02.2021
2355 Clouds 5 1015 89 10000 1.92 181 07:50 20.02.2021
2356 Clouds 5 1017 88 10000 3.13 38 02:45 20.02.2021
2357 Clouds 5 1016 87 10000 1.99 185 02:21 20.02.2021
2358 Clouds 4 1017 87 10000 1.34 41 01:22 20.02.2021
2359 Clouds 3 1019 89 10000 0.45 143 00:45 20.02.2021
2360 Clouds 4 1017 87 10000 1.79 40 23:43 19.02.2021
2361 Clouds 4 1017 86 10000 2.31 189 22:56 19.02.2021
2362 Clouds 4 1017 87 10000 2.38 186 22:26 19.02.2021
2363 Clouds 4 1017 87 10000 1.34 41 21:48 19.02.2021
2364 Clouds 4 1016 81 10000 0.45 270 21:28 19.02.2021
2365 Clouds 4 1016 88 10000 2.2 185 20:47 19.02.2021
2366 Clouds 5 1017 84 10000 0.45 47 20:27 19.02.2021
2367 Clouds 5 1017 84 10000 2.21 190 19:51 19.02.2021
2368 Clouds 5 1017 84 10000 2.24 40 19:23 19.02.2021
2369 Clouds 5 1016 80 10000 2.2 187 18:56 19.02.2021
2370 Clouds 5 1018 81 10000 0.45 51 18:33 19.02.2021
2371 Clouds 6 1016 77 10000 2.05 187 17:49 19.02.2021
2372 Clouds 8 1016 67 10000 0.45 185 16:52 19.02.2021
2373 Clouds 8 1016 65 10000 0.89 225 16:27 19.02.2021
2374 Clouds 9 1016 64 10000 1.34 270 15:58 19.02.2021
2375 Clouds 9 1018 65 10000 2.42 214 15:31 19.02.2021
2376 Clouds 9 1018 64 10000 0.89 232 14:59 19.02.2021
2377 Clouds 9 1016 63 10000 2.68 270 14:38 19.02.2021
2378 Clouds 8 1018 68 10000 2.77 228 13:58 19.02.2021
2379 Clouds 8 1015 73 10000 3.04 229 13:39 19.02.2021
2380 Clouds 8 1017 68 10000 2.24 270 13:19 19.02.2021
2381 Clouds 7 1018 75 10000 0.45 165 12:41 19.02.2021
2382 Clouds 7 1018 77 10000 0.89 211 12:22 19.02.2021
2383 Clouds 6 1018 79 10000 3.57 241 11:50 19.02.2021
2384 Clouds 6 1018 80 10000 3.44 243 11:22 19.02.2021
2385 Clouds 5 1018 85 10000 1.34 248 10:47 19.02.2021
2386 Clouds 5 1018 85 10000 1.34 236 10:21 19.02.2021
2387 Clouds 5 1017 88 10000 3.5 243 09:40 19.02.2021
2388 Clouds 4 1015 88 10000 3.14 236 09:22 19.02.2021
2389 Clouds 4 1019 89 10000 0.45 102 08:50 19.02.2021
2390 Clouds 4 1016 86 10000 0.45 270 08:22 19.02.2021
2391 Clouds 4 1015 90 10000 1.79 253 07:48 19.02.2021
2392 Clouds 4 1015 88 10000 0.45 270 07:27 19.02.2021
2393 Clouds 4 1014 87 10000 3.48 243 06:49 19.02.2021
2394 Clouds 4 1014 92 8143 0.89 252 05:21 19.02.2021
2395 Clouds 5 1013 90 8143 0.89 270 04:41 19.02.2021
2396 Rain 6 1010 88 4380 0.45 225 01:47 19.02.2021
2397 Clouds 6 1009 86 5163 5.2 216 00:37 19.02.2021
2398 Rain 6 1009 77 8014 5.42 200 23:54 18.02.2021
2399 Rain 6 1009 77 8014 0.45 146 23:34 18.02.2021
2400 Rain 7 1009 76 10000 4.94 192 22:47 18.02.2021
2401 Rain 6 1007 88 10000 4.12 183 22:28 18.02.2021
2402 Rain 7 1007 69 10000 0.89 293 21:47 18.02.2021
2403 Clouds 7 1008 84 10000 4.03 173 21:25 18.02.2021
2404 Clouds 7 1008 84 10000 4.03 173 21:25 18.02.2021
2405 Clouds 7 1007 68 10000 0.89 270 20:43 18.02.2021
2406 Clouds 7 1007 69 10000 0.89 293 20:23 18.02.2021
2407 Clouds 7 1007 71 10000 0.89 270 19:47 18.02.2021
2408 Clouds 7 1008 70 10000 0.45 315 19:26 18.02.2021
2409 Rain 6 1012 83 10000 4.74 172 18:53 18.02.2021
2410 Clouds 6 1012 82 10000 0.89 296 18:30 18.02.2021
2411 Clouds 6 1009 81 10000 3.84 178 17:53 18.02.2021
2412 Clouds 7 1010 81 10000 3.82 166 17:26 18.02.2021
2413 Clouds 8 1009 68 10000 0.89 270 16:56 18.02.2021
2414 Clouds 8 1010 67 10000 0.89 293 16:38 18.02.2021
2415 Clouds 8 1010 79 10000 3.62 163 16:19 18.02.2021
2416 Clouds 9 1011 79 10000 3.62 163 15:38 18.02.2021
2417 Clouds 9 1011 68 10000 0.89 270 15:20 18.02.2021
2418 Clouds 8 1011 81 10000 3.56 160 14:48 18.02.2021
2419 Clouds 9 1013 78 10000 0.89 84 14:29 18.02.2021
2420 Clouds 9 1012 68 10000 1.34 270 13:46 18.02.2021
2421 Clouds 9 1012 83 10000 3.59 177 13:19 18.02.2021
2422 Clouds 8 1015 78 10000 0.45 111 12:45 18.02.2021
2423 Clouds 8 1013 74 10000 1.34 270 12:23 18.02.2021
2424 Clouds 7 1014 80 10000 0.45 293 11:46 18.02.2021
2425 Clouds 7 1014 80 10000 0.45 293 11:27 18.02.2021
2426 Clouds 6 1016 84 10000 3.49 181 10:48 18.02.2021
2427 Clouds 6 1018 84 10000 2.81 180 10:29 18.02.2021
2428 Clouds 5 1015 98 10000 2.81 180 09:49 18.02.2021
2429 Clouds 4 1016 95 10000 0.45 84 09:24 18.02.2021
2430 Clouds 4 1016 96 10000 0.45 46 08:48 18.02.2021
2431 Clouds 4 1016 96 10000 1.99 179 08:25 18.02.2021
2432 Clouds 4 1016 96 10000 1.34 38 07:35 18.02.2021
2433 Clouds 4 1016 96 10000 1.34 42 06:54 18.02.2021
2434 Clouds 4 1017 95 10000 0.45 37 03:31 18.02.2021
2435 Clouds 4 1018 94 10000 2.04 217 23:56 17.02.2021
2436 Clouds 5 1018 95 10000 2.04 217 23:30 17.02.2021
2437 Clouds 5 1018 94 10000 2.15 219 22:54 17.02.2021
2438 Clouds 5 1017 86 10000 0.45 270 22:27 17.02.2021
2439 Clouds 5 1017 84 10000 0.45 270 21:57 17.02.2021
2440 Clouds 5 1016 93 8969 2.39 220 21:22 17.02.2021
2441 Clouds 5 1018 95 8969 2.39 220 20:53 17.02.2021
2442 Clouds 5 1016 91 8969 2.39 220 20:33 17.02.2021
2443 Clouds 6 1018 94 10000 2.31 225 19:52 17.02.2021
2444 Clouds 5 1016 91 10000 2.31 225 19:34 17.02.2021
2445 Clouds 5 1017 94 6966 2.17 234 18:50 17.02.2021
2446 Clouds 6 1017 94 6966 2.17 234 18:31 17.02.2021
2447 Clouds 6 1017 94 6717 2.4 241 17:46 17.02.2021
2448 Clouds 6 1017 94 10000 2.94 252 17:21 17.02.2021
2449 Clouds 6 1018 85 10000 2.94 252 16:51 17.02.2021
2450 Clouds 7 1016 85 10000 0.45 270 16:29 17.02.2021
2451 Clouds 7 1014 89 10000 4.22 264 15:46 17.02.2021
2452 Clouds 7 1016 84 10000 5.18 266 15:27 17.02.2021
2453 Clouds 7 1016 88 10000 5.18 266 14:59 17.02.2021
2454 Clouds 7 1017 87 10000 5.18 266 14:39 17.02.2021
2455 Clouds 7 1016 88 10000 5.57 265 14:21 17.02.2021
2456 Clouds 7 1016 89 10000 5.57 265 13:40 17.02.2021
2457 Clouds 6 1016 91 10000 5.63 265 12:58 17.02.2021
2458 Clouds 6 1015 90 5844 0.45 270 12:26 17.02.2021
2459 Clouds 6 1016 97 5844 5.25 259 11:48 17.02.2021
2460 Clouds 5 1016 97 10000 5.04 256 11:29 17.02.2021
2461 Clouds 5 1016 97 10000 5.04 256 10:57 17.02.2021
2462 Clouds 5 1015 97 10000 5.04 256 10:39 17.02.2021
2463 Clouds 4 1015 97 6770 5.27 258 10:20 17.02.2021
2464 Clouds 4 1014 95 6770 5.27 258 09:40 17.02.2021
2465 Clouds 4 1014 97 5866 5.46 254 08:58 17.02.2021
2466 Rain 4 1012 100 5866 1.34 314 08:37 17.02.2021
2467 Clouds 4 1014 97 5466 5.37 253 08:18 17.02.2021
2468 Clouds 4 1013 97 5299 4.83 254 06:48 17.02.2021
2469 Clouds 4 1011 96 1249 4.01 268 03:53 17.02.2021
2470 Rain 4 1011 96 2215 4.3 260 02:33 17.02.2021
2471 Clouds 4 1010 87 3747 4.17 235 01:37 17.02.2021
2472 Clouds 4 1011 95 5120 4.1 224 00:28 17.02.2021
2473 Clouds 3 1011 95 5120 4.1 224 23:49 16.02.2021
2474 Clouds 3 1011 95 5377 3.87 215 23:25 16.02.2021
2475 Clouds 3 1011 95 5377 3.87 215 22:42 16.02.2021
2476 Clouds 3 1011 95 6415 4.06 210 22:22 16.02.2021
2477 Clouds 3 1010 100 6415 4.06 210 21:40 16.02.2021
2478 Clouds 4 1010 100 8542 3.85 203 21:22 16.02.2021
2479 Clouds 4 1012 96 8542 3.85 203 20:58 16.02.2021
2480 Clouds 4 1012 96 8542 3.85 203 20:38 16.02.2021
2481 Clouds 3 1010 86 9737 1.79 270 20:20 16.02.2021
2482 Clouds 3 1012 96 9737 3.27 195 19:40 16.02.2021
2483 Clouds 3 1012 96 3575 2.9 183 19:21 16.02.2021
2484 Clouds 3 1013 97 6348 3.06 185 18:38 16.02.2021
2485 Clouds 3 1013 96 3895 2.41 166 18:19 16.02.2021
2486 Clouds 3 1014 96 3895 2.41 166 17:49 16.02.2021
2487 Clouds 3 1014 96 108 2.23 171 17:23 16.02.2021
2488 Clouds 4 1014 97 108 2.23 171 16:47 16.02.2021
2489 Clouds 4 1015 96 79 2.04 184 16:24 16.02.2021
2490 Clouds 4 1014 92 79 0.45 270 15:47 16.02.2021
2491 Clouds 4 1016 96 51 2.34 210 15:26 16.02.2021
2492 Clouds 4 1016 97 51 2.34 210 14:48 16.02.2021
2493 Clouds 4 1015 91 51 0.89 270 14:30 16.02.2021
2494 Clouds 4 1017 97 60 2.62 214 13:57 16.02.2021
2495 Clouds 3 1016 100 60 2.62 214 13:34 16.02.2021
2496 Clouds 3 1018 97 66 2.97 223 12:46 16.02.2021
2497 Clouds 3 1018 97 227 2.44 211 12:25 16.02.2021
2498 Rain 3 1017 100 227 2.44 211 11:50 16.02.2021
2499 Clouds 2 1018 97 3350 2.28 214 11:24 16.02.2021
2500 Clouds 2 1019 97 3350 2.28 214 10:57 16.02.2021
2501 Clouds 2 1017 100 3350 2.28 214 10:38 16.02.2021
2502 Clouds 2 1019 97 5231 2.4 209 10:20 16.02.2021
2503 Clouds 2 1019 97 5231 2.4 209 09:47 16.02.2021
2504 Clouds 2 1019 97 10000 2.04 190 09:26 16.02.2021
2505 Clouds 1 1019 97 10000 0.45 38 08:44 16.02.2021
2506 Clouds 1 1019 97 10000 0.45 38 08:44 16.02.2021
2507 Clouds 1 1019 97 10000 0.45 39 08:22 16.02.2021
2508 Clouds 1 1019 97 10000 1.79 45 07:27 16.02.2021
2509 Clouds 1 1019 95 6031 0.45 270 05:31 16.02.2021
2510 Clouds 0 1021 96 10000 3.14 241 00:51 16.02.2021
2511 Clouds 0 1022 96 8212 3.37 238 23:41 15.02.2021
2512 Clouds 0 1020 98 8146 3.63 236 23:20 15.02.2021
2513 Clouds 0 1022 95 8146 3.63 236 22:44 15.02.2021
2514 Snow 0 1022 95 5619 3.98 236 22:23 15.02.2021
2515 Clouds -1 1022 95 5619 0.45 46 21:42 15.02.2021
2516 Clouds -1 1022 95 6810 3.93 229 21:22 15.02.2021
2517 Clouds -1 1022 94 6810 3.93 229 20:47 15.02.2021
2518 Snow -1 1022 94 6291 4.07 221 20:27 15.02.2021
2519 Snow -1 1021 92 6291 0.45 293 19:48 15.02.2021
2520 Snow -1 1023 94 3381 3.95 207 19:24 15.02.2021
2521 Snow -1 1023 93 3495 3.76 211 18:47 15.02.2021
2522 Snow -2 1023 93 1229 0.45 101 18:26 15.02.2021
2523 Snow -2 1023 91 1229 0.45 94 17:44 15.02.2021
2524 Clouds -2 1023 90 592 0.45 86 17:26 15.02.2021
2525 Snow -2 1024 88 592 0.89 124 16:57 15.02.2021
2526 Snow -1 1025 87 2743 0.89 83 16:28 15.02.2021
2527 Snow -1 1023 85 2743 2.24 270 15:57 15.02.2021
2528 Snow -1 1026 73 2743 0.45 151 15:38 15.02.2021
2529 Snow -1 1025 68 10000 0.45 53 15:18 15.02.2021
2530 Snow -1 1024 64 10000 0.89 270 14:40 15.02.2021
2531 Clouds -1 1027 58 10000 0.45 109 14:20 15.02.2021
2532 Snow -1 1027 57 10000 1.34 110 13:48 15.02.2021
2533 Snow -1 1027 51 10000 0.89 80 13:20 15.02.2021
2534 Snow -1 1027 51 10000 0.89 80 13:20 15.02.2021
2535 Snow -1 1028 50 10000 0.89 113 12:45 15.02.2021
2536 Snow -1 1028 48 5410 0.45 84 12:21 15.02.2021
2537 Snow -1 1029 46 5410 1.34 82 11:49 15.02.2021
2538 Snow -1 1030 48 7418 0.89 78 11:22 15.02.2021
2539 Snow -2 1030 62 7418 4.2 185 10:50 15.02.2021
2540 Clouds -2 1027 49 10000 1.34 315 10:25 15.02.2021
2541 Clouds -3 1028 48 10000 1.79 225 09:56 15.02.2021
2542 Clouds -3 1030 65 10000 4.2 179 09:33 15.02.2021
2543 Clouds -4 1028 48 10000 1.79 293 08:55 15.02.2021
2544 Clouds -4 1035 72 10000 3.76 173 07:55 15.02.2021
2545 Clouds -3 1031 62 10000 0.45 36 06:59 15.02.2021
2546 Clouds -4 1032 63 10000 3.45 172 06:40 15.02.2021
2547 Clouds -5 1034 75 10000 2.85 160 02:34 15.02.2021
2548 Clouds -5 1034 69 10000 2.55 150 01:27 15.02.2021
2549 Clouds -7 1034 73 10000 2.23 157 23:58 14.02.2021
2550 Clouds -6 1036 69 10000 0.89 51 23:23 14.02.2021
2551 Clouds -6 1036 72 10000 0.89 37 22:40 14.02.2021
2552 Clouds -6 1036 72 10000 0.89 37 22:40 14.02.2021
2553 Clouds -6 1036 70 10000 2.25 156 22:21 14.02.2021
2554 Clouds -6 1036 72 10000 2.25 156 21:50 14.02.2021
2555 Clouds -6 1036 73 10000 1.34 40 21:29 14.02.2021
2556 Clouds -6 1036 71 10000 1.34 38 20:52 14.02.2021
2557 Clouds -6 1036 72 10000 1.79 39 20:29 14.02.2021
2558 Clouds -6 1042 72 10000 1.77 172 19:49 14.02.2021
2559 Clouds -6 1036 74 10000 1.64 159 18:59 14.02.2021
2560 Clouds -6 1043 72 10000 1.64 159 18:39 14.02.2021
2561 Clouds -6 1043 72 10000 1.68 156 18:20 14.02.2021
2562 Clouds -5 1042 68 10000 1.68 156 17:39 14.02.2021
2563 Clouds -5 1041 87 10000 1.34 117 16:57 14.02.2021
2564 Clouds -4 1039 84 10000 0.89 0 16:38 14.02.2021
2565 Clouds -1 1037 62 10000 0.45 225 16:18 14.02.2021
2566 Clouds -1 1037 62 10000 0.45 225 16:18 14.02.2021
2567 Clouds -1 1038 61 10000 1.41 157 15:40 14.02.2021
2568 Clouds -1 1039 67 10000 1.37 166 14:58 14.02.2021
2569 Clouds -2 1039 67 10000 1.18 174 14:29 14.02.2021
2570 Clouds -2 1039 69 10000 1.18 174 13:55 14.02.2021
2571 Clouds -3 1039 73 10000 1.18 174 13:31 14.02.2021
2572 Clear -5 1039 79 10000 0.45 270 12:45 14.02.2021
2573 Clear -5 1040 79 10000 1.32 148 12:21 14.02.2021
2574 Clear -5 1040 80 10000 1.32 148 11:51 14.02.2021
2575 Clear -6 1040 87 10000 1.22 139 11:24 14.02.2021
2576 Clear -7 1040 87 10000 1.22 139 10:49 14.02.2021
2577 Clear -9 1040 91 10000 1.17 154 09:57 14.02.2021
2578 Clear -9 1040 91 10000 1.17 154 09:38 14.02.2021
2579 Clear -10 1039 91 10000 1.18 156 09:20 14.02.2021
2580 Clear -12 1039 89 10000 1.79 40 08:41 14.02.2021
2581 Clear -11 1039 90 10000 2.24 39 07:57 14.02.2021
2582 Clear -11 1039 90 10000 3.13 36 06:51 14.02.2021
2583 Clear -11 1039 90 10000 2.68 37 05:42 14.02.2021
2584 Clear -11 1040 93 10000 0.91 143 03:32 14.02.2021
2585 Clear -11 1046 59 10000 0.86 168 02:22 14.02.2021
2586 Clear -11 1040 90 10000 0.79 153 00:48 14.02.2021
2587 Clear -11 1040 89 10000 1.05 138 00:27 14.02.2021
2588 Clear -11 1040 90 10000 1.79 40 23:41 13.02.2021
2589 Clear -10 1040 95 10000 0.93 138 23:21 13.02.2021
2590 Clear -10 1040 94 10000 0.93 138 22:43 13.02.2021
2591 Clear -10 1040 90 10000 0.89 117 22:20 13.02.2021
2592 Clear -10 1040 90 10000 0.89 117 21:42 13.02.2021
2593 Clear -10 1040 90 10000 0.45 40 21:21 13.02.2021
2594 Clear -10 1039 89 10000 1.02 102 20:30 13.02.2021
2595 Clear -10 1040 91 10000 0.96 89 19:56 13.02.2021
2596 Clear -11 1039 88 10000 0.96 89 19:37 13.02.2021
2597 Clear -10 1041 93 10000 0.45 183 19:18 13.02.2021
2598 Clear -10 1039 87 10000 1 86 18:40 13.02.2021
2599 Clear -9 1044 90 10000 0.45 89 18:20 13.02.2021
2600 Clear -8 1040 88 10000 0.89 175 17:42 13.02.2021
2601 Clear -6 1039 87 10000 0.76 80 17:22 13.02.2021
2602 Clear -5 1039 86 10000 0.76 80 16:42 13.02.2021
2603 Clear -5 1039 85 10000 0.97 57 16:21 13.02.2021
2604 Clear -5 1039 86 10000 0.97 57 15:39 13.02.2021
2605 Clear -5 1039 86 10000 0.98 42 14:57 13.02.2021
2606 Clear -6 1039 83 10000 0.98 42 14:32 13.02.2021
2607 Clear -7 1039 84 10000 0.84 47 13:48 13.02.2021
2608 Clear -7 1039 85 10000 1.08 68 13:24 13.02.2021
2609 Clear -7 1039 84 10000 1.08 68 12:46 13.02.2021
2610 Clear -7 1039 86 10000 1.12 64 12:18 13.02.2021
2611 Clear -8 1055 63 10000 0.45 345 11:45 13.02.2021
2612 Clear -9 1055 63 10000 0.45 355 11:19 13.02.2021
2613 Clear -10 1038 82 10000 0.99 61 10:46 13.02.2021
2614 Clear -8 1038 81 10000 1.07 63 10:25 13.02.2021
2615 Clear -9 1038 81 10000 1.07 63 09:55 13.02.2021
2616 Clear -11 1046 51 10000 1.07 63 09:30 13.02.2021
2617 Clear -11 1038 82 10000 1.1 59 08:55 13.02.2021
2618 Clear -14 1037 89 10000 1.14 51 08:35 13.02.2021
2619 Clear -13 1037 89 10000 1.14 51 07:52 13.02.2021
2620 Clear -14 1045 52 10000 0.96 50 06:39 13.02.2021
2621 Clear -13 1037 90 10000 1.28 54 05:26 13.02.2021
2622 Clear -12 1037 91 10000 1.24 56 03:58 13.02.2021
2623 Clear -11 1037 91 10000 1.48 56 01:48 13.02.2021
2624 Clouds -11 1037 91 10000 1.75 58 00:42 13.02.2021
2625 Clouds -11 1036 90 10000 1.68 64 23:54 12.02.2021
2626 Clouds -10 1036 90 10000 2 63 23:26 12.02.2021
2627 Clouds -10 1036 90 10000 2 63 22:44 12.02.2021
2628 Clouds -10 1036 89 10000 2.29 57 22:25 12.02.2021
2629 Clouds -9 1035 88 10000 2.29 57 21:46 12.02.2021
2630 Clouds -9 1035 87 5615 2.32 56 21:27 12.02.2021
2631 Clouds -9 1035 87 5615 2.32 56 20:46 12.02.2021
2632 Clouds -9 1034 86 4338 2.34 52 20:28 12.02.2021
2633 Clouds -9 1034 85 4338 2.34 52 19:57 12.02.2021
2634 Clouds -9 1034 82 4338 2.34 52 19:37 12.02.2021
2635 Clouds -8 1034 81 2504 2.54 49 18:57 12.02.2021
2636 Clouds -9 1034 86 2504 2.54 49 18:30 12.02.2021
2637 Clouds -7 1049 64 4391 1.97 45 17:46 12.02.2021
2638 Clouds -7 1034 80 10000 1.84 50 17:21 12.02.2021
2639 Clouds -5 1038 89 10000 0.45 86 16:35 12.02.2021
2640 Clouds -5 1033 78 10000 0.45 85 15:47 12.02.2021
2641 Clouds -4 1033 76 10000 2.91 62 15:21 12.02.2021
2642 Clouds -3 1033 76 10000 3.13 98 14:42 12.02.2021
2643 Clouds -3 1033 77 10000 2.24 57 14:23 12.02.2021
2644 Clouds -6 1033 78 10000 0.45 90 13:41 12.02.2021
2645 Clouds -6 1033 83 10000 3.39 65 13:22 12.02.2021
2646 Clouds -5 1033 79 10000 3.39 65 12:47 12.02.2021
2647 Clouds -6 1033 81 8635 3.12 66 12:28 12.02.2021
2648 Clouds -7 1033 84 8635 3.12 66 11:42 12.02.2021
2649 Clouds -7 1033 82 9977 2.41 65 11:20 12.02.2021
2650 Clouds -7 1032 89 9977 2.41 65 10:44 12.02.2021
2651 Clouds -9 1031 88 9626 1.34 84 09:49 12.02.2021
2652 Clouds -10 1038 55 9309 1.56 54 09:29 12.02.2021
2653 Clouds -11 1032 91 9309 1.56 54 08:50 12.02.2021
2654 Clouds -13 1031 90 5650 1.43 52 08:29 12.02.2021
2655 Clouds -13 1031 90 5650 1.43 52 07:57 12.02.2021
2656 Clouds -13 1030 90 5650 1.43 52 07:35 12.02.2021
2657 Clouds -13 1030 90 2567 1.66 38 06:55 12.02.2021
2658 Clouds -13 1030 90 3551 1.6 34 05:48 12.02.2021
2659 Clouds -12 1030 90 7003 1.4 30 05:23 12.02.2021
2660 Clouds -12 1030 90 7271 1.03 16 01:48 12.02.2021
2661 Clouds -10 1030 90 8114 1.08 20 23:41 11.02.2021
2662 Clouds -10 1030 90 9599 1.05 15 23:22 11.02.2021
2663 Clouds -10 1029 90 9599 1.05 15 22:58 11.02.2021
2664 Clouds -10 1029 87 9599 1.05 15 22:39 11.02.2021
2665 Clouds -10 1029 90 2652 1.07 3 22:20 11.02.2021
2666 Clouds -9 1028 88 2652 1.07 3 21:39 11.02.2021
2667 Clouds -9 1029 87 1167 1.1 349 21:19 11.02.2021
2668 Clouds -9 1029 87 1167 1.1 349 20:46 11.02.2021
2669 Clouds -9 1028 88 856 1.15 344 20:22 11.02.2021
2670 Clouds -9 1031 95 856 1.15 344 19:49 11.02.2021
2671 Clouds -8 1029 86 1171 1.08 348 19:31 11.02.2021
2672 Clouds -8 1029 85 2365 1.19 334 18:55 11.02.2021
2673 Clouds -8 1028 83 2335 1.16 335 18:29 11.02.2021
2674 Clouds -8 1028 84 2335 1.16 335 17:54 11.02.2021
2675 Clouds -6 1032 85 7159 1.17 337 17:22 11.02.2021
2676 Clouds -5 1029 63 10000 3.09 270 16:59 11.02.2021
2677 Clouds -4 1029 63 10000 3.09 270 16:41 11.02.2021
2678 Clouds -4 1031 84 7369 0.45 305 16:21 11.02.2021
2679 Clouds -4 1031 84 7369 0.89 272 15:43 11.02.2021
2680 Clouds -4 1027 88 5333 1.79 282 15:25 11.02.2021
2681 Clouds -4 1027 88 5333 1.79 282 14:47 11.02.2021
2682 Clouds -4 1027 88 3359 1.79 282 14:28 11.02.2021
2683 Clouds -4 1027 87 3359 3.13 256 13:41 11.02.2021
2684 Clouds -4 1026 86 4534 0.45 342 13:19 11.02.2021
2685 Clouds -4 1027 77 4534 1.93 327 12:51 11.02.2021
2686 Clouds -4 1026 91 3742 1.79 271 12:26 11.02.2021
2687 Clouds -5 1026 92 3742 2.68 251 11:46 11.02.2021
2688 Clouds -5 1026 92 2035 2.68 251 11:22 11.02.2021
2689 Clouds -6 1026 88 2035 1.64 324 10:45 11.02.2021
2690 Clouds -6 1026 88 2035 1.64 324 10:45 11.02.2021
2691 Clouds -6 1025 94 1702 0.45 288 10:26 11.02.2021
2692 Clouds -6 1025 94 1702 1.46 318 09:53 11.02.2021
2693 Clouds -7 1025 91 1214 1.39 310 09:22 11.02.2021
2694 Clouds -7 1025 91 1214 1.39 310 08:53 11.02.2021
2695 Clouds -8 1025 95 812 0.45 243 08:28 11.02.2021
2696 Clouds -8 1025 95 812 0.45 273 07:38 11.02.2021
2697 Clouds -9 1027 92 904 0.89 306 06:41 11.02.2021
2698 Clouds -9 1024 93 1330 1.64 327 05:38 11.02.2021
2699 Snow -7 1020 93 744 1.82 347 02:29 11.02.2021
2700 Clouds -7 1019 92 4950 1.72 359 01:29 11.02.2021
2701 Clouds -7 1020 86 10000 2.06 330 00:22 11.02.2021
2702 Clouds -8 1019 86 10000 2.06 330 23:45 10.02.2021
2703 Clouds -8 1019 86 10000 2.06 340 22:53 10.02.2021
2704 Clouds -7 1019 86 10000 2.06 340 22:31 10.02.2021
2705 Snow -7 1018 80 10000 2.06 360 21:59 10.02.2021
2706 Snow -7 1018 80 10000 2.06 360 21:38 10.02.2021
2707 Snow -8 1017 86 10000 2.06 0 21:19 10.02.2021
2708 Snow -10 1019 92 1384 1.55 350 20:42 10.02.2021
2709 Clouds -10 1014 93 1029 1.35 1 20:24 10.02.2021
2710 Clouds -10 1027 65 1029 0.45 164 19:47 10.02.2021
2711 Clouds -10 1017 92 10000 1.26 5 19:26 10.02.2021
2712 Clouds -10 1013 91 10000 1.55 11 18:47 10.02.2021
2713 Clouds -9 1017 92 10000 1.47 14 18:24 10.02.2021
2714 Clouds -8 1016 92 10000 1.47 14 17:57 10.02.2021
2715 Clouds -7 1016 91 10000 1.43 9 17:24 10.02.2021
2716 Clouds -7 1016 91 10000 1.43 9 16:57 10.02.2021
2717 Clouds -7 1011 91 10000 1.43 9 16:37 10.02.2021
2718 Clouds -6 1011 91 10000 0.45 336 16:18 10.02.2021
2719 Clouds -6 1010 90 10000 2.16 20 15:24 10.02.2021
2720 Clouds -6 1010 90 10000 2.16 20 15:24 10.02.2021
2721 Clouds -6 1010 89 10000 2.16 20 14:52 10.02.2021
2722 Clouds -6 1010 88 10000 2.16 20 14:34 10.02.2021
2723 Clouds -7 1010 88 10000 2.28 23 13:53 10.02.2021
2724 Clouds -7 1009 79 10000 0.89 279 13:29 10.02.2021
2725 Clouds -7 1009 83 10000 2.52 30 12:53 10.02.2021
2726 Clouds -7 1009 84 10000 2.52 30 12:30 10.02.2021
2727 Clouds -7 1009 85 10000 2.2 31 11:57 10.02.2021
2728 Clouds -8 1009 85 10000 2.23 31 11:38 10.02.2021
2729 Clouds -9 1008 86 10000 1.97 26 11:19 10.02.2021
2730 Clouds -10 1008 88 10000 1.97 20 10:23 10.02.2021
2731 Clouds -11 1007 90 10000 1.97 20 09:56 10.02.2021
2732 Clouds -12 1007 90 10000 1.97 20 09:31 10.02.2021
2733 Clouds -13 1007 90 4080 1.22 25 08:53 10.02.2021
2734 Clouds -14 1007 90 4080 1.22 25 08:33 10.02.2021
2735 Clouds -14 1006 89 4919 1.18 31 07:37 10.02.2021
2736 Clouds -14 1006 89 5127 1.3 13 06:21 10.02.2021
2737 Clouds -14 1006 90 10000 0.44 14 01:28 10.02.2021
2738 Clouds -13 1006 90 9320 0.38 39 00:22 10.02.2021
2739 Clouds -13 1008 92 9320 0.38 39 23:33 09.02.2021
2740 Clouds -13 1008 92 10000 0.58 36 22:49 09.02.2021
2741 Clouds -13 1006 90 10000 0.4 51 22:24 09.02.2021
2742 Clouds -12 1010 91 10000 0.4 51 21:52 09.02.2021
2743 Clouds -12 1006 91 10000 0.68 47 21:25 09.02.2021
2744 Clouds -13 1007 92 10000 0.68 47 20:45 09.02.2021
2745 Clouds -13 1006 90 10000 0.89 37 20:25 09.02.2021
2746 Clouds -13 1006 90 10000 0.89 37 19:53 09.02.2021
2747 Clouds -13 1006 90 10000 0.89 37 19:30 09.02.2021
2748 Clouds -12 1006 90 10000 0.58 22 18:56 09.02.2021
2749 Clouds -11 1006 89 10000 0.58 22 18:35 09.02.2021
2750 Clouds -11 1006 89 10000 0.57 20 17:56 09.02.2021
2751 Clouds -10 1010 89 10000 0.57 20 17:36 09.02.2021
2752 Clouds -10 1005 89 10000 0.51 15 17:18 09.02.2021
2753 Clouds -10 1005 88 10000 0.53 14 16:38 09.02.2021
2754 Clouds -10 1005 88 6766 0.9 27 16:18 09.02.2021
2755 Clouds -9 1005 88 6766 0.9 27 15:41 09.02.2021
2756 Clouds -9 1005 88 6168 1.04 15 15:23 09.02.2021
2757 Clouds -9 1005 87 6168 1.04 15 14:48 09.02.2021
2758 Clouds -9 1004 87 4408 0.95 16 14:26 09.02.2021
2759 Clouds -9 1004 87 4408 0.95 16 13:43 09.02.2021
2760 Clouds -9 1008 91 5922 0.89 294 13:21 09.02.2021
2761 Clouds -9 1004 86 6274 1.3 19 12:48 09.02.2021
2762 Clouds -9 1004 86 8244 1.46 13 12:28 09.02.2021
2763 Clouds -10 1004 86 8244 1.46 13 11:44 09.02.2021
2764 Clouds -10 1004 86 9908 1.35 9 11:23 09.02.2021
2765 Clouds -10 1004 86 9908 1.35 9 10:58 09.02.2021
2766 Clouds -11 1003 90 7878 1.08 15 10:23 09.02.2021
2767 Clouds -12 1003 90 7882 1.09 15 09:59 09.02.2021
2768 Clouds -13 1003 89 7878 1.08 15 09:40 09.02.2021
2769 Clouds -14 1003 89 8252 0.99 12 09:20 09.02.2021
2770 Clouds -14 1002 89 8252 0.99 12 08:30 09.02.2021
2771 Clouds -14 1002 89 9048 1.3 13 07:57 09.02.2021
2772 Clouds -13 1001 90 7144 0.45 30 05:40 09.02.2021
2773 Clouds -13 1001 91 3550 1.33 40 03:49 09.02.2021
2774 Snow -13 1000 91 399 1.3 39 02:27 09.02.2021
2775 Clouds -12 1000 91 677 1.42 54 00:32 09.02.2021
2776 Snow -11 1000 92 511 1.57 58 23:54 08.02.2021
2777 Snow -11 1000 91 227 1.76 61 23:20 08.02.2021
2778 Snow -11 1000 92 226 1.75 61 22:43 08.02.2021
2779 Snow -11 1000 92 177 2.06 53 22:23 08.02.2021
2780 Snow -11 1000 92 177 2.06 53 21:54 08.02.2021
2781 Snow -11 1000 92 177 2.06 53 21:31 08.02.2021
2782 Snow -11 1000 90 146 2.03 52 20:59 08.02.2021
2783 Snow -11 1000 90 146 2.03 52 20:38 08.02.2021
2784 Snow -10 999 93 138 1.91 58 20:19 08.02.2021
2785 Snow -10 1000 91 159 2.36 59 19:42 08.02.2021
2786 Snow -10 1000 91 145 2.54 65 19:22 08.02.2021
2787 Snow -10 1000 91 145 2.54 65 18:46 08.02.2021
2788 Snow -10 999 93 153 0.45 121 18:20 08.02.2021
2789 Snow -10 999 91 153 2.62 63 17:44 08.02.2021
2790 Snow -10 999 90 155 2.74 68 17:24 08.02.2021
2791 Snow -10 999 90 155 2.74 68 16:44 08.02.2021
2792 Snow -10 999 89 160 3.21 68 16:21 08.02.2021
2793 Snow -10 999 89 160 3.21 68 15:43 08.02.2021
2794 Snow -10 999 89 167 3.3 66 15:20 08.02.2021
2795 Snow -10 998 90 167 0.89 89 14:52 08.02.2021
2796 Snow -9 999 89 167 3.3 66 14:32 08.02.2021
2797 Snow -10 999 89 156 3.46 72 13:57 08.02.2021
2798 Snow -10 999 90 150 1.34 134 13:33 08.02.2021
2799 Snow -10 999 90 150 1.34 134 13:33 08.02.2021
2800 Snow -9 999 89 165 0.89 58 12:55 08.02.2021
2801 Snow -9 999 89 164 0.89 74 12:37 08.02.2021
2802 Snow -9 1000 90 166 3.93 69 11:51 08.02.2021
2803 Snow -9 1000 90 167 4.09 68 11:22 08.02.2021
2804 Snow -9 999 89 167 1.79 41 10:45 08.02.2021
2805 Snow -9 999 89 151 1.79 61 10:24 08.02.2021
2806 Snow -9 999 90 151 1.79 56 09:54 08.02.2021
2807 Snow -10 999 91 151 1.34 120 09:36 08.02.2021
2808 Snow -9 1000 91 151 1.79 90 08:50 08.02.2021
2809 Snow -9 999 91 133 0.89 51 08:21 08.02.2021
2810 Snow -9 1000 91 133 1.79 90 07:35 08.02.2021
2811 Snow -9 999 91 154 0.89 47 06:29 08.02.2021
2812 Snow -9 1000 91 152 0.89 37 03:58 08.02.2021
2813 Snow -8 1001 90 140 5.13 69 01:50 08.02.2021
2814 Snow -8 1001 91 169 5.86 74 00:23 08.02.2021
2815 Clouds -8 1000 88 169 1.34 78 23:52 07.02.2021
2816 Snow -8 1001 90 147 6.12 76 23:27 07.02.2021
2817 Clouds -7 1001 89 147 1.34 18 22:46 07.02.2021
2818 Snow -7 1000 88 155 2.68 134 22:28 07.02.2021
2819 Snow -7 1002 87 155 0.45 68 21:57 07.02.2021
2820 Snow -7 1000 90 155 0.45 131 21:39 07.02.2021
2821 Snow -7 1000 90 194 3.13 112 21:19 07.02.2021
2822 Snow -7 1001 90 194 1.34 136 20:44 07.02.2021
2823 Snow -7 1001 87 225 7.67 79 20:26 07.02.2021
2824 Clouds -7 1001 88 225 7.67 79 19:42 07.02.2021
2825 Snow -7 1001 89 308 2.24 111 19:22 07.02.2021
2826 Snow -7 1000 90 308 3.13 151 18:43 07.02.2021
2827 Snow -7 1000 89 195 4.02 127 18:25 07.02.2021
2828 Snow -7 1000 90 193 1.34 121 17:44 07.02.2021
2829 Snow -7 1000 90 177 1.34 121 17:22 07.02.2021
2830 Snow -7 1000 91 177 3.58 33 16:57 07.02.2021
2831 Snow -7 1000 90 177 2.24 151 16:36 07.02.2021
2832 Snow -7 1000 90 339 3.13 53 16:18 07.02.2021
2833 Snow -7 1000 90 339 3.13 116 15:41 07.02.2021
2834 Snow -7 1000 91 156 4.47 96 15:21 07.02.2021
2835 Snow -7 1000 90 156 1.34 42 14:42 07.02.2021
2836 Snow -7 1001 90 159 0.45 68 14:24 07.02.2021
2837 Snow -7 1001 92 159 1.34 43 13:40 07.02.2021
2838 Snow -7 1000 94 157 3.13 127 13:22 07.02.2021
2839 Snow -7 1000 92 177 3.13 105 12:39 07.02.2021
2840 Snow -7 1001 91 227 1.79 97 12:20 07.02.2021
2841 Snow -7 1001 91 227 1.79 140 11:42 07.02.2021
2842 Snow -6 1001 91 190 2.68 36 11:24 07.02.2021
2843 Snow -6 1001 91 202 3.13 88 10:29 07.02.2021
2844 Snow -7 1001 93 202 2.68 30 09:57 07.02.2021
2845 Snow -7 1002 93 202 1.79 38 09:38 07.02.2021
2846 Snow -7 1001 95 218 3.13 72 09:18 07.02.2021
2847 Snow -7 1001 95 218 3.13 72 09:18 07.02.2021
2848 Snow -6 1002 91 178 2.68 122 07:58 07.02.2021
2849 Snow -6 1002 92 134 0.89 270 06:32 07.02.2021
2850 Snow -6 1003 94 206 2.68 135 04:45 07.02.2021
2851 Snow -5 1005 94 231 1.34 137 02:52 07.02.2021
2852 Snow -3 1005 95 644 1.79 148 00:41 07.02.2021
2853 Snow -3 1006 92 185 1.79 76 23:58 06.02.2021
2854 Snow -3 1007 89 328 1.34 29 23:19 06.02.2021
2855 Snow -3 1007 87 328 2.68 85 22:31 06.02.2021
2856 Snow -2 1007 87 504 3.13 110 21:39 06.02.2021
2857 Snow -2 1008 89 465 1.34 40 21:20 06.02.2021
2858 Snow -2 1008 88 465 0.45 68 20:45 06.02.2021
2859 Snow -2 1008 89 1718 0.89 89 20:23 06.02.2021
2860 Snow -2 1008 89 1718 2.24 94 19:55 06.02.2021
2861 Clouds -2 1009 88 1443 0.45 90 19:27 06.02.2021
2862 Clouds -2 1008 93 3745 2.24 92 18:46 06.02.2021
2863 Clouds -2 1009 87 3734 2.24 32 18:27 06.02.2021
2864 Snow -2 1010 89 3734 0.45 68 17:44 06.02.2021
2865 Snow -2 1009 88 4449 2.68 113 17:21 06.02.2021
2866 Snow -2 1010 87 4449 3.13 117 16:58 06.02.2021
2867 Snow -1 1010 87 4449 4.47 13 16:34 06.02.2021
2868 Snow -1 1010 88 4734 3.58 26 15:57 06.02.2021
2869 Snow -1 1010 88 4734 0.45 42 15:38 06.02.2021
2870 Snow -1 1010 88 2300 5.54 77 15:18 06.02.2021
2871 Snow -1 1010 87 2253 1.79 63 14:44 06.02.2021
2872 Snow -1 1011 87 6940 0.45 42 14:23 06.02.2021
2873 Snow -1 1010 97 6940 1.34 84 13:47 06.02.2021
2874 Snow -1 1011 87 8309 2.68 134 12:56 06.02.2021
2875 Snow -1 1012 88 8438 1.34 76 12:21 06.02.2021
2876 Snow -1 1012 88 8438 1.34 80 11:47 06.02.2021
2877 Snow -1 1012 88 10000 2.24 89 11:22 06.02.2021
2878 Snow -1 1012 88 10000 2.68 109 10:56 06.02.2021
2879 Snow 0 1012 88 10000 0.89 316 10:28 06.02.2021
2880 Clouds 1 1012 87 10000 2.68 77 09:58 06.02.2021
2881 Clouds 1 1012 88 10000 4.56 79 09:37 06.02.2021
2882 Snow 1 1013 93 8846 4.12 79 09:18 06.02.2021
2883 Clouds 1 1011 10 8846 0.89 113 08:33 06.02.2021
2884 Clouds 1 1012 91 6779 0.45 47 07:59 06.02.2021
2885 Clouds 1 1012 94 1773 3.47 86 05:44 06.02.2021
2886 Clouds 2 1012 94 2129 3.26 80 03:58 06.02.2021
2887 Clouds 3 1012 94 1476 2.56 92 01:58 06.02.2021
2888 Clouds 2 1012 95 2041 2.49 90 00:48 06.02.2021
2889 Clouds 2 1012 95 2041 2.49 90 00:48 06.02.2021
2890 Clouds 2 1012 95 3703 2.11 102 00:19 06.02.2021
2891 Clouds 2 1012 95 3529 2.09 101 23:44 05.02.2021
2892 Clouds 2 1012 95 3512 1.79 106 23:26 05.02.2021
2893 Clouds 2 1011 10 3512 1.79 106 22:47 05.02.2021
2894 Clouds 2 1013 95 3210 1.61 110 22:23 05.02.2021
2895 Clouds 2 1011 10 3210 1.61 110 21:49 05.02.2021
2896 Clouds 2 1013 95 3070 1.74 108 21:28 05.02.2021
2897 Clouds 2 1013 95 3070 1.74 108 20:47 05.02.2021
2898 Clouds 3 1011 10 1765 1.89 113 19:53 05.02.2021
2899 Clouds 3 1012 96 2335 1.93 115 19:21 05.02.2021
2900 Clouds 3 1012 95 4900 2.04 111 18:54 05.02.2021
2901 Clouds 3 1012 95 6380 2.2 109 18:28 05.02.2021
2902 Clouds 3 1011 10 6380 2.2 109 17:47 05.02.2021
2903 Clouds 3 1012 94 9000 1.62 119 17:27 05.02.2021
2904 Rain 3 1012 94 9000 1.62 119 16:57 05.02.2021
2905 Rain 3 1012 93 9000 0.45 108 16:37 05.02.2021
2906 Rain 3 1012 93 10000 0.45 108 16:19 05.02.2021
2907 Rain 3 1011 99 10000 2.58 119 15:29 05.02.2021
2908 Rain 4 1012 91 10000 0.45 79 14:59 05.02.2021
2909 Rain 4 1011 98 10000 2.58 119 14:38 05.02.2021
2910 Rain 4 1012 94 10000 2.66 118 14:18 05.02.2021
2911 Clouds 4 1012 88 10000 0.89 65 13:39 05.02.2021
2912 Clouds 4 1012 89 10000 0.89 70 13:20 05.02.2021
2913 Rain 4 1012 95 10000 2.86 115 12:41 05.02.2021
2914 Rain 4 1013 83 10000 2.86 113 11:59 05.02.2021
2915 Clouds 4 1013 79 10000 2.86 113 11:38 05.02.2021
2916 Clouds 4 1012 96 10000 0.45 108 11:19 05.02.2021
2917 Clouds 4 1013 78 10000 2.86 111 10:46 05.02.2021
2918 Clouds 4 1012 95 10000 3.22 117 10:24 05.02.2021
2919 Clouds 3 1013 96 10000 3.22 117 09:42 05.02.2021
2920 Clouds 3 1012 99 10000 2.86 112 09:23 05.02.2021
2921 Clouds 2 1012 96 10000 2.86 112 08:41 05.02.2021
2922 Clouds 2 1012 96 9395 2.6 110 07:42 05.02.2021
2923 Clouds 2 1012 96 7024 2.79 101 07:22 05.02.2021
2924 Clouds 2 1011 95 7024 2.79 101 06:32 05.02.2021
2925 Clouds 2 1012 96 7428 2.41 100 05:33 05.02.2021
2926 Clouds 2 1013 94 10000 0.45 38 02:26 05.02.2021
2927 Clouds 3 1012 97 10000 1.12 94 01:28 05.02.2021
2928 Clouds 2 1014 94 10000 1.79 28 00:36 05.02.2021
2929 Clouds 2 1014 94 10000 2.24 36 00:18 05.02.2021
2930 Clouds 3 1014 94 10000 2.24 31 23:42 04.02.2021
2931 Clouds 3 1014 94 10000 2.24 31 23:42 04.02.2021
2932 Clouds 3 1014 94 10000 3.13 34 23:23 04.02.2021
2933 Clouds 3 1014 94 10000 1.34 33 22:54 04.02.2021
2934 Clouds 3 1014 94 10000 1.79 30 22:30 04.02.2021
2935 Clouds 3 1014 94 10000 2.68 34 21:58 04.02.2021
2936 Clouds 3 1014 94 10000 2.68 44 21:39 04.02.2021
2937 Clouds 3 1014 93 10000 2.68 36 20:58 04.02.2021
2938 Clouds 3 1012 98 10000 0.94 198 20:34 04.02.2021
2939 Clouds 4 1014 93 10000 2.68 38 19:52 04.02.2021
2940 Clouds 4 1014 92 10000 1.34 36 19:27 04.02.2021
2941 Clouds 5 1014 92 10000 1.79 38 18:46 04.02.2021
2942 Clouds 5 1014 92 10000 2.1 273 18:24 04.02.2021
2943 Clouds 5 1012 92 10000 2.1 273 17:47 04.02.2021
2944 Clouds 6 1014 90 10000 2.99 266 17:22 04.02.2021
2945 Clouds 6 1013 86 10000 2.99 266 16:50 04.02.2021
2946 Clouds 6 1013 86 10000 2.99 266 16:50 04.02.2021
2947 Clouds 7 1013 79 10000 3.62 267 16:21 04.02.2021
2948 Clouds 7 1013 79 10000 3.62 267 16:21 04.02.2021
2949 Clouds 6 1013 86 10000 3.62 267 15:58 04.02.2021
2950 Clouds 6 1013 85 10000 2.24 298 15:38 04.02.2021
2951 Clouds 7 1013 85 10000 2.24 292 15:20 04.02.2021
2952 Clouds 7 1013 78 10000 0.45 270 14:40 04.02.2021
2953 Clouds 7 1013 84 10000 3.13 277 14:20 04.02.2021
2954 Clouds 7 1013 84 10000 4.02 267 13:44 04.02.2021
2955 Clouds 7 1010 88 10000 1.34 243 12:58 04.02.2021
2956 Clouds 7 1012 84 10000 4.47 241 12:36 04.02.2021
2957 Clouds 7 1012 90 10000 6.26 232 11:54 04.02.2021
2958 Clouds 7 1012 90 10000 2.68 276 11:33 04.02.2021
2959 Clouds 6 1011 92 10000 2.68 255 10:51 04.02.2021
2960 Clouds 6 1008 96 10000 0.45 295 10:32 04.02.2021
2961 Clouds 6 1010 96 10000 3.58 247 09:45 04.02.2021
2962 Clouds 6 1009 97 10000 4.92 257 09:19 04.02.2021
2963 Clouds 6 1009 97 10000 4.02 258 08:50 04.02.2021
2964 Clouds 6 1009 97 5222 2.68 236 08:25 04.02.2021
2965 Clouds 6 1008 97 5222 1.79 250 07:51 04.02.2021
2966 Clouds 6 1005 99 7578 0.45 311 07:32 04.02.2021
2967 Clouds 6 1007 97 10000 0.45 261 06:45 04.02.2021
2968 Clouds 6 1003 99 3605 0.45 311 05:32 04.02.2021
2969 Rain 6 1001 96 3027 0.45 225 02:30 04.02.2021
2970 Rain 5 1000 97 3170 4.21 277 01:20 04.02.2021
2971 Clouds 6 995 10 4516 0.45 298 23:55 03.02.2021
2972 Rain 6 997 96 4516 2.68 288 23:30 03.02.2021
2973 Clouds 6 993 10 6764 0.89 295 22:38 03.02.2021
2974 Clouds 6 995 95 10000 1.34 313 22:20 03.02.2021
2975 Clouds 7 995 95 10000 1.34 313 21:46 03.02.2021
2976 Rain 7 995 94 10000 1.79 288 21:23 03.02.2021
2977 Clouds 7 995 94 10000 0.45 287 20:51 03.02.2021
2978 Clouds 8 994 93 10000 0.45 270 20:31 03.02.2021
2979 Rain 8 991 10 10000 0.89 288 19:55 03.02.2021
2980 Clouds 8 994 97 10000 3.13 223 19:25 03.02.2021
2981 Clouds 8 994 97 10000 2.24 202 18:58 03.02.2021
2982 Clouds 8 994 98 10000 0.89 175 18:37 03.02.2021
2983 Clouds 8 994 98 2378 1.79 248 18:19 03.02.2021
2984 Rain 8 992 92 2377 1.34 270 17:44 03.02.2021
2985 Clouds 8 992 92 3518 1.34 293 17:24 03.02.2021
2986 Clouds 8 993 98 3407 0.45 126 16:42 03.02.2021
2987 Rain 8 993 98 5148 0.45 69 16:22 03.02.2021
2988 Clouds 8 992 95 5148 0.45 270 15:40 03.02.2021
2989 Clouds 8 992 10 3366 1.7 168 15:22 03.02.2021
2990 Rain 8 993 94 3366 1.7 168 14:45 03.02.2021
2991 Rain 7 995 98 5131 0.45 107 14:23 03.02.2021
2992 Rain 7 994 93 5131 1.93 185 13:47 03.02.2021
2993 Rain 7 996 98 2085 2.51 197 13:21 03.02.2021
2994 Rain 7 997 98 4972 2.32 178 12:45 03.02.2021
2995 Rain 7 996 10 9461 2.85 200 12:21 03.02.2021
2996 Rain 7 998 98 9461 2.24 38 11:43 03.02.2021
2997 Rain 7 997 90 9937 0.89 293 11:24 03.02.2021
2998 Clouds 7 999 98 9785 2.93 205 10:42 03.02.2021
2999 Clouds 7 999 98 10000 3.1 221 10:20 03.02.2021
3000 Clouds 6 999 98 10000 3.1 221 09:45 03.02.2021
3001 Clouds 6 999 98 10000 3.53 226 09:27 03.02.2021
3002 Clouds 6 999 98 10000 0.45 38 08:48 03.02.2021
3003 Clouds 6 999 98 10000 0.89 34 07:59 03.02.2021
3004 Clouds 6 999 98 6258 0.89 32 07:26 03.02.2021
3005 Clouds 6 999 98 10000 3.13 38 06:38 03.02.2021
3006 Clouds 6 998 95 4205 0.45 270 04:50 03.02.2021
3007 Clouds 6 999 98 5121 3.61 224 04:27 03.02.2021
3008 Clouds 4 1000 98 4927 2.69 218 02:43 03.02.2021
3009 Clouds 6 1000 98 2418 2.86 225 01:58 03.02.2021
3010 Rain 6 1000 98 5406 2.6 221 00:27 03.02.2021
3011 Clouds 6 999 98 5406 2.6 221 23:47 02.02.2021
3012 Clouds 6 999 98 4439 3.53 235 23:28 02.02.2021
3013 Clouds 5 999 98 4439 3.53 235 22:54 02.02.2021
3014 Clouds 4 999 98 7294 3.76 246 22:22 02.02.2021
3015 Clouds 4 998 97 7294 3.76 246 21:54 02.02.2021
3016 Clouds 4 998 97 3648 3.89 255 21:29 02.02.2021
3017 Clouds 6 998 97 3648 3.89 255 20:59 02.02.2021
3018 Clouds 5 997 96 3648 0.45 270 20:41 02.02.2021
3019 Clouds 5 998 97 2533 3.38 242 20:18 02.02.2021
3020 Clouds 5 998 97 2533 3.38 242 20:18 02.02.2021
3021 Rain 5 997 96 2533 0.45 270 19:42 02.02.2021
3022 Clouds 4 998 97 1055 2.57 219 19:23 02.02.2021
3023 Rain 3 998 97 1734 3.13 41 18:44 02.02.2021
3024 Rain 3 998 97 369 1.79 45 18:25 02.02.2021
3025 Rain 3 996 10 369 2.13 207 17:49 02.02.2021
3026 Clouds 3 998 96 352 1.34 39 17:22 02.02.2021
3027 Clouds 3 997 95 352 0.89 270 16:56 02.02.2021
3028 Clouds 3 998 97 348 1.34 53 16:37 02.02.2021
3029 Rain 3 998 97 315 0.45 44 15:58 02.02.2021
3030 Rain 3 998 97 315 0.45 44 15:40 02.02.2021
3031 Clouds 3 998 96 221 0.89 67 15:20 02.02.2021
3032 Clouds 5 998 93 218 1.82 139 14:39 02.02.2021
3033 Clouds 4 999 95 336 1.4 136 14:18 02.02.2021
3034 Rain 4 999 91 336 1.4 136 13:44 02.02.2021
3035 Rain 4 999 91 7950 1.51 183 13:25 02.02.2021
3036 Rain 4 1000 91 7683 1.65 192 12:55 02.02.2021
3037 Rain 4 1001 96 10000 2.12 213 12:26 02.02.2021
3038 Clouds 3 1000 92 10000 2.12 213 11:41 02.02.2021
3039 Clouds 4 1005 88 9136 2.51 222 11:20 02.02.2021
3040 Clouds 3 1002 97 9136 2.51 222 10:49 02.02.2021
3041 Clouds 3 1001 97 5717 2.15 224 10:26 02.02.2021
3042 Clouds 2 1002 97 5717 2.15 224 09:46 02.02.2021
3043 Clouds 2 1002 97 5429 2.06 246 09:24 02.02.2021
3044 Clouds 2 1001 93 5429 2.06 246 08:45 02.02.2021
3045 Clouds 3 1002 98 8734 2.52 256 07:58 02.02.2021
3046 Clouds 2 1001 93 7370 3.01 262 07:27 02.02.2021
3047 Clouds 2 1001 94 7700 3.18 260 06:41 02.02.2021
3048 Clouds 2 1001 93 911 3.83 259 05:51 02.02.2021
3049 Clouds 2 1001 98 85 3.25 257 04:36 02.02.2021
3050 Clouds 2 1000 95 2359 2.69 257 02:25 02.02.2021
3051 Clouds 2 999 96 6992 2.64 252 01:23 02.02.2021
3052 Clouds 2 999 97 8510 2.15 239 00:18 02.02.2021
3053 Clouds 1 998 97 6026 1.83 233 23:18 01.02.2021
3054 Clouds 1 998 97 6026 1.83 233 22:39 01.02.2021
3055 Clouds 1 997 94 9427 1.7 237 22:21 01.02.2021
3056 Clouds 1 997 96 9427 1.7 237 21:48 01.02.2021
3057 Clouds 1 997 96 9427 1.7 237 21:48 01.02.2021
3058 Clouds 1 997 97 8387 1.68 235 21:24 01.02.2021
3059 Clouds 1 997 96 8387 1.68 235 20:45 01.02.2021
3060 Clouds 1 997 96 9025 1.43 226 20:25 01.02.2021
3061 Clouds 1 996 96 9025 1.43 226 19:49 01.02.2021
3062 Clouds 1 996 96 10000 1.28 230 19:22 01.02.2021
3063 Clouds 1 996 95 10000 1.12 232 18:59 01.02.2021
3064 Clouds 1 996 95 10000 1.12 232 18:40 01.02.2021
3065 Clouds 1 995 95 10000 0.78 188 18:22 01.02.2021
3066 Clouds 1 995 94 10000 0.78 188 17:44 01.02.2021
3067 Clouds 1 995 94 10000 0.98 186 17:21 01.02.2021
3068 Clouds 1 994 93 10000 0.98 186 16:41 01.02.2021
3069 Clouds 2 993 88 8602 0.45 293 16:22 01.02.2021
3070 Clouds 2 994 87 8448 0.45 136 15:40 01.02.2021
3071 Clouds 2 994 87 9961 1.44 167 15:19 01.02.2021
3072 Clouds 1 993 87 9961 1.44 167 14:51 01.02.2021
3073 Clouds 1 993 86 10000 1.55 146 14:23 01.02.2021
3074 Clouds 1 993 86 10000 1.55 146 13:42 01.02.2021
3075 Clouds 1 993 87 10000 1.63 142 13:24 01.02.2021
3076 Snow 1 993 87 10000 1.65 143 12:44 01.02.2021
3077 Snow 0 993 87 10000 1.87 136 12:24 01.02.2021
3078 Clouds 1 993 86 10000 0.45 132 11:43 01.02.2021
3079 Clouds 1 993 87 10000 3.13 137 11:20 01.02.2021
3080 Clouds 1 993 87 10000 1.79 139 10:47 01.02.2021
3081 Clouds 1 993 87 10000 0.45 40 10:21 01.02.2021
3082 Clouds -1 993 87 10000 2.61 129 09:49 01.02.2021
3083 Clouds 0 993 87 8585 2.72 126 09:25 01.02.2021
3084 Clouds 0 993 87 8585 0.45 63 08:56 01.02.2021
3085 Clouds 0 993 87 8585 0.45 63 08:56 01.02.2021
3086 Clouds -1 993 90 4998 2.55 127 08:22 01.02.2021
3087 Clouds -1 993 86 6280 2.35 130 06:51 01.02.2021
3088 Snow -3 993 92 5018 2.31 129 04:32 01.02.2021
3089 Clouds -4 995 88 10000 0.89 115 02:38 01.02.2021
3090 Clouds -4 997 86 10000 0.45 84 23:52 31.01.2021
3091 Clouds -4 997 86 10000 0.89 32 22:56 31.01.2021
3092 Clouds -4 997 91 10000 2.6 121 22:37 31.01.2021
3093 Clouds -4 997 91 10000 2.6 121 22:37 31.01.2021
3094 Clouds -4 998 86 10000 0.45 49 22:18 31.01.2021
3095 Clouds -4 998 85 10000 1.34 55 21:42 31.01.2021
3096 Clouds -4 999 85 10000 2.68 65 21:19 31.01.2021
3097 Clouds -3 999 85 10000 1.79 52 20:42 31.01.2021
3098 Clouds -3 1000 84 10000 1.63 126 20:20 31.01.2021
3099 Clouds -3 1000 83 10000 0.89 103 19:38 31.01.2021
3100 Clouds -3 999 91 10000 1.48 121 19:19 31.01.2021
3101 Clouds -3 1000 85 10000 0.89 98 18:55 31.01.2021
3102 Clouds -3 1000 85 10000 1.48 121 18:37 31.01.2021
3103 Clouds -3 1000 90 10000 1.49 115 18:18 31.01.2021
3104 Clouds -2 1001 80 10000 1.49 115 17:39 31.01.2021
3105 Clouds -2 1001 80 10000 1.48 113 17:19 31.01.2021
3106 Clouds 0 1001 74 10000 2.24 138 16:41 31.01.2021
3107 Clouds 0 1001 74 10000 1.25 114 16:20 31.01.2021
3108 Clouds 0 1001 74 10000 1.25 114 15:49 31.01.2021
3109 Clouds 0 1002 75 10000 1.1 107 15:21 31.01.2021
3110 Clouds 0 1002 75 10000 1.1 108 14:36 31.01.2021
3111 Clouds 0 1001 79 10000 0.76 125 14:18 31.01.2021
3112 Clouds -1 1003 77 10000 0.76 125 13:44 31.01.2021
3113 Clear -1 1004 81 10000 0.64 146 13:19 31.01.2021
3114 Clouds -1 1004 81 10000 0.34 135 12:46 31.01.2021
3115 Clouds -2 1003 87 10000 0.43 163 12:20 31.01.2021
3116 Clouds -3 1004 82 10000 0.43 163 11:40 31.01.2021
3117 Clouds -3 1004 83 10000 1.79 128 11:20 31.01.2021
3118 Clouds -4 1004 86 10000 1.34 141 10:46 31.01.2021
3119 Clouds -4 1004 88 10000 0.93 166 10:27 31.01.2021
3120 Clouds -5 1004 90 10000 0.45 270 09:41 31.01.2021
3121 Clouds -5 1004 92 10000 0.85 162 08:53 31.01.2021
3122 Clouds -5 1004 88 10000 0.45 51 08:31 31.01.2021
3123 Clouds -5 1004 88 10000 0.89 47 06:51 31.01.2021
3124 Clouds -4 1002 92 10000 1.34 143 04:55 31.01.2021
3125 Clouds -3 1003 91 10000 1.17 120 00:38 31.01.2021
3126 Clouds -3 1003 91 10000 1.16 120 00:38 31.01.2021
3127 Clouds -3 1003 86 10000 1.52 103 00:20 31.01.2021
3128 Clouds -3 1002 92 10000 1.34 127 23:28 30.01.2021
3129 Clouds -3 1003 86 10000 1.65 92 22:45 30.01.2021
3130 Clouds -3 1001 92 10000 1.34 147 22:23 30.01.2021
3131 Clouds -3 1002 86 10000 1.79 88 21:39 30.01.2021
3132 Clouds -2 1001 92 10000 0.89 69 21:20 30.01.2021
3133 Clouds -2 1002 84 10000 1.75 88 20:44 30.01.2021
3134 Clouds -2 1002 85 10000 1.88 75 20:25 30.01.2021
3135 Clouds -2 1002 86 10000 1.88 75 19:43 30.01.2021
3136 Clouds -2 1000 92 10000 1.34 113 19:24 30.01.2021
3137 Clouds -1 1001 88 5788 0.45 90 18:41 30.01.2021
3138 Clouds -1 1000 95 7693 0.89 127 18:21 30.01.2021
3139 Clouds -1 1000 94 7693 0.45 138 17:57 30.01.2021
3140 Clouds -1 1001 88 10000 0.89 90 17:19 30.01.2021
3141 Clouds -1 1001 88 10000 0.89 90 16:44 30.01.2021
3142 Clouds -1 1001 87 10000 0.89 90 16:24 30.01.2021
3143 Clouds 0 1001 92 10000 1.46 71 15:55 30.01.2021
3144 Clouds 0 1001 92 10000 1.46 71 15:37 30.01.2021
3145 Clouds 0 1001 92 10000 1.14 76 15:19 30.01.2021
3146 Clouds 0 1001 91 10000 1.14 76 14:42 30.01.2021
3147 Clouds 0 1001 91 10000 1.25 72 14:19 30.01.2021
3148 Clouds 0 1001 89 10000 0.45 90 13:30 30.01.2021
3149 Clouds 0 1000 95 10000 0.45 149 12:49 30.01.2021
3150 Clouds 0 1001 92 10000 1.98 41 12:28 30.01.2021
3151 Clouds -1 1002 93 10000 0.45 90 11:57 30.01.2021
3152 Clouds -1 1002 95 10000 2.27 29 11:28 30.01.2021
3153 Clouds -1 1002 96 10000 2.27 29 10:48 30.01.2021
3154 Snow -1 1001 96 2853 2.03 11 09:48 30.01.2021
3155 Snow -2 1001 96 2853 2.03 11 09:30 30.01.2021
3156 Snow -1 1001 95 417 2.05 0 08:47 30.01.2021
3157 Clouds -2 1000 96 568 1.97 348 07:48 30.01.2021
3158 Snow -2 999 96 598 1.34 294 06:49 30.01.2021
3159 Snow -1 1001 93 376 1.79 294 05:43 30.01.2021
3160 Snow -1 996 97 519 2.68 317 03:35 30.01.2021
3161 Snow 1 992 100 103 3.9 309 02:24 30.01.2021
3162 Rain 3 994 94 145 0.45 90 01:29 30.01.2021
3163 Rain 4 993 92 1470 0.45 90 00:39 30.01.2021
3164 Clouds 5 993 98 3174 5.6 256 00:20 30.01.2021
3165 Rain 5 993 98 3174 5.6 256 23:45 29.01.2021
3166 Clouds 5 993 98 2056 5.49 253 23:21 29.01.2021
3167 Clouds 5 993 98 2056 5.49 253 22:44 29.01.2021
3168 Clouds 5 993 98 4107 5.52 257 22:20 29.01.2021
3169 Clouds 5 993 98 3519 5.25 260 21:28 29.01.2021
3170 Clouds 5 992 94 3519 5.25 260 20:46 29.01.2021
3171 Clouds 5 993 98 3251 4.54 256 20:28 29.01.2021
3172 Clouds 5 993 97 3251 4.54 256 19:57 29.01.2021
3173 Clouds 5 993 97 3112 4.52 256 19:38 29.01.2021
3174 Clouds 5 993 97 820 4.1 267 19:18 29.01.2021
3175 Clouds 4 993 97 820 4.1 267 18:30 29.01.2021
3176 Clouds 4 991 95 1268 0.45 270 17:40 29.01.2021
3177 Clouds 4 992 97 455 5.24 268 17:22 29.01.2021
3178 Clouds 4 992 97 455 5.24 268 16:46 29.01.2021
3179 Clouds 4 995 98 216 4.74 265 16:24 29.01.2021
3180 Clouds 3 992 96 216 4.74 265 15:51 29.01.2021
3181 Clouds 3 991 96 216 0.45 270 15:31 29.01.2021
3182 Rain 3 991 95 955 0.89 248 14:48 29.01.2021
3183 Snow 1 992 96 657 2.28 161 14:18 29.01.2021
3184 Snow 1 991 97 632 0.89 270 13:44 29.01.2021
3185 Snow 1 992 96 375 2.89 139 13:26 29.01.2021
3186 Snow 1 992 96 644 3.26 124 12:29 29.01.2021
3187 Snow 1 991 96 644 0.45 52 11:51 29.01.2021
3188 Snow 1 991 10 2577 3.32 114 11:20 29.01.2021
3189 Snow 1 992 96 2577 3.58 49 10:52 29.01.2021
3190 Snow 0 991 10 2577 3.32 114 10:33 29.01.2021
3191 Snow 0 993 96 4326 1.34 84 09:49 29.01.2021
3192 Snow 0 992 96 1601 3.12 106 09:28 29.01.2021
3193 Snow 0 993 96 1601 0.89 97 08:47 29.01.2021
3194 Snow 0 993 96 1615 0.89 93 08:25 29.01.2021
3195 Snow 0 994 97 1615 2.24 102 07:42 29.01.2021
3196 Snow 0 994 97 1577 1.79 56 07:22 29.01.2021
3197 Snow 0 996 97 10000 2.75 117 05:38 29.01.2021
3198 Snow 0 999 97 746 0.89 47 03:52 29.01.2021
3199 Clouds 0 1001 96 3027 1.73 138 00:46 29.01.2021
3200 Snow 0 1002 98 4383 0.89 119 00:22 29.01.2021
3201 Snow 0 1002 95 4180 1.55 112 23:45 28.01.2021
3202 Clouds 0 1002 95 3961 1.33 97 23:26 28.01.2021
3203 Clouds 0 1002 97 3961 1.33 97 22:57 28.01.2021
3204 Clouds 0 1002 95 3758 1.32 96 22:37 28.01.2021
3205 Clouds 0 1002 97 7228 1.39 95 22:18 28.01.2021
3206 Clouds 0 1002 97 7228 1.39 95 21:41 28.01.2021
3207 Clouds 0 1002 97 2743 2.19 67 21:20 28.01.2021
3208 Clouds 1 1000 10 2633 2.18 66 20:40 28.01.2021
3209 Snow 1 1000 10 408 2.5 44 20:19 28.01.2021
3210 Snow 1 1001 97 408 2.5 44 19:48 28.01.2021
3211 Snow 1 1001 97 57 2.54 48 19:27 28.01.2021
3212 Snow 1 999 10 57 2.54 48 18:49 28.01.2021
3213 Snow 1 1000 96 32 2.62 47 18:29 28.01.2021
3214 Snow 1 1000 96 32 2.62 47 18:29 28.01.2021
3215 Snow 1 1000 97 32 2.62 47 17:48 28.01.2021
3216 Snow 1 1000 97 32 2.62 47 17:48 28.01.2021
3217 Snow 1 1000 97 32 2.62 47 17:30 28.01.2021
3218 Snow 1 999 96 32 2.29 44 16:57 28.01.2021
3219 Snow 1 997 10 32 2.29 44 16:37 28.01.2021
3220 Snow 1 999 97 30 2.16 55 16:18 28.01.2021
3221 Snow 2 999 98 43 1.71 66 15:25 28.01.2021
3222 Snow 2 999 98 43 1.71 66 14:47 28.01.2021
3223 Snow 1 999 98 48 1.59 62 14:23 28.01.2021
3224 Snow 1 999 96 48 1.59 62 13:55 28.01.2021
3225 Snow 1 998 10 66 1.42 68 13:23 28.01.2021
3226 Snow 1 1000 96 63 1.26 89 12:49 28.01.2021
3227 Rain 2 1000 96 119 0.83 100 12:26 28.01.2021
3228 Snow 2 1001 97 119 0.83 100 11:55 28.01.2021
3229 Rain 2 1001 97 119 0.83 100 11:36 28.01.2021
3230 Snow 2 1002 97 142 0.67 176 11:18 28.01.2021
3231 Clouds 2 1002 97 142 0.67 176 10:40 28.01.2021
3232 Clouds 2 1003 97 124 0.56 234 10:22 28.01.2021
3233 Clouds 1 1003 97 124 0.56 234 09:38 28.01.2021
3234 Clouds 1 1003 97 121 1.54 262 09:19 28.01.2021
3235 Clouds 1 1004 97 121 1.54 262 08:44 28.01.2021
3236 Snow 1 1004 97 1780 2.27 251 07:50 28.01.2021
3237 Rain 1 1005 97 1995 2.36 249 07:21 28.01.2021
3238 Rain 1 1005 97 1995 2.36 249 06:48 28.01.2021
3239 Rain 1 1006 97 2482 2.97 266 04:30 28.01.2021
3240 Rain 1 1006 96 3256 0.45 270 02:45 28.01.2021
3241 Clouds 1 1008 96 5170 3.84 265 00:45 28.01.2021
3242 Rain 1 1008 96 1911 0.45 270 23:26 27.01.2021
3243 Rain 1 1008 96 1911 3.45 260 22:57 27.01.2021
3244 Rain 1 1009 96 1911 3.45 260 22:39 27.01.2021
3245 Rain 1 1009 96 4422 3.31 261 22:18 27.01.2021
3246 Rain 1 1008 96 4422 3.31 261 21:41 27.01.2021
3247 Rain 1 1008 96 5082 2.91 247 21:22 27.01.2021
3248 Rain 1 1008 96 5082 2.91 247 21:22 27.01.2021
3249 Rain 1 1009 96 5082 2.91 247 20:41 27.01.2021
3250 Snow 0 1007 99 636 2.44 230 20:18 27.01.2021
3251 Snow 0 1009 95 636 2.44 230 19:41 27.01.2021
3252 Snow 0 1009 95 495 2.63 225 19:21 27.01.2021
3253 Snow 0 1009 95 495 2.63 225 18:43 27.01.2021
3254 Snow 0 1009 95 1672 2.76 214 18:23 27.01.2021
3255 Snow 0 1007 97 1672 2.76 214 17:47 27.01.2021
3256 Snow 0 1009 95 139 3.19 226 17:28 27.01.2021
3257 Snow 0 1008 93 139 0.45 270 16:49 27.01.2021
3258 Snow 0 1009 95 734 3.44 227 16:28 27.01.2021
3259 Snow 0 1009 94 734 3.44 227 15:52 27.01.2021
3260 Snow 0 1008 97 734 3.44 227 15:33 27.01.2021
3261 Snow 0 1010 94 5236 3.84 211 14:47 27.01.2021
3262 Snow 0 1010 93 1229 3.79 211 14:23 27.01.2021
3263 Snow 0 1010 93 5233 3.78 210 13:48 27.01.2021
3264 Snow 0 1011 92 5748 4.05 208 13:29 27.01.2021
3265 Snow 1 1011 90 5748 2.68 131 12:42 27.01.2021
3266 Clouds 1 1010 91 6712 3.64 203 12:22 27.01.2021
3267 Clouds 1 1012 91 6712 2.24 124 11:46 27.01.2021
3268 Clouds 1 1012 93 10000 1.34 121 11:23 27.01.2021
3269 Clouds 0 1012 95 10000 2.59 199 10:41 27.01.2021
3270 Clouds 0 1012 96 10000 2.23 207 10:21 27.01.2021
3271 Clouds -1 1012 96 10000 2.23 207 09:50 27.01.2021
3272 Clouds -1 1011 90 10000 2.36 210 09:25 27.01.2021
3273 Clouds -1 1012 91 10000 0.45 293 08:39 27.01.2021
3274 Clouds -1 1012 91 10000 0.45 293 08:39 27.01.2021
3275 Clouds -1 1012 91 10000 0.45 248 07:46 27.01.2021
3276 Clouds 0 1012 91 10000 0.45 270 07:21 27.01.2021
3277 Clouds 0 1013 96 10000 2.52 234 06:23 27.01.2021
3278 Clouds 0 1014 96 10000 2.52 234 05:48 27.01.2021
3279 Clouds 0 1013 93 9864 3.17 247 04:37 27.01.2021
3280 Snow 0 1015 95 66 3.44 258 02:24 27.01.2021
3281 Snow 0 1014 94 66 3.44 258 01:57 27.01.2021
3282 Snow 0 1014 97 4124 3.12 256 00:51 27.01.2021
3283 Clouds 0 1016 95 5479 2.83 250 23:52 26.01.2021
3284 Clouds 0 1016 95 5479 2.83 250 23:32 26.01.2021
3285 Snow 0 1016 95 2051 2.81 255 22:52 26.01.2021
3286 Snow 0 1016 95 2051 2.81 255 22:34 26.01.2021
3287 Clouds 0 1016 95 2004 2.82 260 21:59 26.01.2021
3288 Clouds 0 1016 95 2004 2.82 260 21:40 26.01.2021
3289 Clouds 0 1014 97 4180 3 267 21:21 26.01.2021
3290 Clouds 0 1016 95 4180 3 267 20:41 26.01.2021
3291 Clouds 0 1016 95 4912 3.47 272 20:22 26.01.2021
3292 Clouds 0 1015 91 4912 3.47 272 19:48 26.01.2021
3293 Clouds 0 1015 92 4676 3.77 279 19:29 26.01.2021
3294 Clouds 0 1015 95 4676 3.77 279 18:57 26.01.2021
3295 Clouds 0 1015 95 4182 3.99 284 18:37 26.01.2021
3296 Clouds 0 1015 96 2840 4.07 292 18:18 26.01.2021
3297 Clouds 0 1015 96 2840 4.07 292 17:46 26.01.2021
3298 Clouds 0 1013 95 3649 3.56 295 17:20 26.01.2021
3299 Clouds 0 1014 96 3649 3.56 295 16:41 26.01.2021
3300 Clouds 0 1014 96 10000 3.48 302 16:20 26.01.2021
3301 Clouds 0 1013 91 10000 3.48 302 15:48 26.01.2021
3302 Clouds 0 1013 96 10000 4.54 308 15:27 26.01.2021
3303 Clouds 0 1013 96 10000 4.02 284 14:49 26.01.2021
3304 Clouds 0 1013 94 6521 4.73 314 14:29 26.01.2021
3305 Clouds 0 1012 97 6521 2.24 309 13:38 26.01.2021
3306 Clouds 0 1012 97 1400 5.36 273 13:19 26.01.2021
3307 Clouds 0 1012 97 1400 2.68 280 12:44 26.01.2021
3308 Snow 0 1009 96 596 3.66 321 12:24 26.01.2021
3309 Snow 0 1011 96 596 3.58 278 11:54 26.01.2021
3310 Snow 0 1011 96 596 3.58 278 11:33 26.01.2021
3311 Snow 0 1010 96 141 2.68 274 10:45 26.01.2021
3312 Snow 0 1010 96 1245 3.17 312 10:27 26.01.2021
3313 Snow 0 1008 96 1245 3.17 312 09:42 26.01.2021
3314 Snow -1 1008 96 10000 2 290 09:23 26.01.2021
3315 Snow -1 1008 96 10000 2 290 08:52 26.01.2021
3316 Snow -1 1007 96 1372 0.99 260 08:24 26.01.2021
3317 Snow -1 1006 96 1372 0.99 260 07:39 26.01.2021
3318 Snow -1 1005 97 1569 2.55 218 06:21 26.01.2021
3319 Snow -1 1007 95 1569 2.55 218 05:42 26.01.2021
3320 Snow -1 1007 95 1001 0.45 101 04:23 26.01.2021
3321 Clouds -1 1008 94 3482 2.65 220 02:21 26.01.2021
3322 Clouds -1 1008 95 6637 2.6 226 00:54 26.01.2021
3323 Clouds -2 1008 95 9016 2.58 233 23:36 25.01.2021
3324 Clouds -1 1007 92 10000 2.27 236 22:57 25.01.2021
3325 Clouds -1 1007 92 10000 2.27 236 22:38 25.01.2021
3326 Clouds -1 1006 96 10000 2.05 243 21:50 25.01.2021
3327 Clouds -1 1007 95 10000 1.81 254 21:28 25.01.2021
3328 Clouds -1 1007 95 10000 1.81 254 20:52 25.01.2021
3329 Clouds -2 1005 96 10000 0.89 321 20:33 25.01.2021
3330 Clear -2 1006 94 10000 1.95 269 19:52 25.01.2021
3331 Clear -2 1006 94 10000 1.95 269 19:31 25.01.2021
3332 Clouds -1 1005 93 10000 1.89 277 18:49 25.01.2021
3333 Clouds -1 1005 93 10000 1.93 280 18:28 25.01.2021
3334 Clouds -1 1005 92 10000 1.93 280 17:58 25.01.2021
3335 Clouds -1 1005 91 10000 1.93 280 17:40 25.01.2021
3336 Clouds 0 1005 91 10000 1.89 279 17:22 25.01.2021
3337 Clouds 0 1004 90 10000 1.89 279 16:41 25.01.2021
3338 Clouds 2 1008 72 10000 1.92 280 16:22 25.01.2021
3339 Clouds 1 1003 81 10000 1.92 280 15:49 25.01.2021
3340 Clouds 1 1003 88 10000 0.45 262 15:29 25.01.2021
3341 Clouds 1 1002 82 10000 2.34 283 14:50 25.01.2021
3342 Clouds 1 1002 86 10000 2.25 273 14:19 25.01.2021
3343 Clouds 1 1002 86 10000 2.25 273 13:52 25.01.2021
3344 Clouds 1 1002 86 10000 2.11 256 13:28 25.01.2021
3345 Clouds 1 1002 89 10000 2.11 270 12:46 25.01.2021
3346 Clouds 1 1002 88 10000 1.84 261 12:24 25.01.2021
3347 Clouds 1 1002 89 10000 1.84 261 11:48 25.01.2021
3348 Clouds 0 1000 90 10000 0.45 307 11:19 25.01.2021
3349 Clouds 0 1001 94 10000 1.6 251 10:42 25.01.2021
3350 Clouds -1 999 98 10000 1.27 235 10:20 25.01.2021
3351 Clouds -1 1000 93 10000 1.27 235 09:46 25.01.2021
3352 Clouds -1 1000 96 10000 1.03 220 09:27 25.01.2021
3353 Clouds -1 999 94 10000 1.03 220 08:30 25.01.2021
3354 Clouds -1 999 96 10000 0.97 223 07:45 25.01.2021
3355 Clouds -1 998 92 10000 0.9 225 07:25 25.01.2021
3356 Clouds -1 998 92 10000 0.92 201 04:58 25.01.2021
3357 Clouds 0 998 96 10000 1.98 261 01:33 25.01.2021
3358 Clouds 0 997 97 8866 2.19 265 23:52 24.01.2021
3359 Clouds 0 996 97 5968 0.45 296 23:20 24.01.2021
3360 Clouds 0 996 97 5968 0.45 296 23:20 24.01.2021
3361 Clouds 0 998 97 5968 2.65 273 22:45 24.01.2021
3362 -273 0 0 0 0 0 22:27 24.01.2021
3363 Snow 0 998 96 442 3.33 277 22:25 24.01.2021
3364 Snow 0 998 97 442 3.33 277 21:51 24.01.2021
3365 Snow 0 998 97 209 0.45 267 21:24 24.01.2021
3366 Snow 0 998 97 209 2.58 273 20:46 24.01.2021
3367 Snow 1 996 97 114 0.89 293 20:22 24.01.2021
3368 Snow 1 998 97 114 3.44 288 19:55 24.01.2021
3369 Snow 0 998 97 79 1.34 284 19:28 24.01.2021
3370 Snow 0 997 97 79 0.45 281 18:59 24.01.2021
3371 Snow 0 997 96 76 2.56 297 18:40 24.01.2021
3372 Snow 0 997 96 108 2.34 301 18:21 24.01.2021
3373 Snow 0 997 96 108 2.34 301 17:57 24.01.2021
3374 Snow 0 997 96 108 2.34 301 17:38 24.01.2021
3375 Snow 0 996 95 101 2.52 310 17:18 24.01.2021
3376 Snow 0 996 96 101 2.24 265 16:41 24.01.2021
3377 Snow 0 996 96 140 2.34 314 16:20 24.01.2021
3378 Snow 1 996 96 140 3.13 335 15:45 24.01.2021
3379 Snow 1 995 94 133 2.26 326 15:20 24.01.2021
3380 Snow 1 995 96 133 3.13 278 14:51 24.01.2021
3381 Snow 1 994 96 239 3.58 282 14:24 24.01.2021
3382 Clouds 1 992 96 239 1.95 342 13:34 24.01.2021
3383 Snow 1 993 96 153 1.34 279 12:51 24.01.2021
3384 Snow 0 993 96 125 0.45 268 12:23 24.01.2021
3385 Snow 0 993 95 125 1.34 268 11:59 24.01.2021
3386 Snow 0 991 99 125 1.65 27 11:41 24.01.2021
3387 Snow 0 993 95 151 1.57 52 11:20 24.01.2021
3388 Snow 0 992 95 151 1.57 52 10:35 24.01.2021
3389 Snow 0 992 95 1217 1.63 78 09:50 24.01.2021
3390 Snow 0 991 94 792 2 89 09:20 24.01.2021
3391 Snow 0 991 95 792 2 89 08:47 24.01.2021
3392 Clouds 1 991 90 10000 2.35 125 05:18 24.01.2021
3393 Clouds 0 990 10 10000 1.59 121 02:21 24.01.2021
3394 Clouds 0 992 94 10000 1.69 133 00:58 24.01.2021
3395 Clouds 0 993 93 7917 1.65 141 00:22 24.01.2021
3396 Clouds 0 993 93 7917 1.65 141 23:46 23.01.2021
3397 Clouds 0 991 97 10000 1.42 156 23:22 23.01.2021
3398 Clouds 1 991 97 10000 1.42 156 22:41 23.01.2021
3399 Clouds 1 993 92 10000 1.41 165 22:21 23.01.2021
3400 Clouds 1 993 92 10000 1.41 165 21:47 23.01.2021
3401 Clouds 1 992 96 8312 1.33 162 21:19 23.01.2021
3402 Clouds 1 992 96 8312 1.33 162 20:40 23.01.2021
3403 Clouds 1 994 90 7578 1.51 182 20:21 23.01.2021
3404 Clouds 2 994 90 7578 1.51 182 19:45 23.01.2021
3405 Clouds 2 993 95 7633 1.61 199 19:20 23.01.2021
3406 Clouds 2 995 89 10000 1.4 203 18:44 23.01.2021
3407 Clouds 2 995 89 10000 0.45 131 18:24 23.01.2021
3408 Clouds 3 995 88 10000 1.87 222 17:45 23.01.2021
3409 Clouds 3 994 88 10000 2.15 215 17:26 23.01.2021
3410 Clouds 3 995 88 10000 2.15 215 16:47 23.01.2021
3411 Clouds 3 995 87 10000 0.89 154 16:25 23.01.2021
3412 Clouds 3 995 87 10000 2.37 202 15:40 23.01.2021
3413 Clouds 3 993 91 10000 2.53 207 15:20 23.01.2021
3414 Clouds 3 994 84 10000 0.45 270 14:31 23.01.2021
3415 Clouds 4 995 83 10000 0.45 215 13:53 23.01.2021
3416 Clouds 4 995 83 10000 0.45 215 13:34 23.01.2021
3417 Clouds 4 996 83 10000 3 213 12:57 23.01.2021
3418 Clouds 3 996 85 10000 2.47 211 12:27 23.01.2021
3419 Clouds 3 995 86 10000 0.45 270 11:45 23.01.2021
3420 Clouds 2 996 96 10000 1.9 210 11:25 23.01.2021
3421 Clouds 2 996 96 10000 1.9 210 10:48 23.01.2021
3422 Clouds 1 996 96 10000 1.35 210 10:19 23.01.2021
3423 Clouds 2 996 96 10000 0.45 37 09:46 23.01.2021
3424 Clouds 1 997 96 6037 1.32 219 08:54 23.01.2021
3425 Snow 1 996 92 6037 1.32 219 08:31 23.01.2021
3426 Snow 1 995 99 7205 1.38 214 07:25 23.01.2021
3427 Snow 1 996 95 7099 0.48 280 03:36 23.01.2021
3428 Snow 1 995 95 10000 0.89 38 00:42 23.01.2021
3429 Clouds 1 996 95 10000 0.32 251 23:41 22.01.2021
3430 Clouds 1 995 95 10000 1.34 38 22:57 22.01.2021
3431 Clouds 1 995 95 10000 2.68 38 22:38 22.01.2021
3432 Clouds 1 995 94 10000 1.08 222 21:46 22.01.2021
3433 Clouds 1 995 91 10000 1.13 230 21:27 22.01.2021
3434 Clouds 1 995 94 10000 1.13 230 20:57 22.01.2021
3435 Clouds 1 995 94 10000 1.79 42 20:38 22.01.2021
3436 Clouds 1 994 89 10000 1.53 234 19:55 22.01.2021
3437 Clouds 2 995 93 10000 1.54 243 19:24 22.01.2021
3438 Clouds 2 995 92 10000 1.54 243 18:57 22.01.2021
3439 Clouds 2 995 92 10000 1.54 243 18:39 22.01.2021
3440 Clouds 2 995 91 10000 1.84 240 18:20 22.01.2021
3441 Clouds 3 994 89 10000 1.84 240 17:43 22.01.2021
3442 Clouds 4 994 88 10000 2.02 238 16:59 22.01.2021
3443 Clouds 4 991 95 10000 2.02 238 16:38 22.01.2021
3444 Clouds 4 994 89 10000 2.85 244 16:18 22.01.2021
3445 Clouds 4 992 80 10000 0.89 225 15:28 22.01.2021
3446 Clouds 4 993 89 10000 3.7 248 14:51 22.01.2021
3447 Clouds 4 992 89 10000 2.24 220 14:29 22.01.2021
3448 Clouds 4 992 89 10000 1.79 223 13:47 22.01.2021
3449 Rain 4 991 85 10000 0.89 270 13:27 22.01.2021
3450 Rain 4 992 90 10000 3.69 244 12:44 22.01.2021
3451 Rain 4 992 90 5371 0.45 257 12:21 22.01.2021
3452 Rain 4 992 91 5371 0.89 224 11:45 22.01.2021
3453 Rain 4 991 91 5048 0.45 254 10:55 22.01.2021
3454 Rain 4 991 93 5048 0.45 254 10:35 22.01.2021
3455 Rain 4 990 92 1930 1.34 249 09:57 22.01.2021
3456 Rain 5 990 92 2236 1.34 260 09:27 22.01.2021
3457 Clouds 5 989 91 2236 0.89 250 08:50 22.01.2021
3458 Rain 6 989 87 10000 1.34 248 08:25 22.01.2021
3459 Rain 6 988 89 10000 1.34 267 07:31 22.01.2021
3460 Clouds 9 988 85 10000 8.4 203 03:21 22.01.2021
3461 Clouds 8 989 87 10000 6.26 161 00:39 22.01.2021
3462 Clouds 7 990 88 10000 3.13 150 23:51 21.01.2021
3463 Rain 7 990 88 10000 2.24 117 23:29 21.01.2021
3464 Rain 6 991 88 10000 2.68 96 22:50 21.01.2021
3465 Rain 6 992 87 10000 3.13 84 22:24 21.01.2021
3466 Rain 5 993 85 10000 4.76 186 21:43 21.01.2021
3467 Rain 5 991 88 10000 4.98 201 21:20 21.01.2021
3468 Rain 5 994 84 10000 4.98 201 20:48 21.01.2021
3469 Rain 5 994 83 10000 0.45 101 20:29 21.01.2021
3470 Clouds 5 994 83 10000 1.79 96 19:52 21.01.2021
3471 Clouds 5 995 82 10000 0.45 135 19:30 21.01.2021
3472 Clouds 6 993 76 10000 1.79 270 18:59 21.01.2021
3473 Rain 6 997 78 10000 5.73 214 18:39 21.01.2021
3474 Clouds 6 993 87 10000 5.83 219 18:20 21.01.2021
3475 Clouds 6 993 87 10000 0.45 253 17:51 21.01.2021
3476 Clouds 6 993 84 10000 5.44 219 17:20 21.01.2021
3477 Clouds 6 993 75 10000 2.24 270 16:49 21.01.2021
3478 Clouds 6 995 79 10000 5.36 209 16:27 21.01.2021
3479 Clouds 7 995 80 10000 3.58 206 15:59 21.01.2021
3480 Clouds 7 995 81 10000 3.58 224 15:34 21.01.2021
3481 Clouds 6 995 83 10000 5.36 190 14:54 21.01.2021
3482 Clouds 6 995 84 10000 4.02 221 14:35 21.01.2021
3483 Clouds 5 995 92 10000 2.24 161 13:52 21.01.2021
3484 Clouds 5 992 95 10000 6.52 221 13:33 21.01.2021
3485 Rain 5 993 83 10000 1.34 270 12:58 21.01.2021
3486 Rain 5 994 83 10000 1.34 225 12:39 21.01.2021
3487 Rain 5 993 97 7825 0.89 284 12:20 21.01.2021
3488 Clouds 5 995 91 7825 2.68 267 11:48 21.01.2021
3489 Rain 6 994 84 9795 1.34 225 11:25 21.01.2021
3490 Rain 7 995 83 9795 3.58 267 10:51 21.01.2021
3491 Rain 7 993 84 9795 1.79 270 10:30 21.01.2021
3492 Clouds 9 990 64 10000 3.58 270 09:44 21.01.2021
3493 Clouds 3 991 83 10000 8.06 204 09:25 21.01.2021
3494 Clouds 8 991 83 10000 8.06 204 08:44 21.01.2021
3495 Clouds 6 991 83 10000 7.93 201 08:23 21.01.2021
3496 Clouds 6 990 61 10000 1.79 293 07:27 21.01.2021
3497 Clouds 6 990 59 10000 2.24 270 06:54 21.01.2021
3498 Clouds 6 992 83 10000 9.67 211 05:21 21.01.2021
3499 Clouds 6 996 73 10000 3.13 87 02:31 21.01.2021
3500 Clouds 6 995 69 10000 1.34 293 00:51 21.01.2021
3501 Clouds 5 998 81 10000 5.89 201 23:53 20.01.2021
3502 Clouds 6 999 81 10000 0.89 59 23:32 20.01.2021
3503 Clouds 6 999 81 10000 0.89 59 23:32 20.01.2021
3504 Clouds 5 999 83 10000 1.79 69 22:58 20.01.2021
3505 Clouds 5 999 83 10000 0.89 58 22:37 20.01.2021
3506 Clouds 5 999 85 10000 4.02 48 21:59 20.01.2021
3507 Clouds 5 999 86 10000 2.24 42 21:41 20.01.2021
3508 Clouds 5 999 85 10000 0.89 41 21:20 20.01.2021
3509 Clouds 6 998 79 10000 5.15 206 20:41 20.01.2021
3510 Clouds 6 998 74 10000 0.89 248 20:18 20.01.2021
3511 Clouds 6 1000 84 10000 0.45 78 19:43 20.01.2021
3512 Clouds 6 1000 84 10000 0.45 78 19:24 20.01.2021
3513 Rain 6 1000 85 10000 1.79 36 18:42 20.01.2021
3514 Clouds 6 1000 83 10000 4.7 207 17:58 20.01.2021
3515 Clouds 6 1000 83 10000 1.34 38 17:39 20.01.2021
3516 Clouds 7 998 71 10000 1.79 270 16:59 20.01.2021
3517 Clouds 7 999 70 10000 2.24 270 16:41 20.01.2021
3518 Clouds 7 998 74 10000 4.8 211 15:55 20.01.2021
3519 Clouds 9 999 67 10000 2.24 270 15:36 20.01.2021
3520 Clouds 8 999 69 10000 4.9 213 14:51 20.01.2021
3521 Clouds 8 999 68 10000 1.79 293 14:25 20.01.2021
3522 Clouds 6 1000 70 10000 1.79 293 13:50 20.01.2021
3523 Clouds 6 1000 71 10000 1.79 293 13:31 20.01.2021
3524 Clouds 6 1003 82 10000 5.72 217 12:45 20.01.2021
3525 Clouds 6 1003 71 10000 1.34 202 12:21 20.01.2021
3526 Clouds 5 1003 81 10000 5.91 215 11:39 20.01.2021
3527 Clouds 5 1003 83 10000 6.54 222 11:18 20.01.2021
3528 Clouds 4 1003 87 10000 0.89 46 10:43 20.01.2021
3529 Clouds 4 1003 88 10000 5.91 220 10:18 20.01.2021
3530 Clouds 4 1001 77 10000 1.79 270 09:31 20.01.2021
3531 Clouds 2 1004 92 10000 1.79 85 08:59 20.01.2021
3532 Clouds 2 1004 92 10000 5.2 216 08:34 20.01.2021
3533 Clouds 2 1004 90 10000 0.89 37 07:59 20.01.2021
3534 Clouds 2 1002 10 10000 4.88 216 07:37 20.01.2021
3535 Clouds 2 1004 90 10000 4.79 217 06:56 20.01.2021
3536 Clouds 2 1003 10 10000 5.52 222 03:34 20.01.2021
3537 Clouds 3 1005 96 9637 5.24 220 01:51 20.01.2021
3538 Clouds 3 1004 10 9707 4.96 221 00:49 20.01.2021
3539 Clouds 3 1006 97 6765 3.13 214 23:50 19.01.2021
3540 Clouds 5 1006 97 6765 2.24 197 23:32 19.01.2021
3541 Clouds 5 1004 95 10000 1.79 270 22:58 19.01.2021
3542 Clouds 5 1006 97 10000 0.45 253 22:38 19.01.2021
3543 Clouds 5 1004 95 10000 1.79 270 22:20 19.01.2021
3544 Clouds 5 1006 97 10000 0.45 161 21:54 19.01.2021
3545 Clouds 5 1006 97 10000 6.99 247 21:32 19.01.2021
3546 Rain 5 1006 97 4582 0.89 239 20:49 19.01.2021
3547 Rain 5 1004 96 4191 1.34 270 20:27 19.01.2021
3548 Rain 5 1006 97 4191 4.02 253 19:56 19.01.2021
3549 Rain 5 1005 97 4191 6.91 250 19:34 19.01.2021
3550 Clouds 4 1008 10 3494 6.84 252 18:59 19.01.2021
3551 Clouds 4 1005 97 3494 6.84 252 18:38 19.01.2021
3552 Clouds 4 1005 97 5278 7.13 252 18:20 19.01.2021
3553 Clouds 4 1005 97 5278 0.45 262 17:42 19.01.2021
3554 Clouds 3 1005 96 3093 6.89 245 17:19 19.01.2021
3555 Rain 3 1005 96 3093 6.89 245 16:39 19.01.2021
3556 Rain 3 1003 95 3769 1.34 270 16:18 19.01.2021
3557 Rain 3 1004 96 3769 6.49 241 15:48 19.01.2021
3558 Snow 2 1003 95 2875 1.79 293 15:29 19.01.2021
3559 Rain 2 1004 96 2875 1.34 256 14:43 19.01.2021
3560 Rain 2 1004 96 1033 6.06 230 14:24 19.01.2021
3561 Rain 2 1008 96 1033 6.06 230 13:49 19.01.2021
3562 Snow 1 1005 96 279 6.93 227 13:23 19.01.2021
3563 Snow 1 1006 95 570 7.22 222 12:49 19.01.2021
3564 Snow 1 1006 95 570 7.22 222 12:30 19.01.2021
3565 Snow 1 1006 95 500 7.35 221 11:52 19.01.2021
3566 Snow 1 1006 95 500 7.35 221 11:52 19.01.2021
3567 Snow 1 1007 95 1196 6.38 214 11:29 19.01.2021
3568 Snow 1 1006 96 1196 0.45 297 10:53 19.01.2021
3569 Snow 1 1008 93 1196 6.38 214 10:32 19.01.2021
3570 Snow 1 1009 92 1146 6.6 216 09:59 19.01.2021
3571 Snow 2 1009 92 1146 6.6 216 09:41 19.01.2021
3572 Snow 1 1009 90 3161 6.65 215 09:19 19.01.2021
3573 Rain 2 1010 91 3161 1.34 165 08:31 19.01.2021
3574 Rain 2 1011 93 5281 1.79 171 07:51 19.01.2021
3575 Clouds 2 1012 95 1693 1.34 190 06:58 19.01.2021
3576 Clouds 2 1014 96 1951 4.7 238 03:34 19.01.2021
3577 Clouds 2 1015 96 5111 4.84 245 02:21 19.01.2021
3578 Rain 2 1016 96 5060 5.18 250 00:23 19.01.2021
3579 Clouds 2 1017 96 5060 0.45 225 23:41 18.01.2021
3580 Clouds 2 1017 96 2953 2.68 224 23:22 18.01.2021
3581 Clouds 2 1017 96 2953 1.34 229 22:41 18.01.2021
3582 Rain 2 1015 98 1948 5.54 255 22:20 18.01.2021
3583 Rain 2 1017 96 1948 5.54 255 21:43 18.01.2021
3584 Rain 2 1017 97 1734 5.95 261 21:22 18.01.2021
3585 Rain 2 1017 96 1734 5.95 261 20:53 18.01.2021
3586 Rain 2 1017 96 1734 5.95 261 20:33 18.01.2021
3587 Snow 2 1017 97 40 0.45 253 19:52 18.01.2021
3588 Snow 2 1017 96 40 5.33 257 19:34 18.01.2021
3589 Snow 2 1016 93 35 0.45 270 18:48 18.01.2021
3590 Snow 2 1017 96 39 5.72 248 18:25 18.01.2021
3591 Clouds 2 1017 94 39 0.89 270 17:46 18.01.2021
3592 Snow 2 1016 94 488 0.89 270 17:26 18.01.2021
3593 Snow 2 1018 96 488 2.24 254 16:49 18.01.2021
3594 Snow 2 1018 97 5099 1.34 218 16:23 18.01.2021
3595 Snow 2 1017 94 5099 0.45 293 15:51 18.01.2021
3596 Snow 2 1018 97 5816 4.9 250 15:27 18.01.2021
3597 Snow 2 1017 99 5816 1.34 314 14:47 18.01.2021
3598 Snow 2 1017 94 5118 4.5 250 14:28 18.01.2021
3599 Clouds 2 1019 97 5118 4.5 250 13:56 18.01.2021
3600 Clouds 2 1018 94 5118 0.45 248 13:38 18.01.2021
3601 Clouds 2 1018 94 5376 0.45 293 13:20 18.01.2021
3602 Clouds 2 1018 99 5298 0.45 269 12:42 18.01.2021
3603 Clouds 2 1019 97 5254 4.81 256 12:18 18.01.2021
3604 Clouds 1 1020 97 5254 4.81 256 11:41 18.01.2021
3605 Clouds 1 1020 96 5194 4.39 260 11:23 18.01.2021
3606 Clouds 1 1019 99 5194 0.89 280 10:47 18.01.2021
3607 Clouds 1 1020 96 3352 4.18 266 10:21 18.01.2021
3608 Clouds 1 1020 96 3352 4.18 266 09:39 18.01.2021
3609 Clouds 0 1020 96 5290 3.9 272 09:18 18.01.2021
3610 Clouds 0 1019 94 5603 3.65 273 08:26 18.01.2021
3611 Clouds 0 1019 95 5603 0.45 270 07:48 18.01.2021
3612 Clouds 0 1019 96 4173 3.4 273 06:35 18.01.2021
3613 Clouds 0 1019 96 4173 3.4 273 06:35 18.01.2021
3614 Snow -1 1019 95 1852 3.82 288 04:41 18.01.2021
3615 Snow -1 1017 99 975 3.18 283 04:22 18.01.2021
3616 Snow -1 1019 95 975 3.18 283 03:46 18.01.2021
3617 Clouds -1 1019 95 3857 2.77 291 03:25 18.01.2021
3618 Snow 1 1019 94 3857 2.77 291 02:54 18.01.2021
3619 Clouds -2 1018 97 2535 2.37 280 02:19 18.01.2021
3620 Snow -2 1018 97 2871 1.61 241 00:41 18.01.2021
3621 Snow -2 1019 94 488 1.45 218 23:51 17.01.2021
3622 Snow -2 1019 93 194 1.55 209 23:25 17.01.2021
3623 Snow -2 1019 93 194 1.55 209 22:55 17.01.2021
3624 Snow -2 1018 93 351 1.57 197 22:23 17.01.2021
3625 Snow -2 1018 90 351 1.57 197 21:44 17.01.2021
3626 Snow -2 1018 93 500 0.45 270 21:26 17.01.2021
3627 Snow -2 1019 91 500 1.42 192 20:54 17.01.2021
3628 Snow -2 1019 91 500 1.42 192 20:36 17.01.2021
3629 Clouds -2 1018 90 802 1.26 192 20:18 17.01.2021
3630 Clouds -2 1019 90 802 1.26 192 19:40 17.01.2021
3631 Clouds -2 1019 89 10000 1.2 195 18:54 17.01.2021
3632 Clouds -2 1018 87 10000 1.07 203 18:29 17.01.2021
3633 Clouds -2 1017 90 10000 1.07 203 17:51 17.01.2021
3634 Clouds -2 1018 87 10000 1.04 208 17:29 17.01.2021
3635 Clouds -2 1018 86 10000 1.04 208 16:45 17.01.2021
3636 Clouds -2 1018 86 10000 1.04 208 16:45 17.01.2021
3637 Clouds -2 1018 86 10000 0.93 193 16:25 17.01.2021
3638 Clouds -2 1017 86 10000 0.93 193 15:54 17.01.2021
3639 Clouds -2 1017 87 10000 0.95 197 15:27 17.01.2021
3640 Clouds -2 1016 84 10000 0.89 270 14:59 17.01.2021
3641 Clouds -2 1017 86 10000 0.95 197 14:39 17.01.2021
3642 Clouds -2 1017 87 10000 1.09 190 14:21 17.01.2021
3643 Clouds -2 1017 88 10000 1.34 131 13:43 17.01.2021
3644 Clouds -2 1017 88 10000 0.45 134 13:24 17.01.2021
3645 Clouds -2 1016 82 10000 1.1 184 12:45 17.01.2021
3646 Clouds -2 1017 84 10000 0.45 122 12:25 17.01.2021
3647 Clouds -3 1017 82 10000 0.45 125 11:26 17.01.2021
3648 Clouds -3 1017 83 10000 0.45 84 10:54 17.01.2021
3649 Clouds -3 1016 87 10000 1.34 181 10:36 17.01.2021
3650 Clouds -3 1015 87 10000 1.35 169 10:18 17.01.2021
3651 Clouds -3 1015 86 10000 1.31 156 08:59 17.01.2021
3652 Clouds -3 1015 86 10000 1.31 156 08:41 17.01.2021
3653 Clouds -3 1014 81 10000 1.04 147 04:36 17.01.2021
3654 Clouds -3 1015 86 10000 1.05 131 03:44 17.01.2021
3655 Clouds -3 1016 85 10000 1.31 183 01:29 17.01.2021
3656 Clouds -3 1017 87 10000 1.51 196 00:21 17.01.2021
3657 Clouds -2 1017 89 10000 1.51 196 23:53 16.01.2021
3658 Clouds -2 1017 89 8772 1.45 205 23:25 16.01.2021
3659 Clouds -2 1017 85 8772 1.45 205 22:55 16.01.2021
3660 Clouds -2 1018 90 5889 1.54 215 22:21 16.01.2021
3661 Clouds -2 1018 91 5889 1.54 215 21:46 16.01.2021
3662 Clouds -2 1018 91 5319 1.5 208 21:23 16.01.2021
3663 Clouds -2 1018 91 5319 1.5 208 20:49 16.01.2021
3664 Clouds -2 1018 84 5049 1.3 209 20:27 16.01.2021
3665 Clouds -2 1018 86 5049 1.3 209 19:49 16.01.2021
3666 Clouds -2 1019 91 5049 1.3 209 19:30 16.01.2021
3667 Clouds -2 1019 91 10000 1.31 232 18:47 16.01.2021
3668 Clouds -2 1019 90 10000 1.49 245 18:28 16.01.2021
3669 Clouds -2 1019 87 10000 1.49 245 17:59 16.01.2021
3670 Clouds -2 1020 89 10000 1.49 245 17:39 16.01.2021
3671 Clouds -2 1020 90 10000 1.77 261 17:21 16.01.2021
3672 Clouds -2 1020 89 10000 1.77 261 16:42 16.01.2021
3673 Clouds -2 1019 91 10000 2.11 282 16:19 16.01.2021
3674 Clouds -2 1021 89 10000 2.11 282 15:42 16.01.2021
3675 Clouds -2 1021 88 10000 2.45 297 14:35 16.01.2021
3676 Clouds -2 1022 87 10000 1.34 252 13:54 16.01.2021
3677 Clouds -2 1020 88 10000 2.62 301 13:33 16.01.2021
3678 Clouds -2 1022 88 8004 0.45 252 12:49 16.01.2021
3679 Clouds -2 1022 88 6502 2.79 278 12:31 16.01.2021
3680 Clouds -3 1023 88 5090 2.55 279 11:59 16.01.2021
3681 Clouds -3 1023 88 5090 2.55 279 11:40 16.01.2021
3682 Clouds -3 1023 88 3310 1.98 281 11:19 16.01.2021
3683 Clouds -3 1023 88 3310 1.98 281 10:42 16.01.2021
3684 Clouds -3 1024 89 3033 1.81 274 09:57 16.01.2021
3685 Clouds -4 1024 89 4893 1.39 274 09:22 16.01.2021
3686 Clouds -4 1024 88 4264 1.39 286 08:22 16.01.2021
3687 Clouds -4 1024 86 3458 1.76 296 07:28 16.01.2021
3688 Clouds -4 1025 86 1540 0.45 298 05:46 16.01.2021
3689 Clouds -4 1025 83 2021 0.98 283 04:38 16.01.2021
3690 Clouds -4 1028 82 7009 0.45 336 02:54 16.01.2021
3691 Clouds -3 1026 85 9700 1.24 317 00:49 16.01.2021
3692 Clouds -3 1026 85 8006 1.04 334 00:25 16.01.2021
3693 Clouds -3 1026 88 8006 2.24 285 23:49 15.01.2021
3694 Clouds -3 1025 85 4646 1.03 1 22:51 15.01.2021
3695 Clouds -3 1025 87 2917 1.34 292 22:23 15.01.2021
3696 Clouds -3 1025 87 2917 1.79 285 21:46 15.01.2021
3697 Snow -3 1025 85 1093 1.78 356 20:58 15.01.2021
3698 Snow -2 1025 86 1093 1.78 356 20:40 15.01.2021
3699 Snow -2 1025 87 455 0.45 311 20:19 15.01.2021
3700 Snow -2 1025 88 455 1.96 343 19:40 15.01.2021
3701 Clouds -2 1025 88 622 0.45 281 19:22 15.01.2021
3702 Clouds -2 1025 89 622 2.14 344 18:43 15.01.2021
3703 Snow -2 1024 88 611 0.89 270 18:19 15.01.2021
3704 Snow -2 1024 88 611 2.65 342 17:51 15.01.2021
3705 Clouds -2 1024 90 1941 1.79 319 17:25 15.01.2021
3706 Clouds -1 1024 90 1941 2.88 339 16:52 15.01.2021
3707 Snow -1 1024 90 3497 2.24 286 16:25 15.01.2021
3708 Snow -1 1024 90 3497 3.51 338 15:42 15.01.2021
3709 Snow -1 1023 92 2247 2.24 271 15:23 15.01.2021
3710 Snow -1 1023 91 2247 2.68 286 14:51 15.01.2021
3711 Snow -1 1023 94 1081 1.79 285 14:28 15.01.2021
3712 Snow 1 1023 94 1081 3.9 336 13:44 15.01.2021
3713 Snow -1 1023 94 1197 1.79 288 13:24 15.01.2021
3714 Clouds -1 1023 94 1793 5.81 291 12:59 15.01.2021
3715 Snow -1 1024 94 1793 2.96 339 12:37 15.01.2021
3716 Snow -1 1023 93 2366 3.58 284 12:18 15.01.2021
3717 Snow -1 1023 92 2366 2.68 277 11:42 15.01.2021
3718 Snow -1 1023 89 1370 0.45 293 10:58 15.01.2021
3719 Snow -1 1022 87 1370 2.92 353 10:39 15.01.2021
3720 Snow -1 1022 87 465 2.61 354 10:19 15.01.2021
3721 Snow -1 1022 89 465 2.61 354 09:47 15.01.2021
3722 Snow -1 1020 90 451 2.09 355 09:27 15.01.2021
3723 Snow -1 1022 95 512 1.78 3 08:27 15.01.2021
3724 Snow -1 1021 95 512 1.78 4 07:44 15.01.2021
3725 Snow -1 1021 94 478 0.45 13 07:22 15.01.2021
3726 Snow -1 1020 94 183 1.51 8 06:28 15.01.2021
3727 Clouds -1 1020 95 1181 1.79 19 02:43 15.01.2021
3728 Clouds -2 1019 92 4289 1.53 26 00:41 15.01.2021
3729 Clouds -2 1019 94 5476 1.35 22 23:30 14.01.2021
3730 Clouds -2 1019 93 10000 0.45 35 22:57 14.01.2021
3731 Clouds -2 1018 85 10000 1.03 22 22:37 14.01.2021
3732 Clouds -2 1019 93 10000 0.45 36 22:19 14.01.2021
3733 Clouds -1 1018 84 10000 1.16 27 21:39 14.01.2021
3734 Clouds -1 1018 85 4099 1.38 21 21:20 14.01.2021
3735 Clouds -1 1018 85 4099 1.38 21 20:47 14.01.2021
3736 Clouds -1 1019 93 3990 1.39 14 20:18 14.01.2021
3737 Clouds -1 1019 93 3990 1.39 14 20:18 14.01.2021
3738 Clouds -1 1017 85 3990 1.39 14 19:38 14.01.2021
3739 Clouds 0 1019 93 6513 1.46 10 19:18 14.01.2021
3740 Clouds -1 1019 93 6338 1.57 10 18:44 14.01.2021
3741 Clouds 0 1017 88 9630 1.46 4 17:59 14.01.2021
3742 Clouds 0 1019 93 9630 1.46 4 17:41 14.01.2021
3743 Clouds 0 1017 86 10000 1.47 5 17:23 14.01.2021
3744 Clouds 0 1018 96 10000 1.47 5 16:39 14.01.2021
3745 Clouds 0 1016 89 10000 1.75 360 15:55 14.01.2021
3746 Clouds 0 1018 96 10000 1.75 360 15:37 14.01.2021
3747 Clouds 0 1018 96 10000 2.21 352 14:58 14.01.2021
3748 Clouds 0 1017 96 10000 2.21 352 14:36 14.01.2021
3749 Clouds 0 1017 96 8095 0.89 284 14:18 14.01.2021
3750 Clouds 0 1017 96 8095 2.27 353 13:47 14.01.2021
3751 Clouds 0 1017 96 3345 2.24 267 13:19 14.01.2021
3752 Clouds 0 1017 96 9904 1.34 290 12:38 14.01.2021
3753 Clouds 0 1017 96 3561 2.63 1 12:18 14.01.2021
3754 Clouds 0 1017 96 3561 3.13 291 11:41 14.01.2021
3755 Clouds 0 1015 94 2713 3.25 7 11:20 14.01.2021
3756 Clouds 0 1015 94 2713 3.25 7 10:49 14.01.2021
3757 Snow 0 1015 92 2886 4.23 3 10:22 14.01.2021
3758 Snow 0 1016 95 2886 1.34 267 09:44 14.01.2021
3759 Snow 0 1013 100 148 4.42 356 09:22 14.01.2021
3760 Snow 0 1014 95 148 0.89 294 08:48 14.01.2021
3761 Snow 0 1014 94 108 1.34 277 08:22 14.01.2021
3762 Snow 0 1013 94 108 2.24 226 07:45 14.01.2021
3763 Snow 0 1012 94 101 5.16 346 06:46 14.01.2021
3764 Snow 0 1012 89 172 7.28 341 05:46 14.01.2021
3765 Snow 0 1008 88 1246 0.45 90 00:45 14.01.2021
3766 Clouds 0 1008 95 9629 4.92 260 23:54 13.01.2021
3767 Clouds 0 1005 95 9659 2.24 314 23:23 13.01.2021
3768 Clouds 0 1007 96 8755 3.58 299 22:29 13.01.2021
3769 Clouds 0 1006 96 8795 4.47 296 21:57 13.01.2021
3770 Clouds 0 1006 96 8795 4.47 296 21:38 13.01.2021
3771 Snow 1 1006 96 5311 2.68 336 20:59 13.01.2021
3772 Snow 1 1003 95 5311 2.24 314 20:37 13.01.2021
3773 Snow 1 1006 95 4089 0.89 294 20:18 13.01.2021
3774 Snow 1 1005 93 4089 4.92 252 19:42 13.01.2021
3775 Snow 1 1005 91 64 6.26 290 19:19 13.01.2021
3776 Snow 2 1005 91 64 6.26 261 18:41 13.01.2021
3777 Snow 2 1005 86 5093 2.24 270 17:51 13.01.2021
3778 Snow 2 1007 93 135 4.47 222 17:26 13.01.2021
3779 Snow 1 1007 93 135 5.81 238 16:58 13.01.2021
3780 Snow 1 1007 94 213 4.92 271 16:22 13.01.2021
3781 Snow 1 1007 94 213 4.92 271 16:22 13.01.2021
3782 Snow 1 1008 95 213 5.81 236 15:59 13.01.2021
3783 Snow 1 1008 95 213 4.47 229 15:39 13.01.2021
3784 Snow 1 1009 96 5004 5.81 272 14:49 13.01.2021
3785 Snow 1 1009 96 4896 5.81 272 13:58 13.01.2021
3786 Snow 1 1007 99 4896 0.89 300 13:37 13.01.2021
3787 Snow 1 1009 92 1712 1.34 270 13:18 13.01.2021
3788 Snow 1 1010 96 1571 4.92 290 12:43 13.01.2021
3789 Snow 1 1009 93 55 1.34 225 12:22 13.01.2021
3790 Snow 1 1010 96 55 3.58 278 11:47 13.01.2021
3791 Snow 1 1008 99 59 2.24 299 11:26 13.01.2021
3792 Snow 1 1010 96 59 5.81 257 10:43 13.01.2021
3793 Snow 1 1010 96 71 5.36 269 10:24 13.01.2021
3794 Snow 0 1010 96 71 4.47 252 09:38 13.01.2021
3795 Clouds 1 1010 96 1221 1.79 250 08:57 13.01.2021
3796 Clouds 1 1010 93 1221 1.34 270 08:33 13.01.2021
3797 Snow 0 1010 95 4275 0.89 254 07:53 13.01.2021
3798 Snow 0 1010 94 5215 0.89 225 07:24 13.01.2021
3799 Clouds 1 1009 96 8518 0.89 338 04:21 13.01.2021
3800 Clouds 1 1009 96 8518 0.89 338 03:52 13.01.2021
3801 Clouds 1 1009 96 8518 0.89 338 03:31 13.01.2021
3802 Snow 1 1009 96 10000 0.89 338 02:46 13.01.2021
3803 Clouds 0 1008 97 10000 0.89 260 00:38 13.01.2021
3804 Clouds 1 1008 97 10000 1.34 285 23:33 12.01.2021
3805 Clouds 1 1008 93 10000 3.44 269 22:47 12.01.2021
3806 Clouds 1 1007 97 5969 1.34 279 22:25 12.01.2021
3807 Clouds 1 1007 96 5969 1.34 323 21:54 12.01.2021
3808 Clouds 1 1008 96 5969 3.05 276 21:35 12.01.2021
3809 Clouds 1 1007 94 10000 3.97 300 20:57 12.01.2021
3810 Clouds 1 1007 96 10000 3.97 300 20:38 12.01.2021
3811 Clouds 1 1007 96 7734 0.89 277 20:20 12.01.2021
3812 Clouds 1 1006 97 7734 3.58 270 19:39 12.01.2021
3813 Snow 1 1004 99 5642 0.45 342 18:53 12.01.2021
3814 Clouds 1 1003 99 2267 3.76 274 18:25 12.01.2021
3815 Rain 2 1005 95 2267 3.76 274 17:57 12.01.2021
3816 Clouds 2 1004 96 2267 3.76 274 17:33 12.01.2021
3817 Snow 1 1004 96 10000 2.24 304 16:45 12.01.2021
3818 Clouds 1 1004 96 10000 2.24 304 16:27 12.01.2021
3819 Clouds 1 1003 96 10000 4.21 304 15:50 12.01.2021
3820 Snow 1 1003 96 3381 3.13 267 15:27 12.01.2021
3821 Snow 1 1002 96 3381 4.98 318 14:50 12.01.2021
3822 Snow 1 1002 96 3381 4.98 318 14:30 12.01.2021
3823 Snow 1 1002 96 131 4.92 304 13:56 12.01.2021
3824 Snow 1 1001 95 131 0.45 336 13:37 12.01.2021
3825 Rain 2 1002 95 58 2.75 320 12:38 12.01.2021
3826 Clouds 2 1002 95 137 3.75 290 11:53 12.01.2021
3827 Clouds 2 1002 95 137 3.75 290 11:34 12.01.2021
3828 Clouds 2 1002 95 1000 0.89 243 10:44 12.01.2021
3829 Clouds 2 1002 95 1725 0.89 244 10:20 12.01.2021
3830 Rain 2 1002 95 1725 1.79 213 09:53 12.01.2021
3831 Clouds 2 1002 95 2078 3.13 232 09:23 12.01.2021
3832 Snow 1 1002 95 1976 0.89 286 08:28 12.01.2021
3833 Rain 1 1003 95 1976 6.16 232 07:57 12.01.2021
3834 Snow 1 1003 95 1976 6.16 232 07:33 12.01.2021
3835 Snow 1 1004 94 2627 0.45 171 05:56 12.01.2021
3836 Snow 1 1007 93 1857 6.06 228 03:48 12.01.2021
3837 Snow 1 1005 97 1506 5.92 224 03:23 12.01.2021
3838 Snow 1 1008 92 1640 6.26 221 02:18 12.01.2021
3839 Snow 1 1009 90 2450 0.45 186 00:55 12.01.2021
3840 Clouds 1 1010 90 5362 0.89 209 23:45 11.01.2021
3841 Clouds 1 1008 92 5722 0.45 312 23:20 11.01.2021
3842 Clouds 1 1011 91 5722 1.34 237 22:50 11.01.2021
3843 Clouds 1 1011 91 5722 1.34 237 22:32 11.01.2021
3844 Clouds 0 1011 90 6861 0.89 197 21:55 11.01.2021
3845 Clouds 0 1010 88 6861 2.68 270 21:36 11.01.2021
3846 Clouds 0 1011 93 10000 5.95 229 21:18 11.01.2021
3847 Clouds 0 1013 88 9822 0.89 227 20:40 11.01.2021
3848 Clouds 0 1011 88 7376 3.58 225 20:22 11.01.2021
3849 Clouds 0 1011 90 7376 5.65 227 19:52 11.01.2021
3850 Clouds 0 1013 90 7358 0.45 166 19:23 11.01.2021
3851 Snow 0 1012 91 7358 1.79 293 18:44 11.01.2021
3852 Clouds 0 1014 89 9334 2.24 211 18:24 11.01.2021
3853 Clouds 0 1014 86 9285 4.99 228 17:43 11.01.2021
3854 Clouds 0 1013 87 6732 4.88 227 17:25 11.01.2021
3855 Clouds 0 1015 85 6732 0.45 159 16:55 11.01.2021
3856 Clouds 0 1015 84 6732 2.68 235 16:35 11.01.2021
3857 Clouds 1 1016 83 6220 4.65 226 15:59 11.01.2021
3858 Clouds 1 1016 83 6220 4.65 226 15:39 11.01.2021
3859 Snow 1 1016 83 5583 4.89 225 15:19 11.01.2021
3860 Snow 1 1014 83 5583 4.89 225 14:39 11.01.2021
3861 Snow 1 1016 85 3380 4.69 225 13:49 11.01.2021
3862 Snow 0 1016 85 2804 4.43 223 13:25 11.01.2021
3863 Snow 0 1017 88 2915 4.35 220 12:46 11.01.2021
3864 Snow 0 1017 91 4781 0.45 131 12:27 11.01.2021
3865 Snow 0 1018 91 4781 4.01 221 11:53 11.01.2021
3866 Snow 0 1018 92 2876 3.68 222 11:26 11.01.2021
3867 Clouds -1 1019 92 2876 3.68 222 10:47 11.01.2021
3868 Snow -1 1019 92 5023 3.56 223 10:24 11.01.2021
3869 Snow -1 1019 94 5023 3.56 223 09:42 11.01.2021
3870 Clouds -1 1018 94 5994 3.26 222 09:21 11.01.2021
3871 Clouds -1 1019 94 5994 3.26 222 08:44 11.01.2021
3872 Clouds -1 1017 92 10000 3.16 215 08:18 11.01.2021
3873 Clouds -1 1018 92 7654 0.45 293 07:27 11.01.2021
3874 Clouds -1 1018 92 7654 2.9 216 06:58 11.01.2021
3875 Clouds -1 1020 94 3379 2.96 223 03:57 11.01.2021
3876 Clouds -1 1019 92 6884 2.89 229 01:33 11.01.2021
3877 Clouds -1 1019 87 10000 2.71 232 00:34 11.01.2021
3878 Clouds -1 1019 89 10000 2.68 243 23:35 10.01.2021
3879 Clouds -1 1020 98 10000 2.32 228 22:48 10.01.2021
3880 Clouds -1 1020 98 10000 2.19 223 22:24 10.01.2021
3881 Clouds -1 1020 98 10000 2.19 223 22:24 10.01.2021
3882 Clouds -2 1020 91 10000 2.19 223 21:46 10.01.2021
3883 Clouds -2 1020 98 10000 1.99 217 21:21 10.01.2021
3884 Clouds -1 1020 91 10000 0.45 270 20:57 10.01.2021
3885 Clouds -2 1020 98 10000 1.99 217 20:33 10.01.2021
3886 Clouds -1 1024 91 10000 1.86 219 19:58 10.01.2021
3887 Clouds -1 1020 98 10000 1.86 219 19:36 10.01.2021
3888 Clouds -1 1021 92 10000 1.74 220 19:18 10.01.2021
3889 Clouds -1 1021 93 10000 1.74 220 18:41 10.01.2021
3890 Clouds -1 1021 93 10000 1.86 222 18:19 10.01.2021
3891 Clouds -1 1021 92 10000 1.68 226 17:22 10.01.2021
3892 Clouds -1 1021 92 10000 1.68 226 16:37 10.01.2021
3893 Clouds 0 1021 91 10000 1.69 226 16:18 10.01.2021
3894 Clouds 0 1021 90 10000 1.82 238 15:25 10.01.2021
3895 Clouds 0 1021 90 10000 1.82 238 14:52 10.01.2021
3896 Clouds 0 1020 89 10000 1.82 238 14:33 10.01.2021
3897 Clouds 0 1020 87 10000 0.45 276 13:55 10.01.2021
3898 Clouds 0 1021 85 10000 0.45 289 13:37 10.01.2021
3899 Clouds 0 1021 85 10000 0.45 289 13:37 10.01.2021
3900 Clouds 1 1021 85 10000 2.06 224 13:19 10.01.2021
3901 Clouds 0 1021 89 10000 1.95 222 12:50 10.01.2021
3902 Clouds 0 1022 91 10000 1.95 222 12:32 10.01.2021
3903 Clouds 0 1022 92 10000 1.82 212 11:48 10.01.2021
3904 Clouds -1 1022 96 10000 1.57 207 11:19 10.01.2021
3905 Clouds -1 1023 93 10000 1.57 207 10:45 10.01.2021
3906 Clouds -1 1022 93 10000 0.45 225 10:22 10.01.2021
3907 Clouds -1 1021 98 10000 1.33 202 09:36 10.01.2021
3908 Clouds -2 1022 94 10000 0.98 212 08:23 10.01.2021
3909 Clouds -2 1022 94 10000 0.98 212 07:38 10.01.2021
3910 Clouds -2 1022 97 10000 0.89 158 06:21 10.01.2021
3911 Clouds -2 1022 97 10000 0.45 185 05:42 10.01.2021
3912 Clouds -2 1022 97 10000 1 220 03:57 10.01.2021
3913 Clouds -3 1023 97 10000 0.95 224 01:30 10.01.2021
3914 Clouds -1 1021 93 10000 0.35 210 23:59 09.01.2021
3915 Clouds -1 1022 95 10000 0.35 210 23:41 09.01.2021
3916 Clouds -1 1021 91 10000 0.29 286 22:57 09.01.2021
3917 Clouds 0 1022 94 9369 0.56 311 22:19 09.01.2021
3918 Clouds 0 1022 94 9369 0.56 311 21:58 09.01.2021
3919 Clouds 0 1022 94 9369 0.56 311 21:39 09.01.2021
3920 Clouds 0 1022 94 10000 0.74 317 21:20 09.01.2021
3921 Clouds 0 1020 94 10000 0.89 300 20:47 09.01.2021
3922 Clouds 0 1022 94 10000 0.77 324 20:28 09.01.2021
3923 Clouds 0 1021 94 10000 0.77 324 19:39 09.01.2021
3924 Clouds 0 1020 95 6087 0.96 320 19:20 09.01.2021
3925 Clouds 0 1020 95 3434 0.9 325 18:37 09.01.2021
3926 Clouds 0 1019 95 3802 1.23 323 17:53 09.01.2021
3927 Clouds 0 1019 96 3802 1.23 323 17:33 09.01.2021
3928 Clouds 0 1019 97 3317 1.43 314 16:56 09.01.2021
3929 Clouds 0 1019 97 6087 0.89 302 16:22 09.01.2021
3930 Clouds 0 1021 93 6087 1.62 304 15:41 09.01.2021
3931 Clouds 0 1019 96 8562 2.04 303 15:21 09.01.2021
3932 Clouds 0 1020 93 8562 2.04 303 14:37 09.01.2021
3933 Clouds 0 1020 92 5291 2.35 306 14:19 09.01.2021
3934 Clouds 1 1020 92 5291 2.35 306 13:44 09.01.2021
3935 Clouds 1 1018 96 2332 0.45 49 13:25 09.01.2021
3936 Clouds 1 1018 96 1977 0.45 314 12:28 09.01.2021
3937 Clouds -1 1020 93 1977 2.51 311 11:58 09.01.2021
3938 Clouds -1 1018 97 1977 0.89 312 11:38 09.01.2021
3939 Clouds 0 1020 93 2633 2.62 313 11:18 09.01.2021
3940 Clouds 0 1020 93 2633 2.62 313 10:43 09.01.2021
3941 Snow -1 1020 93 2020 2.73 313 10:23 09.01.2021
3942 Snow -1 1019 94 2020 2.73 313 09:44 09.01.2021
3943 Snow -1 1019 94 2020 2.73 313 09:44 09.01.2021
3944 Snow -1 1019 94 402 2.72 316 09:20 09.01.2021
3945 Snow -1 1018 94 202 2.62 319 07:49 09.01.2021
3946 Snow -1 1016 94 213 2.5 308 06:54 09.01.2021
3947 Snow -1 1016 94 213 2.5 308 06:34 09.01.2021
3948 Snow -1 1015 94 258 2.31 284 04:25 09.01.2021
3949 Snow -1 1017 94 2124 2.29 279 02:46 09.01.2021
3950 Clouds -1 1014 94 2361 1.34 298 02:27 09.01.2021
3951 Clouds -1 1016 94 1567 2.14 291 01:25 09.01.2021
3952 Snow -1 1016 95 523 2.18 299 00:34 09.01.2021
3953 Snow -1 1015 95 557 2.17 299 23:49 08.01.2021
3954 Snow -1 1015 96 584 2.01 296 22:47 08.01.2021
3955 Snow -1 1013 97 577 0.45 307 21:54 08.01.2021
3956 Snow -1 1009 95 717 2 300 21:26 08.01.2021
3957 Snow 0 1009 95 717 2 300 20:38 08.01.2021
3958 Snow 0 1009 95 437 2.08 308 19:59 08.01.2021
3959 Snow 0 1009 95 160 1.82 307 19:25 08.01.2021
3960 Snow 0 1012 97 461 1.61 314 18:59 08.01.2021
3961 Snow 0 1012 97 461 0.45 250 18:34 08.01.2021
3962 Snow 0 1009 95 363 1.6 308 17:55 08.01.2021
3963 Snow 0 1009 95 147 1.77 308 17:28 08.01.2021
3964 Snow 0 1009 95 147 1.77 308 16:50 08.01.2021
3965 Snow 0 1009 95 95 1.65 307 15:55 08.01.2021
3966 Snow 0 1012 95 95 1.65 307 15:33 08.01.2021
3967 Snow 0 1009 95 184 1.82 304 14:40 08.01.2021
3968 Snow 1 1012 96 244 0.89 287 14:20 08.01.2021
3969 Snow 0 1011 96 363 2.32 284 13:22 08.01.2021
3970 Snow 0 1011 96 205 2.21 278 12:52 08.01.2021
3971 Snow 0 1009 98 808 0.45 285 12:23 08.01.2021
3972 Snow 0 1009 95 808 1.87 274 11:59 08.01.2021
3973 Snow 0 1009 95 808 1.87 274 11:39 08.01.2021
3974 Clouds 1 1009 95 2576 1.7 274 11:19 08.01.2021
3975 Snow 0 1010 96 2576 1.7 274 10:42 08.01.2021
3976 Snow 0 1009 95 847 1.48 267 09:54 08.01.2021
3977 Snow 0 1009 95 847 1.48 267 09:36 08.01.2021
3978 Snow 0 1009 95 252 1.17 266 09:18 08.01.2021
3979 Snow -1 1011 93 480 1.01 270 07:43 08.01.2021
3980 Clouds -1 1008 96 5123 0.91 268 07:24 08.01.2021
3981 Clouds 0 1009 95 3745 1.04 255 04:18 08.01.2021
3982 Snow 0 1008 95 2544 1.58 216 23:43 07.01.2021
3983 Snow 0 1007 98 4960 1.79 224 22:55 07.01.2021
3984 Snow 0 1007 98 4960 1.79 224 22:36 07.01.2021
3985 Snow 0 1009 95 3566 2.11 228 21:50 07.01.2021
3986 Snow 0 1009 95 3566 2.11 228 21:31 07.01.2021
3987 Snow 0 1007 98 1103 2.31 228 20:55 07.01.2021
3988 Snow 0 1009 95 1103 2.31 228 20:36 07.01.2021
3989 Snow 0 1009 95 730 2.43 228 19:50 07.01.2021
3990 Snow 0 1009 95 730 2.43 228 19:30 07.01.2021
3991 Snow 0 1009 95 321 2.35 227 18:50 07.01.2021
3992 Snow 0 1008 97 340 2.12 225 18:21 07.01.2021
3993 Snow 0 1007 96 340 2.12 225 17:36 07.01.2021
3994 Snow 0 1008 96 838 2.05 231 17:18 07.01.2021
3995 Snow 0 1008 94 838 2.05 231 16:42 07.01.2021
3996 Snow 0 1009 94 1483 2.65 249 16:18 07.01.2021
3997 Snow 0 1009 94 1483 0.45 242 15:31 07.01.2021
3998 Snow 0 1009 94 1483 0.45 242 15:31 07.01.2021
3999 Snow 0 1007 94 1088 0.45 288 14:39 07.01.2021
4000 Snow 0 1007 94 1640 3.57 248 14:20 07.01.2021
4001 Snow 0 1008 94 1640 0.45 225 13:31 07.01.2021
4002 Snow 0 1009 96 2524 3.94 250 12:57 07.01.2021
4003 Snow 0 1008 97 3804 4.01 247 12:29 07.01.2021
4004 Snow 0 1010 96 3804 4.01 247 11:51 07.01.2021
4005 Snow 0 1009 94 3804 0.45 225 11:30 07.01.2021
4006 Snow -1 1010 95 3873 4.11 249 10:47 07.01.2021
4007 Clouds -1 1010 95 4915 4.07 255 10:19 07.01.2021
4008 Clouds 0 1010 95 4915 4.07 255 09:44 07.01.2021
4009 Snow 0 1010 95 1982 3.57 258 09:18 07.01.2021
4010 Snow -1 1010 95 1080 2.24 257 08:25 07.01.2021
4011 Snow -1 1009 95 1080 3.53 261 07:44 07.01.2021
4012 Snow -1 1009 96 594 3.82 264 06:52 07.01.2021
4013 Snow -1 1010 95 1437 3.13 238 03:35 07.01.2021
4014 Snow -1 1010 94 355 1.34 250 00:27 07.01.2021
4015 Snow -1 1008 93 355 1.34 295 23:36 06.01.2021
4016 Snow -1 1008 93 562 0.89 284 22:37 06.01.2021
4017 Snow -1 1010 96 678 3.13 277 21:43 06.01.2021
4018 Snow 0 1010 93 473 3.49 281 21:23 06.01.2021
4019 Snow 0 1010 96 473 2.68 286 20:51 06.01.2021
4020 Snow 0 1010 96 587 2.68 304 20:24 06.01.2021
4021 Snow 0 1010 96 587 2.68 289 19:49 06.01.2021
4022 Snow 0 1010 96 587 3.13 275 19:30 06.01.2021
4023 Snow 0 1010 96 670 3.58 261 18:59 06.01.2021
4024 Snow 0 1010 96 670 1.79 298 18:39 06.01.2021
4025 Snow 0 1010 96 487 1.79 298 18:18 06.01.2021
4026 Snow 0 1010 96 487 1.79 320 17:41 06.01.2021
4027 Snow 0 1010 96 343 1.34 279 17:21 06.01.2021
4028 Snow 0 1010 96 343 1.79 310 16:40 06.01.2021
4029 Snow 1 1010 96 125 2.24 270 16:19 06.01.2021
4030 Snow 1 1010 96 125 1.34 286 15:50 06.01.2021
4031 Snow 1 1010 96 125 1.34 286 15:50 06.01.2021
4032 Snow 1 1010 96 104 1.34 269 15:26 06.01.2021
4033 Snow 1 1010 96 104 2.24 286 14:42 06.01.2021
4034 Snow 1 1010 96 96 2.68 287 14:19 06.01.2021
4035 Snow 1 1010 97 96 2.45 309 13:42 06.01.2021
4036 Snow 1 1008 95 98 2.35 316 13:20 06.01.2021
4037 Snow 1 1011 97 98 2.35 316 12:46 06.01.2021
4038 Snow 1 1009 96 42 2.19 318 11:51 06.01.2021
4039 Snow 1 1011 97 41 2.68 261 11:24 06.01.2021
4040 Snow 0 1011 97 41 1.79 273 10:46 06.01.2021
4041 Snow 0 1011 97 39 2.13 341 09:58 06.01.2021
4042 Snow 0 1012 97 39 2.13 341 09:40 06.01.2021
4043 Snow 0 1011 97 37 0.45 275 08:56 06.01.2021
4044 Snow 0 1009 10 35 0.45 356 08:26 06.01.2021
4045 Snow 1 1011 97 35 2.01 349 07:54 06.01.2021
4046 Snow 1 1011 97 47 2.43 354 06:46 06.01.2021
4047 Snow 0 1012 96 43 2.36 357 05:32 06.01.2021
4048 Snow 0 1012 96 42 2.34 1 04:32 06.01.2021
4049 Snow 1 1013 96 79 2.13 18 02:46 06.01.2021
4050 Snow 1 1013 96 112 2.54 26 02:23 06.01.2021
4051 Snow 1 1013 96 71 2.9 28 00:31 06.01.2021
4052 Snow 1 1014 96 1660 3.27 40 23:28 05.01.2021
4053 Snow 1 1014 96 1660 3.27 40 22:41 05.01.2021
4054 Snow 1 1014 96 45 2.99 41 22:20 05.01.2021
4055 Snow 1 1012 94 45 1.34 135 21:52 05.01.2021
4056 Rain 1 1014 95 63 2.56 44 20:41 05.01.2021
4057 Rain 1 1014 95 63 2.56 44 20:41 05.01.2021
4058 Snow 1 1014 95 85 2.22 48 20:23 05.01.2021
4059 Snow 1 1014 95 85 2.22 48 19:42 05.01.2021
4060 Rain 1 1014 95 88 2.28 49 19:21 05.01.2021
4061 Rain 1 1014 95 65 2.44 49 18:43 05.01.2021
4062 Clouds 1 1014 95 73 2.87 42 18:24 05.01.2021
4063 Clouds 1 1014 96 73 2.87 42 17:50 05.01.2021
4064 Clouds 1 1012 95 78 0.45 77 17:27 05.01.2021
4065 Clouds 1 1014 95 78 3.2 37 16:53 05.01.2021
4066 Clouds 1 1014 95 53 3.24 35 16:22 05.01.2021
4067 Clouds 1 1014 95 53 3.24 35 15:50 05.01.2021
4068 Snow 1 1012 91 76 3.05 36 15:25 05.01.2021
4069 Clouds 2 1018 87 76 3.05 36 14:39 05.01.2021
4070 Snow 1 1014 95 77 2.93 42 13:50 05.01.2021
4071 Snow 1 1014 95 77 2.93 42 13:30 05.01.2021
4072 Snow 1 1014 97 66 2.81 43 12:49 05.01.2021
4073 Rain 1 1014 97 61 2.7 48 12:28 05.01.2021
4074 Snow 1 1015 93 61 0.89 90 11:40 05.01.2021
4075 -273 0 0 0 0 0 11:21 05.01.2021
4076 Rain 1 1014 97 125 2.72 48 11:19 05.01.2021
4077 Snow 1 1014 97 125 2.72 48 10:43 05.01.2021
4078 Snow 0 1014 97 247 2.62 53 09:58 05.01.2021
4079 Snow 0 1013 10 247 0.45 96 09:37 05.01.2021
4080 Snow 0 1014 95 329 0.45 23 08:41 05.01.2021
4081 Clouds 0 1014 97 1400 2.13 51 08:18 05.01.2021
4082 Clouds 0 1013 97 3903 2.26 48 05:29 05.01.2021
4083 Clouds 0 1014 96 487 2.41 50 02:37 05.01.2021
4084 Clouds 0 1014 96 519 2.45 53 00:22 05.01.2021
4085 Clouds 0 1014 96 519 2.45 53 23:39 04.01.2021
4086 Snow 0 1014 95 297 2.4 52 23:20 04.01.2021
4087 Snow 0 1014 95 297 2.4 52 22:44 04.01.2021
4088 Snow 0 1014 96 234 2.27 59 21:57 04.01.2021
4089 Snow 0 1014 96 234 2.27 59 21:39 04.01.2021
4090 Snow 0 1014 96 179 2.13 63 20:58 04.01.2021
4091 Snow 0 1013 10 179 0.45 96 20:34 04.01.2021
4092 Snow 0 1014 96 136 2.17 66 19:59 04.01.2021
4093 Snow 0 1014 96 136 2.17 66 19:40 04.01.2021
4094 Snow 0 1012 10 101 0.45 96 19:19 04.01.2021
4095 Snow 0 1014 94 101 2.35 63 18:40 04.01.2021
4096 Snow 0 1013 96 108 2.05 66 17:48 04.01.2021
4097 Snow 0 1014 96 154 1.77 58 17:28 04.01.2021
4098 Snow 0 1014 96 154 1.77 58 16:58 04.01.2021
4099 Snow 0 1014 96 154 1.77 58 16:39 04.01.2021
4100 Snow 0 1014 96 130 1.69 48 16:21 04.01.2021
4101 Snow 0 1013 96 130 1.69 48 15:47 04.01.2021
4102 Clouds 0 1013 96 138 1.97 52 14:55 04.01.2021
4103 Snow 0 1012 94 176 2.27 48 13:57 04.01.2021
4104 Snow 0 1014 97 176 2.27 48 13:35 04.01.2021
4105 Snow 0 1012 95 1029 2.4 48 12:53 04.01.2021
4106 Snow 0 1014 97 76 2.18 48 12:27 04.01.2021
4107 Snow 0 1014 94 76 2.18 48 11:40 04.01.2021
4108 Snow 0 1013 97 91 2.1 54 11:18 04.01.2021
4109 Snow 0 1014 96 91 2.1 54 10:44 04.01.2021
4110 Snow 0 1015 94 76 2.05 50 10:22 04.01.2021
4111 Snow 0 1014 96 76 2.05 50 09:36 04.01.2021
4112 Snow 0 1014 96 85 2.16 51 09:18 04.01.2021
4113 Snow 0 1014 95 63 0.45 90 08:22 04.01.2021
4114 Snow 0 1012 96 63 0.45 121 07:47 04.01.2021
4115 Snow 0 1013 96 41 2.91 50 05:37 04.01.2021
4116 Snow 0 1013 96 91 2.85 50 05:19 04.01.2021
4117 Snow 0 1013 96 64 2.97 58 02:24 04.01.2021
4118 Snow 0 1013 95 44 3.81 59 00:24 04.01.2021
4119 Snow 0 1013 95 44 3.81 59 23:37 03.01.2021
4120 Snow 0 1013 95 44 3.72 57 22:58 03.01.2021
4121 Snow 0 1013 95 44 3.72 57 22:39 03.01.2021
4122 Snow 0 1011 95 52 0.89 122 22:21 03.01.2021
4123 Snow 0 1013 95 52 3.4 53 21:40 03.01.2021
4124 Snow 0 1012 94 66 3.19 54 21:22 03.01.2021
4125 Snow 0 1012 95 66 3.19 54 20:40 03.01.2021
4126 Snow 0 1012 93 72 3.29 52 20:18 03.01.2021
4127 Snow 0 1012 93 72 3.29 52 19:44 03.01.2021
4128 Snow 0 1012 92 75 3.32 49 19:24 03.01.2021
4129 Snow 0 1012 91 75 3.32 49 18:45 03.01.2021
4130 Snow 0 1011 90 55 3.71 49 18:25 03.01.2021
4131 Snow 0 1011 89 55 3.71 49 17:53 03.01.2021
4132 Snow 0 1011 88 60 3.88 44 17:27 03.01.2021
4133 Snow 0 1011 83 60 3.88 44 16:55 03.01.2021
4134 Snow 0 1011 82 60 3.88 44 16:36 03.01.2021
4135 Snow 1 1011 82 59 4.07 45 16:18 03.01.2021
4136 Snow 1 1011 81 59 0.45 75 15:40 03.01.2021
4137 Snow 1 1011 82 106 0.89 25 14:59 03.01.2021
4138 Snow 1 1011 80 106 4.12 46 14:33 03.01.2021
4139 Snow 1 1011 95 276 0.45 90 13:52 03.01.2021
4140 Snow 1 1011 80 367 4.1 44 13:25 03.01.2021
4141 Snow 1 1011 80 367 0.45 69 12:55 03.01.2021
4142 Snow 1 1011 81 431 4.28 50 11:44 03.01.2021
4143 Snow 1 1011 81 731 4.32 51 11:26 03.01.2021
4144 Snow 1 1011 80 731 4.32 51 10:56 03.01.2021
4145 Snow 1 1011 80 731 4.32 51 10:31 03.01.2021
4146 Snow 1 1011 82 714 4.47 51 09:43 03.01.2021
4147 Snow 1 1009 89 882 4.49 47 09:23 03.01.2021
4148 Snow 1 1011 83 438 1.34 28 07:59 03.01.2021
4149 Clouds 1 1011 82 4028 4.49 46 06:51 03.01.2021
4150 Clouds 2 1014 86 7992 3.74 55 02:59 03.01.2021
4151 Clouds 2 1015 86 9672 0.45 47 02:22 03.01.2021
4152 Clouds 2 1012 86 10000 2.67 47 00:25 03.01.2021
4153 Clouds 2 1013 87 10000 2.67 47 23:42 02.01.2021
4154 Clouds 2 1011 86 4804 2.09 66 23:18 02.01.2021
4155 Clouds 2 1014 79 4804 2.09 66 22:45 02.01.2021
4156 Clouds 2 1015 80 10000 2.09 59 22:27 02.01.2021
4157 Clouds 2 1011 85 10000 2.09 59 21:47 02.01.2021
4158 Clouds 1 1013 90 10000 1.73 73 21:28 02.01.2021
4159 Clouds 1 1013 90 10000 1.73 73 20:45 02.01.2021
4160 Clouds 2 1013 90 10000 1.65 80 20:25 02.01.2021
4161 Clouds 2 1013 89 10000 1.65 80 19:44 02.01.2021
4162 Clouds 2 1012 87 10000 1.42 56 19:20 02.01.2021
4163 Clouds 2 1012 87 10000 1.42 56 19:20 02.01.2021
4164 Clouds 2 1015 87 10000 0.45 88 18:43 02.01.2021
4165 Clouds 2 1012 87 10000 1.38 69 18:25 02.01.2021
4166 Clouds 2 1013 88 10000 0.45 28 17:46 02.01.2021
4167 Clouds 2 1012 88 10000 1.26 84 17:26 02.01.2021
4168 Clouds 2 1012 86 10000 1.26 84 16:42 02.01.2021
4169 Clouds 2 1011 94 10000 1.1 80 16:21 02.01.2021
4170 Clouds 3 1012 90 10000 1.1 80 15:43 02.01.2021
4171 Clouds 3 1012 89 10000 1.05 85 15:25 02.01.2021
4172 Clouds 3 1012 89 10000 1.05 85 14:37 02.01.2021
4173 Clouds 3 1011 93 10000 0.76 75 14:18 02.01.2021
4174 Clouds 3 1012 90 10000 0.76 75 13:40 02.01.2021
4175 Clouds 3 1012 91 10000 0.28 90 12:54 02.01.2021
4176 Clouds 2 1012 84 10000 0.58 100 12:32 02.01.2021
4177 Clouds 2 1013 94 10000 0.37 150 11:59 02.01.2021
4178 Clouds 2 1013 95 10000 0.52 201 11:25 02.01.2021
4179 Clouds 2 1013 95 10000 0.52 201 10:58 02.01.2021
4180 Clouds 2 1013 95 10000 0.52 201 10:34 02.01.2021
4181 Clouds 1 1012 95 10000 0.67 224 09:59 02.01.2021
4182 Clouds 1 1012 95 10000 0.67 224 09:39 02.01.2021
4183 Clouds 1 1012 95 10000 0.77 221 09:18 02.01.2021
4184 Clouds 1 1012 95 10000 0.77 221 08:41 02.01.2021
4185 Clouds 1 1012 95 10000 0.97 211 08:18 02.01.2021
4186 Clouds 1 1011 95 10000 1.03 217 07:24 02.01.2021
4187 Clouds 1 1009 93 10000 1.03 217 06:57 02.01.2021
4188 Clouds 1 1011 95 10000 1.29 222 05:55 02.01.2021
4189 Clouds 1 1010 95 5841 1.92 224 01:58 02.01.2021
4190 Clouds 1 1009 95 10000 1.78 222 00:38 02.01.2021
4191 Clouds 1 1010 95 10000 1.83 223 23:58 01.01.2021
4192 Clouds 1 1010 95 8082 1.8 225 23:24 01.01.2021
4193 Clouds 1 1010 95 8082 1.8 225 22:57 01.01.2021
4194 Clouds 1 1010 95 8082 1.8 225 22:57 01.01.2021
4195 Clouds 1 1008 95 8082 1.8 225 22:37 01.01.2021
4196 Clouds 1 1008 95 7797 1.68 229 22:18 01.01.2021
4197 Clouds 1 1009 95 7797 1.68 229 21:42 01.01.2021
4198 Clouds 1 1008 88 7843 1.64 233 21:20 01.01.2021
4199 Clouds 1 1008 94 7843 1.64 233 20:50 01.01.2021
4200 Clouds 1 1007 92 7644 1.65 236 20:18 01.01.2021
4201 Clouds 1 1008 88 7644 0.45 270 19:42 01.01.2021
4202 Clouds 1 1008 94 8979 1.61 230 19:22 01.01.2021
4203 Clouds 1 1010 91 10000 0.89 116 18:46 01.01.2021
4204 Clouds 1 1006 94 10000 1.48 230 18:27 01.01.2021
4205 Clouds 1 1006 94 10000 1.48 230 17:48 01.01.2021
4206 Clouds 1 1006 94 10000 1.47 234 17:23 01.01.2021
4207 Clouds 1 1007 89 10000 1.47 234 16:51 01.01.2021
4208 Clouds 2 1007 93 10000 1.36 240 16:26 01.01.2021
4209 Clouds 2 1007 94 10000 1.36 240 15:42 01.01.2021
4210 Clouds 2 1007 95 10000 1.34 253 14:49 01.01.2021
4211 Clouds 2 1006 90 10000 0.45 225 14:28 01.01.2021
4212 Clouds 2 1006 96 10000 1.55 261 13:40 01.01.2021
4213 Clouds 2 1006 97 10000 1.63 266 12:57 01.01.2021
4214 Clouds 1 1006 97 10000 1.48 264 12:36 01.01.2021
4215 Clouds 1 1006 97 10000 1.45 265 12:18 01.01.2021
4216 Clouds 1 1004 99 10000 0.89 340 11:38 01.01.2021
4217 Clouds 1 1006 97 10000 1.32 256 11:18 01.01.2021
4218 Clouds 1 1006 96 10000 1.32 256 10:34 01.01.2021
4219 Clouds 0 1005 96 10000 1.1 255 09:46 01.01.2021
4220 Clouds 0 1005 96 10000 0.91 269 08:54 01.01.2021
4221 Clouds 0 1004 96 10000 0.98 277 08:25 01.01.2021
4222 Clouds 1 1001 10 4238 1.37 260 04:52 01.01.2021
4223 Snow 1 1003 95 4793 1.04 224 02:26 01.01.2021
4224 Clouds 1 1002 94 7789 0.99 189 00:41 01.01.2021
4225 Clouds 1 1001 10 5648 1.18 188 00:21 01.01.2021
4226 Clouds 1 1003 95 5493 1.11 194 23:22 31.12.2020
4227 Clouds 1 1003 95 5493 1.11 194 22:56 31.12.2020
4228 Clouds 1 1003 95 5493 1.11 194 22:38 31.12.2020
4229 Clouds 1 1001 10 5321 1.43 211 22:19 31.12.2020
4230 Clouds 1 1003 95 5321 1.43 211 21:46 31.12.2020
4231 Clouds 1 1002 95 6429 1.43 211 21:23 31.12.2020
4232 Clouds 1 1001 99 6429 1.43 211 20:49 31.12.2020
4233 Clouds 1 1002 95 6610 1.78 203 20:18 31.12.2020
4234 Clouds 1 1002 95 6610 1.78 203 19:46 31.12.2020
4235 Clouds 1 1002 94 6589 1.99 200 19:24 31.12.2020
4236 Snow 1 1002 94 10000 0.45 71 18:44 31.12.2020
4237 Clouds 1 1002 94 10000 2.22 196 18:24 31.12.2020
4238 Snow 1 1001 94 10000 2.22 196 17:44 31.12.2020
4239 Snow 1 1002 93 7719 2.5 191 17:23 31.12.2020
4240 Snow 1 1002 92 7719 0.45 84 16:43 31.12.2020
4241 Clouds 1 1002 92 6015 2.64 188 16:22 31.12.2020
4242 Snow 1 1002 91 6015 2.64 188 15:46 31.12.2020
4243 Clouds 2 1002 89 6184 3.24 189 15:22 31.12.2020
4244 Clouds 2 1001 80 6184 0.45 270 14:56 31.12.2020
4245 Clouds 2 1002 83 6184 0.89 118 14:38 31.12.2020
4246 Clouds 2 1000 94 6126 3.74 192 14:20 31.12.2020
4247 Clouds 3 1002 82 6126 0.45 114 13:39 31.12.2020
4248 Clouds 3 1001 82 6512 0.45 293 13:20 31.12.2020
4249 Clouds 2 1003 82 5168 3.58 155 12:53 31.12.2020
4250 Clouds 2 1002 85 5168 0.89 270 12:35 31.12.2020
4251 Clouds 2 1003 85 5041 2.68 156 11:52 31.12.2020
4252 Clouds 2 1002 94 5041 3.64 195 11:32 31.12.2020
4253 Clouds 2 1003 88 5167 3.44 195 10:50 31.12.2020
4254 Clouds 1 1004 88 5834 0.45 122 10:29 31.12.2020
4255 Clouds 1 1003 90 5834 0.45 120 09:58 31.12.2020
4256 Clouds 1 1003 90 5834 0.45 120 09:36 31.12.2020
4257 Clouds 1 1004 91 8653 3.18 194 08:51 31.12.2020
4258 Clouds 1 1004 91 8653 3.18 194 08:33 31.12.2020
4259 Clouds 1 1003 91 10000 3.04 201 07:59 31.12.2020
4260 Clouds 1 1002 96 10000 3.04 201 07:32 31.12.2020
4261 Clouds 1 1005 91 10000 0.45 104 06:29 31.12.2020
4262 Clouds 1 1005 91 10000 2.67 213 05:29 31.12.2020
4263 Clouds 1 1004 91 10000 2.84 213 02:57 31.12.2020
4264 Clouds 1 1004 91 10000 3.18 220 02:25 31.12.2020
4265 Clouds 2 1002 92 10000 3.18 220 01:46 31.12.2020
4266 Clouds 2 1002 92 8416 3.85 231 01:27 31.12.2020
4267 Clouds 2 1002 92 8416 3.85 231 01:27 31.12.2020
4268 Clouds 2 1002 95 5759 4.07 234 00:48 31.12.2020
4269 Clouds 2 1003 90 2944 4.69 240 23:53 30.12.2020
4270 Clouds 2 1003 90 1872 4.22 240 23:20 30.12.2020
4271 Clouds 2 1003 90 1872 4.22 240 22:51 30.12.2020
4272 Rain 2 1003 90 1872 0.45 202 22:31 30.12.2020
4273 Clouds 2 1003 88 64 4.22 236 21:47 30.12.2020
4274 Clouds 3 1003 88 436 3.96 230 21:25 30.12.2020
4275 Clouds 3 1002 86 436 0.89 225 20:51 30.12.2020
4276 Clouds 3 1001 86 712 0.89 225 20:22 30.12.2020
4277 Rain 3 1002 86 712 3.99 227 19:41 30.12.2020
4278 Rain 3 1002 86 4999 3.96 229 19:23 30.12.2020
4279 Clouds 3 1002 85 6522 3.87 231 18:49 30.12.2020
4280 Clouds 3 1001 85 6522 3.87 231 18:30 30.12.2020
4281 Clouds 3 1001 85 10000 3.76 231 17:52 30.12.2020
4282 Clouds 3 1001 84 10000 3.76 231 17:33 30.12.2020
4283 Clouds 3 1004 80 9662 3.64 226 16:59 30.12.2020
4284 Clouds 3 999 91 9662 3.64 226 16:35 30.12.2020
4285 Clouds 4 998 90 9005 3.79 231 15:48 30.12.2020
4286 Clouds 4 1000 84 10000 2.24 229 15:26 30.12.2020
4287 Clouds 4 1000 86 10000 1.34 224 14:44 30.12.2020
4288 Clouds 4 1000 88 10000 2.68 217 14:25 30.12.2020
4289 Clouds 3 1000 87 10000 0.45 218 13:52 30.12.2020
4290 Clouds 3 1000 93 10000 1.79 216 12:47 30.12.2020
4291 Clouds 3 1000 94 3719 0.45 251 12:22 30.12.2020
4292 Clouds 3 999 90 3719 1.34 270 11:39 30.12.2020
4293 Clouds 3 998 97 1889 3.54 220 11:20 30.12.2020
4294 Clouds 3 998 96 1889 3.54 220 10:54 30.12.2020
4295 Clouds 3 999 93 1889 3.54 220 10:35 30.12.2020
4296 Clouds 2 999 93 563 3.44 213 09:53 30.12.2020
4297 Clouds 2 997 97 563 3.44 213 09:35 30.12.2020
4298 Snow 1 997 10 4509 2.96 214 08:35 30.12.2020
4299 Clouds 1 996 10 6585 3.35 220 07:32 30.12.2020
4300 Clouds 1 996 10 5692 3.7 221 06:54 30.12.2020
4301 Clouds 1 997 93 5692 0.45 93 06:35 30.12.2020
4302 Clouds 1 997 93 10000 3.11 219 05:46 30.12.2020
4303 Clouds 0 997 93 10000 3.55 218 05:27 30.12.2020
4304 Clouds 1 997 92 10000 4.28 221 03:29 30.12.2020
4305 Clouds 1 995 10 10000 4.28 221 02:47 30.12.2020
4306 Clouds 1 996 91 10000 4.39 223 02:27 30.12.2020
4307 Clouds 2 996 90 10000 4.39 223 01:34 30.12.2020
4308 Clouds 2 996 90 10000 4.39 223 01:34 30.12.2020
4309 Clouds 1 994 96 10000 4.54 223 00:51 30.12.2020
4310 Clouds 1 997 90 10000 4.34 220 00:32 30.12.2020
4311 Clouds 2 995 90 10000 4.56 222 23:59 29.12.2020
4312 Clouds 2 993 95 10000 4.56 222 23:40 29.12.2020
4313 Clouds 2 995 90 10000 4.9 227 23:22 29.12.2020
4314 Clouds 2 995 90 10000 0.45 97 22:44 29.12.2020
4315 Clouds 2 993 94 8747 5.08 228 22:23 29.12.2020
4316 Clouds 2 994 89 8747 5.08 228 21:52 29.12.2020
4317 Clouds 2 994 88 8747 5.08 228 21:34 29.12.2020
4318 Clouds 2 994 87 8826 5.18 226 20:55 29.12.2020
4319 Clouds 2 994 87 8826 5.18 226 20:36 29.12.2020
4320 Clouds 2 992 91 10000 0.45 310 20:18 29.12.2020
4321 Clouds 2 991 91 10000 0.45 278 19:38 29.12.2020
4322 Clouds 2 993 88 10000 4.73 223 19:20 29.12.2020
4323 Clouds 3 992 88 10000 0.45 180 18:46 29.12.2020
4324 Clouds 2 992 87 10000 0.45 215 18:27 29.12.2020
4325 Clouds 3 991 87 10000 1.34 229 17:44 29.12.2020
4326 Clouds 3 989 96 3931 5 225 17:20 29.12.2020
4327 Clouds 3 989 83 3931 1.79 270 16:46 29.12.2020
4328 Clouds 3 988 99 1007 0.89 252 16:24 29.12.2020
4329 Clouds 3 989 89 1007 0.45 150 15:37 29.12.2020
4330 Clouds 3 989 90 3987 4.86 232 15:18 29.12.2020
4331 Clouds 2 988 93 3987 1.34 198 14:37 29.12.2020
4332 Clouds 2 988 94 4926 0.45 213 14:19 29.12.2020
4333 Clouds 2 986 10 4926 3.93 244 13:48 29.12.2020
4334 Clouds 2 987 94 758 3.43 241 13:21 29.12.2020
4335 Clouds 2 986 93 4880 3.36 239 12:38 29.12.2020
4336 Clouds 2 984 10 5608 3.21 235 12:20 29.12.2020
4337 Clouds 2 983 10 5608 3.21 235 11:54 29.12.2020
4338 Clouds 2 985 93 5608 3.21 235 11:31 29.12.2020
4339 Clouds 2 984 92 6156 2.54 221 10:34 29.12.2020
4340 Clouds 1 983 93 6100 2.05 209 09:49 29.12.2020
4341 Clouds 1 983 91 5938 0.45 270 09:25 29.12.2020
4342 Clouds 1 982 91 5938 0.45 270 08:55 29.12.2020
4343 Clouds 1 982 94 5938 1.61 199 08:33 29.12.2020
4344 Clouds 0 980 99 10000 1.59 195 07:27 29.12.2020
4345 Clouds 0 981 95 10000 1.58 189 06:46 29.12.2020
4346 Clouds 0 979 99 10000 1.46 189 05:32 29.12.2020
4347 Clouds 2 980 93 10000 1.2 218 00:56 29.12.2020
4348 Clouds 2 980 93 10000 1.82 221 00:23 29.12.2020
4349 Clouds 2 980 93 10000 1.82 221 23:36 28.12.2020
4350 Rain 2 979 92 5000 0.45 84 22:30 28.12.2020
4351 Clouds 2 978 89 7560 2.07 145 21:47 28.12.2020
4352 Rain 2 978 88 7112 0.45 293 21:29 28.12.2020
4353 Rain 2 979 91 7112 0.45 94 20:46 28.12.2020
4354 Rain 2 979 87 4764 3.24 137 20:28 28.12.2020
4355 Rain 3 978 87 4764 3.24 137 19:58 28.12.2020
4356 Rain 3 978 98 4764 3.24 137 19:38 28.12.2020
4357 Clouds 3 978 98 8461 0.89 96 19:20 28.12.2020
4358 Clouds 3 981 87 8461 1.79 91 18:43 28.12.2020
4359 Clouds 3 978 96 10000 0.89 113 18:21 28.12.2020
4360 Clouds 3 978 86 10000 2.49 136 17:39 28.12.2020
4361 Clouds 3 978 92 10000 0.45 115 17:18 28.12.2020
4362 Clouds 3 981 88 10000 1.79 30 16:32 28.12.2020
4363 Clouds 4 979 86 10000 1.36 161 15:58 28.12.2020
4364 Clouds 4 979 85 10000 1.36 161 15:38 28.12.2020
4365 Clouds 4 979 85 10000 2.42 174 14:43 28.12.2020
4366 Clouds 4 979 85 10000 2.16 168 13:51 28.12.2020
4367 Clouds 4 980 87 10000 0.89 134 13:23 28.12.2020
4368 Clouds 4 978 96 10000 3.07 208 12:38 28.12.2020
4369 Clouds 4 980 89 10000 4.47 103 12:19 28.12.2020
4370 Clouds 3 980 89 10000 0.89 130 11:44 28.12.2020
4371 Clouds 3 980 90 10000 1.79 90 11:18 28.12.2020
4372 Clouds 3 980 90 10000 2.24 101 10:41 28.12.2020
4373 Clouds 3 979 98 10000 0.45 219 10:23 28.12.2020
4374 Clouds 2 980 91 10000 0.45 115 09:45 28.12.2020
4375 Clouds 2 980 91 10000 0.89 107 09:18 28.12.2020
4376 Clouds 2 979 93 8201 0.89 115 06:55 28.12.2020
4377 Clouds 2 979 93 5153 0.89 130 05:57 28.12.2020
4378 Rain 2 980 94 4930 1.34 92 03:59 28.12.2020
4379 Rain 2 981 93 9400 0.89 112 01:57 28.12.2020
4380 Clouds 2 981 92 10000 1.79 109 00:30 28.12.2020
4381 Clouds 2 982 93 10000 1.34 99 23:45 27.12.2020
4382 Clouds 2 981 98 10000 0.89 193 23:18 27.12.2020
4383 Snow 1 982 92 10000 0.45 125 21:56 27.12.2020
4384 Snow 1 982 92 10000 1.34 76 21:25 27.12.2020
4385 Snow 2 983 90 10000 1.79 161 20:42 27.12.2020
4386 Rain 2 983 86 10000 3.58 116 19:25 27.12.2020
4387 Rain 2 984 85 10000 3.58 107 18:55 27.12.2020
4388 Snow 2 984 84 10000 2.68 109 18:37 27.12.2020
4389 Snow 1 985 84 10000 2.68 126 18:18 27.12.2020
4390 Rain 2 983 82 10000 1.79 270 17:43 27.12.2020
4391 Clouds 2 986 81 10000 4.02 142 17:21 27.12.2020
4392 Clouds 2 986 85 10000 1.79 177 16:32 27.12.2020
4393 Clouds 2 988 81 10000 4.92 117 15:50 27.12.2020
4394 Rain 2 989 81 10000 4.92 111 14:59 27.12.2020
4395 Clouds 2 989 81 10000 4.47 133 14:38 27.12.2020
4396 Clouds 2 991 81 10000 2.68 101 13:55 27.12.2020
4397 Clouds 2 991 81 10000 3.58 130 13:22 27.12.2020
4398 Clouds 2 992 81 10000 4.92 127 12:43 27.12.2020
4399 Clouds 2 994 83 10000 3.13 134 11:56 27.12.2020
4400 Clouds 2 993 87 10000 1.34 222 11:35 27.12.2020
4401 Clouds 1 995 83 10000 4.02 153 10:51 27.12.2020
4402 Clouds 1 996 84 10000 3.58 142 10:24 27.12.2020
4403 Clouds 1 996 84 10000 3.58 143 09:47 27.12.2020
4404 Clouds 1 998 83 10000 3.58 155 08:39 27.12.2020
4405 Clouds 2 999 82 10000 4.47 147 08:20 27.12.2020
4406 Clouds 1 999 88 10000 9.07 198 07:26 27.12.2020
4407 Clouds 1 1000 80 10000 2.68 293 05:44 27.12.2020
4408 Clouds 1 1006 84 10000 2.24 161 03:59 27.12.2020
4409 Clouds 1 1007 84 10000 2.24 200 03:19 27.12.2020
4410 Clouds 2 1007 83 10000 1.79 270 01:34 27.12.2020
4411 Clouds 2 1009 89 10000 0.89 229 00:20 27.12.2020
4412 Clouds 2 1010 88 10000 0.45 260 23:27 26.12.2020
4413 Clouds 2 1013 83 10000 1.34 220 22:50 26.12.2020
4414 Clouds 2 1013 83 5324 2.24 209 22:21 26.12.2020
4415 Clouds 2 1013 82 5324 0.89 130 21:59 26.12.2020
4416 Clouds 2 1012 79 5324 2.24 270 21:40 26.12.2020
4417 Clouds 2 1014 81 6517 1.34 218 21:22 26.12.2020
4418 Clouds 2 1013 79 6517 1.79 270 20:41 26.12.2020
4419 Clouds 2 1013 84 8781 5.95 219 20:19 26.12.2020
4420 Clouds 2 1014 85 9660 2.24 258 19:27 26.12.2020
4421 Clouds 2 1016 85 8571 0.89 203 18:53 26.12.2020
4422 Clouds 2 1015 87 10000 1.79 212 18:29 26.12.2020
4423 Clouds 2 1015 85 10000 1.34 270 17:42 26.12.2020
4424 Clouds 2 1016 90 10000 1.34 63 17:21 26.12.2020
4425 Clouds 2 1018 90 10000 0.89 215 16:37 26.12.2020
4426 Clouds 2 1018 91 10000 0.89 155 15:38 26.12.2020
4427 Clouds 2 1017 94 10000 0.45 280 15:19 26.12.2020
4428 Clouds 2 1019 94 10000 0.45 192 14:29 26.12.2020
4429 Clouds 1 1018 96 10000 4.94 240 13:54 26.12.2020
4430 Clouds 1 1018 97 10000 0.45 207 13:32 26.12.2020
4431 Snow 1 1019 91 5082 0.45 293 12:53 26.12.2020
4432 Snow 1 1019 91 4971 0.45 225 12:30 26.12.2020
4433 Snow 1 1021 95 538 3.98 240 11:58 26.12.2020
4434 Snow 1 1021 95 538 3.98 240 11:39 26.12.2020
4435 Clouds 1 1021 95 7399 4.27 250 11:18 26.12.2020
4436 Clouds 2 1020 93 7399 0.45 293 10:42 26.12.2020
4437 Clouds 2 1025 86 7334 3.98 254 10:22 26.12.2020
4438 Clouds -1 1021 95 7334 3.98 254 09:39 26.12.2020
4439 Snow -1 1021 95 5067 3.16 249 08:41 26.12.2020
4440 Clouds -1 1021 95 2707 2.78 247 08:18 26.12.2020
4441 Clouds -1 1019 96 7859 1.79 301 07:20 26.12.2020
4442 Clouds -1 1021 94 6253 0.45 270 03:53 26.12.2020
4443 Clouds -2 1021 95 10000 2.09 226 02:34 26.12.2020
4444 Clear -2 1021 94 10000 1.5 263 00:28 26.12.2020
4445 Clear -2 1021 94 10000 1.5 263 23:46 25.12.2020
4446 Clear -2 1021 93 10000 1.64 272 23:27 25.12.2020
4447 Clear -2 1021 95 10000 1.64 272 22:51 25.12.2020
4448 Clear -2 1021 92 10000 1.78 278 22:26 25.12.2020
4449 Clear -1 1021 92 10000 1.78 278 21:42 25.12.2020
4450 Clear -1 1021 91 10000 1.65 278 21:23 25.12.2020
4451 Clear -1 1021 94 10000 1.65 278 20:44 25.12.2020
4452 Clear -1 1021 90 10000 1.5 289 20:26 25.12.2020
4453 Clear -1 1021 90 10000 1.5 289 19:42 25.12.2020
4454 Clouds -1 1021 88 10000 1.68 302 18:43 25.12.2020
4455 Clouds -1 1021 88 10000 2.43 314 18:25 25.12.2020
4456 Clouds 0 1020 87 10000 2.43 314 17:35 25.12.2020
4457 Clouds 1 1020 86 10000 0.45 280 16:51 25.12.2020
4458 Clouds 1 1020 86 10000 0.45 265 16:24 25.12.2020
4459 Clouds 2 1018 80 10000 3.06 321 15:49 25.12.2020
4460 Clouds 2 1019 88 10000 3.64 327 15:26 25.12.2020
4461 Clouds 1 1017 80 10000 0.45 360 14:32 25.12.2020
4462 Clouds 1 1019 88 10000 0.89 267 13:57 25.12.2020
4463 Clouds 1 1019 87 10000 0.89 267 13:37 25.12.2020
4464 Clouds 1 1017 80 10000 0.45 295 13:18 25.12.2020
4465 Clouds 1 1017 80 10000 0.45 295 13:18 25.12.2020
4466 Clouds 1 1017 84 10000 0.89 74 12:28 25.12.2020
4467 Clouds 1 1019 89 10000 2.68 313 11:49 25.12.2020
4468 Clouds 1 1019 90 10000 2.68 281 11:25 25.12.2020
4469 Clouds 1 1017 91 10000 0.45 311 10:49 25.12.2020
4470 Clouds 1 1019 95 8554 3.58 275 10:21 25.12.2020
4471 Clouds 1 1018 95 7335 0.89 289 09:27 25.12.2020
4472 Clouds 1 1018 93 7335 2.92 326 08:45 25.12.2020
4473 Clouds 1 1017 93 5569 1.79 301 07:45 25.12.2020
4474 Clouds 2 1015 90 6747 3.71 342 06:44 25.12.2020
4475 Clouds 2 1013 97 5181 0.89 277 02:47 25.12.2020
4476 Clouds 3 1012 97 3129 2.24 306 00:48 25.12.2020
4477 Clouds 3 1009 10 2269 2.83 341 23:58 24.12.2020
4478 Clouds 3 1011 93 10000 2.28 330 23:22 24.12.2020
4479 Clouds 3 1011 94 10000 2.28 330 22:37 24.12.2020
4480 Clouds 3 1011 97 10000 1.94 320 22:18 24.12.2020
4481 Clouds 2 1010 96 10000 1.94 320 21:32 24.12.2020
4482 Clouds 3 1010 96 10000 2.12 315 20:20 24.12.2020
4483 Clouds 3 1009 96 10000 2.41 326 18:39 24.12.2020
4484 Clouds 3 1009 96 10000 2.9 318 18:18 24.12.2020
4485 Clouds 3 1009 94 10000 2.9 318 17:36 24.12.2020
4486 Clouds 3 1008 96 9826 3.66 313 16:28 24.12.2020
4487 Clouds 3 1008 96 9826 0.89 351 15:59 24.12.2020
4488 Clouds 3 1008 96 9826 0.89 351 15:41 24.12.2020
4489 Clouds 3 1007 96 2380 4.2 324 15:19 24.12.2020
4490 Clouds 3 1007 95 2380 4.2 324 14:42 24.12.2020
4491 Clouds 3 1006 94 1921 4.06 315 14:23 24.12.2020
4492 Clouds 3 1006 96 1921 2.68 279 13:41 24.12.2020
4493 Clouds 3 1006 95 1636 2.68 274 13:21 24.12.2020
4494 Rain 3 1006 94 1636 4.49 308 12:41 24.12.2020
4495 Rain 3 1005 95 2135 2.24 285 12:21 24.12.2020
4496 Rain 3 1005 94 2135 3.13 291 11:39 24.12.2020
4497 Rain 4 1005 93 10000 4.59 266 11:20 24.12.2020
4498 Rain 4 1004 92 10000 4.47 315 10:51 24.12.2020
4499 Rain 5 1004 91 10000 5.81 314 10:32 24.12.2020
4500 Rain 6 1004 87 8546 3.13 222 09:52 24.12.2020
4501 Clouds 7 1003 85 10000 3.58 222 09:24 24.12.2020
4502 Clouds 8 1003 85 10000 3.13 227 08:18 24.12.2020
4503 Clouds 8 1003 85 10000 4.47 217 07:39 24.12.2020
4504 Clouds 8 1004 85 10000 3.58 229 07:18 24.12.2020
4505 Clouds 9 1004 84 10000 4.02 242 04:28 24.12.2020
4506 Clouds 10 1004 91 10000 3.13 229 01:54 24.12.2020
4507 Clouds 10 1003 93 10000 0.89 293 01:32 24.12.2020
4508 Rain 10 1005 95 10000 4.02 243 00:56 24.12.2020
4509 Clouds 10 1002 10 10000 6.12 247 00:21 24.12.2020
4510 Rain 10 1005 97 10000 1.79 240 23:44 23.12.2020
4511 Rain 10 1005 97 10000 0.89 202 23:23 23.12.2020
4512 Clouds 10 1005 97 10000 1.34 244 22:53 23.12.2020
4513 Clouds 10 1005 98 10000 1.34 244 22:29 23.12.2020
4514 Clouds 10 1006 98 10000 1.34 240 21:49 23.12.2020
4515 Rain 10 1004 94 10000 1.34 248 21:25 23.12.2020
4516 Rain 10 1003 10 10000 6.36 234 20:50 23.12.2020
4517 Clouds 10 1006 98 10000 6.36 234 20:31 23.12.2020
4518 Rain 10 1006 98 10000 5.18 231 19:59 23.12.2020
4519 Rain 10 1006 98 10000 5.18 231 19:38 23.12.2020
4520 Rain 10 1005 96 9548 0.45 225 19:19 23.12.2020
4521 Rain 10 1006 98 9548 0.45 121 18:46 23.12.2020
4522 Rain 10 1006 98 1410 3.3 220 18:22 23.12.2020
4523 Rain 10 1005 96 1410 3.3 220 17:39 23.12.2020
4524 Rain 10 1005 96 1410 3.3 220 17:39 23.12.2020
4525 Rain 10 1007 98 5471 0.45 97 17:20 23.12.2020
4526 Rain 10 1007 98 5471 2.11 188 16:47 23.12.2020
4527 Rain 10 1008 98 5107 2.58 202 16:29 23.12.2020
4528 Rain 10 1005 10 5107 2.58 202 15:54 23.12.2020
4529 Rain 10 1007 95 5143 2.26 198 15:29 23.12.2020
4530 Clouds 10 1008 98 5143 2.26 198 14:59 23.12.2020
4531 Clouds 11 1008 98 5143 2.26 198 14:39 23.12.2020
4532 Clouds 11 1009 98 5091 2.29 212 14:20 23.12.2020
4533 Clouds 10 1010 98 5091 2.29 212 13:44 23.12.2020
4534 Clouds 10 1010 98 5091 2.29 212 13:44 23.12.2020
4535 Clouds 10 1010 98 5371 2.39 201 13:19 23.12.2020
4536 Clouds 10 1010 98 8273 2.06 208 12:53 23.12.2020
4537 Clouds 10 1008 10 5044 1.64 190 12:28 23.12.2020
4538 Rain 10 1011 98 5044 1.64 190 11:53 23.12.2020
4539 Rain 10 1012 98 5839 0.45 64 11:27 23.12.2020
4540 Rain 9 1012 98 5839 1.12 174 10:52 23.12.2020
4541 Rain 9 1012 98 5839 1.12 174 10:33 23.12.2020
4542 Clouds 9 1012 97 8964 0.98 155 09:37 23.12.2020
4543 Clouds 9 1012 97 9863 1.47 157 08:52 23.12.2020
4544 Clouds 9 1012 97 10000 1.3 172 08:23 23.12.2020
4545 Clouds 8 1012 97 10000 1.3 172 07:43 23.12.2020
4546 Clouds 8 1012 97 10000 1.1 163 06:42 23.12.2020
4547 Clouds 8 1013 97 10000 1.16 187 05:55 23.12.2020
4548 Clouds 8 1013 97 10000 0.45 152 05:22 23.12.2020
4549 Rain 9 1012 96 10000 0.9 235 01:57 23.12.2020
4550 Clouds 9 1014 95 10000 1.29 205 00:32 23.12.2020
4551 Rain 9 1014 95 8309 0.69 235 23:41 22.12.2020
4552 Clouds 9 1014 95 10000 1.34 253 23:22 22.12.2020
4553 Rain 9 1013 95 10000 1.34 253 22:42 22.12.2020
4554 Rain 9 1011 97 10000 1.9 248 22:24 22.12.2020
4555 Clouds 9 1014 95 10000 0.45 333 21:50 22.12.2020
4556 Clouds 9 1014 95 10000 1.9 266 21:20 22.12.2020
4557 Clouds 9 1014 95 10000 1.9 266 20:54 22.12.2020
4558 Clouds 9 1014 95 10000 1.9 266 20:35 22.12.2020
4559 Clouds 10 1014 94 10000 0.45 291 19:56 22.12.2020
4560 Clouds 10 1011 95 10000 0.89 269 19:38 22.12.2020
4561 Clouds 10 1011 95 10000 0.45 290 19:19 22.12.2020
4562 Clouds 10 1013 92 10000 4.47 245 18:43 22.12.2020
4563 Clouds 10 1013 92 10000 4.47 245 18:24 22.12.2020
4564 Clouds 11 1013 92 10000 3.13 272 17:41 22.12.2020
4565 Clouds 11 1013 89 10000 3.13 286 17:18 22.12.2020
4566 Clouds 11 1012 88 10000 4.02 266 16:47 22.12.2020
4567 Clouds 11 1012 88 10000 4.92 267 16:21 22.12.2020
4568 Rain 12 1012 86 10000 3.58 242 15:47 22.12.2020
4569 Clouds 12 1012 86 10000 3.58 242 15:29 22.12.2020
4570 Clouds 12 1012 87 10000 4.02 252 14:58 22.12.2020
4571 Clouds 12 1008 10 10000 1.79 320 14:39 22.12.2020
4572 Clouds 12 1011 95 10000 1.79 235 14:20 22.12.2020
4573 Rain 12 1007 10 10000 1.79 316 13:44 22.12.2020
4574 Clouds 12 1010 96 10000 0.89 239 13:19 22.12.2020
4575 Clouds 12 1007 10 10000 1.34 224 12:53 22.12.2020
4576 Clouds 12 1007 10 10000 0.89 257 12:34 22.12.2020
4577 Clouds 12 1010 97 10000 2.24 245 11:58 22.12.2020
4578 Clouds 12 1010 97 10000 2.68 250 11:39 22.12.2020
4579 Clouds 11 1007 10 10000 0.45 18 11:20 22.12.2020
4580 Clouds 11 1010 96 10000 0.45 266 10:53 22.12.2020
4581 Clouds 11 1009 96 10000 1.34 221 10:24 22.12.2020
4582 Clouds 11 1009 97 10000 1.79 220 09:57 22.12.2020
4583 Clouds 11 1009 97 10000 1.34 222 09:24 22.12.2020
4584 Clouds 11 1008 97 10000 2.68 227 08:53 22.12.2020
4585 Clouds 11 1008 97 10000 2.68 227 08:53 22.12.2020
4586 Clouds 11 1008 97 10000 2.68 227 08:32 22.12.2020
4587 Clouds 11 1008 98 10000 1.79 220 07:56 22.12.2020
4588 Clouds 10 1008 98 10000 1.34 267 07:19 22.12.2020
4589 Rain 10 1006 96 10000 1.79 270 05:48 22.12.2020
4590 Clouds 9 1007 95 3228 1.79 270 03:46 22.12.2020
4591 Rain 6 1010 95 3287 0.89 113 01:44 22.12.2020
4592 Clouds 6 1011 94 8129 0.45 107 23:56 21.12.2020
4593 Clouds 6 1011 93 8129 1.79 125 23:38 21.12.2020
4594 Clouds 6 1011 93 10000 0.89 78 23:18 21.12.2020
4595 Clouds 6 1012 94 10000 0.45 98 22:36 21.12.2020
4596 Rain 6 1010 89 10000 1.79 270 22:18 21.12.2020
4597 Clouds 6 1013 94 10000 1.79 96 21:42 21.12.2020
4598 Clouds 6 1013 95 10000 1.34 119 21:24 21.12.2020
4599 Clouds 5 1013 95 10000 1.79 123 20:42 21.12.2020
4600 Clouds 6 1012 10 10000 0.45 201 20:20 21.12.2020
4601 Rain 6 1012 91 10000 1.34 270 19:46 21.12.2020
4602 Rain 6 1013 10 10000 0.45 125 19:20 21.12.2020
4603 Rain 6 1015 94 10000 1.34 117 18:55 21.12.2020
4604 Rain 6 1015 94 10000 0.89 61 18:36 21.12.2020
4605 Rain 6 1015 94 10000 1.34 65 18:18 21.12.2020
4606 Rain 6 1016 93 10000 1.79 66 17:41 21.12.2020
4607 Rain 6 1016 92 10000 0.89 54 17:22 21.12.2020
4608 Clouds 6 1017 91 10000 0.89 100 16:39 21.12.2020
4609 Clouds 6 1016 87 10000 0.45 293 16:18 21.12.2020
4610 Clouds 6 1016 87 10000 0.45 315 15:41 21.12.2020
4611 Clouds 6 1018 91 10000 1.34 141 14:57 21.12.2020
4612 Clouds 6 1019 91 10000 0.89 118 14:22 21.12.2020
4613 Clouds 7 1019 91 10000 1.34 139 13:52 21.12.2020
4614 Clouds 7 1019 91 10000 1.79 147 13:33 21.12.2020
4615 Clouds 7 1019 91 10000 1.34 128 12:57 21.12.2020
4616 Clouds 7 1019 91 10000 1.34 128 12:57 21.12.2020
4617 Clouds 7 1018 86 10000 0.89 293 12:37 21.12.2020
4618 Clouds 6 1020 92 10000 1.34 133 12:18 21.12.2020
4619 Clouds 6 1020 92 10000 1.34 153 11:42 21.12.2020
4620 Clouds 6 1019 10 10000 3.65 212 11:22 21.12.2020
4621 Clouds 5 1021 95 10000 0.45 130 10:55 21.12.2020
4622 Clouds 5 1019 10 10000 3.65 212 10:37 21.12.2020
4623 Clouds 4 1020 93 10000 0.45 293 09:55 21.12.2020
4624 Clouds 4 1021 96 10000 0.45 94 09:37 21.12.2020
4625 Clouds 4 1021 96 10000 0.45 94 09:18 21.12.2020
4626 Clouds 4 1021 97 10000 1.34 117 08:21 21.12.2020
4627 Clouds 5 1019 10 10000 2.49 215 06:48 21.12.2020
4628 Clouds 5 1021 97 10000 0.45 107 04:59 21.12.2020
4629 Clouds 5 1020 93 10000 0.89 270 04:30 21.12.2020
4630 Clouds 6 1021 97 9264 0.45 109 00:36 21.12.2020
4631 Clouds 5 1021 97 9891 2.43 208 23:47 20.12.2020
4632 Clouds 5 1019 93 10000 0.45 293 23:20 20.12.2020
4633 Clouds 5 1020 97 10000 0.89 86 22:44 20.12.2020
4634 Clouds 5 1020 97 10000 0.89 86 22:23 20.12.2020
4635 Clouds 5 1019 10 10000 2.42 200 21:55 20.12.2020
4636 Clouds 5 1020 97 10000 2.42 200 21:37 20.12.2020
4637 Clouds 5 1020 97 10000 2.19 205 21:18 20.12.2020
4638 Clouds 5 1018 10 10000 2.19 205 20:42 20.12.2020
4639 Rain 5 1018 10 10000 1.86 205 20:21 20.12.2020
4640 Rain 5 1020 96 10000 1.86 205 19:42 20.12.2020
4641 Rain 5 1019 92 10000 0.89 270 19:21 20.12.2020
4642 Rain 5 1020 96 10000 2.26 203 18:54 20.12.2020
4643 Clouds 5 1018 10 10000 2.26 203 18:36 20.12.2020
4644 Rain 5 1019 96 10000 1.99 193 17:47 20.12.2020
4645 Rain 5 1019 96 10000 0.45 115 17:28 20.12.2020
4646 Clouds 5 1018 92 10000 0.45 293 16:57 20.12.2020
4647 Clouds 5 1019 96 10000 2.4 200 16:38 20.12.2020
4648 Rain 5 1019 96 10000 1.78 197 16:19 20.12.2020
4649 Clouds 5 1017 91 10000 0.45 293 15:37 20.12.2020
4650 Clouds 5 1019 96 10000 2.01 199 15:18 20.12.2020
4651 Clouds 5 1019 95 10000 2.01 199 14:45 20.12.2020
4652 Clouds 5 1019 95 10000 1.95 196 14:27 20.12.2020
4653 Rain 5 1017 99 10000 1.95 196 13:44 20.12.2020
4654 Rain 5 1018 96 10000 2.35 204 13:23 20.12.2020
4655 Rain 5 1017 91 10000 1.34 270 12:51 20.12.2020
4656 Rain 5 1018 96 10000 1.65 197 12:23 20.12.2020
4657 Rain 5 1018 96 10000 1.65 197 11:51 20.12.2020
4658 Rain 5 1017 93 10000 0.89 293 11:26 20.12.2020
4659 Rain 5 1017 99 10000 2.09 193 10:49 20.12.2020
4660 Rain 5 1018 96 10000 2.04 186 10:22 20.12.2020
4661 Rain 5 1017 92 10000 0.89 270 09:56 20.12.2020
4662 Rain 5 1018 96 10000 2.04 186 09:37 20.12.2020
4663 Rain 5 1017 98 10000 1.8 168 09:18 20.12.2020
4664 Clouds 5 1018 96 10000 1.8 168 08:47 20.12.2020
4665 Clouds 5 1018 96 10000 2.03 189 08:28 20.12.2020
4666 Clouds 5 1018 96 10000 1.5 181 07:21 20.12.2020
4667 Rain 5 1018 93 10000 1.7 193 04:42 20.12.2020
4668 Clouds 5 1019 86 10000 2.51 191 01:30 20.12.2020
4669 Clouds 5 1016 80 10000 1.79 270 00:20 20.12.2020
4670 Clouds 6 1018 88 10000 2.24 37 23:18 19.12.2020
4671 Clouds 6 1018 87 10000 1.34 54 22:44 19.12.2020
4672 Clouds 6 1016 77 10000 0.89 270 22:25 19.12.2020
4673 Clouds 6 1018 88 10000 3.05 183 21:58 19.12.2020
4674 Clouds 6 1016 79 10000 1.34 270 21:40 19.12.2020
4675 Clouds 6 1017 92 10000 3.11 179 21:21 19.12.2020
4676 Clouds 6 1016 92 10000 3.11 179 20:40 19.12.2020
4677 Clouds 6 1016 78 10000 1.34 293 20:18 19.12.2020
4678 Clouds 6 1016 92 10000 0.89 93 19:49 19.12.2020
4679 Clouds 6 1016 78 10000 0.89 293 19:29 19.12.2020
4680 Clouds 6 1015 79 10000 0.89 270 18:37 19.12.2020
4681 Clouds 6 1020 90 10000 3.58 191 18:19 19.12.2020
4682 Clouds 6 1019 92 10000 3.58 191 17:44 19.12.2020
4683 Clouds 6 1016 95 10000 3.67 198 17:22 19.12.2020
4684 Clouds 7 1016 92 10000 3.67 198 16:43 19.12.2020
4685 Clear 7 1015 78 10000 0.89 293 16:25 19.12.2020
4686 Clear 8 1020 92 10000 3.63 199 15:55 19.12.2020
4687 Clear 8 1015 90 10000 3.63 199 15:34 19.12.2020
4688 Clear 8 1019 92 10000 4.13 200 14:41 19.12.2020
4689 Clear 8 1019 92 10000 4.41 199 14:21 19.12.2020
4690 Clear 8 1017 77 10000 1.79 136 13:41 19.12.2020
4691 Clear 8 1017 80 10000 2.24 124 13:20 19.12.2020
4692 Clear 8 1017 80 10000 4.47 125 12:44 19.12.2020
4693 Clear 7 1016 77 10000 1.34 293 12:26 19.12.2020
4694 Clear 7 1018 82 10000 3.13 92 11:57 19.12.2020
4695 Clear 7 1016 99 10000 0.89 104 11:36 19.12.2020
4696 Clear 6 1018 85 10000 1.34 105 10:43 19.12.2020
4697 Clear 5 1016 86 10000 1.79 270 10:25 19.12.2020
4698 Clear 5 1017 90 10000 2.24 90 09:56 19.12.2020
4699 Clear 4 1016 10 10000 1.34 103 09:38 19.12.2020
4700 Clear 4 1017 94 10000 1.79 61 08:36 19.12.2020
4701 Clouds 3 1017 95 10000 1.34 69 07:53 19.12.2020
4702 Clear 3 1016 10 10000 2.59 171 07:18 19.12.2020
4703 Clear 3 1017 96 10000 1.34 90 06:39 19.12.2020
4704 Clear 3 1016 93 10000 0.89 293 05:19 19.12.2020
4705 Clear 4 1018 95 10000 2.21 175 03:28 19.12.2020
4706 Clear 5 1019 10 10000 2.21 177 00:41 19.12.2020
4707 Clear 5 1020 95 10000 2.13 183 00:18 19.12.2020
4708 Clear 5 1019 10 10000 2.13 183 23:48 18.12.2020
4709 Clear 4 1021 95 10000 2.08 186 23:24 18.12.2020
4710 Clear 4 1021 94 10000 1.79 42 22:47 18.12.2020
4711 Clear 4 1021 94 10000 0.89 42 22:24 18.12.2020
4712 Clear 4 1021 94 10000 2.68 28 21:51 18.12.2020
4713 Clear 4 1021 93 10000 1.34 138 21:31 18.12.2020
4714 Clear 4 1021 91 10000 2.24 42 20:43 18.12.2020
4715 Clear 5 1021 92 10000 1.79 48 20:23 18.12.2020
4716 Clear 5 1021 92 10000 1.34 109 19:46 18.12.2020
4717 Clouds 4 1021 91 10000 0.45 79 19:22 18.12.2020
4718 Clouds 5 1019 88 10000 0.89 270 18:45 18.12.2020
4719 Clouds 5 1021 91 10000 1.34 80 18:26 18.12.2020
4720 Clouds 5 1021 91 10000 2.11 189 17:36 18.12.2020
4721 Clouds 6 1019 87 10000 2.23 186 16:59 18.12.2020
4722 Clouds 6 1021 89 10000 0.45 60 16:40 18.12.2020
4723 Clouds 6 1020 98 10000 2.13 190 16:20 18.12.2020
4724 Clouds 7 1020 97 10000 2.13 190 15:51 18.12.2020
4725 Clouds 7 1020 96 10000 2.13 190 15:33 18.12.2020
4726 Clouds 8 1022 84 10000 2.71 215 14:57 18.12.2020
4727 Clouds 9 1023 82 10000 0.45 128 14:24 18.12.2020
4728 Clouds 7 1023 85 10000 3.37 219 13:53 18.12.2020
4729 Clouds 7 1023 85 10000 3.37 219 13:32 18.12.2020
4730 Clouds 7 1023 88 10000 0.45 105 12:57 18.12.2020
4731 Clouds 6 1023 92 10000 0.89 118 12:34 18.12.2020
4732 Clouds 5 1022 93 10000 0.45 293 11:28 18.12.2020
4733 Clouds 5 1023 96 10000 3.18 205 10:45 18.12.2020
4734 Clouds 5 1023 96 10000 2.77 204 10:24 18.12.2020
4735 Clouds 4 1022 93 10000 1.34 270 09:59 18.12.2020
4736 Clouds 4 1022 10 10000 2.77 204 09:37 18.12.2020
4737 Clouds 4 1023 96 5591 2.85 209 09:19 18.12.2020
4738 Clouds 4 1023 96 5591 2.85 209 08:46 18.12.2020
4739 Clouds 4 1023 96 7207 1.34 84 08:20 18.12.2020
4740 Clouds 4 1023 96 10000 1.34 46 07:20 18.12.2020
4741 Clouds 4 1023 95 10000 1.34 46 06:59 18.12.2020
4742 Clouds 4 1023 96 10000 2.1 213 05:45 18.12.2020
4743 Clouds 4 1022 92 7247 2.32 215 05:23 18.12.2020
4744 Clouds 4 1023 95 7247 2.24 38 04:42 18.12.2020
4745 Clouds 4 1021 91 9279 0.89 293 01:47 18.12.2020
4746 Clouds 4 1022 94 10000 2.67 223 00:31 18.12.2020
4747 Clouds 5 1022 93 10000 3.03 226 23:53 17.12.2020
4748 Clouds 5 1022 93 10000 3.07 228 23:25 17.12.2020
4749 Clouds 6 1020 97 10000 3.07 228 22:49 17.12.2020
4750 Clouds 6 1022 93 10000 3.18 230 22:28 17.12.2020
4751 Clouds 6 1022 92 10000 0.45 188 21:46 17.12.2020
4752 Clouds 6 1020 97 10000 3.6 232 21:22 17.12.2020
4753 Clouds 7 1023 89 10000 0.89 144 20:55 17.12.2020
4754 Clouds 7 1022 92 10000 3.6 232 20:36 17.12.2020
4755 Clouds 7 1022 92 10000 3.62 233 20:18 17.12.2020
4756 Clouds 7 1022 92 10000 3.62 233 19:41 17.12.2020
4757 Clouds 7 1021 92 10000 3.62 234 19:22 17.12.2020
4758 Clouds 6 1021 92 10000 3.5 231 18:41 17.12.2020
4759 Clouds 6 1021 91 10000 3.77 231 18:21 17.12.2020
4760 Clouds 7 1021 91 10000 3.77 231 17:49 17.12.2020
4761 Clouds 7 1021 91 10000 3.77 231 17:31 17.12.2020
4762 Clouds 7 1018 96 10000 3.84 228 16:42 17.12.2020
4763 Clouds 7 1020 91 10000 3.65 231 16:23 17.12.2020
4764 Clouds 7 1020 91 10000 3.65 231 15:51 17.12.2020
4765 Clouds 7 1018 88 10000 1.34 270 15:30 17.12.2020
4766 Clouds 7 1017 98 10000 3.59 231 14:54 17.12.2020
4767 Clouds 8 1021 94 10000 3.59 231 14:30 17.12.2020
4768 Rain 8 1022 93 10000 3.91 229 13:51 17.12.2020
4769 Clouds 8 1017 89 10000 0.89 293 13:28 17.12.2020
4770 Rain 6 1018 89 10000 0.89 111 12:44 17.12.2020
4771 Rain 6 1017 88 10000 1.79 270 12:25 17.12.2020
4772 Clouds 6 1018 87 10000 3.13 119 11:45 17.12.2020
4773 Clouds 6 1016 97 10000 4.1 202 11:24 17.12.2020
4774 Clouds 6 1018 87 10000 3.13 111 10:55 17.12.2020
4775 Clouds 6 1016 98 10000 3.9 195 10:18 17.12.2020
4776 Clouds 6 1016 84 10000 1.34 293 09:26 17.12.2020
4777 Clouds 7 1017 88 10000 0.89 81 07:54 17.12.2020
4778 Clouds 7 1017 88 10000 0.89 81 07:54 17.12.2020
4779 Clouds 7 1020 93 10000 3.44 187 07:34 17.12.2020
4780 Clouds 7 1017 87 10000 2.68 58 06:54 17.12.2020
4781 Clouds 7 1015 98 10000 3.57 185 06:32 17.12.2020
4782 Clouds 7 1015 82 10000 1.79 225 05:58 17.12.2020
4783 Clouds 6 1017 94 10000 1.79 74 00:38 17.12.2020
4784 Clouds 6 1016 92 10000 0.45 270 23:52 16.12.2020
4785 Clouds 7 1016 91 10000 1.34 270 23:21 16.12.2020
4786 Clouds 7 1016 10 10000 2.84 170 22:56 16.12.2020
4787 Clouds 7 1016 10 10000 2.84 170 22:35 16.12.2020
4788 Clouds 7 1016 99 9847 2.63 161 21:52 16.12.2020
4789 Clouds 7 1019 91 9847 2.63 161 21:34 16.12.2020
4790 Clouds 7 1016 99 10000 2.48 156 20:56 16.12.2020
4791 Clouds 7 1016 99 10000 2.48 156 20:37 16.12.2020
4792 Clouds 8 1016 99 10000 2.42 155 20:18 16.12.2020
4793 Clouds 7 1016 99 10000 2.37 154 19:20 16.12.2020
4794 Clouds 7 1016 99 10000 2.3 155 18:54 16.12.2020
4795 Clouds 8 1018 89 10000 2.22 150 18:29 16.12.2020
4796 Clouds 8 1016 99 10000 2.22 150 17:51 16.12.2020
4797 Clouds 9 1017 87 10000 1.98 138 17:29 16.12.2020
4798 Clouds 9 1017 87 10000 1.98 138 16:40 16.12.2020
4799 Clouds 9 1016 87 10000 1.76 133 16:22 16.12.2020
4800 Clouds 9 1016 99 10000 1.76 133 15:51 16.12.2020
4801 Clouds 9 1017 88 10000 1.34 118 15:28 16.12.2020
4802 Clouds 9 1017 87 10000 0.45 121 14:48 16.12.2020
4803 Clouds 9 1017 87 10000 1.79 82 14:29 16.12.2020
4804 Clouds 9 1015 10 10000 1.68 148 13:50 16.12.2020
4805 Clouds 9 1018 87 10000 0.89 90 13:31 16.12.2020
4806 Clouds 8 1018 92 10000 1.34 121 12:56 16.12.2020
4807 Clouds 9 1018 92 10000 1.79 134 12:37 16.12.2020
4808 Clouds 8 1018 93 10000 1.79 124 11:43 16.12.2020
4809 Clouds 8 1018 94 9674 2.24 103 11:22 16.12.2020
4810 Clouds 8 1016 10 9674 1.93 161 10:50 16.12.2020
4811 Clouds 8 1018 96 9697 1.55 148 10:27 16.12.2020
4812 Clouds 7 1016 10 9697 1.55 148 09:49 16.12.2020
4813 Clouds 7 1018 97 5057 0.45 63 09:18 16.12.2020
4814 Clouds 7 1017 97 5039 0.45 88 07:59 16.12.2020
4815 Clouds 7 1017 97 5039 0.45 88 07:39 16.12.2020
4816 Clouds 7 1015 10 9850 0.81 138 06:57 16.12.2020
4817 Clouds 7 1016 97 7444 0.95 241 03:28 16.12.2020
4818 Clouds 7 1016 96 7575 1.38 252 01:30 16.12.2020
4819 Clouds 8 1015 96 10000 1.79 237 23:46 15.12.2020
4820 Clouds 8 1014 96 6499 2.23 234 22:56 15.12.2020
4821 Clouds 7 1014 96 6499 2.23 234 22:38 15.12.2020
4822 Clouds 7 1014 95 10000 2.58 228 22:18 15.12.2020
4823 Clouds 7 1014 95 10000 2.58 228 21:40 15.12.2020
4824 Clouds 7 1014 95 5426 2.89 234 21:21 15.12.2020
4825 Clouds 7 1013 95 5426 2.89 234 20:44 15.12.2020
4826 Clouds 7 1013 95 9896 3.19 226 20:26 15.12.2020
4827 Clouds 7 1013 95 9896 3.19 226 19:53 15.12.2020
4828 Clouds 7 1013 94 9896 1.34 88 19:30 15.12.2020
4829 Clouds 7 1012 94 9554 3.31 219 18:39 15.12.2020
4830 Clouds 7 1012 94 10000 0.45 87 18:21 15.12.2020
4831 Clouds 7 1011 94 10000 0.89 109 17:46 15.12.2020
4832 Clouds 7 1011 93 10000 0.45 65 17:28 15.12.2020
4833 Rain 7 1011 93 10000 2.68 198 16:58 15.12.2020
4834 Rain 7 1011 92 10000 2.68 198 16:31 15.12.2020
4835 Rain 7 1011 91 10000 2.51 201 15:50 15.12.2020
4836 Clouds 7 1011 91 10000 2.43 202 15:28 15.12.2020
4837 Clouds 7 1010 91 10000 0.89 33 14:44 15.12.2020
4838 Clouds 8 1010 91 10000 2.4 203 14:21 15.12.2020
4839 Clouds 7 1010 91 10000 0.89 123 13:51 15.12.2020
4840 Clouds 7 1009 97 10000 2.4 203 13:32 15.12.2020
4841 Clouds 7 1010 91 10000 1.79 94 12:47 15.12.2020
4842 Clouds 7 1010 91 10000 1.79 94 12:47 15.12.2020
4843 Clouds 7 1010 92 10000 1.79 53 12:20 15.12.2020
4844 Clouds 6 1011 93 10000 2.66 206 11:55 15.12.2020
4845 Clouds 7 1011 94 10000 2.62 204 11:26 15.12.2020
4846 Clouds 6 1011 94 10000 2.62 204 10:53 15.12.2020
4847 Clouds 6 1010 94 10000 1.79 38 10:32 15.12.2020
4848 Clouds 6 1010 94 10000 0.89 38 09:51 15.12.2020
4849 Clouds 6 1010 93 10000 0.89 53 09:32 15.12.2020
4850 Clouds 6 1010 92 10000 2.45 198 08:53 15.12.2020
4851 Clouds 6 1010 92 10000 2.46 198 08:26 15.12.2020
4852 Clouds 6 1010 92 10000 0.89 62 07:49 15.12.2020
4853 Clouds 6 1010 92 10000 0.89 62 07:49 15.12.2020
4854 Clouds 6 1010 91 10000 2.24 78 07:25 15.12.2020
4855 Rain 6 1008 79 10000 0.89 293 06:37 15.12.2020
4856 Clouds 5 1011 91 10000 0.45 129 03:29 15.12.2020
4857 Clouds 6 1012 91 10000 1.95 180 00:35 15.12.2020
4858 Clouds 5 1012 91 10000 2.18 175 23:26 14.12.2020
4859 Clouds 6 1012 91 10000 2.18 175 22:58 14.12.2020
4860 Clouds 6 1012 91 10000 2.18 175 22:36 14.12.2020
4861 Clouds 6 1012 90 10000 2.24 180 21:54 14.12.2020
4862 Clouds 6 1012 90 10000 0.45 195 21:35 14.12.2020
4863 Clouds 6 1009 79 10000 0.45 293 20:52 14.12.2020
4864 Clouds 6 1009 79 10000 0.45 293 20:30 14.12.2020
4865 Clouds 6 1012 89 10000 2.5 191 19:55 14.12.2020
4866 Clouds 6 1009 79 10000 0.89 315 19:30 14.12.2020
4867 Clouds 6 1012 88 10000 2.27 189 18:53 14.12.2020
4868 Clouds 7 1009 78 10000 0.89 270 18:32 14.12.2020
4869 Clouds 7 1009 78 10000 1.34 270 17:52 14.12.2020
4870 Clouds 7 1009 77 10000 1.79 270 17:31 14.12.2020
4871 Clouds 8 1009 78 10000 1.79 270 16:52 14.12.2020
4872 Clouds 8 1011 89 10000 1.34 223 16:29 14.12.2020
4873 Clouds 8 1009 79 10000 2.24 293 15:50 14.12.2020
4874 Clouds 8 1011 83 10000 0.45 203 15:25 14.12.2020
4875 Clouds 8 1011 83 10000 0.45 21 14:45 14.12.2020
4876 Clouds 9 1009 81 10000 0.89 270 14:26 14.12.2020
4877 Clouds 9 1011 81 10000 0.89 5 13:47 14.12.2020
4878 Clouds 8 1011 82 10000 0.45 15 13:27 14.12.2020
4879 Clouds 8 1009 77 10000 2.68 225 12:53 14.12.2020
4880 Clouds 8 1013 84 10000 3.71 203 12:30 14.12.2020
4881 Clouds 7 1012 86 10000 0.45 42 11:37 14.12.2020
4882 Clouds 5 1009 79 10000 1.79 293 10:48 14.12.2020
4883 Clouds 5 1009 80 10000 0.89 293 10:27 14.12.2020
4884 Clouds 5 1009 81 10000 1.34 293 09:45 14.12.2020
4885 Clouds 5 1009 10 10000 3.6 185 08:50 14.12.2020
4886 Clouds 5 1009 82 10000 1.34 225 08:30 14.12.2020
4887 Clouds 5 1009 10 10000 3.53 189 07:52 14.12.2020
4888 Clouds 4 1009 10 10000 3.96 190 06:55 14.12.2020
4889 Clouds 4 1009 10 10000 4.03 190 05:51 14.12.2020
4890 Clouds 4 1011 92 10000 1.79 74 03:49 14.12.2020
4891 Clouds 3 1010 10 10000 2.89 199 00:57 14.12.2020
4892 Clouds 4 1010 10 10000 2.58 198 00:35 14.12.2020
4893 Clouds 3 1010 10 10000 2.76 184 23:59 13.12.2020
4894 Clouds 3 1010 10 10000 2.76 184 23:41 13.12.2020
4895 Clouds 4 1010 10 9154 2.17 183 22:51 13.12.2020
4896 Clouds 5 1010 10 9847 1.66 179 22:21 13.12.2020
4897 Clouds 5 1010 10 9847 1.66 179 21:56 13.12.2020
4898 Clouds 5 1010 10 9847 1.66 179 21:35 13.12.2020
4899 Clouds 5 1010 10 9874 1.53 179 20:49 13.12.2020
4900 Clouds 5 1010 10 9887 1.58 181 20:25 13.12.2020
4901 Clouds 6 1013 93 9887 0.45 80 19:46 13.12.2020
4902 Clouds 6 1010 10 6472 1.39 191 19:23 13.12.2020
4903 Clouds 6 1009 10 6472 1.39 191 18:54 13.12.2020
4904 Clouds 6 1009 10 5973 1.46 204 18:36 13.12.2020
4905 Clouds 6 1009 10 9134 1.16 206 18:18 13.12.2020
4906 Clouds 6 1010 94 9134 1.16 206 17:43 13.12.2020
4907 Clouds 6 1010 94 5781 1.36 221 17:18 13.12.2020
4908 Clouds 6 1010 94 5781 1.36 221 16:44 13.12.2020
4909 Clouds 6 1009 10 5803 1.61 229 16:21 13.12.2020
4910 Clouds 7 1010 94 5803 1.61 229 15:45 13.12.2020
4911 Clouds 7 1008 10 7279 1.65 228 15:26 13.12.2020
4912 Clouds 7 1009 95 7279 1.65 228 14:47 13.12.2020
4913 Clouds 7 1008 10 5894 1.68 224 14:28 13.12.2020
4914 Clouds 7 1009 95 5894 1.68 224 13:48 13.12.2020
4915 Clouds 7 1009 96 5894 1.68 224 13:30 13.12.2020
4916 Clouds 6 1009 96 7834 1.9 226 12:55 13.12.2020
4917 Clouds 6 1008 10 10000 1.72 226 12:24 13.12.2020
4918 Clouds 6 1008 10 10000 1.72 226 12:24 13.12.2020
4919 Clouds 6 1008 10 10000 1.72 226 11:58 13.12.2020
4920 Clouds 5 1009 96 10000 1.72 226 11:31 13.12.2020
4921 Clouds 6 1008 95 5564 0.45 270 10:43 13.12.2020
4922 Clouds 4 1008 96 5176 1.6 214 10:21 13.12.2020
4923 Clouds 5 1006 10 5176 1.6 214 09:39 13.12.2020
4924 Clouds 5 1006 10 5219 1.37 213 08:47 13.12.2020
4925 Clouds 4 1006 10 5543 1.28 210 08:28 13.12.2020
4926 Clouds 4 1005 10 10000 1.15 220 06:28 13.12.2020
4927 Clouds 4 1007 93 10000 0.45 117 02:44 13.12.2020
4928 Clouds 4 1003 10 10000 0.94 214 01:59 13.12.2020
4929 Clouds 4 1006 92 10000 0.45 103 01:34 13.12.2020
4930 Clouds 4 1003 93 10000 1.02 225 00:44 13.12.2020
4931 Clouds 4 1002 10 10000 0.93 217 23:37 12.12.2020
4932 Clouds 3 1002 10 10000 1.01 213 23:19 12.12.2020
4933 Clouds 4 1001 10 10000 1.01 213 22:34 12.12.2020
4934 Clouds 4 1004 92 10000 0.89 63 21:46 12.12.2020
4935 Clouds 3 1000 10 10000 0.97 191 21:20 12.12.2020
4936 Clouds 4 1004 91 10000 0.45 74 20:45 12.12.2020
4937 Clouds 4 1000 10 10000 0.97 189 20:21 12.12.2020
4938 Clouds 4 1000 10 10000 0.97 189 19:52 12.12.2020
4939 Clouds 4 1000 10 10000 0.97 189 19:33 12.12.2020
4940 Clouds 4 999 10 10000 0.94 185 18:56 12.12.2020
4941 Clouds 4 999 10 10000 0.94 185 18:38 12.12.2020
4942 Clouds 3 999 10 10000 0.93 184 18:20 12.12.2020
4943 Clouds 3 1000 90 10000 0.45 270 17:41 12.12.2020
4944 Clouds 4 1001 90 10000 0.95 178 16:45 12.12.2020
4945 Clouds 4 1001 90 10000 0.95 178 16:44 12.12.2020
4946 Clouds 4 997 10 10000 0.89 169 15:58 12.12.2020
4947 Clouds 4 997 10 10000 0.89 169 15:58 12.12.2020
4948 Clouds 4 997 10 10000 0.89 169 15:58 12.12.2020
4949 Clouds 4 997 10 10000 0.89 169 15:39 12.12.2020
4950 Clouds 5 997 10 10000 0.81 158 14:54 12.12.2020
4951 Clouds 5 997 10 10000 0.81 158 14:35 12.12.2020
4952 Clouds 5 996 10 10000 0.91 158 13:46 12.12.2020
4953 Clouds 4 996 10 10000 1.15 154 13:26 12.12.2020
4954 Clouds 4 996 10 10000 1.05 163 12:37 12.12.2020
4955 Clouds 3 996 10 10000 1.29 166 11:28 12.12.2020
4956 Clouds 3 998 90 10000 0.89 65 10:46 12.12.2020
4957 Clouds 3 998 91 10000 0.89 100 09:25 12.12.2020
4958 Clouds 3 995 88 10000 1.34 293 08:41 12.12.2020
4959 Rain 4 997 85 10000 2.65 146 01:59 12.12.2020
4960 Clouds 2 994 88 10000 2.29 151 23:31 11.12.2020
4961 Clouds 2 996 88 10000 0.89 88 21:32 11.12.2020
4962 Clouds 2 995 89 10000 0.45 89 19:57 11.12.2020
4963 Clouds 2 994 85 10000 0.45 225 17:30 11.12.2020
4964 Clouds 4 1000 83 10000 3.35 145 14:39 11.12.2020
4965 Clouds 4 996 82 10000 0.89 248 13:57 11.12.2020
4966 Clouds 4 999 88 10000 0.89 0 12:36 11.12.2020
4967 Rain 3 999 88 10000 0.89 334 11:57 11.12.2020
4968 Rain 3 1000 89 10000 0.89 320 11:38 11.12.2020
4969 Clouds 2 998 83 10000 0.45 270 10:41 11.12.2020
4970 Clouds 1 999 10 10000 2.63 169 08:23 11.12.2020
4971 Clouds 1 1000 10 10000 2.61 153 05:38 11.12.2020
4972 Clouds 1 1000 10 10000 2.17 156 04:47 11.12.2020
4973 Clouds 2 1002 10 10000 1.74 176 01:32 11.12.2020
4974 Clouds 2 1003 10 10000 1.65 190 23:38 10.12.2020
4975 Clouds 2 1003 10 7995 1.48 170 22:24 10.12.2020
4976 Clouds 2 1003 10 7995 1.48 170 21:35 10.12.2020
4977 Clouds 2 1004 10 6864 1.4 168 20:39 10.12.2020
4978 Clouds 2 1004 10 3295 1.39 150 19:37 10.12.2020
4979 Clouds 2 1004 10 911 1.17 130 18:53 10.12.2020
4980 Clouds 2 1004 10 1729 0.8 122 17:50 10.12.2020
4981 Clouds 2 1004 10 2003 0.32 105 16:25 10.12.2020
4982 Clouds 2 1003 10 2038 0.38 99 15:25 10.12.2020
4983 Clouds 2 1003 10 2038 0.38 99 14:48 10.12.2020
4984 Clouds 2 1003 10 2577 0.32 72 14:25 10.12.2020
4985 Clouds 2 1004 10 5022 0.75 131 12:40 10.12.2020
4986 Clouds 1 1006 97 3546 0.45 250 11:33 10.12.2020
4987 Rain 1 1004 99 691 0.86 73 08:51 10.12.2020
4988 Clouds 1 1004 99 289 0.44 50 07:38 10.12.2020
4989 Rain 1 1006 97 119 0.79 51 06:41 10.12.2020
4990 Rain 1 1007 97 74 0.59 2 02:53 10.12.2020
4991 Snow 1 1006 99 85 0.6 36 01:58 10.12.2020
4992 Snow 1 1008 96 2983 1.09 78 23:50 09.12.2020
4993 Snow 1 1009 96 10000 0.56 55 20:51 09.12.2020
4994 Snow 1 1008 96 10000 0.3 111 20:26 09.12.2020
4995 Clouds 1 1008 96 10000 0.69 94 19:21 09.12.2020
4996 Clouds 1 1008 95 10000 0.93 34 17:42 09.12.2020
4997 Clouds 1 1008 95 10000 0.37 341 16:41 09.12.2020
4998 Clouds 1 1008 95 10000 0.31 284 16:20 09.12.2020
4999 Clouds 1 1008 95 10000 0.31 284 16:20 09.12.2020
5000 Clouds 1 1008 95 10000 0.31 284 16:20 09.12.2020
5001 Clouds 2 1008 95 10000 0.7 272 15:18 09.12.2020
5002 Clouds 2 1008 95 10000 1.79 255 14:27 09.12.2020
5003 Clouds 2 1008 96 10000 1.1 273 13:58 09.12.2020
5004 Clouds 2 1008 96 10000 0.96 253 13:19 09.12.2020
5005 Clouds 2 1008 96 10000 0.88 258 12:44 09.12.2020
5006 Clouds 1 1008 96 10000 0.66 246 11:49 09.12.2020
5007 Clouds 2 1008 96 10000 0.45 38 10:39 09.12.2020
5008 Clouds 1 1007 95 5349 0.33 195 08:46 09.12.2020
5009 Clouds 0 1006 95 4782 0.44 63 07:43 09.12.2020
5010 Clouds 0 1006 94 10000 0.21 297 05:48 09.12.2020
5011 Snow 0 1005 92 10000 0.96 98 03:26 09.12.2020
5012 Snow 0 1005 94 10000 1.28 88 01:49 09.12.2020
5013 Clouds 0 1005 95 10000 1.74 67 23:41 08.12.2020
5014 Clouds 0 1007 92 10000 1.31 73 22:43 08.12.2020
5015 Clouds 0 1007 91 10000 1.27 88 20:54 08.12.2020
5016 Clear 1 1004 95 10000 1.5 103 19:32 08.12.2020
5017 Clear 1 1004 93 10000 1.5 103 18:57 08.12.2020
5018 Clouds 3 1003 89 10000 1.42 113 17:33 08.12.2020
5019 Clear 5 1005 86 10000 1.41 94 15:44 08.12.2020
5020 Clear 5 1002 83 10000 1.81 116 14:18 08.12.2020
5021 Clouds 5 1005 87 10000 1.86 120 13:24 08.12.2020
5022 Clouds 5 1003 85 10000 1.55 91 12:26 08.12.2020
5023 Clouds 4 1003 90 10000 1.55 91 11:42 08.12.2020
5024 Clouds 3 1005 90 10000 1.74 110 10:45 08.12.2020
5025 Clouds 2 1003 94 10000 1.73 107 09:50 08.12.2020
5026 Clouds 2 1002 93 10000 1.51 94 07:59 08.12.2020
5027 Clouds 2 1004 90 10000 0.45 88 06:34 08.12.2020
5028 Clouds 2 1002 93 10000 1.02 109 03:29 08.12.2020
5029 Clouds 2 1002 90 10000 1 118 00:46 08.12.2020
5030 Clouds 3 1003 91 10000 0.8 123 23:51 07.12.2020
5031 Clouds 3 1002 88 10000 0.79 142 22:37 07.12.2020
5032 Clouds 4 1002 90 10000 1.1 166 21:50 07.12.2020
5033 Clouds 4 1002 90 10000 1.61 175 19:52 07.12.2020
5034 Clouds 4 1002 90 10000 2.03 185 18:40 07.12.2020
5035 Clouds 4 1001 90 10000 2.79 192 17:26 07.12.2020
5036 Clouds 4 1001 90 10000 2.79 192 16:53 07.12.2020
5037 Clouds 4 1000 91 10000 0.45 161 15:26 07.12.2020
5038 Clouds 4 1000 91 10000 0.45 161 15:26 07.12.2020
5039 Clouds 4 999 91 10000 0.45 180 14:46 07.12.2020
5040 Clouds 4 999 93 10000 2.68 180 13:54 07.12.2020
5041 Clouds 4 998 94 10000 0.45 163 13:20 07.12.2020
5042 Clouds 3 998 96 10000 0.45 134 11:43 07.12.2020
5043 Clouds 3 998 96 10000 3.68 206 11:18 07.12.2020
5044 Clouds 3 996 96 10000 3.78 202 09:40 07.12.2020
5045 Clouds 3 995 97 10000 1.34 173 08:21 07.12.2020
5046 Rain 4 994 97 10000 1.79 192 06:29 07.12.2020
5047 Clouds 4 994 96 10000 2.93 146 04:48 07.12.2020
5048 Clouds 4 994 96 10000 2.73 99 01:55 07.12.2020
5049 Clouds 3 993 98 10000 1.42 110 23:50 06.12.2020
5050 Clouds 3 996 96 10000 0.85 52 22:25 06.12.2020
5051 Clouds 3 997 95 10000 1.48 16 20:56 06.12.2020
5052 Clouds 3 995 97 10000 1.48 16 20:34 06.12.2020
5053 Clouds 3 997 95 10000 0.36 74 19:55 06.12.2020
5054 Clouds 3 997 95 10000 0.83 63 18:33 06.12.2020
5055 Clouds 4 995 93 10000 1.14 113 16:52 06.12.2020
5056 Clouds 4 997 94 10000 3.58 284 14:58 06.12.2020
5057 Clouds 4 995 94 10000 1.28 147 13:49 06.12.2020
5058 Clouds 3 996 94 10000 1.41 117 12:52 06.12.2020
5059 Clouds 4 997 92 5359 0.64 63 11:59 06.12.2020
5060 Clouds 3 996 93 5359 0.64 63 11:34 06.12.2020
5061 Clouds 3 998 93 5394 1.12 111 10:47 06.12.2020
5062 Clouds 3 998 94 4737 1.23 73 09:57 06.12.2020
5063 Clouds 4 999 93 7172 0.45 90 08:30 06.12.2020
5064 Clouds 2 999 93 2023 0.45 68 06:47 06.12.2020
5065 Clouds 2 1000 92 9427 2.17 58 01:47 06.12.2020
5066 Clouds 2 1001 92 10000 1.36 41 00:41 06.12.2020
5067 Clouds 2 1001 91 10000 2.36 58 00:23 06.12.2020
5068 Rain 2 1001 90 10000 1.81 61 22:47 05.12.2020
5069 Rain 2 1002 90 10000 0.98 49 22:20 05.12.2020
5070 Snow 2 1002 90 10000 0.98 49 21:50 05.12.2020
5071 Rain 2 1002 90 10000 0.34 130 21:26 05.12.2020
5072 Rain 2 1001 90 10000 1.07 129 19:43 05.12.2020
5073 Clouds 2 1001 88 10000 1.12 138 18:40 05.12.2020
5074 Clouds 2 1000 89 10000 1.11 153 17:34 05.12.2020
5075 Clouds 4 1005 84 10000 1.02 161 16:33 05.12.2020
5076 Clouds 4 1001 87 10000 1.53 168 15:57 05.12.2020
5077 Clouds 4 999 86 10000 0.45 270 14:27 05.12.2020
5078 Clouds 4 998 87 10000 2.7 228 12:24 05.12.2020
5079 Clouds 4 998 87 10000 2.7 228 11:47 05.12.2020
5080 Clouds 2 996 94 10000 0.45 101 10:31 05.12.2020
5081 Clouds 0 991 94 10000 0.45 100 07:49 05.12.2020
5082 Clouds 0 994 89 10000 2.06 192 07:24 05.12.2020
5083 Snow 1 993 89 10000 0.45 355 03:55 05.12.2020
5084 Clouds 1 991 89 10000 0.46 209 23:56 04.12.2020
5085 Clouds 1 991 89 10000 1.48 194 22:32 04.12.2020
5086 Clouds 2 990 82 10000 0.7 111 20:26 04.12.2020
5087 Clouds 2 991 80 10000 1.37 146 18:53 04.12.2020
5088 Clouds 3 990 77 10000 1.15 127 18:19 04.12.2020
5089 Clouds 3 990 76 10000 0.45 270 17:37 04.12.2020
5090 Clouds 4 989 79 10000 0.89 120 15:50 04.12.2020
5091 Clouds 5 989 72 10000 0.45 225 13:57 04.12.2020
5092 Clouds 5 992 74 10000 2.52 173 13:29 04.12.2020
5093 Clouds 5 991 78 10000 0.89 73 12:54 04.12.2020
5094 Clouds 4 993 74 10000 4.82 186 10:42 04.12.2020
5095 Clouds 4 990 74 10000 2.24 118 10:23 04.12.2020
5096 Rain 2 989 78 10000 4.1 161 07:29 04.12.2020
5097 Clouds 2 989 76 10000 0.89 126 06:39 04.12.2020
5098 Clouds 1 991 80 10000 3.32 151 02:25 04.12.2020
5099 Clouds 0 993 79 10000 0.45 63 23:49 03.12.2020
5100 Clouds 0 994 81 10000 1.34 71 22:45 03.12.2020
5101 Clouds 0 996 85 10000 0.45 86 20:59 03.12.2020
5102 Clouds 0 996 96 10000 4.26 176 19:38 03.12.2020
5103 Clouds 1 995 84 10000 0.89 225 19:19 03.12.2020
5104 Clouds 1 997 95 10000 4.01 185 18:34 03.12.2020
5105 Clouds 1 997 95 10000 4.05 186 17:20 03.12.2020
5106 Clouds 2 998 84 10000 0.89 270 15:58 03.12.2020
5107 Clouds 2 1003 81 10000 3.46 181 15:31 03.12.2020
5108 Clouds 1 999 95 6843 3.43 190 14:48 03.12.2020
5109 Snow 1 1000 95 5954 3.29 187 13:50 03.12.2020
5110 Snow 1 1001 85 6129 0.89 270 12:33 03.12.2020
5111 Clouds 0 1004 88 6432 0.89 59 11:55 03.12.2020
5112 Clouds 1 1002 95 10000 2.82 190 10:36 03.12.2020
5113 Clouds 0 1004 96 9095 2.23 193 08:21 03.12.2020
5114 Clouds 0 1006 85 9047 1.76 190 03:42 03.12.2020
5115 Clouds 0 1008 84 10000 0.45 270 01:41 03.12.2020
5116 Clear 0 1009 82 10000 1.57 197 23:51 02.12.2020
5117 Clear 1 1010 82 10000 0.45 225 22:41 02.12.2020
5118 Clear 1 1013 83 10000 0.45 5 21:37 02.12.2020
5119 Clouds 1 1011 91 10000 1.27 192 20:49 02.12.2020
5120 Clouds 1 1014 85 10000 1.13 185 20:30 02.12.2020
5121 Clouds 0 1014 92 10000 0.45 315 19:40 02.12.2020
5122 Clear 1 1013 90 10000 1 169 17:49 02.12.2020
5123 Clear 1 1013 84 10000 1 169 17:30 02.12.2020
5124 Clear 3 1016 83 10000 0.45 16 15:43 02.12.2020
5125 Clear 4 1015 86 10000 1.17 114 13:26 02.12.2020
5126 Clear 3 1017 91 10000 0.45 133 11:33 02.12.2020
5127 Clear 2 1020 94 10000 0.77 123 10:25 02.12.2020
5128 Clear 2 1020 94 10000 1.29 119 07:46 02.12.2020
5129 Clouds 2 1019 96 10000 1.06 99 23:40 01.12.2020
5130 Clouds 2 1018 96 10000 1.05 79 22:20 01.12.2020
5131 Clouds 2 1017 96 10000 1.03 64 19:43 01.12.2020
5132 Clouds 2 1017 95 10000 1.09 54 18:56 01.12.2020
5133 Clouds 2 1016 95 10000 0.61 79 17:26 01.12.2020
5134 Clouds 2 1014 95 10000 0.29 159 14:53 01.12.2020
5135 Clouds 2 1013 95 10000 1.07 169 12:48 01.12.2020
5136 Clouds 1 1013 96 10000 1.42 180 11:43 01.12.2020
5137 Clouds 1 1013 96 10000 0.45 91 10:55 01.12.2020
5138 Clouds 1 1013 95 10000 1.76 185 10:32 01.12.2020
5139 Clouds 1 1012 95 9877 1.96 187 07:47 01.12.2020
5140 Rain 1 1011 95 7657 2.42 195 06:26 01.12.2020
5141 Snow 1 1014 92 5385 2.92 197 01:44 01.12.2020
5142 Rain 1 1012 93 8590 1.34 270 00:52 01.12.2020
5143 Clouds 1 1013 94 8512 0.89 270 23:21 30.11.2020
5144 Clouds 1 1014 93 8512 0.45 270 22:42 30.11.2020
5145 Snow 1 1014 93 6767 0.45 225 22:22 30.11.2020
5146 Clouds 3 1014 75 10000 2.24 200 20:47 30.11.2020
5147 Clouds 2 1016 79 10000 0.89 293 19:41 30.11.2020
5148 Clouds 2 1017 79 10000 1.34 270 18:22 30.11.2020
5149 Clouds 2 1016 80 10000 2.69 222 17:46 30.11.2020
5150 Clouds 2 1021 85 10000 2.37 218 16:54 30.11.2020
5151 Clear 3 1022 79 10000 2.13 212 15:45 30.11.2020
5152 Clear 3 1023 78 10000 1.34 228 14:24 30.11.2020
5153 Clear 2 1021 80 10000 2.6 220 13:42 30.11.2020
5154 Clouds 2 1025 88 10000 0.45 325 12:26 30.11.2020
5155 Clouds 2 1025 89 10000 0.45 52 11:57 30.11.2020
5156 Clouds 0 1027 91 10000 1.76 226 10:26 30.11.2020
5157 Clouds -1 1024 88 10000 0.45 293 09:43 30.11.2020
5158 Clouds -1 1023 79 10000 0.45 244 07:18 30.11.2020
5159 Clouds 1 1028 81 10000 0.29 184 23:39 29.11.2020
5160 Clouds 1 1028 81 10000 1.34 52 21:49 29.11.2020
5161 Clouds 1 1028 80 10000 0.89 62 21:28 29.11.2020
5162 Clouds 3 1028 81 10000 0.24 58 19:49 29.11.2020
5163 Clouds 3 1027 92 10000 0.45 225 17:47 29.11.2020
5164 Clouds 4 1027 74 10000 1.33 66 14:54 29.11.2020
5165 Clouds 3 1025 76 10000 1.64 78 13:23 29.11.2020
5166 Clouds 3 1025 88 10000 1.63 73 11:41 29.11.2020
5167 Clear 0 1025 94 10000 1.26 55 09:42 29.11.2020
5168 Clear 0 1027 87 10000 1.26 48 08:37 29.11.2020
5169 Clouds -1 1023 92 10000 1.48 69 05:19 29.11.2020
5170 Clouds 1 1023 88 10000 0.45 121 23:48 28.11.2020
5171 Clouds 1 1023 91 10000 1.34 162 22:56 28.11.2020
5172 Clouds 1 1022 94 10000 1.34 115 20:47 28.11.2020
5173 Clouds 1 1022 93 10000 1.79 103 19:47 28.11.2020
5174 Clouds 1 1022 93 7334 2.24 135 19:21 28.11.2020
5175 Clouds 2 1021 93 10000 0.89 103 18:27 28.11.2020
5176 Clouds 2 1021 93 10000 0.89 111 17:47 28.11.2020
5177 Clouds 2 1022 91 10000 2.12 85 16:40 28.11.2020
5178 Clouds 3 1020 99 10000 2.35 95 14:52 28.11.2020
5179 Clear 4 1021 93 10000 1.34 109 12:35 28.11.2020
5180 Clear 2 1020 10 10000 0.89 72 10:36 28.11.2020
5181 Clear 2 1019 10 10000 1.83 101 06:36 28.11.2020
5182 Clear 2 1020 96 10000 1.29 119 03:32 28.11.2020
5183 Clear 3 1020 94 10000 1.52 114 01:50 28.11.2020
5184 Clear 4 1020 95 10000 0.45 88 22:56 27.11.2020
5185 Clear 5 1020 96 10000 1.35 134 21:33 27.11.2020
5186 Clear 5 1020 97 10000 0.45 53 20:36 27.11.2020
5187 Clear 4 1020 97 10000 1.46 114 19:30 27.11.2020
5188 Clear 4 1020 96 10000 1.12 115 18:44 27.11.2020
5189 Clear 7 1019 89 10000 0.45 125 14:56 27.11.2020
5190 Clear 7 1019 91 10000 0.45 200 13:44 27.11.2020
5191 Clouds 5 1020 93 10000 0.9 115 12:48 27.11.2020
5192 Clouds 5 1020 96 10000 0.65 132 11:50 27.11.2020
5193 Clouds 4 1020 97 10000 0.66 133 10:51 27.11.2020
5194 Clouds 4 1020 97 10000 0.73 90 10:22 27.11.2020
5195 Clouds 3 1019 97 10000 0.78 123 07:30 27.11.2020
5196 Clouds 3 1020 95 10000 0.75 216 22:42 26.11.2020
5197 Clouds 3 1020 95 10000 0.84 230 22:22 26.11.2020
5198 Clouds 3 1020 94 10000 0.84 230 21:39 26.11.2020
5199 Clouds 4 1020 93 10000 1.06 235 19:41 26.11.2020
5200 Clouds 4 1020 92 10000 1.2 246 18:31 26.11.2020
5201 Clouds 5 1020 91 10000 1.36 240 16:32 26.11.2020
5202 Clouds 6 1020 91 10000 1.94 230 13:43 26.11.2020
5203 Clouds 5 1020 91 10000 1.94 229 12:49 26.11.2020
5204 Clouds 5 1020 91 10000 2.08 224 12:29 26.11.2020
5205 Clouds 5 1021 93 10000 1.95 227 10:38 26.11.2020
5206 Clouds 5 1021 93 10000 1.87 232 10:18 26.11.2020
5207 Clouds 5 1021 94 10000 1.87 232 09:32 26.11.2020
5208 Clouds 4 1021 95 10000 2 234 08:43 26.11.2020
5209 Clouds 4 1020 95 10000 2.04 231 07:49 26.11.2020
5210 Clouds 4 1018 99 10000 2.14 221 02:18 26.11.2020
5211 Clear 4 1017 99 10000 2.13 218 21:54 25.11.2020
5212 Clear 4 1017 98 10000 2.21 219 20:32 25.11.2020
5213 Clear 3 1016 97 10000 2.16 220 18:59 25.11.2020
5214 Clouds 4 1016 95 10000 1.98 213 17:28 25.11.2020
5215 Clouds 6 1016 84 10000 1.34 270 15:43 25.11.2020
5216 Clouds 7 1016 81 10000 2.03 205 14:57 25.11.2020
5217 Clouds 7 1017 83 10000 1.34 270 13:45 25.11.2020
5218 Clouds 6 1016 87 10000 0.45 290 12:47 25.11.2020
5219 Clouds 4 1017 97 10000 2.06 208 11:23 25.11.2020
5220 Clouds 3 1017 99 8541 2 199 09:21 25.11.2020
5221 Clouds 3 1020 91 8541 2 199 08:50 25.11.2020
5222 Clouds 3 1020 91 10000 1.76 198 07:21 25.11.2020
5223 Clouds 3 1020 91 10000 0.45 9 03:49 25.11.2020
5224 Clouds 3 1021 91 10000 1.67 189 01:49 25.11.2020
5225 Clouds 3 1022 91 10000 0.45 229 00:20 25.11.2020
5226 Clouds 3 1022 91 10000 0.45 0 23:35 24.11.2020
5227 Clouds 3 1022 90 10000 0.45 307 22:39 24.11.2020
5228 Clouds 3 1020 92 10000 1.79 293 21:43 24.11.2020
5229 Clouds 3 1020 92 10000 1.79 293 21:23 24.11.2020
5230 Clouds 3 1021 100 10000 0.45 184 19:48 24.11.2020
5231 Clear 4 1021 90 10000 0.45 293 17:41 24.11.2020
5232 Clear 5 1021 89 10000 1.74 183 17:22 24.11.2020
5233 Clear 6 1024 88 10000 1.74 183 16:38 24.11.2020
5234 Clear 6 1024 88 10000 0.45 38 15:56 24.11.2020
5235 Clear 6 1022 88 10000 0.89 293 15:20 24.11.2020
5236 Clear 6 1024 90 10000 0.89 46 14:45 24.11.2020
5237 Clear 6 1022 89 10000 0.89 270 13:56 24.11.2020
5238 Clouds 7 1027 92 10000 2.58 212 12:40 24.11.2020
5239 Clouds 7 1023 89 10000 0.45 270 12:20 24.11.2020
5240 Clouds 7 1026 91 10000 0.89 90 11:34 24.11.2020
5241 Clouds 6 1027 91 10000 0.89 122 10:25 24.11.2020
5242 Clouds 6 1027 91 10000 0.89 122 10:25 24.11.2020
5243 Clouds 6 1024 91 10000 0.45 270 09:42 24.11.2020
5244 Clouds 5 1024 91 10000 0.45 225 09:21 24.11.2020
5245 Clouds 4 1024 91 9840 0.45 270 06:50 24.11.2020
5246 Clouds 3 1026 95 10000 2.4 218 03:59 24.11.2020
5247 Clouds 3 1028 94 10000 2.68 38 22:27 23.11.2020
5248 Clouds 4 1028 94 10000 2.68 36 21:34 23.11.2020
5249 Clouds 4 1028 93 10000 2.24 38 20:50 23.11.2020
5250 Clouds 4 1028 93 10000 1.79 38 20:19 23.11.2020
5251 Clouds 5 1027 90 10000 2.07 259 18:20 23.11.2020
5252 Clouds 5 1027 88 10000 2.41 267 17:24 23.11.2020
5253 Clouds 6 1027 86 10000 3 273 16:22 23.11.2020
5254 Clouds 8 1027 86 10000 3.84 278 14:46 23.11.2020
5255 Clouds 8 1027 88 10000 2.68 252 13:19 23.11.2020
5256 Clouds 8 1027 91 10000 0.89 273 12:36 23.11.2020
5257 Clouds 7 1027 92 10000 1.79 276 11:48 23.11.2020
5258 Clouds 7 1027 92 10000 1.79 276 11:48 23.11.2020
5259 Clouds 6 1026 95 10000 3.61 276 10:50 23.11.2020
5260 Clouds 4 1026 96 10000 3.53 273 09:31 23.11.2020
5261 Clouds 5 1025 96 10000 2.79 263 08:47 23.11.2020
5262 Clouds 4 1024 96 10000 3.26 270 07:27 23.11.2020
5263 Clouds 6 1023 97 9130 1.79 243 00:37 23.11.2020
5264 Clouds 6 1023 97 10000 3.43 244 23:36 22.11.2020
5265 Clouds 6 1024 97 10000 0.45 248 22:18 22.11.2020
5266 Clouds 6 1024 96 6210 0.45 249 20:54 22.11.2020
5267 Clouds 7 1024 96 7943 0.89 246 19:58 22.11.2020
5268 Clouds 7 1023 96 5560 2.39 252 18:54 22.11.2020
5269 Clouds 7 1023 96 5033 2.31 248 17:33 22.11.2020
5270 Clouds 7 1023 95 6101 0.45 267 15:58 22.11.2020
5271 Clouds 7 1023 94 10000 4.47 267 14:40 22.11.2020
5272 Clouds 6 1023 93 10000 1.79 229 12:50 22.11.2020
5273 Clouds 6 1023 92 9714 4.52 243 12:18 22.11.2020
5274 Clouds 6 1024 92 9714 4.52 243 11:35 22.11.2020
5275 Clouds 6 1024 93 10000 0.45 248 10:45 22.11.2020
5276 Clouds 5 1024 92 10000 4.85 238 09:42 22.11.2020
5277 Clouds 6 1025 84 10000 3.97 224 01:50 22.11.2020
5278 Clouds 6 1026 81 10000 4.36 232 23:54 21.11.2020
5279 Clouds 6 1026 80 10000 1.79 230 22:31 21.11.2020
5280 Clouds 6 1025 80 10000 0.45 270 21:30 21.11.2020
5281 Clouds 6 1023 79 10000 3.58 197 20:49 21.11.2020
5282 Clouds 6 1028 79 10000 0.89 240 19:58 21.11.2020
5283 Clouds 6 1027 79 10000 0.45 227 19:37 21.11.2020
5284 Clouds 6 1027 80 10000 4.63 235 18:39 21.11.2020
5285 Clouds 6 1030 74 10000 4.43 228 17:29 21.11.2020
5286 Clouds 6 1028 78 10000 0.89 205 16:44 21.11.2020
5287 Clouds 6 1028 81 10000 3.13 217 15:23 21.11.2020
5288 Clouds 6 1029 81 10000 4.58 220 14:48 21.11.2020
5289 Clouds 6 1029 82 10000 5.01 219 14:27 21.11.2020
5290 Clouds 5 1030 85 10000 2.68 136 12:43 21.11.2020
5291 Clouds 5 1030 86 10000 1.34 143 12:20 21.11.2020
5292 Clouds 5 1031 89 10000 0.45 111 11:23 21.11.2020
5293 Clouds 4 1031 92 10000 0.45 108 10:27 21.11.2020
5294 Clouds 3 1031 96 10000 4.65 219 08:52 21.11.2020
5295 Clouds 1 1032 96 10000 4.45 219 07:52 21.11.2020
5296 Clouds 0 1032 96 10000 3.46 209 05:24 21.11.2020
5297 Clear 0 1033 96 10000 1.34 35 01:56 21.11.2020
5298 Clouds 2 1034 95 10000 1.9 218 23:59 20.11.2020
5299 Clouds 2 1032 99 10000 1.74 220 22:31 20.11.2020
5300 Clouds 2 1033 93 10000 1.77 223 21:44 20.11.2020
5301 Clouds 2 1032 99 10000 0.45 3 21:21 20.11.2020
5302 Clouds 2 1032 99 10000 0.45 3 21:21 20.11.2020
5303 Clouds 2 1032 98 10000 1.31 228 19:52 20.11.2020
5304 Clouds 3 1032 97 10000 1.32 248 18:53 20.11.2020
5305 Clouds 4 1031 97 10000 0.89 314 17:58 20.11.2020
5306 Clouds 4 1033 95 10000 2.82 277 17:29 20.11.2020
5307 Clouds 4 1032 90 10000 2.82 277 16:40 20.11.2020
5308 Clouds 4 1032 95 10000 0.89 277 15:59 20.11.2020
5309 Rain 4 1031 96 9728 0.45 259 15:34 20.11.2020
5310 Clouds 4 1031 96 7980 1.34 271 13:48 20.11.2020
5311 Rain 4 1030 98 3010 0.89 287 13:19 20.11.2020
5312 Rain 3 1031 96 6842 3.06 287 12:39 20.11.2020
5313 Clouds 3 1031 96 2747 2.93 290 11:46 20.11.2020
5314 Clouds 3 1031 95 7851 0.45 274 11:20 20.11.2020
5315 Clouds 2 1030 95 4934 3.23 287 09:45 20.11.2020
5316 Clouds 2 1029 95 3084 3.62 277 08:27 20.11.2020
5317 Clouds 2 1029 95 3084 3.62 277 07:35 20.11.2020
5318 Clear 2 1028 93 10000 2.69 269 03:45 20.11.2020
5319 Clear 3 1026 93 10000 0.89 319 23:31 19.11.2020
5320 Clouds 4 1025 93 10000 3.35 295 22:27 19.11.2020
5321 Clouds 4 1024 93 10000 3.35 295 21:49 19.11.2020
5322 Clouds 4 1024 93 10000 4.36 307 20:41 19.11.2020
5323 Clouds 4 1023 93 10000 1.34 294 20:19 19.11.2020
5324 Clouds 5 1022 93 10000 1.34 279 19:25 19.11.2020
5325 Clouds 6 1022 94 10000 2.24 338 18:35 19.11.2020
5326 Rain 7 1020 92 10000 3.13 285 17:18 19.11.2020
5327 Rain 7 1018 86 10000 4.47 261 16:25 19.11.2020
5328 Rain 8 1018 83 10000 5.36 280 15:28 19.11.2020
5329 Clouds 8 1017 84 10000 4.92 257 13:47 19.11.2020
5330 Clouds 8 1017 83 10000 4.92 269 13:27 19.11.2020
5331 Clouds 9 1016 81 10000 4.02 248 12:51 19.11.2020
5332 Clouds 9 1016 78 10000 4.92 235 12:25 19.11.2020
5333 Clouds 8 1016 78 10000 2.68 246 11:40 19.11.2020
5334 Clouds 8 1016 80 10000 5.36 241 11:00 19.11.2020
5335 Clouds 8 1016 83 10000 4.47 246 10:29 19.11.2020
5336 Clouds 7 1016 89 10000 3.58 241 09:45 19.11.2020
5337 Clouds 7 1016 91 10000 2.68 254 09:26 19.11.2020
5338 Rain 8 1016 93 10000 1.34 215 08:20 19.11.2020
5339 Clouds 10 1015 90 10000 4.92 247 06:54 19.11.2020
5340 Clouds 9 1016 89 10000 0.45 45 01:46 19.11.2020
5341 Clouds 8 1016 91 10000 3.13 38 00:31 19.11.2020
5342 Clouds 8 1017 93 10000 2.68 37 23:31 18.11.2020
5343 Clouds 8 1017 93 10000 3.13 35 22:57 18.11.2020
5344 Clouds 8 1017 92 10000 2.24 35 22:27 18.11.2020
5345 Clouds 8 1018 92 10000 2.68 38 21:41 18.11.2020
5346 Clouds 9 1018 92 10000 4.06 210 21:21 18.11.2020
5347 Clouds 9 1019 93 10000 0.45 74 19:54 18.11.2020
5348 Clouds 9 1019 93 10000 1.79 41 19:35 18.11.2020
5349 Clouds 9 1020 93 10000 1.79 38 18:57 18.11.2020
5350 Clouds 10 1020 93 10000 2.24 40 18:38 18.11.2020
5351 Clouds 10 1020 92 10000 1.79 36 17:38 18.11.2020
5352 Clouds 11 1021 89 10000 1.34 32 16:25 18.11.2020
5353 Clouds 12 1020 84 10000 1.79 293 15:57 18.11.2020
5354 Clouds 12 1022 88 10000 0.45 109 14:41 18.11.2020
5355 Clouds 11 1023 89 10000 0.89 213 13:46 18.11.2020
5356 Clouds 11 1023 89 10000 0.89 213 13:46 18.11.2020
5357 Clouds 11 1023 89 10000 0.89 196 13:21 18.11.2020
5358 Clouds 11 1023 89 10000 0.45 186 12:42 18.11.2020
5359 Clouds 11 1024 88 10000 0.89 163 11:41 18.11.2020
5360 Clouds 11 1024 88 10000 3.28 204 10:54 18.11.2020
5361 Clouds 10 1025 88 10000 3.14 206 10:27 18.11.2020
5362 Clouds 10 1025 89 10000 2.34 205 08:23 18.11.2020
5363 Clouds 10 1025 89 10000 2.28 207 06:37 18.11.2020
5364 Clouds 11 1028 90 10000 2.96 230 01:49 18.11.2020
5365 Clouds 11 1028 92 10000 3.77 239 23:53 17.11.2020
5366 Clouds 11 1028 97 10000 4.38 244 22:53 17.11.2020
5367 Clouds 11 1028 97 10000 4.97 246 22:29 17.11.2020
5368 Clouds 11 1024 91 10000 0.89 270 21:58 17.11.2020
5369 Clouds 11 1028 98 10000 4.97 246 21:39 17.11.2020
5370 Clouds 11 1024 93 10000 0.89 293 20:55 17.11.2020
5371 Clouds 11 1024 94 10000 0.45 270 20:27 17.11.2020
5372 Clouds 11 1027 10 10000 5.32 244 19:59 17.11.2020
5373 Clouds 11 1026 90 10000 0.45 327 18:35 17.11.2020
5374 Clouds 11 1023 94 10000 0.89 293 17:47 17.11.2020
5375 Clouds 10 1027 99 10000 4.88 243 16:59 17.11.2020
5376 Clouds 10 1027 99 10000 4.54 239 16:20 17.11.2020
5377 Clouds 10 1023 94 10000 0.45 270 15:45 17.11.2020
5378 Clouds 10 1023 94 10000 0.45 293 15:27 17.11.2020
5379 Clouds 10 1023 95 10000 0.45 225 14:56 17.11.2020
5380 Clouds 10 1026 10 6050 4.93 236 14:28 17.11.2020
5381 Clouds 10 1022 95 6050 0.45 293 14:28 17.11.2020
5382 Clouds 10 1022 95 6050 0.89 270 13:38 17.11.2020
5383 Clouds 10 1022 95 10000 0.89 270 13:18 17.11.2020
5384 Clouds 10 1026 10 10000 5.12 234 12:40 17.11.2020
5385 Clouds 10 1026 10 9943 5.09 228 11:44 17.11.2020
5386 Rain 10 1026 99 10000 5.04 224 10:49 17.11.2020
5387 Rain 10 1025 98 10000 4.71 220 10:23 17.11.2020
5388 Clouds 10 1025 96 10000 4.71 220 09:50 17.11.2020
5389 Rain 10 1021 92 10000 1.34 293 09:27 17.11.2020
5390 Clouds 9 1025 94 10000 4.24 227 08:22 17.11.2020
5391 Clouds 9 1024 92 10000 4.24 227 07:44 17.11.2020
5392 Clouds 8 1019 10 10000 3.98 229 06:34 17.11.2020
5393 Clouds 7 1018 10 10000 3.88 238 03:31 17.11.2020
5394 Clouds 7 1021 93 10000 3.91 244 02:53 17.11.2020
5395 Clouds 8 1021 94 10000 4.54 244 01:25 17.11.2020
5396 Clouds 8 1020 95 10000 4.39 241 00:53 17.11.2020
5397 Clouds 9 1020 95 10000 1.79 246 23:48 16.11.2020
5398 Rain 9 1020 94 10000 2.68 254 23:29 16.11.2020
5399 Rain 9 1019 91 10000 4.68 249 22:47 16.11.2020
5400 Rain 9 1016 99 10000 4.58 258 22:20 16.11.2020
5401 Clouds 9 1019 91 10000 4.58 258 21:46 16.11.2020
5402 Rain 9 1018 92 6792 4.54 246 21:24 16.11.2020
5403 Clouds 9 1018 92 6792 4.54 246 20:38 16.11.2020
5404 Rain 9 1015 10 10000 0.45 270 20:20 16.11.2020
5405 Clouds 9 1018 91 10000 4.47 242 19:38 16.11.2020
5406 Clouds 9 1017 92 10000 4.16 244 19:19 16.11.2020
5407 Clouds 9 1017 91 10000 4.16 244 18:39 16.11.2020
5408 Clouds 9 1014 92 10000 4.63 242 17:50 16.11.2020
5409 Rain 9 1016 87 10000 4.91 245 17:21 16.11.2020
5410 Clouds 10 1016 87 10000 1.79 243 16:53 16.11.2020
5411 Rain 10 1015 86 10000 1.34 219 16:28 16.11.2020
5412 Rain 10 1014 86 10000 0.89 211 15:52 16.11.2020
5413 Clouds 10 1014 87 10000 0.45 213 15:31 16.11.2020
5414 Clouds 10 1014 90 10000 5.26 249 14:57 16.11.2020
5415 Clouds 9 1014 92 10000 6.01 245 14:28 16.11.2020
5416 Clouds 10 1013 92 10000 2.68 254 13:31 16.11.2020
5417 Clouds 10 1013 82 10000 4.92 190 12:33 16.11.2020
5418 Clouds 10 1012 79 10000 4.02 216 11:44 16.11.2020
5419 Clouds 10 1012 79 10000 2.68 221 11:25 16.11.2020
5420 Clouds 10 1012 81 10000 1.34 233 10:48 16.11.2020
5421 Clouds 9 1012 82 10000 5.75 228 10:26 16.11.2020
5422 Clouds 9 1011 83 10000 0.89 216 09:56 16.11.2020
5423 Clouds 9 1011 85 10000 5.75 228 09:37 16.11.2020
5424 Clouds 9 1010 85 10000 0.89 252 08:49 16.11.2020
5425 Clouds 9 1010 84 10000 1.34 223 08:27 16.11.2020
5426 Clouds 9 1009 81 10000 3.13 229 07:43 16.11.2020
5427 Clouds 9 1008 82 10000 5.35 219 06:47 16.11.2020
5428 Clouds 9 1008 82 10000 4.57 225 06:47 16.11.2020
5429 Clouds 9 1005 86 10000 4.45 219 05:50 16.11.2020
5430 Clouds 9 1007 80 10000 4.73 231 04:33 16.11.2020
5431 Clouds 11 1005 83 10000 0.89 225 01:47 16.11.2020
5432 Rain 11 1008 98 10000 5.54 233 01:21 16.11.2020
5433 Rain 12 1002 86 7052 5.96 209 23:43 15.11.2020
5434 Rain 12 1003 85 10000 7.18 197 23:21 15.11.2020
5435 Rain 12 1003 88 10000 7.18 197 22:39 15.11.2020
5436 Rain 12 1003 76 10000 2.24 270 22:18 15.11.2020
5437 Rain 12 1003 91 10000 5.71 189 21:41 15.11.2020
5438 Rain 12 1003 91 10000 5.54 186 21:20 15.11.2020
5439 Rain 11 1003 90 10000 5.54 186 20:41 15.11.2020
5440 Rain 12 1003 73 10000 1.34 270 20:18 15.11.2020
5441 Rain 12 1004 89 10000 5.33 182 19:47 15.11.2020
5442 Clouds 12 1004 89 10000 5.58 187 19:22 15.11.2020
5443 Clouds 12 1004 71 10000 1.34 270 18:56 15.11.2020
5444 Clouds 12 1005 91 10000 5.79 188 18:37 15.11.2020
5445 Clouds 12 1005 71 10000 1.79 293 18:19 15.11.2020
5446 Clouds 12 1005 88 10000 5.66 189 17:43 15.11.2020
5447 Clouds 12 1005 88 10000 5.7 184 17:23 15.11.2020
5448 Clouds 13 1005 88 10000 5.7 184 16:45 15.11.2020
5449 Clouds 13 1006 87 10000 5.66 182 16:20 15.11.2020
5450 Clouds 13 1010 90 10000 5.66 182 15:49 15.11.2020
5451 Clouds 13 1006 84 10000 5.58 188 15:26 15.11.2020
5452 Clouds 14 1007 73 10000 1.34 270 14:56 15.11.2020
5453 Clouds 14 1010 89 10000 5.59 195 14:29 15.11.2020
5454 Clouds 14 1008 74 10000 1.34 270 13:56 15.11.2020
5455 Clouds 14 1008 83 10000 5.59 195 13:36 15.11.2020
5456 Clouds 14 1008 84 10000 5.34 196 12:50 15.11.2020
5457 Clouds 13 1008 88 10000 5.33 196 12:22 15.11.2020
5458 Clouds 12 1009 75 10000 1.34 315 11:46 15.11.2020
5459 Clouds 12 1013 94 10000 4.46 194 11:19 15.11.2020
5460 Clouds 12 1010 89 10000 4.46 194 10:53 15.11.2020
5461 Clouds 12 1014 95 10000 4.46 194 10:32 15.11.2020
5462 Clouds 11 1010 88 10000 4.06 189 09:57 15.11.2020
5463 Clouds 11 1011 89 10000 4.06 189 09:37 15.11.2020
5464 Clouds 11 1011 79 10000 1.34 293 09:18 15.11.2020
5465 Clouds 11 1011 80 10000 1.34 270 08:45 15.11.2020
5466 Clouds 10 1011 82 10000 0.89 270 07:47 15.11.2020
5467 Clouds 10 1015 95 10000 3.2 191 06:49 15.11.2020
5468 Clouds 10 1011 95 10000 3.31 201 04:56 15.11.2020
5469 Clouds 11 1012 90 10000 3.77 205 02:31 15.11.2020
5470 Clouds 11 1012 94 10000 3.82 203 00:42 15.11.2020
5471 Clouds 10 1013 98 10000 3.77 201 00:24 15.11.2020
5472 Clouds 10 1017 96 10000 3.77 201 23:30 14.11.2020
5473 Clouds 10 1013 80 10000 1.79 270 22:46 14.11.2020
5474 Clouds 11 1013 97 10000 3.31 197 22:27 14.11.2020
5475 Clouds 11 1013 96 10000 3.31 197 21:40 14.11.2020
5476 Clouds 11 1013 97 10000 2.86 195 21:21 14.11.2020
5477 Clouds 11 1014 83 10000 0.45 270 20:48 14.11.2020
5478 Clouds 11 1014 82 10000 0.45 248 20:26 14.11.2020
5479 Clouds 11 1014 81 10000 0.89 270 19:46 14.11.2020
5480 Clouds 11 1014 96 10000 3.01 196 19:27 14.11.2020
5481 Clouds 11 1014 96 10000 2.76 198 18:43 14.11.2020
5482 Clouds 11 1014 96 10000 2.85 197 18:23 14.11.2020
5483 Clouds 11 1018 97 10000 2.85 197 17:49 14.11.2020
5484 Clouds 12 1018 96 10000 2.85 197 17:31 14.11.2020
5485 Clouds 12 1014 82 10000 0.45 293 16:56 14.11.2020
5486 Clouds 12 1014 93 10000 2.62 191 16:36 14.11.2020
5487 Clouds 13 1015 79 10000 0.89 270 16:18 14.11.2020
5488 Clouds 14 1014 87 10000 2.15 182 15:44 14.11.2020
5489 Clouds 14 1015 82 10000 0.45 293 15:18 14.11.2020
5490 Clouds 14 1014 83 10000 2.5 196 14:38 14.11.2020
5491 Clouds 14 1014 81 10000 2.67 207 14:20 14.11.2020
5492 Clouds 14 1015 87 10000 2.67 207 13:40 14.11.2020
5493 Clouds 14 1019 96 10000 2.66 209 13:22 14.11.2020
5494 Clouds 13 1015 93 10000 2.66 209 12:45 14.11.2020
5495 Clouds 13 1015 94 10000 3.33 227 12:27 14.11.2020
5496 Clouds 12 1015 10 10000 3.33 227 11:41 14.11.2020
5497 Clouds 12 1016 10 7440 3.59 223 11:22 14.11.2020
5498 Clouds 11 1016 10 7440 3.59 223 10:42 14.11.2020
5499 Clouds 11 1016 10 8239 3.01 217 10:23 14.11.2020
5500 Clouds 11 1017 92 8239 3.01 217 09:46 14.11.2020
5501 Clouds 11 1016 10 7674 2.89 217 09:28 14.11.2020
5502 Clouds 11 1017 92 7674 2.89 217 08:48 14.11.2020
5503 Clouds 10 1016 10 8589 2.98 218 08:26 14.11.2020
5504 Clouds 10 1015 10 8589 2.98 218 07:43 14.11.2020
5505 Clouds 10 1015 10 5614 2.72 208 07:22 14.11.2020
5506 Clouds 11 1020 10 5574 2.44 217 06:30 14.11.2020
5507 Clouds 11 1020 10 5279 2.34 222 05:29 14.11.2020
5508 Clouds 11 1020 10 8928 2.53 211 03:52 14.11.2020
5509 Clouds 11 1018 96 4994 2.74 222 00:54 14.11.2020
5510 Clouds 11 1016 91 5100 0.45 225 23:46 13.11.2020
5511 Rain 11 1020 10 6368 3.05 222 23:23 13.11.2020
5512 Clouds 11 1018 90 6368 3.05 222 22:44 13.11.2020
5513 Rain 11 1016 89 8893 0.45 270 22:25 13.11.2020
5514 Clouds 11 1019 10 8893 2.92 220 21:51 13.11.2020
5515 Clouds 10 1019 10 8893 2.92 220 21:33 13.11.2020
5516 Clouds 10 1019 10 10000 3 215 20:59 13.11.2020
5517 Clouds 10 1019 10 10000 3 215 20:40 13.11.2020
5518 Clouds 10 1019 10 10000 3.12 211 20:20 13.11.2020
5519 Clouds 10 1015 89 10000 3.12 211 19:45 13.11.2020
5520 Clouds 10 1019 10 10000 2.91 207 19:23 13.11.2020
5521 Clouds 10 1019 10 10000 2.91 207 18:53 13.11.2020
5522 Clouds 9 1019 10 10000 2.37 205 18:00 13.11.2020
5523 Clouds 9 1019 10 10000 2.37 205 17:39 13.11.2020
5524 Clouds 9 1015 88 10000 0.89 270 17:18 13.11.2020
5525 Clouds 9 1015 88 10000 0.89 270 16:47 13.11.2020
5526 Clouds 9 1019 96 10000 2.84 221 16:21 13.11.2020
5527 Clouds 10 1019 96 10000 2.84 221 15:42 13.11.2020
5528 Clouds 10 1015 86 10000 0.45 293 15:23 13.11.2020
5529 Clouds 10 1019 97 10000 3.19 223 14:41 13.11.2020
5530 Clouds 9 1019 98 10000 4.18 219 14:20 13.11.2020
5531 Clouds 10 1016 88 10000 0.89 293 13:45 13.11.2020
5532 Clouds 10 1020 98 10000 4.27 216 13:21 13.11.2020
5533 Clouds 10 1016 89 10000 0.45 293 12:45 13.11.2020
5534 Clouds 9 1021 98 10000 3.97 214 12:24 13.11.2020
5535 Clouds 9 1017 89 10000 1.79 293 11:48 13.11.2020
5536 Clouds 7 1017 89 10000 1.79 270 11:27 13.11.2020
5537 Clouds 7 1018 90 10000 0.89 270 10:55 13.11.2020
5538 Clouds 6 1021 95 10000 3.11 205 10:34 13.11.2020
5539 Clouds 6 1018 93 10000 0.89 293 09:56 13.11.2020
5540 Clouds 6 1018 94 10000 0.45 293 09:38 13.11.2020
5541 Clouds 6 1022 96 10000 1.86 188 09:19 13.11.2020
5542 Clouds 6 1018 95 10000 0.89 293 09:19 13.11.2020
5543 Clouds 5 1018 94 10000 0.89 270 08:36 13.11.2020
5544 Clouds 5 1018 95 10000 0.45 270 07:58 13.11.2020
5545 Clouds 5 1018 95 10000 0.45 293 07:40 13.11.2020
5546 Clouds 5 1022 90 10000 1.66 193 07:21 13.11.2020
5547 Clouds 5 1018 95 10000 1.64 193 06:48 13.11.2020
5548 Clouds 5 1022 92 10000 1.69 201 05:43 13.11.2020
5549 Clouds 5 1018 95 10000 1.69 201 05:43 13.11.2020
5550 Clouds 6 1022 91 10000 1.7 201 04:59 13.11.2020
5551 Clouds 7 1021 92 10000 1.94 215 01:45 13.11.2020
5552 Clouds 7 1019 91 10000 2.12 218 00:51 13.11.2020
5553 Clouds 8 1020 95 10000 2.12 218 00:31 13.11.2020
5554 Clouds 8 1019 91 10000 2.19 226 23:38 12.11.2020
5555 Clouds 9 1019 90 10000 0.45 293 23:19 12.11.2020
5556 Clouds 9 1019 90 10000 0.45 270 22:50 12.11.2020
5557 Clouds 9 1019 90 10000 2.3 232 22:30 12.11.2020
5558 Clouds 8 1018 91 10000 0.45 270 21:43 12.11.2020
5559 Clouds 9 1022 99 10000 2.94 235 21:24 12.11.2020
5560 Clouds 9 1018 90 10000 0.89 270 20:58 12.11.2020
5561 Clouds 9 1022 10 10000 2.94 235 20:39 12.11.2020
5562 Clouds 9 1022 99 10000 2.94 231 20:21 12.11.2020
5563 Clouds 9 1022 99 10000 2.94 231 20:21 12.11.2020
5564 Clouds 8 1018 93 10000 0.45 270 19:45 12.11.2020
5565 Clouds 8 1018 93 10000 0.45 270 19:45 12.11.2020
5566 Clouds 8 1018 92 10000 0.89 270 19:27 12.11.2020
5567 Clouds 8 1021 97 10000 3.16 226 18:49 12.11.2020
5568 Clouds 8 1022 96 10000 3.86 230 18:24 12.11.2020
5569 Clouds 8 1017 93 10000 3.86 230 17:46 12.11.2020
5570 Clouds 8 1017 92 10000 4.22 234 17:27 12.11.2020
5571 Clouds 8 1017 92 10000 0.45 293 16:47 12.11.2020
5572 Clouds 9 1017 92 10000 0.45 248 16:27 12.11.2020
5573 Clouds 9 1021 99 10000 3.71 233 15:59 12.11.2020
5574 Clouds 9 1021 99 10000 3.71 233 15:41 12.11.2020
5575 Rain 9 1021 98 10000 3.2 222 15:21 12.11.2020
5576 Clouds 9 1017 91 10000 0.45 293 14:46 12.11.2020
5577 Rain 9 1017 91 10000 3.92 221 14:25 12.11.2020
5578 Clouds 9 1017 88 10000 3.92 221 13:55 12.11.2020
5579 Clouds 9 1017 88 10000 0.89 270 13:36 12.11.2020
5580 Clouds 9 1017 87 10000 0.89 270 13:18 12.11.2020
5581 Clouds 9 1017 87 10000 1.79 270 12:42 12.11.2020
5582 Clouds 9 1017 87 10000 0.45 293 12:19 12.11.2020
5583 Clouds 8 1017 87 10000 0.89 293 11:46 12.11.2020
5584 Clouds 8 1017 87 10000 1.79 225 11:27 12.11.2020
5585 Clouds 7 1017 86 10000 1.34 270 10:41 12.11.2020
5586 Clouds 7 1017 86 10000 0.89 225 10:23 12.11.2020
5587 Clouds 7 1017 86 10000 1.34 270 09:47 12.11.2020
5588 Clouds 6 1019 96 8544 0.89 55 09:23 12.11.2020
5589 Clouds 7 1017 88 8544 1.79 293 08:57 12.11.2020
5590 Clouds 6 1016 89 8544 1.34 293 08:39 12.11.2020
5591 Clouds 6 1017 90 5135 1.79 270 08:19 12.11.2020
5592 Clouds 6 1017 91 5135 0.89 293 07:42 12.11.2020
5593 Clouds 6 1017 91 5464 0.45 225 07:19 12.11.2020
5594 Clouds 6 1017 92 10000 0.45 293 06:49 12.11.2020
5595 Clear 6 1017 10 10000 1.71 178 05:31 12.11.2020
5596 Clear 6 1018 10 10000 1.47 178 03:22 12.11.2020
5597 Clear 6 1018 10 10000 1.45 184 02:24 12.11.2020
5598 Clouds 8 1021 95 10000 1.35 182 23:59 11.11.2020
5599 Clouds 8 1021 95 10000 1.38 171 23:25 11.11.2020
5600 Clouds 8 1022 95 10000 1.38 171 22:59 11.11.2020
5601 Clouds 8 1022 94 10000 1.38 171 22:39 11.11.2020
5602 Clouds 8 1022 94 10000 1.34 166 22:21 11.11.2020
5603 Clouds 8 1022 94 10000 1.34 166 21:43 11.11.2020
5604 Clouds 8 1022 94 10000 1.18 162 21:25 11.11.2020
5605 Clouds 8 1022 93 10000 1.18 162 20:59 11.11.2020
5606 Clouds 8 1022 93 10000 1.18 162 20:40 11.11.2020
5607 Clouds 8 1022 93 10000 0.9 170 20:21 11.11.2020
5608 Clouds 8 1023 93 10000 0.9 170 19:49 11.11.2020
5609 Clouds 8 1023 93 10000 0.9 170 19:31 11.11.2020
5610 Clouds 8 1023 93 10000 0.74 194 18:54 11.11.2020
5611 Clouds 8 1023 93 10000 0.79 178 18:33 11.11.2020
5612 Clouds 8 1023 93 10000 0.8 182 17:43 11.11.2020
5613 Clouds 9 1023 93 10000 0.72 204 17:23 11.11.2020
5614 Clouds 9 1023 92 10000 0.72 204 16:55 11.11.2020
5615 Clouds 9 1023 92 10000 0.72 204 16:34 11.11.2020
5616 Clouds 9 1024 92 10000 0.78 211 15:53 11.11.2020
5617 Clouds 9 1024 92 10000 0.69 198 15:27 11.11.2020
5618 Clouds 9 1024 92 10000 0.69 198 15:00 11.11.2020
5619 Clouds 9 1023 91 10000 0.69 198 14:39 11.11.2020
5620 Clouds 9 1023 91 10000 0.53 176 14:18 11.11.2020
5621 Clouds 9 1024 92 10000 0.53 176 13:43 11.11.2020
5622 Clouds 8 1024 92 10000 0.38 207 12:55 11.11.2020
5623 Clouds 8 1025 92 10000 0.69 250 12:21 11.11.2020
5624 Clouds 7 1025 93 10000 1.34 143 11:51 11.11.2020
5625 Clouds 7 1025 93 10000 0.69 250 11:33 11.11.2020
5626 Clouds 7 1026 94 10000 1.04 256 10:45 11.11.2020
5627 Clouds 6 1026 95 10000 0.96 246 10:27 11.11.2020
5628 Clouds 6 1026 96 10000 0.96 246 09:55 11.11.2020
5629 Clouds 6 1026 96 10000 0.96 246 09:37 11.11.2020
5630 Clouds 6 1026 96 10000 0.96 238 09:19 11.11.2020
5631 Clouds 6 1026 96 10000 0.96 238 08:41 11.11.2020
5632 Clouds 5 1026 96 10000 0.86 242 08:22 11.11.2020
5633 Clouds 5 1025 96 10000 0.86 242 07:41 11.11.2020
5634 Clouds 5 1025 95 10000 0.88 251 06:30 11.11.2020
5635 Clouds 5 1026 94 10000 0.88 245 04:49 11.11.2020
5636 Clouds 4 1027 95 10000 0.84 232 01:37 11.11.2020
5637 Clouds 4 1027 95 10000 0.97 243 00:56 11.11.2020
5638 Clouds 4 1026 96 10000 0.52 224 00:22 11.11.2020
5639 Clouds 4 1026 96 10000 0.52 224 23:37 10.11.2020
5640 Clouds 4 1026 96 10000 0.81 213 23:18 10.11.2020
5641 Clouds 4 1027 97 10000 0.81 213 22:43 10.11.2020
5642 Clouds 4 1027 97 10000 0.45 143 22:24 10.11.2020
5643 Clouds 3 1027 97 10000 0.98 204 21:41 10.11.2020
5644 Clouds 3 1027 97 10000 0.96 191 21:23 10.11.2020
5645 Clouds 3 1026 97 10000 0.96 191 20:55 10.11.2020
5646 Clouds 3 1026 97 10000 0.96 191 20:37 10.11.2020
5647 Clouds 3 1026 97 10000 1.04 179 20:19 10.11.2020
5648 Clouds 3 1026 96 10000 0.45 293 19:42 10.11.2020
5649 Clouds 3 1026 96 10000 0.99 161 19:23 10.11.2020
5650 Clouds 3 1026 96 10000 0.69 172 18:43 10.11.2020
5651 Clouds 4 1025 96 10000 0.6 183 18:24 10.11.2020
5652 Clouds 4 1026 96 10000 0.6 183 17:57 10.11.2020
5653 Clouds 4 1025 96 10000 0.6 183 17:38 10.11.2020
5654 Clouds 4 1028 86 6000 4.6 120 17:20 10.11.2020
5655 Clouds 4 1027 93 10000 1.34 78 16:41 10.11.2020
5656 Mist 6 1027 86 5000 4.1 100 16:22 10.11.2020
5657 Clouds 5 1027 93 6000 3.1 120 15:48 10.11.2020
5658 Clouds 5 1027 86 5000 3.6 130 15:27 10.11.2020
5659 Clouds 5 1027 86 6000 3.6 120 14:56 10.11.2020
5660 Clouds 5 1028 86 6000 3.6 120 14:37 10.11.2020
5661 Clouds 5 1028 86 6000 3.6 120 14:37 10.11.2020
5662 Mist 5 1027 86 5000 3.6 140 14:18 10.11.2020
5663 Clear 7 1030 93 10000 0.47 195 13:38 10.11.2020
5664 Clear 7 1030 93 10000 0.61 181 13:19 10.11.2020
5665 Clouds 7 1030 93 10000 0.58 204 12:46 10.11.2020
5666 Clouds 7 1030 92 10000 0.59 188 12:25 10.11.2020
5667 Clouds 7 1030 92 10000 0.59 188 11:43 10.11.2020
5668 Clouds 7 1030 91 10000 0.8 179 11:22 10.11.2020
5669 Clouds 6 1030 93 10000 0.8 179 10:57 10.11.2020
5670 Clouds 6 1030 93 10000 0.8 179 10:38 10.11.2020
5671 Clouds 5 1030 93 10000 0.78 170 10:20 10.11.2020
5672 Clouds 5 1026 94 10000 3.13 153 09:45 10.11.2020
5673 Clouds 4 1028 94 10000 0.89 77 09:25 10.11.2020
5674 Clouds 4 1028 94 10000 0.45 80 08:55 10.11.2020
5675 Clear 1 1026 97 10000 0.9 162 08:27 10.11.2020
5676 Clear 3 1025 97 10000 0.9 162 07:45 10.11.2020
5677 Clouds 1 1025 97 10000 1.01 162 07:24 10.11.2020
5678 Clouds 2 1025 97 10000 0.85 178 06:41 10.11.2020
5679 Clouds 3 1025 97 10000 0.97 179 05:44 10.11.2020
5680 Clear 3 1025 97 10000 0.81 164 04:59 10.11.2020
5681 Clear 4 1025 96 10000 0.9 169 02:37 10.11.2020
5682 Clear 4 1029 95 10000 0.97 171 01:31 10.11.2020
5683 Clear 5 1029 95 10000 1 169 00:22 10.11.2020
5684 Clear 4 1025 96 10000 1 169 23:36 09.11.2020
5685 Clouds 5 1028 95 10000 1.12 170 22:49 09.11.2020
5686 Clouds 5 1027 92 10000 0.89 39 22:25 09.11.2020
5687 Clouds 5 1028 95 10000 1.24 164 21:59 09.11.2020
5688 Clouds 4 1024 96 10000 1.24 164 21:38 09.11.2020
5689 Clouds 5 1028 93 10000 1.34 166 21:19 09.11.2020
5690 Clouds 5 1028 93 10000 1.34 166 20:39 09.11.2020
5691 Clouds 5 1028 90 10000 1.33 151 20:20 09.11.2020
5692 Clouds 6 1028 89 10000 1.33 151 19:42 09.11.2020
5693 Clouds 6 1028 89 10000 1.35 144 19:22 09.11.2020
5694 Clouds 7 1027 89 10000 1.35 144 18:42 09.11.2020
5695 Clouds 7 1027 88 10000 1.23 139 18:21 09.11.2020
5696 Clouds 7 1026 88 10000 0.45 83 17:57 09.11.2020
5697 Clouds 7 1026 87 10000 1.23 139 17:38 09.11.2020
5698 Clouds 8 1027 92 10000 0.98 127 17:20 09.11.2020
5699 Clouds 8 1025 85 10000 0.45 322 16:37 09.11.2020
5700 Clouds 9 1025 92 10000 1.79 135 16:18 09.11.2020
5701 Clouds 9 1025 92 10000 2.24 85 15:42 09.11.2020
5702 Clouds 10 1026 88 10000 0.86 142 15:23 09.11.2020
5703 Clouds 10 1026 87 10000 0.86 142 14:44 09.11.2020
5704 Clouds 11 1025 81 10000 0.45 48 14:26 09.11.2020
5705 Clouds 11 1025 82 10000 0.45 51 13:48 09.11.2020
5706 Clouds 11 1026 84 10000 0.94 125 13:21 09.11.2020
5707 Clouds 11 1027 92 10000 0.88 124 12:50 09.11.2020
5708 Clouds 11 1027 91 10000 0.8 115 12:26 09.11.2020
5709 Clouds 9 1023 81 10000 0.8 115 11:57 09.11.2020
5710 Clouds 9 1027 91 10000 0.8 115 11:39 09.11.2020
5711 Clouds 9 1027 91 10000 0.76 144 11:20 09.11.2020
5712 Clouds 9 1027 91 10000 0.76 144 10:42 09.11.2020
5713 Clouds 9 1027 92 10000 0.88 149 10:23 09.11.2020
5714 Clouds 7 1027 91 10000 0.88 149 09:45 09.11.2020
5715 Clouds 7 1027 91 10000 0.9 147 09:24 09.11.2020
5716 Clouds 7 1027 87 10000 0.9 147 08:44 09.11.2020
5717 Clouds 4 1027 86 10000 0.82 140 08:21 09.11.2020
5718 Clouds 7 1027 88 10000 0.82 140 07:41 09.11.2020
5719 Clouds 7 1027 88 10000 0.82 140 07:41 09.11.2020
5720 Clouds 7 1027 87 10000 0.67 122 07:21 09.11.2020
5721 Clouds 6 1027 86 10000 0.9 147 06:42 09.11.2020
5722 Clouds 6 1023 85 10000 0.54 153 03:32 09.11.2020
5723 Clouds 6 1023 84 10000 0.63 162 01:55 09.11.2020
5724 Clouds 6 1023 84 10000 0.63 162 01:37 09.11.2020
5725 Clouds 8 1023 76 10000 2.68 28 23:55 08.11.2020
5726 Clouds 8 1023 76 10000 2.68 43 23:37 08.11.2020
5727 Clouds 8 1023 76 10000 2.68 31 23:18 08.11.2020
5728 Clouds 8 1023 77 10000 2.68 44 22:41 08.11.2020
5729 Clouds 8 1027 90 10000 0.66 174 22:20 08.11.2020
5730 Clouds 8 1023 77 10000 2.68 37 21:42 08.11.2020
5731 Clouds 8 1023 77 10000 4.47 39 21:20 08.11.2020
5732 Clouds 8 1022 88 10000 0.63 164 20:55 08.11.2020
5733 Clouds 8 1023 77 10000 1.79 38 20:36 08.11.2020
5734 Clouds 8 1022 89 10000 0.74 183 20:18 08.11.2020
5735 Clouds 8 1023 80 10000 1.79 36 19:42 08.11.2020
5736 Clouds 9 1023 79 10000 1.79 38 19:21 08.11.2020
5737 Clouds 9 1023 79 10000 1.79 38 18:48 08.11.2020
5738 Clouds 9 1022 85 10000 0.96 163 18:22 08.11.2020
5739 Clouds 9 1023 78 10000 1.79 36 17:58 08.11.2020
5740 Clouds 10 1022 78 10000 0.96 163 17:39 08.11.2020
5741 Clouds 10 1025 88 10000 1.04 164 17:20 08.11.2020
5742 Clouds 11 1022 76 10000 0.89 49 16:56 08.11.2020
5743 Clouds 11 1022 70 10000 1.04 164 16:37 08.11.2020
5744 Clear 12 1023 70 10000 1.02 164 16:18 08.11.2020
5745 Clear 12 1025 87 10000 1.02 164 15:43 08.11.2020
5746 Clear 14 1023 56 10000 0.76 137 15:23 08.11.2020
5747 Clear 14 1023 53 10000 0.45 211 14:42 08.11.2020
5748 Clear 14 1025 83 10000 0.65 120 14:22 08.11.2020
5749 Clear 13 1023 54 10000 0.65 120 13:47 08.11.2020
5750 Clear 13 1023 55 10000 0.43 149 13:24 08.11.2020
5751 Clear 13 1023 58 10000 0.89 270 12:47 08.11.2020
5752 Clear 12 1024 58 10000 0.44 188 12:29 08.11.2020
5753 Clear 12 1024 63 10000 0.45 35 11:58 08.11.2020
5754 Clear 12 1023 65 10000 0.89 270 11:40 08.11.2020
5755 Clear 10 1024 75 10000 0.74 201 11:21 08.11.2020
5756 Clear 9 1024 83 10000 0.74 201 10:50 08.11.2020
5757 Clear 9 1024 85 10000 1.09 185 10:20 08.11.2020
5758 Clear 8 1023 88 10000 1.09 185 09:59 08.11.2020
5759 Clear 8 1023 89 10000 1.09 185 09:40 08.11.2020
5760 Clear 7 1023 89 10000 1.13 161 09:18 08.11.2020
5761 Clear 6 1027 84 10000 1.13 161 08:40 08.11.2020
5762 Clear 6 1023 88 10000 0.93 164 08:20 08.11.2020
5763 Clear 6 1023 89 10000 3.58 36 07:52 08.11.2020
5764 Clear 6 1023 91 10000 0.89 40 07:29 08.11.2020
5765 Clear 6 1020 79 10000 0.77 158 06:24 08.11.2020
5766 Clear 6 1023 84 10000 0.45 286 05:53 08.11.2020
5767 Clear 6 1021 82 10000 0.77 144 04:50 08.11.2020
5768 Clear 6 1021 80 10000 0.63 168 01:54 08.11.2020
5769 Clouds 6 1021 80 10000 0.51 177 01:19 08.11.2020
5770 Clouds 7 1023 87 10000 0.61 201 00:30 08.11.2020
5771 Clouds 7 1021 79 10000 0.61 201 23:47 07.11.2020
5772 Clouds 7 1027 85 10000 0.76 187 23:29 07.11.2020
5773 Clouds 7 1021 80 10000 0.76 187 22:47 07.11.2020
5774 Clear 7 1023 85 10000 0.65 185 22:27 07.11.2020
5775 Clear 7 1023 84 10000 0.65 185 21:56 07.11.2020
5776 Clear 7 1021 78 10000 0.65 185 21:38 07.11.2020
5777 Clear 7 1022 77 10000 0.6 206 21:18 07.11.2020
5778 Clear 7 1022 81 10000 0.6 206 20:44 07.11.2020
5779 Clear 7 1023 82 10000 0.8 205 20:25 07.11.2020
5780 Clear 8 1023 80 10000 0.8 205 19:45 07.11.2020
5781 Clear 8 1023 76 10000 0.88 191 19:27 07.11.2020
5782 Clear 8 1022 79 10000 0.88 191 18:43 07.11.2020
5783 Clear 8 1022 80 10000 0.86 205 18:25 07.11.2020
5784 Clear 9 1023 71 10000 0.86 205 17:48 07.11.2020
5785 Clear 9 1027 86 10000 0.9 200 17:29 07.11.2020
5786 Clear 10 1023 66 10000 0.9 200 16:46 07.11.2020
5787 Clear 10 1023 62 10000 0.45 293 16:26 07.11.2020
5788 Clear 11 1026 72 10000 0.9 200 15:58 07.11.2020
5789 Clear 11 1027 85 10000 0.9 200 15:39 07.11.2020
5790 Clear 12 1022 60 10000 0.92 210 15:19 07.11.2020
5791 Clear 12 1023 59 10000 0.92 210 14:41 07.11.2020
5792 Clear 12 1023 59 10000 0.92 210 14:41 07.11.2020
5793 Clear 12 1023 59 10000 0.92 210 14:41 07.11.2020
5794 Clear 12 1023 58 10000 0.45 270 14:21 07.11.2020
5795 Clear 12 1023 58 10000 1.11 206 13:50 07.11.2020
5796 Clear 11 1028 84 10000 1.38 194 13:29 07.11.2020
5797 Clear 11 1024 60 10000 1.38 194 12:42 07.11.2020
5798 Clear 10 1024 69 10000 1.48 208 12:19 07.11.2020
5799 Clear 9 1024 75 10000 1.48 208 11:41 07.11.2020
5800 Clear 9 1024 76 10000 1.65 206 11:22 07.11.2020
5801 Clear 7 1025 67 10000 0.89 270 10:45 07.11.2020
5802 Clear 7 1025 67 10000 1.79 270 10:25 07.11.2020
5803 Clear 6 1025 80 10000 1.73 195 09:49 07.11.2020
5804 Clear 6 1025 70 10000 1.34 270 09:26 07.11.2020
5805 Clear 4 1030 90 10000 1.87 184 08:53 07.11.2020
5806 Clear 5 1030 90 10000 1.87 184 08:34 07.11.2020
5807 Clear 4 1031 91 10000 1.92 183 07:49 07.11.2020
5808 Clear 4 1026 77 10000 0.45 270 07:18 07.11.2020
5809 Clear 4 1026 73 10000 0.45 270 06:47 07.11.2020
5810 Clear 4 1031 92 10000 1.66 168 05:23 07.11.2020
5811 Clear 4 1031 94 10000 1.71 157 03:23 07.11.2020
5812 Clear 6 1030 92 10000 1.79 149 01:28 07.11.2020
5813 Clear 6 1032 86 10000 1.79 149 00:43 07.11.2020
5814 Clear 4 1032 93 10000 1.83 142 23:50 06.11.2020
5815 Clear 6 1033 91 10000 1.71 143 23:20 06.11.2020
5816 Clear 5 1033 90 10000 1.71 143 22:41 06.11.2020
5817 Clear 5 1033 90 10000 1.67 143 22:19 06.11.2020
5818 Clear 6 1030 96 10000 1.67 143 21:46 06.11.2020
5819 Clear 6 1034 89 10000 1.67 128 21:21 06.11.2020
5820 Clear 6 1030 95 10000 1.67 128 20:56 06.11.2020
5821 Clear 6 1030 95 10000 1.67 128 20:38 06.11.2020
5822 Clear 6 1030 95 10000 1.59 114 20:18 06.11.2020
5823 Clear 7 1032 94 10000 0.89 185 19:44 06.11.2020
5824 Clouds 7 1030 94 10000 1.47 114 19:26 06.11.2020
5825 Clouds 8 1030 95 10000 1.47 114 18:45 06.11.2020
5826 Clouds 8 1034 92 10000 1.23 105 18:23 06.11.2020
5827 Clouds 9 1034 91 10000 1.23 105 17:51 06.11.2020
5828 Clouds 9 1031 91 10000 1.03 105 17:26 06.11.2020
5829 Clouds 9 1034 92 10000 1.03 105 16:50 06.11.2020
5830 Clouds 10 1034 91 10000 1.03 105 16:31 06.11.2020
5831 Clouds 10 1034 89 10000 0.82 111 15:53 06.11.2020
5832 Clouds 11 1035 90 10000 0.82 111 15:33 06.11.2020
5833 Clouds 11 1035 89 10000 0.9 99 14:54 06.11.2020
5834 Clouds 11 1032 84 10000 0.75 90 14:27 06.11.2020
5835 Clouds 10 1036 88 10000 0.75 90 13:49 06.11.2020
5836 Clouds 10 1036 90 10000 0.63 104 13:25 06.11.2020
5837 Clouds 10 1033 84 10000 0.49 140 12:47 06.11.2020
5838 Clouds 9 1037 93 10000 0.51 155 12:25 06.11.2020
5839 Clouds 9 1037 93 10000 0.51 155 11:59 06.11.2020
5840 Clouds 9 1034 89 10000 0.51 155 11:36 06.11.2020
5841 Clouds 9 1038 91 10000 0.17 142 10:51 06.11.2020
5842 Clouds 9 1038 92 10000 0.17 142 10:30 06.11.2020
5843 Clouds 8 1038 92 10000 0.07 281 09:50 06.11.2020
5844 Clouds 8 1034 94 10000 0.49 284 09:27 06.11.2020
5845 Clouds 7 1034 95 10000 0.49 284 08:58 06.11.2020
5846 Clouds 7 1038 91 10000 0.49 284 08:40 06.11.2020
5847 Clouds 6 1034 95 10000 0.79 272 08:18 06.11.2020
5848 Clouds 7 1038 92 10000 0.79 272 07:40 06.11.2020
5849 Clouds 7 1034 95 10000 0.85 286 07:18 06.11.2020
5850 Clouds 6 1038 92 10000 0.79 289 06:39 06.11.2020
5851 Clouds 6 1034 94 10000 0.96 299 05:36 06.11.2020
5852 Clouds 6 1035 97 10000 1.43 247 01:56 06.11.2020
5853 Clouds 6 1036 96 10000 1.43 243 00:24 06.11.2020
5854 Clouds 6 1039 88 10000 1.43 243 23:50 05.11.2020
5855 Clouds 6 1039 90 10000 1.41 244 23:20 05.11.2020
5856 Clouds 6 1036 97 10000 1.41 244 22:44 05.11.2020
5857 Clouds 6 1039 89 10000 1.32 257 22:25 05.11.2020
5858 Clouds 6 1036 97 10000 1.32 257 21:56 05.11.2020
5859 Clouds 6 1036 97 10000 1.32 257 21:38 05.11.2020
5860 Clouds 6 1036 97 10000 1.5 265 21:18 05.11.2020
5861 Clouds 6 1036 96 10000 1.5 265 20:42 05.11.2020
5862 Clouds 6 1036 96 10000 1.52 259 20:21 05.11.2020
5863 Clouds 5 1036 96 10000 1.52 259 19:44 05.11.2020
5864 Clouds 6 1036 96 10000 1.4 260 19:26 05.11.2020
5865 Clouds 6 1036 96 10000 1.19 256 18:56 05.11.2020
5866 Clouds 5 1036 96 10000 1.19 256 18:38 05.11.2020
5867 Clouds 5 1036 96 10000 1.36 260 18:20 05.11.2020
5868 Clouds 5 1036 96 10000 0.45 53 17:42 05.11.2020
5869 Clouds 5 1036 96 10000 1.63 271 17:23 05.11.2020
5870 Clouds 5 1036 96 10000 1.63 271 16:46 05.11.2020
5871 Clouds 5 1035 92 10000 1.87 269 16:26 05.11.2020
5872 Clouds 7 1036 97 10000 1.87 269 15:51 05.11.2020
5873 Clouds 7 1036 97 10000 2.48 270 15:27 05.11.2020
5874 Clouds 7 1036 97 10000 2.48 270 14:55 05.11.2020
5875 Clouds 10 1036 78 10000 1.34 255 14:36 05.11.2020
5876 Clear 8 1034 83 10000 1.79 265 14:18 05.11.2020
5877 Clear 9 1040 92 10000 2.68 265 13:40 05.11.2020
5878 Clouds 9 1038 77 10000 1.79 235 12:56 05.11.2020
5879 Clouds 10 1038 78 10000 2.24 283 12:37 05.11.2020
5880 Clear 10 1041 93 10000 2.1 274 12:19 05.11.2020
5881 Clear 9 1041 93 10000 2.1 274 11:41 05.11.2020
5882 Clouds 7 1038 97 10000 1.87 266 11:22 05.11.2020
5883 Clouds 6 1038 97 10000 1.87 266 10:48 05.11.2020
5884 Clouds 5 1038 97 10000 1.79 247 10:26 05.11.2020
5885 Clouds 5 1037 97 10000 1.79 247 09:49 05.11.2020
5886 Clear 4 1037 97 10000 1.36 247 09:24 05.11.2020
5887 Clear 4 1037 97 10000 1.36 247 08:49 05.11.2020
5888 Clear 4 1041 84 10000 1.36 247 08:31 05.11.2020
5889 Clear 4 1036 96 10000 0.45 270 07:55 05.11.2020
5890 Clear 3 1037 97 10000 1.34 247 07:27 05.11.2020
5891 Clear 3 1036 97 10000 1.27 260 06:43 05.11.2020
5892 Clear 3 1036 97 10000 1.33 243 05:59 05.11.2020
5893 Clear 3 1036 96 10000 1.47 271 03:27 05.11.2020
5894 Clouds 4 1035 95 10000 0.45 34 00:37 05.11.2020
5895 Clouds 3 1035 94 10000 1.32 253 23:53 04.11.2020
5896 Clouds 3 1035 94 10000 1.33 253 23:27 04.11.2020
5897 Clouds 4 1035 94 10000 1.33 253 22:57 04.11.2020
5898 Clouds 4 1035 94 10000 1.33 253 22:38 04.11.2020
5899 Clouds 4 1035 93 10000 1.44 266 22:19 04.11.2020
5900 Clouds 4 1034 93 10000 1.44 266 21:46 04.11.2020
5901 Clouds 5 1034 93 10000 1.28 260 21:27 04.11.2020
5902 Clouds 5 1034 92 10000 1.28 260 20:53 04.11.2020
5903 Clouds 5 1034 92 10000 1.28 260 20:35 04.11.2020
5904 Clouds 6 1033 90 10000 1.35 271 19:58 04.11.2020
5905 Clouds 6 1033 90 10000 1.35 271 19:40 04.11.2020
5906 Clear 5 1033 90 10000 1.58 287 19:21 04.11.2020
5907 Clear 6 1032 85 10000 1.58 287 18:40 04.11.2020
5908 Clear 7 1032 84 10000 1.56 283 18:22 04.11.2020
5909 Clear 7 1031 82 10000 1.56 283 17:46 04.11.2020
5910 Clear 8 1031 80 10000 1.58 275 17:26 04.11.2020
5911 Clear 8 1031 79 10000 1.58 275 16:46 04.11.2020
5912 Clear 9 1031 76 10000 1.83 273 16:27 04.11.2020
5913 Clear 10 1031 71 10000 2.24 254 15:59 04.11.2020
5914 Clear 10 1034 77 10000 1.83 273 15:40 04.11.2020
5915 Clear 10 1030 74 10000 0.45 267 15:20 04.11.2020
5916 Clear 11 1030 72 10000 2.68 250 14:44 04.11.2020
5917 Clear 11 1030 71 10000 3.58 230 14:24 04.11.2020
5918 Clear 10 1030 74 10000 2.24 246 13:51 04.11.2020
5919 Clear 10 1030 75 10000 0.45 277 13:21 04.11.2020
5920 Clear 10 1030 78 10000 1.34 264 12:58 04.11.2020
5921 Clear 10 1030 79 10000 1.79 256 12:40 04.11.2020
5922 Clouds 10 1030 79 10000 1.79 256 12:40 04.11.2020
5923 Clouds 10 1030 78 10000 2.24 249 12:21 04.11.2020
5924 Clouds 9 1030 83 10000 1.34 254 11:44 04.11.2020
5925 Clouds 9 1030 84 10000 0.89 258 11:21 04.11.2020
5926 Clouds 8 1029 84 10000 0.89 298 10:49 04.11.2020
5927 Clouds 8 1029 84 10000 0.89 265 10:24 04.11.2020
5928 Clouds 8 1029 86 10000 0.89 288 09:55 04.11.2020
5929 Clouds 6 1029 88 10000 0.45 295 09:28 04.11.2020
5930 Clouds 7 1028 90 10000 0.89 293 08:49 04.11.2020
5931 Clouds 5 1028 91 10000 0.89 308 08:23 04.11.2020
5932 Clouds 5 1028 92 10000 2.82 249 07:57 04.11.2020
5933 Clouds 5 1027 91 10000 2.82 249 07:31 04.11.2020
5934 Clouds 6 1026 83 10000 0.89 270 06:59 04.11.2020
5935 Clouds 6 1026 83 10000 0.89 270 06:39 04.11.2020
5936 Clouds 6 1026 83 10000 0.89 270 06:39 04.11.2020
5937 Clouds 6 1026 89 10000 3.03 247 04:59 04.11.2020
5938 Clouds 7 1024 81 10000 0.89 270 02:31 04.11.2020
5939 Clouds 7 1024 87 10000 2.95 237 01:38 04.11.2020
5940 Clouds 7 1023 88 10000 2.28 246 23:59 03.11.2020
5941 Clouds 8 1023 88 10000 3.22 255 23:26 03.11.2020
5942 Clouds 8 1022 80 10000 0.45 270 22:55 03.11.2020
5943 Clouds 8 1023 87 10000 3.22 255 22:37 03.11.2020
5944 Clouds 9 1023 89 10000 4.36 250 22:18 03.11.2020
5945 Clouds 9 1023 86 10000 0.45 257 21:41 03.11.2020
5946 Clouds 9 1023 86 10000 0.45 257 21:23 03.11.2020
5947 Clouds 10 1025 82 10000 4.27 237 20:49 03.11.2020
5948 Clouds 9 1022 79 10000 3.54 228 20:27 03.11.2020
5949 Clouds 9 1021 79 10000 3.54 228 19:55 03.11.2020
5950 Clouds 9 1021 78 10000 3.54 228 19:37 03.11.2020
5951 Clouds 10 1021 77 10000 3.71 226 19:19 03.11.2020
5952 Clouds 9 1021 79 10000 3.71 226 18:41 03.11.2020
5953 Clouds 9 1021 78 10000 3.45 215 18:19 03.11.2020
5954 Clouds 9 1021 79 10000 3.45 215 17:46 03.11.2020
5955 Clouds 10 1021 75 10000 3.08 216 17:27 03.11.2020
5956 Clouds 10 1021 73 10000 3.08 216 16:51 03.11.2020
5957 Clouds 11 1020 72 10000 3.08 216 16:31 03.11.2020
5958 Clouds 11 1021 71 10000 2.59 219 15:55 03.11.2020
5959 Clouds 11 1021 71 10000 2.59 219 15:37 03.11.2020
5960 Clouds 11 1020 67 10000 0.45 270 15:18 03.11.2020
5961 Clouds 11 1021 70 10000 3.04 223 14:41 03.11.2020
5962 Clouds 12 1018 70 10000 3.03 229 14:23 03.11.2020
5963 Clouds 12 1021 68 10000 3.03 229 13:41 03.11.2020
5964 Clouds 11 1021 70 10000 2.9 231 13:21 03.11.2020
5965 Clouds 12 1021 64 10000 0.89 270 12:45 03.11.2020
5966 Clouds 12 1021 75 10000 3.01 241 12:24 03.11.2020
5967 Clouds 11 1022 75 10000 3.01 241 11:47 03.11.2020
5968 Clouds 11 1022 76 10000 3.07 243 11:26 03.11.2020
5969 Clouds 10 1022 79 10000 0.89 245 10:59 03.11.2020
5970 Clouds 11 1019 84 10000 3.07 243 10:38 03.11.2020
5971 Clouds 10 1019 85 10000 3.58 250 10:18 03.11.2020
5972 Clouds 9 1020 79 10000 1.79 270 09:45 03.11.2020
5973 Clouds 9 1018 90 10000 3.85 251 09:24 03.11.2020
5974 Clouds 9 1021 86 10000 3.85 251 08:49 03.11.2020
5975 Rain 9 1021 87 10000 0.89 250 08:30 03.11.2020
5976 Rain 9 1021 87 10000 3.31 244 07:41 03.11.2020
5977 Clouds 9 1019 79 10000 1.34 225 07:19 03.11.2020
5978 Clouds 9 1020 87 10000 0.45 251 06:22 03.11.2020
5979 Clouds 10 1018 79 10000 0.89 293 04:37 03.11.2020
5980 Clouds 11 1016 94 10000 5.83 271 00:46 03.11.2020
5981 Clouds 11 1015 94 10000 5.95 276 00:24 03.11.2020
5982 Clouds 12 1015 93 10000 5.95 276 23:46 02.11.2020
5983 Rain 12 1015 93 10000 5.41 278 23:28 02.11.2020
5984 Rain 13 1014 92 10000 6.71 279 22:44 02.11.2020
5985 Rain 14 1013 88 10000 0.89 225 22:25 02.11.2020
5986 Rain 16 1012 88 10000 3.13 318 21:56 02.11.2020
5987 Clouds 16 1008 84 10000 6.26 259 21:36 02.11.2020
5988 Clouds 17 1011 78 10000 1.34 233 21:18 02.11.2020
5989 Clouds 18 1007 80 10000 6.23 230 20:38 02.11.2020
5990 Clouds 18 1011 78 10000 6.3 226 20:19 02.11.2020
5991 Clouds 19 1012 86 10000 6.3 226 19:44 02.11.2020
5992 Clouds 19 1009 74 10000 2.24 248 19:25 02.11.2020
5993 Clouds 18 1007 79 10000 5.81 226 18:43 02.11.2020
5994 Clouds 18 1007 79 10000 5.91 226 18:43 02.11.2020
5995 Clouds 19 1008 64 10000 5.1 220 18:22 02.11.2020
5996 Clouds 18 1007 79 10000 5.63 223 17:59 02.11.2020
5997 Clouds 18 1007 79 10000 5.63 223 17:40 02.11.2020
5998 Clouds 18 1009 86 10000 1.34 204 17:20 02.11.2020
5999 Clouds 18 1009 86 10000 1.79 191 16:48 02.11.2020
6000 Clouds 19 1010 86 10000 5.99 236 16:24 02.11.2020
6001 Clouds 19 1008 74 10000 2.24 270 15:46 02.11.2020
6002 Clouds 19 1006 80 10000 7 233 15:25 02.11.2020
6003 Clouds 19 1008 75 10000 2.24 270 14:59 02.11.2020
6004 Clouds 19 1008 75 10000 2.24 270 14:40 02.11.2020
6005 Clouds 19 1009 76 10000 4.02 236 14:18 02.11.2020
6006 Clouds 19 1010 78 10000 3.58 251 13:44 02.11.2020
6007 Clouds 19 1010 78 10000 3.58 251 13:21 02.11.2020
6008 Clouds 18 1010 79 10000 2.68 234 12:42 02.11.2020
6009 Clouds 18 1010 82 10000 2.68 217 12:21 02.11.2020
6010 Clouds 18 1008 81 10000 1.79 270 11:45 02.11.2020
6011 Clouds 18 1010 81 10000 4.92 209 11:20 02.11.2020
6012 Clouds 18 1008 81 10000 2.68 270 10:45 02.11.2020
6013 Clouds 17 1006 91 10000 0.45 224 10:24 02.11.2020
6014 Clouds 16 1010 96 10000 6.97 234 09:55 02.11.2020
6015 Clouds 16 1008 87 10000 1.79 270 09:26 02.11.2020
6016 Clouds 16 1010 96 10000 6.62 233 08:46 02.11.2020
6017 Clouds 16 1008 87 10000 1.79 270 08:28 02.11.2020
6018 Clouds 16 1010 96 10000 6.67 228 07:55 02.11.2020
6019 Clouds 16 1009 96 10000 6.67 228 07:32 02.11.2020
6020 Clouds 15 1009 96 10000 5.67 221 06:44 02.11.2020
6021 Clouds 15 1007 90 7901 1.79 270 04:56 02.11.2020
6022 Clouds 15 1010 94 10000 4.79 221 01:26 02.11.2020
6023 Clouds 15 1011 93 10000 4.76 220 00:37 02.11.2020
6024 Clouds 15 1010 93 10000 4.82 218 23:56 01.11.2020
6025 Rain 15 1010 93 10000 4.82 218 23:37 01.11.2020
6026 Rain 15 1011 92 10000 4.93 225 23:19 01.11.2020
6027 Clouds 15 1011 92 10000 4.93 225 22:41 01.11.2020
6028 Clouds 15 1011 92 10000 5.6 225 22:18 01.11.2020
6029 Clouds 15 1011 92 10000 5.6 225 21:41 01.11.2020
6030 Clouds 15 1008 96 10000 1.34 311 21:23 01.11.2020
6031 Clouds 15 1011 93 10000 5 223 20:46 01.11.2020
6032 Rain 15 1011 93 9880 5.18 221 20:25 01.11.2020
6033 Clouds 15 1011 94 9880 5.18 221 19:46 01.11.2020
6034 Rain 14 1009 89 8163 0.89 293 19:28 01.11.2020
6035 Clouds 14 1009 89 8163 1.34 270 18:57 01.11.2020
6036 Clouds 14 1008 97 8163 0.45 254 18:38 01.11.2020
6037 Rain 14 1009 90 10000 1.34 270 18:19 01.11.2020
6038 Rain 14 1009 90 10000 1.34 270 18:19 01.11.2020
6039 Clouds 14 1011 94 10000 4.92 213 17:45 01.11.2020
6040 Rain 14 1011 93 10000 5.02 211 17:27 01.11.2020
6041 Clouds 14 1011 92 10000 5.02 211 16:45 01.11.2020
6042 Clouds 14 1011 92 10000 5.4 215 16:26 01.11.2020
6043 Clouds 14 1011 91 10000 5.4 215 15:58 01.11.2020
6044 Clouds 14 1011 91 10000 5.4 215 15:38 01.11.2020
6045 Clouds 14 1010 84 10000 1.34 270 15:19 01.11.2020
6046 Clouds 14 1012 91 10000 5.29 219 14:46 01.11.2020
6047 Clouds 14 1012 91 10000 5 212 14:22 01.11.2020
6048 Clouds 14 1012 91 10000 5 212 13:57 01.11.2020
6049 Clouds 14 1011 83 10000 2.24 270 13:39 01.11.2020
6050 Rain 14 1010 10 10000 3.82 203 13:20 01.11.2020
6051 Clouds 13 1013 94 10000 3.8 204 12:40 01.11.2020
6052 Rain 13 1010 10 10000 4.08 208 12:18 01.11.2020
6053 Clouds 13 1011 10 10000 4.08 208 11:48 01.11.2020
6054 Rain 12 1013 97 10000 3.73 209 11:18 01.11.2020
6055 Clouds 12 1014 97 10000 3.73 209 10:42 01.11.2020
6056 Clouds 12 1014 98 10000 3.99 211 10:24 01.11.2020
6057 Clouds 12 1014 97 10000 3.99 211 09:49 01.11.2020
6058 Rain 12 1014 97 10000 2.77 211 09:24 01.11.2020
6059 Clouds 11 1015 97 10000 2.77 211 08:40 01.11.2020
6060 Rain 11 1014 97 10000 3.2 220 07:54 01.11.2020
6061 Clouds 11 1012 10 10000 3.05 217 06:52 01.11.2020
6062 Clouds 11 1015 95 7131 0.89 270 02:32 01.11.2020
6063 Rain 11 1014 94 10000 0.89 293 01:42 01.11.2020
6064 Clouds 12 1016 94 10000 2.85 205 23:58 31.10.2020
6065 Clouds 11 1016 93 10000 3.02 210 23:24 31.10.2020
6066 Clouds 11 1016 92 10000 3.02 210 22:45 31.10.2020
6067 Clouds 11 1016 92 10000 3.4 206 22:24 31.10.2020
6068 Clouds 11 1016 92 10000 3.4 206 21:47 31.10.2020
6069 Clouds 11 1016 91 10000 3.37 198 21:23 31.10.2020
6070 Clouds 11 1016 91 10000 3.37 198 21:23 31.10.2020
6071 Clouds 11 1016 91 10000 3.37 198 20:46 31.10.2020
6072 Clouds 12 1016 91 10000 3.07 185 20:21 31.10.2020
6073 Clouds 12 1014 87 10000 1.34 293 19:58 31.10.2020
6074 Clouds 12 1014 87 10000 0.89 270 19:38 31.10.2020
6075 Clouds 12 1017 92 10000 3.11 179 19:18 31.10.2020
6076 Clouds 12 1017 92 10000 2.98 180 18:43 31.10.2020
6077 Clouds 12 1018 92 10000 3.05 177 17:49 31.10.2020
6078 Clouds 13 1018 92 10000 3.06 175 17:29 31.10.2020
6079 Clouds 13 1018 92 10000 3.06 175 16:59 31.10.2020
6080 Clouds 13 1018 92 10000 3.06 175 16:40 31.10.2020
6081 Clouds 14 1020 97 10000 3.33 175 15:59 31.10.2020
6082 Clouds 13 1018 93 10000 3.33 175 15:38 31.10.2020
6083 Clouds 14 1020 95 10000 3.09 171 15:19 31.10.2020
6084 Clouds 14 1019 95 10000 3.09 171 14:46 31.10.2020
6085 Clouds 14 1019 96 10000 2.65 174 14:26 31.10.2020
6086 Clouds 14 1021 98 10000 2.65 174 13:50 31.10.2020
6087 Clouds 14 1020 97 10000 2.21 181 13:23 31.10.2020
6088 Clouds 14 1021 98 10000 2 183 12:42 31.10.2020
6089 Clouds 13 1022 98 10000 1.8 201 11:48 31.10.2020
6090 Clouds 13 1022 98 10000 1.6 207 11:29 31.10.2020
6091 Clouds 13 1022 98 10000 1.6 207 10:57 31.10.2020
6092 Clouds 13 1022 98 10000 1.6 207 10:35 31.10.2020
6093 Clouds 13 1022 98 10000 1.42 213 09:43 31.10.2020
6094 Clouds 13 1022 98 10000 1.33 217 09:25 31.10.2020
6095 Clouds 13 1023 98 10000 1.33 217 08:33 31.10.2020
6096 Clouds 13 1022 98 10000 1.59 233 07:59 31.10.2020
6097 Clouds 13 1022 98 6083 2.18 244 07:27 31.10.2020
6098 Clouds 13 1022 98 6387 2.04 241 06:42 31.10.2020
6099 Clouds 13 1024 10 6454 2.4 233 06:19 31.10.2020
6100 Clouds 13 1022 97 10000 2.46 257 03:46 31.10.2020
6101 Clouds 13 1022 97 8512 3.58 261 01:30 31.10.2020
6102 Clouds 13 1022 97 10000 3.77 258 00:47 31.10.2020
6103 Clouds 13 1022 98 10000 3.65 254 23:53 30.10.2020
6104 Rain 13 1021 98 10000 3.98 252 23:26 30.10.2020
6105 Clouds 13 1021 98 10000 3.98 252 22:53 30.10.2020
6106 Clouds 13 1021 98 10000 4.09 253 22:27 30.10.2020
6107 Clouds 13 1021 98 10000 4.09 253 21:59 30.10.2020
6108 Clouds 13 1021 98 10000 4.09 253 21:40 30.10.2020
6109 Rain 13 1021 98 10000 4.35 256 21:21 30.10.2020
6110 Clouds 13 1021 98 10000 4.35 256 20:42 30.10.2020
6111 Rain 13 1020 98 10000 5.18 259 20:24 30.10.2020
6112 Clouds 13 1020 98 10000 5.18 259 19:52 30.10.2020
6113 Rain 13 1020 98 10000 5.76 263 19:19 30.10.2020
6114 Clouds 13 1020 98 10000 5.76 263 18:52 30.10.2020
6115 Clouds 13 1020 98 10000 5.82 263 18:33 30.10.2020
6116 Clouds 13 1019 98 7457 5.96 265 17:56 30.10.2020
6117 Rain 13 1019 98 7457 0.89 226 17:36 30.10.2020
6118 Rain 13 1019 98 10000 5.7 263 17:18 30.10.2020
6119 Rain 13 1019 98 10000 5.7 263 16:49 30.10.2020
6120 Rain 14 1018 98 10000 5.66 260 16:19 30.10.2020
6121 Clouds 14 1018 98 10000 5.66 260 15:41 30.10.2020
6122 Clouds 14 1018 98 10000 6.09 257 15:20 30.10.2020
6123 Rain 13 1018 98 10000 0.45 264 14:45 30.10.2020
6124 Rain 13 1017 98 10000 6.85 261 14:26 30.10.2020
6125 Rain 13 1017 98 10000 6.85 261 13:55 30.10.2020
6126 Rain 13 1017 98 10000 6.85 261 13:37 30.10.2020
6127 Rain 13 1017 98 10000 6.67 256 13:18 30.10.2020
6128 Rain 13 1017 97 7805 1.79 244 12:24 30.10.2020
6129 Rain 13 1017 98 7805 6.44 254 11:59 30.10.2020
6130 Rain 13 1017 98 7805 6.44 254 11:40 30.10.2020
6131 Rain 13 1017 97 10000 6.59 254 11:19 30.10.2020
6132 Rain 12 1017 97 10000 6.59 254 10:47 30.10.2020
6133 Rain 12 1017 97 3564 6.53 252 10:23 30.10.2020
6134 Rain 12 1016 97 3564 6.53 252 09:45 30.10.2020
6135 Rain 12 1016 97 3223 6.56 253 09:22 30.10.2020
6136 Rain 12 1016 97 3617 6.37 252 08:42 30.10.2020
6137 Clouds 11 1016 97 10000 6.28 253 08:23 30.10.2020
6138 Clouds 11 1015 97 10000 6.28 253 07:49 30.10.2020
6139 Clouds 11 1015 97 10000 6.28 253 07:31 30.10.2020
6140 Clouds 11 1015 97 10000 6.65 258 06:40 30.10.2020
6141 Rain 10 1015 97 10000 7.14 260 05:19 30.10.2020
6142 Rain 9 1015 96 1721 4.64 226 02:27 30.10.2020
6143 Rain 8 1015 95 2348 4.69 224 00:43 30.10.2020
6144 Rain 9 1018 97 2766 4.16 216 23:50 29.10.2020
6145 Rain 9 1016 94 2766 4.16 216 23:31 29.10.2020
6146 Rain 9 1017 93 5955 3.66 207 22:59 29.10.2020
6147 Rain 9 1017 92 5955 3.66 207 22:40 29.10.2020
6148 Rain 8 1017 91 10000 3.25 212 22:22 29.10.2020
6149 Rain 9 1020 93 10000 3.25 212 21:39 29.10.2020
6150 Rain 9 1015 95 8226 3.56 228 21:20 29.10.2020
6151 Rain 8 1017 87 8226 3.56 228 20:42 29.10.2020
6152 Rain 8 1017 87 10000 3.9 235 20:19 29.10.2020
6153 Rain 9 1017 86 10000 3.9 235 19:43 29.10.2020
6154 Clouds 9 1017 86 10000 3.47 240 19:22 29.10.2020
6155 Clouds 9 1017 84 10000 3.47 240 18:55 29.10.2020
6156 Clouds 8 1017 84 10000 3.79 238 18:36 29.10.2020
6157 Clouds 8 1016 83 10000 3.77 249 18:18 29.10.2020
6158 Clouds 9 1019 80 10000 3.77 249 17:40 29.10.2020
6159 Clouds 9 1013 84 10000 4.44 258 17:20 29.10.2020
6160 Clouds 10 1016 81 10000 4.44 258 16:45 29.10.2020
6161 Clouds 10 1016 79 10000 0.89 255 16:20 29.10.2020
6162 Clouds 10 1016 77 10000 3.13 284 15:56 29.10.2020
6163 Clouds 10 1016 79 10000 3.13 253 15:37 29.10.2020
6164 Clouds 10 1015 80 10000 1.34 261 15:19 29.10.2020
6165 Clouds 10 1015 79 10000 2.24 253 14:45 29.10.2020
6166 Clouds 10 1015 78 10000 3.58 232 14:23 29.10.2020
6167 Clouds 10 1015 83 10000 0.89 252 13:47 29.10.2020
6168 Clouds 10 1014 82 10000 3.58 230 13:28 29.10.2020
6169 Clouds 10 1014 85 10000 3.13 268 12:44 29.10.2020
6170 Clouds 9 1014 87 10000 2.24 273 12:20 29.10.2020
6171 Clouds 9 1014 89 10000 3.58 247 11:58 29.10.2020
6172 Clouds 9 1014 90 10000 4.47 250 11:40 29.10.2020
6173 Clouds 9 1014 91 10000 1.79 242 11:21 29.10.2020
6174 Clouds 8 1010 99 10000 1.34 300 10:37 29.10.2020
6175 Clouds 8 1010 99 10000 1.34 300 10:37 29.10.2020
6176 Clouds 8 1010 10 10000 0.45 291 10:19 29.10.2020
6177 Clouds 7 1012 94 10000 6.85 264 09:50 29.10.2020
6178 Clouds 7 1012 94 10000 6.69 259 09:27 29.10.2020
6179 Clouds 7 1011 94 10000 6.69 259 08:52 29.10.2020
6180 Rain 7 1011 93 10000 6.28 256 08:26 29.10.2020
6181 Rain 7 1010 93 10000 2.24 271 07:53 29.10.2020
6182 Rain 7 1010 91 10000 2.68 281 07:24 29.10.2020
6183 Rain 8 1009 91 10000 3.58 225 06:54 29.10.2020
6184 Clouds 9 1010 95 10000 6.53 255 04:51 29.10.2020
6185 Rain 11 1007 88 10000 0.89 178 02:40 29.10.2020
6186 Clouds 11 1008 85 10000 5.79 210 00:46 29.10.2020
6187 Rain 11 1009 83 10000 6.33 209 00:23 29.10.2020
6188 Rain 11 1008 84 10000 6.33 209 23:45 28.10.2020
6189 Rain 11 1008 84 10000 5.8 209 23:20 28.10.2020
6190 Clouds 11 1009 86 10000 5.8 209 22:44 28.10.2020
6191 Clouds 11 1009 87 10000 4.98 209 22:26 28.10.2020
6192 Rain 11 1009 83 10000 4.98 209 21:55 28.10.2020
6193 Rain 10 1009 83 10000 4.98 209 21:37 28.10.2020
6194 Rain 11 1010 83 10000 4.6 207 21:18 28.10.2020
6195 Clouds 10 1010 85 10000 4.6 207 20:41 28.10.2020
6196 Clouds 11 1010 84 10000 4.48 212 20:20 28.10.2020
6197 Clouds 10 1010 85 10000 4.48 212 19:49 28.10.2020
6198 Clouds 11 1010 86 10000 4.03 213 19:27 28.10.2020
6199 Clouds 10 1010 86 10000 4.03 213 18:47 28.10.2020
6200 Clouds 11 1012 83 10000 3.55 218 18:21 28.10.2020
6201 Clouds 11 1007 86 10000 3.55 218 17:44 28.10.2020
6202 Clouds 12 1009 84 10000 3.66 224 17:25 28.10.2020
6203 Clouds 13 1010 80 10000 0.89 284 16:56 28.10.2020
6204 Clouds 13 1009 78 10000 0.89 287 16:38 28.10.2020
6205 Clouds 13 1006 85 10000 3.91 227 16:19 28.10.2020
6206 Clouds 13 1009 82 10000 3.91 227 15:37 28.10.2020
6207 Rain 13 1006 83 10000 5.86 229 15:18 28.10.2020
6208 Clouds 13 1009 81 10000 0.45 196 14:42 28.10.2020
6209 Rain 13 1009 81 10000 1.34 221 14:22 28.10.2020
6210 Clouds 12 1009 84 10000 1.34 246 12:41 28.10.2020
6211 Rain 13 1009 86 10000 0.89 215 12:22 28.10.2020
6212 Clouds 12 1009 89 10000 0.89 232 11:55 28.10.2020
6213 Clouds 12 1009 91 10000 0.89 235 11:36 28.10.2020
6214 Clouds 12 1008 93 10000 5.43 218 11:18 28.10.2020
6215 Clouds 11 1008 95 10000 5.43 218 10:42 28.10.2020
6216 Clouds 11 1008 95 10000 4.8 214 10:24 28.10.2020
6217 Clouds 10 1008 94 10000 4.8 214 09:43 28.10.2020
6218 Clouds 10 1008 94 10000 3.78 209 09:23 28.10.2020
6219 Clouds 10 1010 10 10000 3.78 209 08:50 28.10.2020
6220 Clouds 9 1008 93 10000 3.48 207 08:29 28.10.2020
6221 Clouds 9 1007 92 10000 3.48 207 07:52 28.10.2020
6222 Clouds 9 1007 91 10000 3.48 207 07:31 28.10.2020
6223 Clouds 9 1006 90 10000 4.08 205 06:42 28.10.2020
6224 Rain 9 1006 90 10000 4.45 209 06:23 28.10.2020
6225 Clouds 9 1006 88 10000 4.78 207 05:22 28.10.2020
6226 Rain 9 1006 88 10000 5.26 206 04:30 28.10.2020
6227 Rain 9 1006 84 10000 0.89 187 02:26 28.10.2020
6228 Rain 9 1006 84 10000 0.89 187 02:26 28.10.2020
6229 Clouds 9 1004 89 10000 6.7 205 01:53 28.10.2020
6230 Clouds 9 1006 80 10000 0.45 138 00:31 28.10.2020
6231 Clouds 9 1007 83 10000 6.43 193 23:47 27.10.2020
6232 Clouds 8 1005 89 10000 5.78 199 23:21 27.10.2020
6233 Clouds 8 1007 83 10000 5.78 199 22:44 27.10.2020
6234 Clouds 8 1007 83 10000 5.87 199 22:19 27.10.2020
6235 Clouds 8 1007 84 10000 5.87 199 21:57 27.10.2020
6236 Clouds 8 1007 85 10000 0.45 118 21:37 27.10.2020
6237 Clouds 8 1007 85 10000 5.65 199 21:19 27.10.2020
6238 Clouds 8 1007 85 10000 0.45 24 20:50 27.10.2020
6239 Clouds 8 1007 86 10000 0.45 137 20:24 27.10.2020
6240 Clouds 8 1007 84 10000 0.45 320 19:55 27.10.2020
6241 Clouds 8 1007 86 10000 5.23 202 19:37 27.10.2020
6242 Clouds 8 1007 86 10000 5.05 207 19:18 27.10.2020
6243 Clouds 9 1007 85 10000 4.72 203 18:44 27.10.2020
6244 Clouds 9 1007 85 10000 4.47 202 18:22 27.10.2020
6245 Clouds 9 1007 85 10000 4.47 202 17:57 27.10.2020
6246 Clouds 10 1005 87 10000 0.89 350 17:38 27.10.2020
6247 Clouds 10 1007 85 10000 0.89 195 17:18 27.10.2020
6248 Clouds 10 1007 85 10000 0.45 158 16:42 27.10.2020
6249 Clouds 10 1007 85 10000 4.82 206 16:23 27.10.2020
6250 Clouds 10 1005 90 10000 4.82 206 15:42 27.10.2020
6251 Clouds 10 1005 90 10000 5.3 212 15:23 27.10.2020
6252 Clouds 10 1007 84 10000 5.3 212 14:49 27.10.2020
6253 Clouds 10 1009 79 10000 5.69 216 14:29 27.10.2020
6254 Clouds 10 1007 83 10000 5.69 216 13:58 27.10.2020
6255 Clouds 10 1009 79 10000 6.25 222 13:29 27.10.2020
6256 Clouds 10 1007 83 10000 6.25 222 12:46 27.10.2020
6257 Clouds 10 1007 83 10000 5.88 223 12:27 27.10.2020
6258 Clouds 10 1007 83 10000 0.45 171 11:59 27.10.2020
6259 Clouds 9 1007 83 10000 3.13 209 11:41 27.10.2020
6260 Clouds 9 1007 83 10000 0.45 159 11:21 27.10.2020
6261 Clouds 9 1007 86 10000 0.89 184 10:43 27.10.2020
6262 Clouds 9 1007 87 9377 0.89 229 10:20 27.10.2020
6263 Clouds 9 1007 92 10000 4.04 212 09:28 27.10.2020
6264 Clouds 8 1008 82 10000 1.79 288 08:59 27.10.2020
6265 Clouds 8 1007 93 10000 4.04 212 08:33 27.10.2020
6266 Clouds 7 1006 94 10000 3.85 206 07:54 27.10.2020
6267 Clouds 7 1006 94 10000 3.85 206 07:36 27.10.2020
6268 Clouds 7 1006 94 10000 3.57 203 06:55 27.10.2020
6269 Clouds 7 1002 97 10000 3.42 200 06:20 27.10.2020
6270 Clouds 7 1006 85 10000 0.89 318 05:46 27.10.2020
6271 Clouds 7 1005 95 10000 3.26 204 05:27 27.10.2020
6272 Clouds 7 1002 97 10000 2.84 198 03:20 27.10.2020
6273 Clouds 7 1005 95 10000 3.25 211 01:22 27.10.2020
6274 Clouds 7 1005 94 10000 2.88 207 00:42 27.10.2020
6275 Clouds 7 1005 94 10000 2.76 212 23:39 26.10.2020
6276 Clouds 7 1002 98 10000 3.02 218 23:18 26.10.2020
6277 Clouds 7 1005 94 10000 3.02 218 22:44 26.10.2020
6278 Clouds 7 1005 84 10000 0.89 221 22:19 26.10.2020
6279 Clouds 8 1004 94 10000 3.75 228 21:41 26.10.2020
6280 Clouds 8 1004 94 10000 4.15 228 21:19 26.10.2020
6281 Clouds 8 1004 93 10000 4.15 228 20:49 26.10.2020
6282 Clouds 8 1005 83 10000 0.89 313 20:27 26.10.2020
6283 Clouds 8 1005 84 10000 0.89 248 19:58 26.10.2020
6284 Clouds 9 1003 92 10000 3.03 227 19:40 26.10.2020
6285 Clouds 9 1006 89 10000 2.95 227 19:20 26.10.2020
6286 Clouds 9 1003 92 10000 2.95 227 18:42 26.10.2020
6287 Clouds 9 1003 92 10000 3.41 229 18:22 26.10.2020
6288 Clouds 9 1003 92 10000 3.41 229 17:44 26.10.2020
6289 Clouds 10 1003 92 10000 3.68 236 17:24 26.10.2020
6290 Clouds 9 1003 93 10000 3.68 236 16:57 26.10.2020
6291 Clouds 9 1003 93 10000 3.68 236 16:38 26.10.2020
6292 Clouds 9 1003 89 10000 0.89 298 16:19 26.10.2020
6293 Clouds 11 999 98 10000 3.45 225 15:39 26.10.2020
6294 Rain 11 1002 95 10000 3.35 226 15:19 26.10.2020
6295 Clouds 11 1002 95 10000 3.35 226 14:46 26.10.2020
6296 Rain 11 1002 96 10000 2.56 214 14:21 26.10.2020
6297 Rain 11 1002 96 10000 2.56 214 13:42 26.10.2020
6298 Rain 11 1002 96 10000 3.79 228 13:23 26.10.2020
6299 Rain 11 999 10 10000 3.58 230 12:47 26.10.2020
6300 Rain 11 1002 96 10000 2.41 210 12:27 26.10.2020
6301 Rain 11 1002 96 10000 2.41 210 11:55 26.10.2020
6302 Rain 11 1002 96 10000 2.41 210 11:37 26.10.2020
6303 Rain 11 1002 96 10000 2.54 227 11:18 26.10.2020
6304 Rain 11 1002 96 10000 2.54 227 10:42 26.10.2020
6305 Rain 11 1002 96 10000 2.54 227 10:42 26.10.2020
6306 Rain 11 1002 96 10000 2.68 227 10:24 26.10.2020
6307 Rain 10 1002 95 10000 2.68 227 09:48 26.10.2020
6308 Rain 10 1002 95 10000 2.68 227 09:48 26.10.2020
6309 Rain 11 1002 95 5627 2.54 219 09:25 26.10.2020
6310 Rain 10 1002 95 5627 2.54 219 08:31 26.10.2020
6311 Rain 10 1001 94 6561 2.54 201 07:56 26.10.2020
6312 Rain 11 1002 91 6561 2.54 201 07:38 26.10.2020
6313 Rain 11 1002 94 5789 2.64 202 06:58 26.10.2020
6314 Rain 11 999 95 10000 1.94 191 04:48 26.10.2020
6315 Rain 10 1002 90 10000 1.44 193 04:18 26.10.2020
6316 Rain 11 999 92 10000 2.07 205 03:20 26.10.2020
6317 Rain 11 999 92 10000 2.07 205 03:20 26.10.2020
6318 Rain 11 999 92 10000 2.07 205 03:20 26.10.2020
6319 Rain 11 999 92 10000 2.07 205 03:20 26.10.2020
6320 Clouds 11 1000 93 10000 2.14 194 01:34 26.10.2020
6321 Clouds 11 999 90 10000 2.74 214 00:33 26.10.2020
6322 Clouds 12 1003 86 10000 3.21 217 23:43 25.10.2020
6323 Rain 12 1003 85 10000 4.09 219 23:22 25.10.2020
6324 Clouds 12 1000 87 10000 4.09 219 22:42 25.10.2020
6325 Clouds 13 1004 83 10000 4.61 210 22:24 25.10.2020
6326 Clouds 13 1003 82 10000 4.61 210 21:48 25.10.2020
6327 Clouds 13 1001 85 10000 4.37 197 21:29 25.10.2020
6328 Clouds 13 1001 85 10000 4.37 197 21:29 25.10.2020
6329 Clouds 13 1003 82 10000 4.37 197 20:57 25.10.2020
6330 Clouds 13 1003 81 10000 4.37 197 20:38 25.10.2020
6331 Rain 13 1003 81 10000 2.89 185 20:19 25.10.2020
6332 Rain 13 1003 82 10000 2.89 185 19:49 25.10.2020
6333 Rain 13 1003 83 10000 3.03 207 19:24 25.10.2020
6334 Rain 13 1000 86 10000 3.03 207 18:57 25.10.2020
6335 Rain 13 1000 86 10000 1.96 196 18:57 25.10.2020
6336 Rain 13 1003 82 10000 1.96 196 18:38 25.10.2020
6337 Rain 13 1003 82 10000 1.96 196 18:38 25.10.2020
6338 Rain 13 1003 82 10000 1.96 196 18:38 25.10.2020
6339 Rain 13 1001 88 10000 2.58 204 18:20 25.10.2020
6340 Rain 13 1004 78 10000 2.58 204 17:39 25.10.2020
6341 Rain 13 1004 78 10000 2.58 204 17:39 25.10.2020
6342 Rain 13 1004 78 10000 3.25 195 17:21 25.10.2020
6343 Clouds 13 1004 79 10000 3.25 195 16:58 25.10.2020
6344 Clouds 13 1004 79 10000 3.25 195 16:39 25.10.2020
6345 Clouds 13 1004 79 10000 3.74 193 16:20 25.10.2020
6346 Clouds 14 1004 79 10000 3.74 193 15:47 25.10.2020
6347 Clouds 14 1004 79 10000 4.56 194 15:26 25.10.2020
6348 Clouds 14 1004 79 10000 4.56 194 14:47 25.10.2020
6349 Clouds 14 1004 80 10000 5.11 195 14:28 25.10.2020
6350 Clouds 14 1002 84 10000 5.11 195 13:44 25.10.2020
6351 Clouds 14 1005 79 10000 6.04 197 13:22 25.10.2020
6352 Clouds 14 1006 79 10000 6.04 197 12:49 25.10.2020
6353 Clouds 14 1006 79 10000 5.69 194 12:27 25.10.2020
6354 Clouds 13 1006 81 10000 5.69 194 11:58 25.10.2020
6355 Clouds 13 1006 81 10000 5.69 194 11:39 25.10.2020
6356 Clouds 13 1006 82 10000 5.23 193 11:19 25.10.2020
6357 Clouds 13 1007 82 10000 5.23 193 10:44 25.10.2020
6358 Clouds 13 1007 82 10000 4.69 190 10:25 25.10.2020
6359 Clouds 12 1005 91 10000 4.69 190 09:48 25.10.2020
6360 Clouds 12 1005 91 10000 0.45 65 09:20 25.10.2020
6361 Clouds 12 1007 85 10000 5.04 196 08:56 25.10.2020
6362 Clouds 12 1005 94 10000 5.04 196 08:37 25.10.2020
6363 Clouds 12 1008 85 10000 4.96 199 08:19 25.10.2020
6364 Clouds 11 1007 86 10000 0.45 126 07:42 25.10.2020
6365 Clouds 12 1009 92 10000 5.35 200 06:52 25.10.2020
6366 Clouds 12 1008 85 10000 0.89 344 06:19 25.10.2020
6367 Clouds 12 1006 89 10000 4.78 205 05:19 25.10.2020
6368 Clouds 12 1006 90 10000 4.47 197 04:23 25.10.2020
6369 Clouds 12 1010 85 10000 4.22 201 02:22 25.10.2020
6370 Clouds 12 1011 84 10000 4.03 201 00:53 25.10.2020
6371 Clouds 12 1011 84 10000 4.81 204 00:28 25.10.2020
6372 Clouds 13 1011 84 10000 4.81 204 23:54 24.10.2020
6373 Clouds 13 1011 84 10000 4.83 208 23:31 24.10.2020
6374 Clouds 13 1012 85 10000 4.83 208 22:58 24.10.2020
6375 Clouds 13 1013 88 10000 4.83 208 22:40 24.10.2020
6376 Clouds 13 1009 86 10000 4.18 202 22:21 24.10.2020
6377 Clouds 13 1012 84 10000 4.18 202 21:54 24.10.2020
6378 Clouds 13 1012 83 10000 4.18 202 21:36 24.10.2020
6379 Clouds 13 1009 86 10000 3.78 201 21:18 24.10.2020
6380 Clouds 13 1012 83 10000 3.78 201 20:42 24.10.2020
6381 Clouds 13 1009 86 10000 3.56 208 20:20 24.10.2020
6382 Clouds 13 1012 82 10000 3.71 206 19:40 24.10.2020
6383 Clouds 14 1009 84 10000 4.16 227 19:22 24.10.2020
6384 Clouds 14 1012 81 10000 4.16 227 18:51 24.10.2020
6385 Clouds 14 1014 86 10000 4.16 227 18:30 24.10.2020
6386 Clouds 14 1012 80 10000 4.74 223 17:44 24.10.2020
6387 Clouds 14 1009 82 10000 4.63 222 17:25 24.10.2020
6388 Clouds 14 1013 80 10000 0.45 207 16:53 24.10.2020
6389 Clouds 15 1013 81 10000 4.63 222 16:35 24.10.2020
6390 Clouds 15 1013 80 10000 3.13 180 15:58 24.10.2020
6391 Clouds 15 1009 82 10000 4.7 223 15:38 24.10.2020
6392 Clouds 15 1013 79 10000 2.24 328 15:18 24.10.2020
6393 Clouds 14 1014 89 10000 5.14 222 14:39 24.10.2020
6394 Clouds 14 1013 87 10000 5.58 225 14:21 24.10.2020
6395 Clouds 14 1013 85 10000 4.97 223 13:44 24.10.2020
6396 Clouds 14 1010 87 10000 0.45 240 13:20 24.10.2020
6397 Clouds 14 1014 87 10000 5.08 230 12:37 24.10.2020
6398 Clouds 14 1014 87 10000 1.79 202 12:19 24.10.2020
6399 Clouds 14 1014 93 10000 5.02 233 11:50 24.10.2020
6400 Clouds 13 1014 95 10000 4.81 231 11:23 24.10.2020
6401 Clouds 12 1014 97 10000 4.81 231 10:47 24.10.2020
6402 Clouds 12 1013 98 10000 4.44 232 10:27 24.10.2020
6403 Clouds 11 1013 98 10000 4.44 232 09:48 24.10.2020
6404 Clouds 11 1013 98 10000 3.86 230 09:27 24.10.2020
6405 Clouds 10 1014 92 10000 3.86 230 08:58 24.10.2020
6406 Clouds 11 1013 93 10000 3.2 221 08:19 24.10.2020
6407 Clouds 11 1012 98 10000 3.2 221 07:51 24.10.2020
6408 Clouds 11 1009 97 10000 1.79 221 07:21 24.10.2020
6409 Clouds 11 1009 10 10000 2.78 220 06:51 24.10.2020
6410 Clouds 11 1012 98 10000 2.74 217 05:47 24.10.2020
6411 Clouds 11 1012 98 10000 2.48 235 02:28 24.10.2020
6412 Clouds 11 1012 94 10000 0.45 180 00:59 24.10.2020
6413 Clouds 12 1012 98 10000 2.62 234 00:39 24.10.2020
6414 Clouds 12 1012 98 10000 2.83 241 00:21 24.10.2020
6415 Clouds 12 1011 98 10000 2.83 241 23:43 23.10.2020
6416 Clouds 12 1011 98 10000 3.05 235 23:23 23.10.2020
6417 Clouds 12 1011 98 10000 3.05 235 23:23 23.10.2020
6418 Clouds 12 1008 10 10000 3.05 235 22:56 23.10.2020
6419 Clouds 12 1011 98 10000 3.05 235 22:36 23.10.2020
6420 Rain 12 1010 98 10000 2.5 223 22:18 23.10.2020
6421 Clouds 12 1011 98 10000 2.5 223 21:39 23.10.2020
6422 Rain 12 1007 10 10000 2.43 226 21:21 23.10.2020
6423 Rain 13 1010 98 10000 2.43 226 20:39 23.10.2020
6424 Rain 13 1010 98 10000 2.2 224 20:20 23.10.2020
6425 Clouds 13 1010 97 10000 2.2 224 19:48 23.10.2020
6426 Clouds 13 1010 97 9434 2 212 19:30 23.10.2020
6427 Rain 13 1010 98 2723 2.22 229 18:52 23.10.2020
6428 Rain 13 1010 98 2723 2.22 229 18:30 23.10.2020
6429 Rain 13 1009 98 7019 1.84 239 17:48 23.10.2020
6430 Rain 14 1010 97 9512 0.89 254 17:24 23.10.2020
6431 Rain 14 1009 98 9512 1.79 234 16:56 23.10.2020
6432 Rain 14 1009 98 9512 1.79 234 16:56 23.10.2020
6433 Rain 14 1009 98 9512 1.79 234 16:56 23.10.2020
6434 Rain 14 1006 10 9512 1.79 234 16:37 23.10.2020
6435 Rain 14 1006 10 6842 1.39 213 16:18 23.10.2020
6436 Rain 14 1006 10 6842 1.39 213 15:42 23.10.2020
6437 Rain 14 1009 98 2145 2.19 211 15:23 23.10.2020
6438 Rain 14 1009 98 2145 2.19 211 14:51 23.10.2020
6439 Rain 14 1007 10 2145 2.19 211 14:33 23.10.2020
6440 Rain 14 1010 97 3754 1.97 191 13:56 23.10.2020
6441 Rain 14 1010 97 10000 1.85 209 13:37 23.10.2020
6442 Rain 14 1010 97 10000 2.11 212 13:18 23.10.2020
6443 Rain 14 1011 96 10000 2.11 212 12:42 23.10.2020
6444 Rain 14 1011 96 10000 2.28 217 12:23 23.10.2020
6445 Rain 14 1011 96 10000 2.28 217 11:46 23.10.2020
6446 Rain 14 1011 96 10000 1.82 192 11:21 23.10.2020
6447 Rain 14 1011 97 10000 1.82 192 10:43 23.10.2020
6448 Clouds 14 1011 98 5673 1.2 201 10:25 23.10.2020
6449 Clouds 14 1011 98 5673 1.2 201 09:44 23.10.2020
6450 Clouds 13 1008 10 5318 1.42 198 09:26 23.10.2020
6451 Clouds 13 1008 10 5318 1.42 198 08:52 23.10.2020
6452 Clouds 13 1011 98 5318 1.42 198 08:30 23.10.2020
6453 Clouds 13 1011 98 10000 2.32 227 07:33 23.10.2020
6454 Clouds 13 1011 98 10000 2.3 230 06:59 23.10.2020
6455 Clouds 13 1011 98 7670 2.6 230 06:20 23.10.2020
6456 Clouds 13 1012 97 8609 2.68 229 04:56 23.10.2020
6457 Clouds 13 1012 97 10000 3.62 238 02:32 23.10.2020
6458 Rain 13 1012 97 10000 4.43 231 01:24 23.10.2020
6459 Clouds 13 1012 96 10000 4.43 231 00:42 23.10.2020
6460 Rain 14 1013 95 10000 4.32 233 23:45 22.10.2020
6461 Rain 14 1013 95 10000 4.23 232 23:24 22.10.2020
6462 Rain 14 1009 88 10000 4.23 232 22:48 22.10.2020
6463 Rain 15 1013 92 10000 2.68 305 22:27 22.10.2020
6464 Clouds 15 1009 86 10000 4.33 228 21:58 22.10.2020
6465 Clouds 15 1009 87 10000 4.33 228 21:40 22.10.2020
6466 Clouds 15 1009 88 10000 3.8 212 21:20 22.10.2020
6467 Clouds 15 1012 85 10000 3.8 212 20:45 22.10.2020
6468 Clouds 15 1012 84 10000 3.78 210 20:25 22.10.2020
6469 Clouds 15 1012 83 10000 3.78 210 19:58 22.10.2020
6470 Clouds 15 1014 95 10000 3.78 210 19:39 22.10.2020
6471 Clouds 15 1009 86 10000 3.95 211 19:18 22.10.2020
6472 Clouds 16 1012 84 10000 3.95 211 18:41 22.10.2020
6473 Clouds 16 1012 81 10000 4 218 18:19 22.10.2020
6474 Clouds 17 1013 87 10000 4 218 17:45 22.10.2020
6475 Clouds 17 1012 73 10000 5.11 226 17:22 22.10.2020
6476 Clouds 18 1013 84 10000 5.11 226 16:46 22.10.2020
6477 Clouds 18 1012 72 10000 1.79 215 16:25 22.10.2020
6478 Clouds 18 1012 72 10000 1.79 215 16:25 22.10.2020
6479 Clouds 18 1012 69 10000 5.65 223 15:56 22.10.2020
6480 Clouds 18 1009 78 10000 5.65 223 15:38 22.10.2020
6481 Clouds 18 1012 71 10000 2.68 192 15:19 22.10.2020
6482 Clouds 18 1013 71 10000 2.24 202 14:42 22.10.2020
6483 Clouds 18 1013 73 10000 5.38 226 14:23 22.10.2020
6484 Clouds 17 1013 75 10000 0.45 169 13:45 22.10.2020
6485 Clouds 17 1013 81 10000 5.35 228 13:23 22.10.2020
6486 Clouds 16 1013 85 10000 5.35 228 12:44 22.10.2020
6487 Clouds 16 1013 86 10000 5.93 233 12:22 22.10.2020
6488 Rain 16 1013 84 10000 0.89 214 11:47 22.10.2020
6489 Clouds 15 1013 83 10000 6.12 231 11:19 22.10.2020
6490 Clouds 15 1013 84 10000 6.12 231 10:49 22.10.2020
6491 Clouds 14 1013 85 10000 4.76 230 10:26 22.10.2020
6492 Clouds 13 1012 90 10000 4.76 230 09:46 22.10.2020
6493 Clouds 13 1012 94 10000 3.99 225 09:26 22.10.2020
6494 Clouds 11 1006 99 10000 3.99 225 08:49 22.10.2020
6495 Clouds 11 1011 93 10000 3.86 222 08:27 22.10.2020
6496 Clouds 11 1011 93 10000 3.86 222 07:51 22.10.2020
6497 Clouds 11 1011 92 10000 4.07 228 07:32 22.10.2020
6498 Clouds 12 1011 90 10000 4.55 232 06:46 22.10.2020
6499 Clouds 12 1011 89 10000 4.68 234 06:25 22.10.2020
6500 Clouds 12 1006 99 10000 4.68 234 05:39 22.10.2020
6501 Clouds 15 1010 80 10000 5.53 231 03:37 22.10.2020
6502 Clouds 15 1009 79 10000 6.6 232 01:43 22.10.2020
6503 Clouds 15 1008 75 10000 7.48 229 00:25 22.10.2020
6504 Clouds 16 1008 74 10000 7.48 229 23:47 21.10.2020
6505 Clouds 16 1008 73 10000 7.37 222 23:28 21.10.2020
6506 Clouds 15 1008 71 10000 7.37 222 22:40 21.10.2020
6507 Clouds 15 1008 70 10000 0.89 34 22:19 21.10.2020
6508 Clouds 15 1007 70 10000 7.03 215 21:56 21.10.2020
6509 Clouds 14 1007 70 10000 0.45 133 21:37 21.10.2020
6510 Clouds 14 1007 71 10000 6.22 207 21:18 21.10.2020
6511 Clouds 14 1007 72 10000 6.22 207 20:45 21.10.2020
6512 Clouds 14 1006 71 10000 5.58 201 20:18 21.10.2020
6513 Clouds 14 1007 86 10000 5.61 202 19:43 21.10.2020
6514 Clouds 14 1006 69 10000 5.12 196 19:25 21.10.2020
6515 Clouds 15 1006 67 10000 5.12 196 18:54 21.10.2020
6516 Clouds 15 1006 68 10000 5.12 196 18:32 21.10.2020
6517 Clouds 15 1006 70 10000 5 198 17:54 21.10.2020
6518 Clouds 15 1006 70 10000 5 198 17:36 21.10.2020
6519 Clouds 15 1006 74 10000 4.55 202 17:18 21.10.2020
6520 Clouds 14 1006 80 10000 4.55 202 16:40 21.10.2020
6521 Clouds 14 1007 96 10000 4.41 204 16:21 21.10.2020
6522 Clouds 14 1006 79 10000 4.41 204 15:49 21.10.2020
6523 Clouds 15 1006 80 10000 5.6 214 15:29 21.10.2020
6524 Rain 14 1007 81 10000 5.6 214 14:58 21.10.2020
6525 Rain 14 1007 83 10000 5.6 214 14:40 21.10.2020
6526 Rain 14 1007 85 10000 4.97 213 14:21 21.10.2020
6527 Rain 12 1008 85 10000 5.28 222 13:42 21.10.2020
6528 Rain 12 1008 86 10000 3.81 204 13:23 21.10.2020
6529 Rain 12 1008 86 10000 3.81 204 12:42 21.10.2020
6530 Clouds 11 1008 89 10000 3.99 195 12:22 21.10.2020
6531 Rain 11 1006 99 10000 3.99 195 11:48 21.10.2020
6532 Rain 11 1010 10 10000 3.82 188 11:22 21.10.2020
6533 Rain 11 1008 85 10000 3.82 188 10:59 21.10.2020
6534 Rain 11 1008 86 10000 3.82 188 10:40 21.10.2020
6535 Rain 11 1008 88 10000 4.48 205 10:21 21.10.2020
6536 Rain 11 1008 89 10000 4.48 205 09:49 21.10.2020
6537 Rain 11 1008 90 10000 4.49 205 09:28 21.10.2020
6538 Rain 11 1008 92 10000 4.49 205 08:42 21.10.2020
6539 Rain 11 1008 93 10000 3.98 208 08:23 21.10.2020
6540 Rain 10 1006 10 10000 3.98 208 07:56 21.10.2020
6541 Rain 10 1006 10 10000 3.63 202 07:24 21.10.2020
6542 Rain 10 1008 93 10000 3.63 202 06:46 21.10.2020
6543 Rain 10 1008 93 10000 4.1 201 06:24 21.10.2020
6544 Rain 10 1010 94 10000 4.36 198 03:38 21.10.2020
6545 Rain 10 1011 96 10000 3.62 208 00:31 21.10.2020
6546 Rain 10 1012 96 10000 3.58 204 23:37 20.10.2020
6547 Clouds 10 1010 10 10000 3.2 204 22:47 20.10.2020
6548 Rain 10 1012 95 10000 3.23 199 22:25 20.10.2020
6549 Rain 10 1012 95 10000 3.23 199 21:48 20.10.2020
6550 Rain 10 1012 95 10000 3.35 205 21:20 20.10.2020
6551 Rain 10 1012 95 10000 3.35 205 20:44 20.10.2020
6552 Rain 10 1012 95 10000 3.62 223 20:24 20.10.2020
6553 Rain 10 1012 94 10000 3.01 213 19:57 20.10.2020
6554 Rain 10 1012 94 10000 3.01 213 19:38 20.10.2020
6555 Rain 10 1012 94 10000 2.86 208 19:20 20.10.2020
6556 Rain 10 1012 93 10000 2.86 208 18:44 20.10.2020
6557 Rain 10 1012 92 10000 2.74 212 18:25 20.10.2020
6558 Rain 11 1012 92 10000 2.74 212 17:41 20.10.2020
6559 Rain 11 1012 91 10000 3.69 214 17:23 20.10.2020
6560 Rain 11 1012 86 10000 3.69 214 16:43 20.10.2020
6561 Rain 11 1012 86 10000 3.69 214 16:43 20.10.2020
6562 Rain 12 1012 78 10000 4.15 201 16:24 20.10.2020
6563 Clouds 12 1011 76 10000 4.15 201 15:49 20.10.2020
6564 Clouds 13 1011 75 10000 4.15 201 15:30 20.10.2020
6565 Clouds 13 1012 74 10000 4.45 198 14:55 20.10.2020
6566 Clouds 13 1012 73 10000 4.45 198 14:37 20.10.2020
6567 Clouds 13 1008 68 10000 3.58 200 14:19 20.10.2020
6568 Clouds 13 1013 73 10000 4.78 205 13:42 20.10.2020
6569 Clouds 13 1013 73 10000 0.45 81 13:21 20.10.2020
6570 Clouds 12 1013 74 10000 0.45 108 12:54 20.10.2020
6571 Clouds 10 1013 74 10000 0.89 129 12:31 20.10.2020
6572 Clouds 10 1013 76 10000 0.89 80 11:49 20.10.2020
6573 Clouds 8 1013 78 10000 0.45 63 11:30 20.10.2020
6574 Clouds 8 1013 80 10000 0.45 74 10:58 20.10.2020
6575 Clouds 7 1013 79 10000 0.89 58 10:28 20.10.2020
6576 Clouds 6 1016 85 10000 2.88 176 09:50 20.10.2020
6577 Clouds 6 1012 89 10000 2.84 179 09:20 20.10.2020
6578 Clouds 4 1014 86 10000 0.45 227 08:57 20.10.2020
6579 Clouds 4 1015 85 10000 0.89 10 08:30 20.10.2020
6580 Clouds 4 1012 100 10000 0.89 200 07:50 20.10.2020
6581 Clouds 5 1012 89 10000 2.64 162 07:25 20.10.2020
6582 Clouds 4 1013 97 10000 2.75 161 06:25 20.10.2020
6583 Clouds 3 1013 94 10000 0.45 235 05:22 20.10.2020
6584 Clouds 4 1016 93 10000 2.46 159 02:44 20.10.2020
6585 Clouds 5 1018 86 10000 1.34 107 02:18 20.10.2020
6586 Clouds 5 1018 87 10000 0.89 81 00:57 20.10.2020
6587 Clouds 5 1018 89 10000 0.45 89 00:39 20.10.2020
6588 Clouds 5 1017 91 10000 2.15 166 00:19 20.10.2020
6589 Clouds 5 1017 10 10000 2.15 166 23:40 19.10.2020
6590 Clouds 5 1019 93 10000 0.89 52 23:19 19.10.2020
6591 Clouds 6 1018 99 10000 2.51 171 22:43 19.10.2020
6592 Clouds 6 1020 94 10000 2.21 171 22:21 19.10.2020
6593 Clouds 6 1020 94 10000 2.24 36 21:43 19.10.2020
6594 Clouds 6 1020 94 10000 2.24 36 21:21 19.10.2020
6595 Clouds 7 1020 94 10000 3.13 45 20:46 19.10.2020
6596 Clouds 7 1019 94 10000 1.34 31 20:27 19.10.2020
6597 Clouds 8 1020 93 10000 0.45 39 19:48 19.10.2020
6598 Clouds 7 1020 93 10000 0.45 40 19:24 19.10.2020
6599 Clouds 9 1020 93 10000 0.89 43 18:54 19.10.2020
6600 Clouds 9 1020 93 10000 0.45 43 18:36 19.10.2020
6601 Clouds 10 1020 93 10000 0.45 43 18:18 19.10.2020
6602 Clouds 11 1021 91 10000 0.73 177 17:43 19.10.2020
6603 Clouds 11 1021 90 10000 1.47 234 17:23 19.10.2020
6604 Clouds 11 1021 83 10000 1.47 234 16:43 19.10.2020
6605 Clouds 12 1021 85 10000 2.49 243 16:22 19.10.2020
6606 Clouds 11 1018 89 10000 2.49 243 15:41 19.10.2020
6607 Clouds 11 1021 85 10000 0.89 213 15:23 19.10.2020
6608 Clouds 11 1019 92 10000 2.83 233 14:51 19.10.2020
6609 Rain 11 1021 91 10000 0.45 184 14:24 19.10.2020
6610 Clouds 11 1019 95 10000 2.96 234 13:52 19.10.2020
6611 Clouds 10 1022 91 10000 2.33 229 13:32 19.10.2020
6612 Clouds 10 1022 95 10000 2.38 230 12:51 19.10.2020
6613 Clouds 10 1019 98 10000 2.38 230 12:33 19.10.2020
6614 Rain 9 1019 10 10000 2.3 228 11:51 19.10.2020
6615 Clouds 9 1022 97 10000 2.14 223 11:26 19.10.2020
6616 Clouds 9 1024 97 10000 2.14 223 10:59 19.10.2020
6617 Rain 9 1024 97 10000 2.14 223 10:39 19.10.2020
6618 Clouds 9 1022 97 10000 1.96 216 10:19 19.10.2020
6619 Clouds 9 1022 97 10000 1.96 216 09:43 19.10.2020
6620 Clouds 8 1024 97 10000 1.62 213 09:19 19.10.2020
6621 Clouds 8 1021 96 10000 1.62 213 08:48 19.10.2020
6622 Clouds 7 1021 96 10000 1.43 215 08:23 19.10.2020
6623 Clouds 7 1018 10 10000 1.56 218 07:43 19.10.2020
6624 Clouds 7 1021 96 10000 1.7 227 07:19 19.10.2020
6625 Clouds 7 1019 95 10000 1.84 232 06:19 19.10.2020
6626 Clouds 7 1019 95 10000 1.84 232 06:19 19.10.2020
6627 Clouds 7 1021 96 10000 1.98 237 03:49 19.10.2020
6628 Clouds 7 1021 96 10000 1.98 250 02:28 19.10.2020
6629 Clouds 8 1020 95 10000 1.34 255 00:50 19.10.2020
6630 Clouds 7 1020 95 10000 2.16 247 00:24 19.10.2020
6631 Clouds 8 1020 94 10000 2.16 247 23:47 18.10.2020
6632 Rain 8 1020 94 10000 0.89 285 23:24 18.10.2020
6633 Rain 8 1020 94 10000 2.33 256 22:52 18.10.2020
6634 Rain 9 1020 93 10000 2.33 265 22:22 18.10.2020
6635 Rain 9 1020 92 10000 2.33 265 21:55 18.10.2020
6636 Clouds 9 1017 97 10000 2.33 265 21:36 18.10.2020
6637 Clouds 9 1017 97 10000 2.73 270 21:18 18.10.2020
6638 Rain 9 1017 95 10000 2.73 270 20:40 18.10.2020
6639 Clouds 9 1020 90 10000 3.42 273 20:19 18.10.2020
6640 Rain 9 1020 89 10000 2.93 275 19:43 18.10.2020
6641 Clouds 9 1017 92 10000 3.34 277 19:25 18.10.2020
6642 Clouds 9 1017 91 10000 3.34 277 18:48 18.10.2020
6643 Clouds 9 1019 88 10000 0.89 262 18:27 18.10.2020
6644 Clouds 10 1019 88 10000 4.17 278 17:43 18.10.2020
6645 Clouds 10 1019 88 10000 0.45 252 17:25 18.10.2020
6646 Clouds 9 1019 86 10000 4.02 252 16:46 18.10.2020
6647 Clouds 10 1019 85 10000 1.79 269 16:27 18.10.2020
6648 Clouds 9 1022 89 10000 5.29 273 15:59 18.10.2020
6649 Clouds 9 1019 85 10000 0.45 257 15:41 18.10.2020
6650 Clouds 10 1019 84 10000 1.34 240 15:19 18.10.2020
6651 Clouds 9 1019 84 10000 3.13 252 14:53 18.10.2020
6652 Clouds 9 1019 85 10000 3.13 270 14:28 18.10.2020
6653 Clouds 9 1019 85 10000 2.68 269 13:56 18.10.2020
6654 Clouds 9 1019 86 10000 2.68 290 13:37 18.10.2020
6655 Clouds 9 1020 89 10000 0.89 244 13:19 18.10.2020
6656 Clouds 8 1020 89 10000 0.89 244 12:41 18.10.2020
6657 Clouds 8 1019 96 10000 0.45 259 12:21 18.10.2020
6658 Clouds 7 1020 97 10000 4.49 254 11:42 18.10.2020
6659 Clouds 7 1020 97 10000 4.12 252 11:22 18.10.2020
6660 Clouds 7 1020 97 10000 4.12 252 10:41 18.10.2020
6661 Clouds 7 1017 98 10000 3.88 254 10:21 18.10.2020
6662 Clouds 7 1017 98 10000 3.88 254 10:21 18.10.2020
6663 Clouds 6 1020 97 10000 3.88 254 09:52 18.10.2020
6664 Clouds 6 1017 99 10000 0.45 281 09:24 18.10.2020
6665 Clouds 6 1019 97 10000 3.5 253 08:58 18.10.2020
6666 Clouds 6 1016 99 10000 0.45 245 08:39 18.10.2020
6667 Clouds 6 1016 99 10000 0.45 245 08:20 18.10.2020
6668 Clouds 6 1016 95 7921 1.79 300 07:30 18.10.2020
6669 Clouds 6 1016 99 7650 2.78 256 05:33 18.10.2020
6670 Clouds 6 1016 94 10000 0.45 324 03:20 18.10.2020
6671 Clouds 7 1019 96 10000 2.22 272 01:43 18.10.2020
6672 Clouds 6 1016 99 7847 2.38 277 00:55 18.10.2020
6673 Clouds 7 1016 99 7847 2.38 277